<?xml version="1.0" encoding="UTF-8" standalone="no" ?>
<gpx xmlns="http://www.topografix.com/GPX/1/1" xmlns:xsi="http://www.w3.org/2001/XMLSchema-instance" xsi:schemaLocation="http://www.topografix.com/GPX/1/1 http://www.topografix.com/GPX/1/1/gpx.xsd" version="1.1" creator="VisuGPX - https://www.visugpx.com">
  <metadata>
    <name>La Charnaysienne 2019</name>
  </metadata>
  <trk>
    <name><![CDATA[La Charnaysienne]]></name>
    <trkseg>
      <trkpt lat="46.30743" lon="4.79308">
        <ele>229.8</ele>
        <time>2019-08-25T06:13:44Z</time>
      </trkpt>
      <trkpt lat="46.30743" lon="4.79308">
        <ele>229.8</ele>
        <time>2019-08-25T06:14:10Z</time>
      </trkpt>
      <trkpt lat="46.30745" lon="4.79306">
        <ele>229.8</ele>
        <time>2019-08-25T06:14:11Z</time>
      </trkpt>
      <trkpt lat="46.30748" lon="4.79305">
        <ele>230</ele>
        <time>2019-08-25T06:14:12Z</time>
      </trkpt>
      <trkpt lat="46.30751" lon="4.79304">
        <ele>230.1</ele>
        <time>2019-08-25T06:14:13Z</time>
      </trkpt>
      <trkpt lat="46.30754" lon="4.79302">
        <ele>230.2</ele>
        <time>2019-08-25T06:14:14Z</time>
      </trkpt>
      <trkpt lat="46.30759" lon="4.79297">
        <ele>230.4</ele>
        <time>2019-08-25T06:14:15Z</time>
      </trkpt>
      <trkpt lat="46.30762" lon="4.79295">
        <ele>230.4</ele>
        <time>2019-08-25T06:14:16Z</time>
      </trkpt>
      <trkpt lat="46.30769" lon="4.79292">
        <ele>230.6</ele>
        <time>2019-08-25T06:14:18Z</time>
      </trkpt>
      <trkpt lat="46.30776" lon="4.79284">
        <ele>230.7</ele>
        <time>2019-08-25T06:14:21Z</time>
      </trkpt>
      <trkpt lat="46.30778" lon="4.79281">
        <ele>230.7</ele>
        <time>2019-08-25T06:14:22Z</time>
      </trkpt>
      <trkpt lat="46.3079" lon="4.79258">
        <ele>230.9</ele>
        <time>2019-08-25T06:14:29Z</time>
      </trkpt>
      <trkpt lat="46.30801" lon="4.79253">
        <ele>231</ele>
        <time>2019-08-25T06:14:33Z</time>
      </trkpt>
      <trkpt lat="46.30818" lon="4.7926">
        <ele>231.9</ele>
        <time>2019-08-25T06:14:39Z</time>
      </trkpt>
      <trkpt lat="46.3085" lon="4.79271">
        <ele>232.5</ele>
        <time>2019-08-25T06:14:48Z</time>
      </trkpt>
      <trkpt lat="46.30879" lon="4.79281">
        <ele>233</ele>
        <time>2019-08-25T06:14:56Z</time>
      </trkpt>
      <trkpt lat="46.30902" lon="4.79287">
        <ele>233.4</ele>
        <time>2019-08-25T06:15:04Z</time>
      </trkpt>
      <trkpt lat="46.30903" lon="4.79285">
        <ele>233.5</ele>
        <time>2019-08-25T06:15:05Z</time>
      </trkpt>
      <trkpt lat="46.30907" lon="4.79277">
        <ele>233.5</ele>
        <time>2019-08-25T06:15:08Z</time>
      </trkpt>
      <trkpt lat="46.30912" lon="4.79265">
        <ele>234</ele>
        <time>2019-08-25T06:15:11Z</time>
      </trkpt>
      <trkpt lat="46.30915" lon="4.79259">
        <ele>234.2</ele>
        <time>2019-08-25T06:15:13Z</time>
      </trkpt>
      <trkpt lat="46.30921" lon="4.79257">
        <ele>234.5</ele>
        <time>2019-08-25T06:15:15Z</time>
      </trkpt>
      <trkpt lat="46.30926" lon="4.79259">
        <ele>234.9</ele>
        <time>2019-08-25T06:15:17Z</time>
      </trkpt>
      <trkpt lat="46.30932" lon="4.79256">
        <ele>235.3</ele>
        <time>2019-08-25T06:15:20Z</time>
      </trkpt>
      <trkpt lat="46.30932" lon="4.79254">
        <ele>235.4</ele>
        <time>2019-08-25T06:15:21Z</time>
      </trkpt>
      <trkpt lat="46.30932" lon="4.79239">
        <ele>236</ele>
        <time>2019-08-25T06:15:25Z</time>
      </trkpt>
      <trkpt lat="46.30935" lon="4.79218">
        <ele>236.8</ele>
        <time>2019-08-25T06:15:30Z</time>
      </trkpt>
      <trkpt lat="46.30936" lon="4.79215">
        <ele>237</ele>
        <time>2019-08-25T06:15:31Z</time>
      </trkpt>
      <trkpt lat="46.30945" lon="4.79199">
        <ele>238.1</ele>
        <time>2019-08-25T06:15:36Z</time>
      </trkpt>
      <trkpt lat="46.30954" lon="4.79187">
        <ele>239</ele>
        <time>2019-08-25T06:15:41Z</time>
      </trkpt>
      <trkpt lat="46.30967" lon="4.79176">
        <ele>242.3</ele>
        <time>2019-08-25T06:15:46Z</time>
      </trkpt>
      <trkpt lat="46.3097" lon="4.79175">
        <ele>242.5</ele>
        <time>2019-08-25T06:15:47Z</time>
      </trkpt>
      <trkpt lat="46.30975" lon="4.79171">
        <ele>243.3</ele>
        <time>2019-08-25T06:15:49Z</time>
      </trkpt>
      <trkpt lat="46.3098" lon="4.79165">
        <ele>244</ele>
        <time>2019-08-25T06:15:51Z</time>
      </trkpt>
      <trkpt lat="46.30981" lon="4.79161">
        <ele>244.3</ele>
        <time>2019-08-25T06:15:52Z</time>
      </trkpt>
      <trkpt lat="46.30983" lon="4.79157">
        <ele>244.6</ele>
        <time>2019-08-25T06:15:53Z</time>
      </trkpt>
      <trkpt lat="46.30986" lon="4.79148">
        <ele>245.3</ele>
        <time>2019-08-25T06:15:55Z</time>
      </trkpt>
      <trkpt lat="46.3099" lon="4.7914">
        <ele>245.9</ele>
        <time>2019-08-25T06:15:57Z</time>
      </trkpt>
      <trkpt lat="46.30995" lon="4.79133">
        <ele>246.4</ele>
        <time>2019-08-25T06:15:59Z</time>
      </trkpt>
      <trkpt lat="46.31002" lon="4.79122">
        <ele>247.1</ele>
        <time>2019-08-25T06:16:02Z</time>
      </trkpt>
      <trkpt lat="46.31008" lon="4.79118">
        <ele>247.6</ele>
        <time>2019-08-25T06:16:04Z</time>
      </trkpt>
      <trkpt lat="46.31011" lon="4.79117">
        <ele>247.8</ele>
        <time>2019-08-25T06:16:05Z</time>
      </trkpt>
      <trkpt lat="46.31014" lon="4.79116">
        <ele>248</ele>
        <time>2019-08-25T06:16:06Z</time>
      </trkpt>
      <trkpt lat="46.3102" lon="4.79113">
        <ele>249.2</ele>
        <time>2019-08-25T06:16:08Z</time>
      </trkpt>
      <trkpt lat="46.3103" lon="4.79112">
        <ele>249.6</ele>
        <time>2019-08-25T06:16:11Z</time>
      </trkpt>
      <trkpt lat="46.31032" lon="4.79113">
        <ele>249.9</ele>
        <time>2019-08-25T06:16:12Z</time>
      </trkpt>
      <trkpt lat="46.31043" lon="4.79108">
        <ele>250.8</ele>
        <time>2019-08-25T06:16:16Z</time>
      </trkpt>
      <trkpt lat="46.3105" lon="4.79095">
        <ele>253.9</ele>
        <time>2019-08-25T06:16:21Z</time>
      </trkpt>
      <trkpt lat="46.31052" lon="4.79091">
        <ele>254.7</ele>
        <time>2019-08-25T06:16:23Z</time>
      </trkpt>
      <trkpt lat="46.31052" lon="4.79083">
        <ele>255.6</ele>
        <time>2019-08-25T06:16:25Z</time>
      </trkpt>
      <trkpt lat="46.31052" lon="4.79079">
        <ele>256</ele>
        <time>2019-08-25T06:16:26Z</time>
      </trkpt>
      <trkpt lat="46.31054" lon="4.79068">
        <ele>256.2</ele>
        <time>2019-08-25T06:16:29Z</time>
      </trkpt>
      <trkpt lat="46.31057" lon="4.79055">
        <ele>255.5</ele>
        <time>2019-08-25T06:16:32Z</time>
      </trkpt>
      <trkpt lat="46.3106" lon="4.79046">
        <ele>254.9</ele>
        <time>2019-08-25T06:16:34Z</time>
      </trkpt>
      <trkpt lat="46.31066" lon="4.7903">
        <ele>252.9</ele>
        <time>2019-08-25T06:16:38Z</time>
      </trkpt>
      <trkpt lat="46.3108" lon="4.79005">
        <ele>253.3</ele>
        <time>2019-08-25T06:16:44Z</time>
      </trkpt>
      <trkpt lat="46.31082" lon="4.79001">
        <ele>253.4</ele>
        <time>2019-08-25T06:16:45Z</time>
      </trkpt>
      <trkpt lat="46.31093" lon="4.78988">
        <ele>254</ele>
        <time>2019-08-25T06:16:49Z</time>
      </trkpt>
      <trkpt lat="46.311" lon="4.78983">
        <ele>254.4</ele>
        <time>2019-08-25T06:16:51Z</time>
      </trkpt>
      <trkpt lat="46.31108" lon="4.78975">
        <ele>255</ele>
        <time>2019-08-25T06:16:54Z</time>
      </trkpt>
      <trkpt lat="46.31122" lon="4.78962">
        <ele>255.9</ele>
        <time>2019-08-25T06:16:59Z</time>
      </trkpt>
      <trkpt lat="46.31129" lon="4.78958">
        <ele>256.3</ele>
        <time>2019-08-25T06:17:01Z</time>
      </trkpt>
      <trkpt lat="46.31138" lon="4.78944">
        <ele>256.9</ele>
        <time>2019-08-25T06:17:05Z</time>
      </trkpt>
      <trkpt lat="46.31141" lon="4.78936">
        <ele>257.2</ele>
        <time>2019-08-25T06:17:07Z</time>
      </trkpt>
      <trkpt lat="46.31148" lon="4.78919">
        <ele>257.9</ele>
        <time>2019-08-25T06:17:11Z</time>
      </trkpt>
      <trkpt lat="46.31151" lon="4.7891">
        <ele>258.2</ele>
        <time>2019-08-25T06:17:13Z</time>
      </trkpt>
      <trkpt lat="46.31159" lon="4.7889">
        <ele>258.9</ele>
        <time>2019-08-25T06:17:18Z</time>
      </trkpt>
      <trkpt lat="46.31167" lon="4.78866">
        <ele>259.7</ele>
        <time>2019-08-25T06:17:24Z</time>
      </trkpt>
      <trkpt lat="46.3117" lon="4.78857">
        <ele>260</ele>
        <time>2019-08-25T06:17:26Z</time>
      </trkpt>
      <trkpt lat="46.31172" lon="4.78848">
        <ele>260.2</ele>
        <time>2019-08-25T06:17:28Z</time>
      </trkpt>
      <trkpt lat="46.31179" lon="4.78827">
        <ele>260.9</ele>
        <time>2019-08-25T06:17:33Z</time>
      </trkpt>
      <trkpt lat="46.31184" lon="4.7881">
        <ele>261.3</ele>
        <time>2019-08-25T06:17:37Z</time>
      </trkpt>
      <trkpt lat="46.31185" lon="4.78797">
        <ele>261.6</ele>
        <time>2019-08-25T06:17:40Z</time>
      </trkpt>
      <trkpt lat="46.31182" lon="4.7878">
        <ele>261.9</ele>
        <time>2019-08-25T06:17:44Z</time>
      </trkpt>
      <trkpt lat="46.31181" lon="4.78776">
        <ele>262</ele>
        <time>2019-08-25T06:17:45Z</time>
      </trkpt>
      <trkpt lat="46.3118" lon="4.78771">
        <ele>262.1</ele>
        <time>2019-08-25T06:17:46Z</time>
      </trkpt>
      <trkpt lat="46.31179" lon="4.78764">
        <ele>262.2</ele>
        <time>2019-08-25T06:17:48Z</time>
      </trkpt>
      <trkpt lat="46.31178" lon="4.78757">
        <ele>262.3</ele>
        <time>2019-08-25T06:17:50Z</time>
      </trkpt>
      <trkpt lat="46.31178" lon="4.78754">
        <ele>262.4</ele>
        <time>2019-08-25T06:17:51Z</time>
      </trkpt>
      <trkpt lat="46.31179" lon="4.78746">
        <ele>262.5</ele>
        <time>2019-08-25T06:17:53Z</time>
      </trkpt>
      <trkpt lat="46.31178" lon="4.78736">
        <ele>262.6</ele>
        <time>2019-08-25T06:17:55Z</time>
      </trkpt>
      <trkpt lat="46.31181" lon="4.78717">
        <ele>262.9</ele>
        <time>2019-08-25T06:17:58Z</time>
      </trkpt>
      <trkpt lat="46.31181" lon="4.7871">
        <ele>263</ele>
        <time>2019-08-25T06:17:59Z</time>
      </trkpt>
      <trkpt lat="46.31181" lon="4.78704">
        <ele>263.1</ele>
        <time>2019-08-25T06:18:00Z</time>
      </trkpt>
      <trkpt lat="46.3118" lon="4.78677">
        <ele>263.5</ele>
        <time>2019-08-25T06:18:05Z</time>
      </trkpt>
      <trkpt lat="46.31187" lon="4.78651">
        <ele>263.3</ele>
        <time>2019-08-25T06:18:11Z</time>
      </trkpt>
      <trkpt lat="46.31193" lon="4.78636">
        <ele>262.9</ele>
        <time>2019-08-25T06:18:14Z</time>
      </trkpt>
      <trkpt lat="46.31203" lon="4.78616">
        <ele>262.3</ele>
        <time>2019-08-25T06:18:18Z</time>
      </trkpt>
      <trkpt lat="46.31219" lon="4.7858">
        <ele>261.5</ele>
        <time>2019-08-25T06:18:24Z</time>
      </trkpt>
      <trkpt lat="46.31225" lon="4.7857">
        <ele>261.4</ele>
        <time>2019-08-25T06:18:26Z</time>
      </trkpt>
      <trkpt lat="46.31234" lon="4.78571">
        <ele>261.5</ele>
        <time>2019-08-25T06:18:28Z</time>
      </trkpt>
      <trkpt lat="46.31252" lon="4.78574">
        <ele>262</ele>
        <time>2019-08-25T06:18:32Z</time>
      </trkpt>
      <trkpt lat="46.31261" lon="4.78575">
        <ele>262.4</ele>
        <time>2019-08-25T06:18:34Z</time>
      </trkpt>
      <trkpt lat="46.31265" lon="4.78578">
        <ele>262.6</ele>
        <time>2019-08-25T06:18:35Z</time>
      </trkpt>
      <trkpt lat="46.31271" lon="4.78586">
        <ele>263.5</ele>
        <time>2019-08-25T06:18:37Z</time>
      </trkpt>
      <trkpt lat="46.31275" lon="4.7859">
        <ele>263.6</ele>
        <time>2019-08-25T06:18:38Z</time>
      </trkpt>
      <trkpt lat="46.31286" lon="4.78592">
        <ele>263.8</ele>
        <time>2019-08-25T06:18:41Z</time>
      </trkpt>
      <trkpt lat="46.31306" lon="4.78581">
        <ele>264.9</ele>
        <time>2019-08-25T06:18:46Z</time>
      </trkpt>
      <trkpt lat="46.31309" lon="4.7858">
        <ele>265.1</ele>
        <time>2019-08-25T06:18:47Z</time>
      </trkpt>
      <trkpt lat="46.31322" lon="4.78581">
        <ele>265.9</ele>
        <time>2019-08-25T06:18:51Z</time>
      </trkpt>
      <trkpt lat="46.31334" lon="4.78591">
        <ele>266</ele>
        <time>2019-08-25T06:18:55Z</time>
      </trkpt>
      <trkpt lat="46.31351" lon="4.7861">
        <ele>265.3</ele>
        <time>2019-08-25T06:19:01Z</time>
      </trkpt>
      <trkpt lat="46.31353" lon="4.78616">
        <ele>265.2</ele>
        <time>2019-08-25T06:19:02Z</time>
      </trkpt>
      <trkpt lat="46.31358" lon="4.78634">
        <ele>264.8</ele>
        <time>2019-08-25T06:19:05Z</time>
      </trkpt>
      <trkpt lat="46.31361" lon="4.78657">
        <ele>264.4</ele>
        <time>2019-08-25T06:19:08Z</time>
      </trkpt>
      <trkpt lat="46.31334" lon="4.78712">
        <ele>263.3</ele>
        <time>2019-08-25T06:19:11Z</time>
      </trkpt>
      <trkpt lat="46.31308" lon="4.78776">
        <ele>261.9</ele>
        <time>2019-08-25T06:19:16Z</time>
      </trkpt>
      <trkpt lat="46.31298" lon="4.78835">
        <ele>260.5</ele>
        <time>2019-08-25T06:19:22Z</time>
      </trkpt>
      <trkpt lat="46.31292" lon="4.78863">
        <ele>260.1</ele>
        <time>2019-08-25T06:19:25Z</time>
      </trkpt>
      <trkpt lat="46.31282" lon="4.78907">
        <ele>259.3</ele>
        <time>2019-08-25T06:19:30Z</time>
      </trkpt>
      <trkpt lat="46.31278" lon="4.78921">
        <ele>259</ele>
        <time>2019-08-25T06:19:32Z</time>
      </trkpt>
      <trkpt lat="46.31282" lon="4.78933">
        <ele>258.7</ele>
        <time>2019-08-25T06:19:34Z</time>
      </trkpt>
      <trkpt lat="46.31293" lon="4.78945">
        <ele>258.7</ele>
        <time>2019-08-25T06:19:37Z</time>
      </trkpt>
      <trkpt lat="46.31297" lon="4.78949">
        <ele>258.6</ele>
        <time>2019-08-25T06:19:38Z</time>
      </trkpt>
      <trkpt lat="46.31307" lon="4.78957">
        <ele>258.6</ele>
        <time>2019-08-25T06:19:40Z</time>
      </trkpt>
      <trkpt lat="46.31328" lon="4.78972">
        <ele>258.5</ele>
        <time>2019-08-25T06:19:44Z</time>
      </trkpt>
      <trkpt lat="46.3135" lon="4.78987">
        <ele>258.5</ele>
        <time>2019-08-25T06:19:48Z</time>
      </trkpt>
      <trkpt lat="46.31381" lon="4.79007">
        <ele>258.4</ele>
        <time>2019-08-25T06:19:54Z</time>
      </trkpt>
      <trkpt lat="46.31436" lon="4.79037">
        <ele>258.2</ele>
        <time>2019-08-25T06:20:04Z</time>
      </trkpt>
      <trkpt lat="46.31476" lon="4.79045">
        <ele>258.6</ele>
        <time>2019-08-25T06:20:11Z</time>
      </trkpt>
      <trkpt lat="46.31517" lon="4.79055">
        <ele>259.2</ele>
        <time>2019-08-25T06:20:19Z</time>
      </trkpt>
      <trkpt lat="46.31532" lon="4.79058">
        <ele>259.3</ele>
        <time>2019-08-25T06:20:22Z</time>
      </trkpt>
      <trkpt lat="46.31552" lon="4.79063">
        <ele>259.5</ele>
        <time>2019-08-25T06:20:26Z</time>
      </trkpt>
      <trkpt lat="46.31556" lon="4.79068">
        <ele>259.5</ele>
        <time>2019-08-25T06:20:27Z</time>
      </trkpt>
      <trkpt lat="46.31561" lon="4.79092">
        <ele>257.4</ele>
        <time>2019-08-25T06:20:30Z</time>
      </trkpt>
      <trkpt lat="46.31561" lon="4.79119">
        <ele>255.9</ele>
        <time>2019-08-25T06:20:33Z</time>
      </trkpt>
      <trkpt lat="46.3156" lon="4.79139">
        <ele>255</ele>
        <time>2019-08-25T06:20:35Z</time>
      </trkpt>
      <trkpt lat="46.31561" lon="4.79157">
        <ele>254.1</ele>
        <time>2019-08-25T06:20:37Z</time>
      </trkpt>
      <trkpt lat="46.31564" lon="4.7917">
        <ele>253.6</ele>
        <time>2019-08-25T06:20:39Z</time>
      </trkpt>
      <trkpt lat="46.31565" lon="4.79176">
        <ele>253.4</ele>
        <time>2019-08-25T06:20:40Z</time>
      </trkpt>
      <trkpt lat="46.31571" lon="4.79187">
        <ele>253.2</ele>
        <time>2019-08-25T06:20:43Z</time>
      </trkpt>
      <trkpt lat="46.31578" lon="4.79184">
        <ele>253.2</ele>
        <time>2019-08-25T06:20:44Z</time>
      </trkpt>
      <trkpt lat="46.31585" lon="4.79182">
        <ele>253.2</ele>
        <time>2019-08-25T06:20:45Z</time>
      </trkpt>
      <trkpt lat="46.31599" lon="4.79177">
        <ele>253.2</ele>
        <time>2019-08-25T06:20:47Z</time>
      </trkpt>
      <trkpt lat="46.31626" lon="4.79174">
        <ele>252.7</ele>
        <time>2019-08-25T06:20:51Z</time>
      </trkpt>
      <trkpt lat="46.31663" lon="4.79168">
        <ele>250.8</ele>
        <time>2019-08-25T06:20:56Z</time>
      </trkpt>
      <trkpt lat="46.31699" lon="4.79166">
        <ele>249.3</ele>
        <time>2019-08-25T06:21:00Z</time>
      </trkpt>
      <trkpt lat="46.31715" lon="4.79171">
        <ele>248.9</ele>
        <time>2019-08-25T06:21:02Z</time>
      </trkpt>
      <trkpt lat="46.31721" lon="4.79175">
        <ele>248.7</ele>
        <time>2019-08-25T06:21:03Z</time>
      </trkpt>
      <trkpt lat="46.31728" lon="4.79175">
        <ele>248.6</ele>
        <time>2019-08-25T06:21:04Z</time>
      </trkpt>
      <trkpt lat="46.31734" lon="4.79175">
        <ele>248.5</ele>
        <time>2019-08-25T06:21:05Z</time>
      </trkpt>
      <trkpt lat="46.3174" lon="4.7917">
        <ele>248.6</ele>
        <time>2019-08-25T06:21:06Z</time>
      </trkpt>
      <trkpt lat="46.31755" lon="4.79154">
        <ele>249.2</ele>
        <time>2019-08-25T06:21:09Z</time>
      </trkpt>
      <trkpt lat="46.3176" lon="4.79147">
        <ele>249.5</ele>
        <time>2019-08-25T06:21:10Z</time>
      </trkpt>
      <trkpt lat="46.31771" lon="4.79125">
        <ele>250.1</ele>
        <time>2019-08-25T06:21:13Z</time>
      </trkpt>
      <trkpt lat="46.31779" lon="4.79103">
        <ele>250.5</ele>
        <time>2019-08-25T06:21:16Z</time>
      </trkpt>
      <trkpt lat="46.31792" lon="4.79046">
        <ele>252.6</ele>
        <time>2019-08-25T06:21:24Z</time>
      </trkpt>
      <trkpt lat="46.31797" lon="4.79002">
        <ele>254.5</ele>
        <time>2019-08-25T06:21:31Z</time>
      </trkpt>
      <trkpt lat="46.31807" lon="4.7898">
        <ele>255.6</ele>
        <time>2019-08-25T06:21:36Z</time>
      </trkpt>
      <trkpt lat="46.31823" lon="4.78972">
        <ele>256.4</ele>
        <time>2019-08-25T06:21:41Z</time>
      </trkpt>
      <trkpt lat="46.31836" lon="4.78967">
        <ele>257</ele>
        <time>2019-08-25T06:21:46Z</time>
      </trkpt>
      <trkpt lat="46.31846" lon="4.78963">
        <ele>257.4</ele>
        <time>2019-08-25T06:21:50Z</time>
      </trkpt>
      <trkpt lat="46.31859" lon="4.78958">
        <ele>257.9</ele>
        <time>2019-08-25T06:21:55Z</time>
      </trkpt>
      <trkpt lat="46.31868" lon="4.78954">
        <ele>258.3</ele>
        <time>2019-08-25T06:21:59Z</time>
      </trkpt>
      <trkpt lat="46.31876" lon="4.78952">
        <ele>258.6</ele>
        <time>2019-08-25T06:22:02Z</time>
      </trkpt>
      <trkpt lat="46.31883" lon="4.7895">
        <ele>258.9</ele>
        <time>2019-08-25T06:22:05Z</time>
      </trkpt>
      <trkpt lat="46.31888" lon="4.78949">
        <ele>259.1</ele>
        <time>2019-08-25T06:22:07Z</time>
      </trkpt>
      <trkpt lat="46.31894" lon="4.78949">
        <ele>259.4</ele>
        <time>2019-08-25T06:22:09Z</time>
      </trkpt>
      <trkpt lat="46.3191" lon="4.78949">
        <ele>260.3</ele>
        <time>2019-08-25T06:22:15Z</time>
      </trkpt>
      <trkpt lat="46.31927" lon="4.78948">
        <ele>261</ele>
        <time>2019-08-25T06:22:21Z</time>
      </trkpt>
      <trkpt lat="46.31939" lon="4.7895">
        <ele>261.6</ele>
        <time>2019-08-25T06:22:25Z</time>
      </trkpt>
      <trkpt lat="46.31967" lon="4.78951">
        <ele>262.8</ele>
        <time>2019-08-25T06:22:34Z</time>
      </trkpt>
      <trkpt lat="46.31976" lon="4.78951">
        <ele>263.2</ele>
        <time>2019-08-25T06:22:37Z</time>
      </trkpt>
      <trkpt lat="46.31988" lon="4.78949">
        <ele>263.7</ele>
        <time>2019-08-25T06:22:41Z</time>
      </trkpt>
      <trkpt lat="46.32011" lon="4.78949">
        <ele>265</ele>
        <time>2019-08-25T06:22:49Z</time>
      </trkpt>
      <trkpt lat="46.32023" lon="4.78949">
        <ele>265.6</ele>
        <time>2019-08-25T06:22:53Z</time>
      </trkpt>
      <trkpt lat="46.32035" lon="4.78949">
        <ele>266.3</ele>
        <time>2019-08-25T06:22:57Z</time>
      </trkpt>
      <trkpt lat="46.32038" lon="4.78949">
        <ele>266.4</ele>
        <time>2019-08-25T06:22:58Z</time>
      </trkpt>
      <trkpt lat="46.32056" lon="4.78947">
        <ele>267.5</ele>
        <time>2019-08-25T06:23:05Z</time>
      </trkpt>
      <trkpt lat="46.32062" lon="4.78946">
        <ele>267.8</ele>
        <time>2019-08-25T06:23:07Z</time>
      </trkpt>
      <trkpt lat="46.32072" lon="4.78945">
        <ele>268.4</ele>
        <time>2019-08-25T06:23:11Z</time>
      </trkpt>
      <trkpt lat="46.32079" lon="4.78944">
        <ele>269</ele>
        <time>2019-08-25T06:23:14Z</time>
      </trkpt>
      <trkpt lat="46.32091" lon="4.78944">
        <ele>269.8</ele>
        <time>2019-08-25T06:23:18Z</time>
      </trkpt>
      <trkpt lat="46.32094" lon="4.78944">
        <ele>270</ele>
        <time>2019-08-25T06:23:19Z</time>
      </trkpt>
      <trkpt lat="46.321" lon="4.78944">
        <ele>270.4</ele>
        <time>2019-08-25T06:23:22Z</time>
      </trkpt>
      <trkpt lat="46.32103" lon="4.78943">
        <ele>270.6</ele>
        <time>2019-08-25T06:23:24Z</time>
      </trkpt>
      <trkpt lat="46.32112" lon="4.78942">
        <ele>271.3</ele>
        <time>2019-08-25T06:23:28Z</time>
      </trkpt>
      <trkpt lat="46.32119" lon="4.78941">
        <ele>271.7</ele>
        <time>2019-08-25T06:23:31Z</time>
      </trkpt>
      <trkpt lat="46.32127" lon="4.7894">
        <ele>272.3</ele>
        <time>2019-08-25T06:23:35Z</time>
      </trkpt>
      <trkpt lat="46.32136" lon="4.78941">
        <ele>272.8</ele>
        <time>2019-08-25T06:23:39Z</time>
      </trkpt>
      <trkpt lat="46.32149" lon="4.78942">
        <ele>273.6</ele>
        <time>2019-08-25T06:23:45Z</time>
      </trkpt>
      <trkpt lat="46.32159" lon="4.78943">
        <ele>274.1</ele>
        <time>2019-08-25T06:23:50Z</time>
      </trkpt>
      <trkpt lat="46.32167" lon="4.78944">
        <ele>274.6</ele>
        <time>2019-08-25T06:23:53Z</time>
      </trkpt>
      <trkpt lat="46.32182" lon="4.78945">
        <ele>275.2</ele>
        <time>2019-08-25T06:23:59Z</time>
      </trkpt>
      <trkpt lat="46.32185" lon="4.78945">
        <ele>275.3</ele>
        <time>2019-08-25T06:24:00Z</time>
      </trkpt>
      <trkpt lat="46.32198" lon="4.78947">
        <ele>275.7</ele>
        <time>2019-08-25T06:24:05Z</time>
      </trkpt>
      <trkpt lat="46.322" lon="4.78947">
        <ele>275.8</ele>
        <time>2019-08-25T06:24:06Z</time>
      </trkpt>
      <trkpt lat="46.32217" lon="4.78951">
        <ele>276.3</ele>
        <time>2019-08-25T06:24:13Z</time>
      </trkpt>
      <trkpt lat="46.3222" lon="4.78951">
        <ele>276.3</ele>
        <time>2019-08-25T06:24:14Z</time>
      </trkpt>
      <trkpt lat="46.32244" lon="4.78956">
        <ele>276.9</ele>
        <time>2019-08-25T06:24:22Z</time>
      </trkpt>
      <trkpt lat="46.32267" lon="4.78956">
        <ele>278.1</ele>
        <time>2019-08-25T06:24:30Z</time>
      </trkpt>
      <trkpt lat="46.32279" lon="4.78957">
        <ele>278.9</ele>
        <time>2019-08-25T06:24:34Z</time>
      </trkpt>
      <trkpt lat="46.32288" lon="4.78957">
        <ele>279.5</ele>
        <time>2019-08-25T06:24:37Z</time>
      </trkpt>
      <trkpt lat="46.32301" lon="4.78958">
        <ele>280.3</ele>
        <time>2019-08-25T06:24:41Z</time>
      </trkpt>
      <trkpt lat="46.32314" lon="4.7896">
        <ele>281.1</ele>
        <time>2019-08-25T06:24:45Z</time>
      </trkpt>
      <trkpt lat="46.3234" lon="4.78965">
        <ele>282.5</ele>
        <time>2019-08-25T06:24:53Z</time>
      </trkpt>
      <trkpt lat="46.32357" lon="4.78967">
        <ele>283.3</ele>
        <time>2019-08-25T06:24:58Z</time>
      </trkpt>
      <trkpt lat="46.32371" lon="4.78971">
        <ele>284</ele>
        <time>2019-08-25T06:25:02Z</time>
      </trkpt>
      <trkpt lat="46.32404" lon="4.78977">
        <ele>285.8</ele>
        <time>2019-08-25T06:25:11Z</time>
      </trkpt>
      <trkpt lat="46.3241" lon="4.78976">
        <ele>286.1</ele>
        <time>2019-08-25T06:25:13Z</time>
      </trkpt>
      <trkpt lat="46.32423" lon="4.78974">
        <ele>287</ele>
        <time>2019-08-25T06:25:17Z</time>
      </trkpt>
      <trkpt lat="46.32426" lon="4.78973">
        <ele>287.4</ele>
        <time>2019-08-25T06:25:18Z</time>
      </trkpt>
      <trkpt lat="46.32435" lon="4.78971">
        <ele>288.2</ele>
        <time>2019-08-25T06:25:21Z</time>
      </trkpt>
      <trkpt lat="46.32444" lon="4.78969">
        <ele>289</ele>
        <time>2019-08-25T06:25:24Z</time>
      </trkpt>
      <trkpt lat="46.32451" lon="4.78969">
        <ele>289.6</ele>
        <time>2019-08-25T06:25:26Z</time>
      </trkpt>
      <trkpt lat="46.32465" lon="4.78968">
        <ele>290.4</ele>
        <time>2019-08-25T06:25:30Z</time>
      </trkpt>
      <trkpt lat="46.32474" lon="4.78968">
        <ele>291</ele>
        <time>2019-08-25T06:25:33Z</time>
      </trkpt>
      <trkpt lat="46.32483" lon="4.78969">
        <ele>291.6</ele>
        <time>2019-08-25T06:25:36Z</time>
      </trkpt>
      <trkpt lat="46.3249" lon="4.7897">
        <ele>292</ele>
        <time>2019-08-25T06:25:38Z</time>
      </trkpt>
      <trkpt lat="46.32513" lon="4.78972">
        <ele>293.3</ele>
        <time>2019-08-25T06:25:45Z</time>
      </trkpt>
      <trkpt lat="46.32523" lon="4.78973">
        <ele>293.7</ele>
        <time>2019-08-25T06:25:48Z</time>
      </trkpt>
      <trkpt lat="46.32537" lon="4.78973">
        <ele>294.4</ele>
        <time>2019-08-25T06:25:52Z</time>
      </trkpt>
      <trkpt lat="46.3256" lon="4.78975">
        <ele>295.5</ele>
        <time>2019-08-25T06:25:59Z</time>
      </trkpt>
      <trkpt lat="46.32564" lon="4.78976">
        <ele>295.6</ele>
        <time>2019-08-25T06:26:00Z</time>
      </trkpt>
      <trkpt lat="46.3259" lon="4.78979">
        <ele>296.5</ele>
        <time>2019-08-25T06:26:08Z</time>
      </trkpt>
      <trkpt lat="46.32593" lon="4.7898">
        <ele>296.6</ele>
        <time>2019-08-25T06:26:09Z</time>
      </trkpt>
      <trkpt lat="46.32612" lon="4.78983">
        <ele>297.2</ele>
        <time>2019-08-25T06:26:14Z</time>
      </trkpt>
      <trkpt lat="46.32619" lon="4.78984">
        <ele>297.4</ele>
        <time>2019-08-25T06:26:16Z</time>
      </trkpt>
      <trkpt lat="46.32634" lon="4.78985">
        <ele>297.7</ele>
        <time>2019-08-25T06:26:20Z</time>
      </trkpt>
      <trkpt lat="46.32642" lon="4.78985">
        <ele>298</ele>
        <time>2019-08-25T06:26:22Z</time>
      </trkpt>
      <trkpt lat="46.32662" lon="4.78981">
        <ele>298.8</ele>
        <time>2019-08-25T06:26:27Z</time>
      </trkpt>
      <trkpt lat="46.32665" lon="4.78979">
        <ele>299</ele>
        <time>2019-08-25T06:26:28Z</time>
      </trkpt>
      <trkpt lat="46.32679" lon="4.78969">
        <ele>299.9</ele>
        <time>2019-08-25T06:26:32Z</time>
      </trkpt>
      <trkpt lat="46.32683" lon="4.78961">
        <ele>300.7</ele>
        <time>2019-08-25T06:26:34Z</time>
      </trkpt>
      <trkpt lat="46.32684" lon="4.78956">
        <ele>300.8</ele>
        <time>2019-08-25T06:26:35Z</time>
      </trkpt>
      <trkpt lat="46.32687" lon="4.78934">
        <ele>301.5</ele>
        <time>2019-08-25T06:26:39Z</time>
      </trkpt>
      <trkpt lat="46.32688" lon="4.78929">
        <ele>301.6</ele>
        <time>2019-08-25T06:26:40Z</time>
      </trkpt>
      <trkpt lat="46.32691" lon="4.78899">
        <ele>303</ele>
        <time>2019-08-25T06:26:46Z</time>
      </trkpt>
      <trkpt lat="46.32692" lon="4.78889">
        <ele>303.5</ele>
        <time>2019-08-25T06:26:48Z</time>
      </trkpt>
      <trkpt lat="46.32694" lon="4.78865">
        <ele>304.7</ele>
        <time>2019-08-25T06:26:53Z</time>
      </trkpt>
      <trkpt lat="46.32697" lon="4.78841">
        <ele>305.7</ele>
        <time>2019-08-25T06:26:58Z</time>
      </trkpt>
      <trkpt lat="46.327" lon="4.78823">
        <ele>306.4</ele>
        <time>2019-08-25T06:27:02Z</time>
      </trkpt>
      <trkpt lat="46.32702" lon="4.78809">
        <ele>306.9</ele>
        <time>2019-08-25T06:27:05Z</time>
      </trkpt>
      <trkpt lat="46.32705" lon="4.78779">
        <ele>308.4</ele>
        <time>2019-08-25T06:27:11Z</time>
      </trkpt>
      <trkpt lat="46.32707" lon="4.78768">
        <ele>308.9</ele>
        <time>2019-08-25T06:27:13Z</time>
      </trkpt>
      <trkpt lat="46.32708" lon="4.78729">
        <ele>310.5</ele>
        <time>2019-08-25T06:27:21Z</time>
      </trkpt>
      <trkpt lat="46.32709" lon="4.78694">
        <ele>312</ele>
        <time>2019-08-25T06:27:28Z</time>
      </trkpt>
      <trkpt lat="46.32711" lon="4.78683">
        <ele>312.4</ele>
        <time>2019-08-25T06:27:30Z</time>
      </trkpt>
      <trkpt lat="46.32718" lon="4.78659">
        <ele>313.3</ele>
        <time>2019-08-25T06:27:35Z</time>
      </trkpt>
      <trkpt lat="46.32723" lon="4.78616">
        <ele>314.8</ele>
        <time>2019-08-25T06:27:43Z</time>
      </trkpt>
      <trkpt lat="46.32724" lon="4.78611">
        <ele>315</ele>
        <time>2019-08-25T06:27:44Z</time>
      </trkpt>
      <trkpt lat="46.32727" lon="4.78589">
        <ele>315.6</ele>
        <time>2019-08-25T06:27:48Z</time>
      </trkpt>
      <trkpt lat="46.3273" lon="4.78564">
        <ele>316.2</ele>
        <time>2019-08-25T06:27:53Z</time>
      </trkpt>
      <trkpt lat="46.32732" lon="4.78548">
        <ele>316.3</ele>
        <time>2019-08-25T06:27:56Z</time>
      </trkpt>
      <trkpt lat="46.32736" lon="4.78517">
        <ele>316.2</ele>
        <time>2019-08-25T06:28:02Z</time>
      </trkpt>
      <trkpt lat="46.32741" lon="4.78475">
        <ele>315.3</ele>
        <time>2019-08-25T06:28:08Z</time>
      </trkpt>
      <trkpt lat="46.32745" lon="4.7843">
        <ele>313.6</ele>
        <time>2019-08-25T06:28:13Z</time>
      </trkpt>
      <trkpt lat="46.32746" lon="4.78419">
        <ele>313.2</ele>
        <time>2019-08-25T06:28:14Z</time>
      </trkpt>
      <trkpt lat="46.32747" lon="4.78408">
        <ele>312.5</ele>
        <time>2019-08-25T06:28:15Z</time>
      </trkpt>
      <trkpt lat="46.3275" lon="4.78398">
        <ele>312.2</ele>
        <time>2019-08-25T06:28:16Z</time>
      </trkpt>
      <trkpt lat="46.32753" lon="4.78376">
        <ele>310</ele>
        <time>2019-08-25T06:28:18Z</time>
      </trkpt>
      <trkpt lat="46.32754" lon="4.78366">
        <ele>309.4</ele>
        <time>2019-08-25T06:28:19Z</time>
      </trkpt>
      <trkpt lat="46.32755" lon="4.78355">
        <ele>308.8</ele>
        <time>2019-08-25T06:28:20Z</time>
      </trkpt>
      <trkpt lat="46.32755" lon="4.78344">
        <ele>308.5</ele>
        <time>2019-08-25T06:28:21Z</time>
      </trkpt>
      <trkpt lat="46.32753" lon="4.78325">
        <ele>307.9</ele>
        <time>2019-08-25T06:28:23Z</time>
      </trkpt>
      <trkpt lat="46.32752" lon="4.78315">
        <ele>307.8</ele>
        <time>2019-08-25T06:28:24Z</time>
      </trkpt>
      <trkpt lat="46.32744" lon="4.78268">
        <ele>307.4</ele>
        <time>2019-08-25T06:28:29Z</time>
      </trkpt>
      <trkpt lat="46.32737" lon="4.78228">
        <ele>306.8</ele>
        <time>2019-08-25T06:28:34Z</time>
      </trkpt>
      <trkpt lat="46.32735" lon="4.7822">
        <ele>306.6</ele>
        <time>2019-08-25T06:28:35Z</time>
      </trkpt>
      <trkpt lat="46.32731" lon="4.78195">
        <ele>306.1</ele>
        <time>2019-08-25T06:28:38Z</time>
      </trkpt>
      <trkpt lat="46.32729" lon="4.78186">
        <ele>306</ele>
        <time>2019-08-25T06:28:39Z</time>
      </trkpt>
      <trkpt lat="46.32727" lon="4.78177">
        <ele>305.8</ele>
        <time>2019-08-25T06:28:40Z</time>
      </trkpt>
      <trkpt lat="46.32722" lon="4.78159">
        <ele>305.4</ele>
        <time>2019-08-25T06:28:42Z</time>
      </trkpt>
      <trkpt lat="46.32719" lon="4.78149">
        <ele>304.8</ele>
        <time>2019-08-25T06:28:43Z</time>
      </trkpt>
      <trkpt lat="46.32715" lon="4.7813">
        <ele>303.5</ele>
        <time>2019-08-25T06:28:45Z</time>
      </trkpt>
      <trkpt lat="46.32709" lon="4.78098">
        <ele>300.7</ele>
        <time>2019-08-25T06:28:48Z</time>
      </trkpt>
      <trkpt lat="46.3271" lon="4.78076">
        <ele>299.3</ele>
        <time>2019-08-25T06:28:50Z</time>
      </trkpt>
      <trkpt lat="46.32712" lon="4.78054">
        <ele>297.9</ele>
        <time>2019-08-25T06:28:52Z</time>
      </trkpt>
      <trkpt lat="46.32721" lon="4.78013">
        <ele>295.5</ele>
        <time>2019-08-25T06:28:56Z</time>
      </trkpt>
      <trkpt lat="46.32729" lon="4.78">
        <ele>294.2</ele>
        <time>2019-08-25T06:28:58Z</time>
      </trkpt>
      <trkpt lat="46.32735" lon="4.77994">
        <ele>293.5</ele>
        <time>2019-08-25T06:28:59Z</time>
      </trkpt>
      <trkpt lat="46.32752" lon="4.77983">
        <ele>291.4</ele>
        <time>2019-08-25T06:29:02Z</time>
      </trkpt>
      <trkpt lat="46.32758" lon="4.7798">
        <ele>290.6</ele>
        <time>2019-08-25T06:29:03Z</time>
      </trkpt>
      <trkpt lat="46.32772" lon="4.77972">
        <ele>289.3</ele>
        <time>2019-08-25T06:29:05Z</time>
      </trkpt>
      <trkpt lat="46.32793" lon="4.77962">
        <ele>287.2</ele>
        <time>2019-08-25T06:29:08Z</time>
      </trkpt>
      <trkpt lat="46.32812" lon="4.77956">
        <ele>285.1</ele>
        <time>2019-08-25T06:29:11Z</time>
      </trkpt>
      <trkpt lat="46.32817" lon="4.77953">
        <ele>284.2</ele>
        <time>2019-08-25T06:29:12Z</time>
      </trkpt>
      <trkpt lat="46.32822" lon="4.77951">
        <ele>283.6</ele>
        <time>2019-08-25T06:29:13Z</time>
      </trkpt>
      <trkpt lat="46.32834" lon="4.77947">
        <ele>282.6</ele>
        <time>2019-08-25T06:29:15Z</time>
      </trkpt>
      <trkpt lat="46.32847" lon="4.77946">
        <ele>281.6</ele>
        <time>2019-08-25T06:29:17Z</time>
      </trkpt>
      <trkpt lat="46.32863" lon="4.77946">
        <ele>280.6</ele>
        <time>2019-08-25T06:29:19Z</time>
      </trkpt>
      <trkpt lat="46.32879" lon="4.77943">
        <ele>279.5</ele>
        <time>2019-08-25T06:29:21Z</time>
      </trkpt>
      <trkpt lat="46.32887" lon="4.77942">
        <ele>279</ele>
        <time>2019-08-25T06:29:22Z</time>
      </trkpt>
      <trkpt lat="46.32896" lon="4.77941">
        <ele>278.6</ele>
        <time>2019-08-25T06:29:23Z</time>
      </trkpt>
      <trkpt lat="46.32915" lon="4.77939">
        <ele>277.8</ele>
        <time>2019-08-25T06:29:25Z</time>
      </trkpt>
      <trkpt lat="46.32924" lon="4.77938">
        <ele>277.5</ele>
        <time>2019-08-25T06:29:26Z</time>
      </trkpt>
      <trkpt lat="46.32934" lon="4.77938">
        <ele>277.3</ele>
        <time>2019-08-25T06:29:27Z</time>
      </trkpt>
      <trkpt lat="46.32951" lon="4.77942">
        <ele>276.9</ele>
        <time>2019-08-25T06:29:29Z</time>
      </trkpt>
      <trkpt lat="46.32959" lon="4.77945">
        <ele>276.8</ele>
        <time>2019-08-25T06:29:30Z</time>
      </trkpt>
      <trkpt lat="46.32967" lon="4.77948">
        <ele>276.6</ele>
        <time>2019-08-25T06:29:31Z</time>
      </trkpt>
      <trkpt lat="46.32982" lon="4.77951">
        <ele>276.2</ele>
        <time>2019-08-25T06:29:33Z</time>
      </trkpt>
      <trkpt lat="46.32996" lon="4.77954">
        <ele>275.7</ele>
        <time>2019-08-25T06:29:35Z</time>
      </trkpt>
      <trkpt lat="46.33003" lon="4.77955">
        <ele>275.2</ele>
        <time>2019-08-25T06:29:36Z</time>
      </trkpt>
      <trkpt lat="46.3301" lon="4.77954">
        <ele>274.7</ele>
        <time>2019-08-25T06:29:37Z</time>
      </trkpt>
      <trkpt lat="46.33023" lon="4.77944">
        <ele>273.3</ele>
        <time>2019-08-25T06:29:39Z</time>
      </trkpt>
      <trkpt lat="46.33035" lon="4.77929">
        <ele>271.6</ele>
        <time>2019-08-25T06:29:41Z</time>
      </trkpt>
      <trkpt lat="46.3304" lon="4.7792">
        <ele>270.7</ele>
        <time>2019-08-25T06:29:42Z</time>
      </trkpt>
      <trkpt lat="46.33045" lon="4.77909">
        <ele>269.8</ele>
        <time>2019-08-25T06:29:43Z</time>
      </trkpt>
      <trkpt lat="46.3305" lon="4.77898">
        <ele>268.7</ele>
        <time>2019-08-25T06:29:44Z</time>
      </trkpt>
      <trkpt lat="46.33064" lon="4.77862">
        <ele>265.4</ele>
        <time>2019-08-25T06:29:47Z</time>
      </trkpt>
      <trkpt lat="46.33068" lon="4.77851">
        <ele>264.5</ele>
        <time>2019-08-25T06:29:48Z</time>
      </trkpt>
      <trkpt lat="46.33072" lon="4.7784">
        <ele>263.8</ele>
        <time>2019-08-25T06:29:49Z</time>
      </trkpt>
      <trkpt lat="46.33081" lon="4.7782">
        <ele>262.6</ele>
        <time>2019-08-25T06:29:51Z</time>
      </trkpt>
      <trkpt lat="46.33085" lon="4.77811">
        <ele>262.2</ele>
        <time>2019-08-25T06:29:52Z</time>
      </trkpt>
      <trkpt lat="46.3309" lon="4.77804">
        <ele>262</ele>
        <time>2019-08-25T06:29:53Z</time>
      </trkpt>
      <trkpt lat="46.33101" lon="4.77796">
        <ele>261.7</ele>
        <time>2019-08-25T06:29:55Z</time>
      </trkpt>
      <trkpt lat="46.33107" lon="4.77794">
        <ele>261.6</ele>
        <time>2019-08-25T06:29:56Z</time>
      </trkpt>
      <trkpt lat="46.33118" lon="4.77794">
        <ele>261.5</ele>
        <time>2019-08-25T06:29:58Z</time>
      </trkpt>
      <trkpt lat="46.33128" lon="4.77789">
        <ele>261.4</ele>
        <time>2019-08-25T06:30:00Z</time>
      </trkpt>
      <trkpt lat="46.33131" lon="4.77784">
        <ele>261.4</ele>
        <time>2019-08-25T06:30:01Z</time>
      </trkpt>
      <trkpt lat="46.33137" lon="4.7777">
        <ele>261.5</ele>
        <time>2019-08-25T06:30:03Z</time>
      </trkpt>
      <trkpt lat="46.3314" lon="4.77754">
        <ele>261.5</ele>
        <time>2019-08-25T06:30:05Z</time>
      </trkpt>
      <trkpt lat="46.33144" lon="4.77728">
        <ele>261.8</ele>
        <time>2019-08-25T06:30:08Z</time>
      </trkpt>
      <trkpt lat="46.33145" lon="4.7772">
        <ele>261.9</ele>
        <time>2019-08-25T06:30:09Z</time>
      </trkpt>
      <trkpt lat="46.3315" lon="4.77687">
        <ele>262.4</ele>
        <time>2019-08-25T06:30:13Z</time>
      </trkpt>
      <trkpt lat="46.33152" lon="4.77663">
        <ele>263</ele>
        <time>2019-08-25T06:30:16Z</time>
      </trkpt>
      <trkpt lat="46.33152" lon="4.77656">
        <ele>263.2</ele>
        <time>2019-08-25T06:30:17Z</time>
      </trkpt>
      <trkpt lat="46.33151" lon="4.77643">
        <ele>263.7</ele>
        <time>2019-08-25T06:30:19Z</time>
      </trkpt>
      <trkpt lat="46.33148" lon="4.7763">
        <ele>264.3</ele>
        <time>2019-08-25T06:30:21Z</time>
      </trkpt>
      <trkpt lat="46.33146" lon="4.77618">
        <ele>264.9</ele>
        <time>2019-08-25T06:30:23Z</time>
      </trkpt>
      <trkpt lat="46.3314" lon="4.7758">
        <ele>267.1</ele>
        <time>2019-08-25T06:30:30Z</time>
      </trkpt>
      <trkpt lat="46.33141" lon="4.77551">
        <ele>269.7</ele>
        <time>2019-08-25T06:30:37Z</time>
      </trkpt>
      <trkpt lat="46.33144" lon="4.77539">
        <ele>270.6</ele>
        <time>2019-08-25T06:30:40Z</time>
      </trkpt>
      <trkpt lat="46.33147" lon="4.77529">
        <ele>271.5</ele>
        <time>2019-08-25T06:30:43Z</time>
      </trkpt>
      <trkpt lat="46.33148" lon="4.77522">
        <ele>271.9</ele>
        <time>2019-08-25T06:30:45Z</time>
      </trkpt>
      <trkpt lat="46.33151" lon="4.77509">
        <ele>272.9</ele>
        <time>2019-08-25T06:30:49Z</time>
      </trkpt>
      <trkpt lat="46.33153" lon="4.77503">
        <ele>273.3</ele>
        <time>2019-08-25T06:30:51Z</time>
      </trkpt>
      <trkpt lat="46.33155" lon="4.77497">
        <ele>273.7</ele>
        <time>2019-08-25T06:30:53Z</time>
      </trkpt>
      <trkpt lat="46.33158" lon="4.77484">
        <ele>274.4</ele>
        <time>2019-08-25T06:30:57Z</time>
      </trkpt>
      <trkpt lat="46.3316" lon="4.77479">
        <ele>274.8</ele>
        <time>2019-08-25T06:30:59Z</time>
      </trkpt>
      <trkpt lat="46.33162" lon="4.77473">
        <ele>275.1</ele>
        <time>2019-08-25T06:31:01Z</time>
      </trkpt>
      <trkpt lat="46.33169" lon="4.77456">
        <ele>276.2</ele>
        <time>2019-08-25T06:31:07Z</time>
      </trkpt>
      <trkpt lat="46.33175" lon="4.77439">
        <ele>277.1</ele>
        <time>2019-08-25T06:31:13Z</time>
      </trkpt>
      <trkpt lat="46.33182" lon="4.77419">
        <ele>278.1</ele>
        <time>2019-08-25T06:31:19Z</time>
      </trkpt>
      <trkpt lat="46.33186" lon="4.77406">
        <ele>278.4</ele>
        <time>2019-08-25T06:31:23Z</time>
      </trkpt>
      <trkpt lat="46.33191" lon="4.77369">
        <ele>278.7</ele>
        <time>2019-08-25T06:31:32Z</time>
      </trkpt>
      <trkpt lat="46.33193" lon="4.77345">
        <ele>279.3</ele>
        <time>2019-08-25T06:31:37Z</time>
      </trkpt>
      <trkpt lat="46.33193" lon="4.77334">
        <ele>279.5</ele>
        <time>2019-08-25T06:31:39Z</time>
      </trkpt>
      <trkpt lat="46.33198" lon="4.77285">
        <ele>279.3</ele>
        <time>2019-08-25T06:31:46Z</time>
      </trkpt>
      <trkpt lat="46.33198" lon="4.77277">
        <ele>279.2</ele>
        <time>2019-08-25T06:31:47Z</time>
      </trkpt>
      <trkpt lat="46.33198" lon="4.77269">
        <ele>279</ele>
        <time>2019-08-25T06:31:48Z</time>
      </trkpt>
      <trkpt lat="46.33199" lon="4.77246">
        <ele>278.8</ele>
        <time>2019-08-25T06:31:51Z</time>
      </trkpt>
      <trkpt lat="46.33203" lon="4.77232">
        <ele>278.6</ele>
        <time>2019-08-25T06:31:53Z</time>
      </trkpt>
      <trkpt lat="46.33211" lon="4.77225">
        <ele>278.4</ele>
        <time>2019-08-25T06:31:55Z</time>
      </trkpt>
      <trkpt lat="46.33215" lon="4.77222">
        <ele>278.3</ele>
        <time>2019-08-25T06:31:56Z</time>
      </trkpt>
      <trkpt lat="46.33239" lon="4.77208">
        <ele>277.9</ele>
        <time>2019-08-25T06:32:02Z</time>
      </trkpt>
      <trkpt lat="46.33243" lon="4.77205">
        <ele>277.9</ele>
        <time>2019-08-25T06:32:03Z</time>
      </trkpt>
      <trkpt lat="46.33257" lon="4.77196">
        <ele>278.4</ele>
        <time>2019-08-25T06:32:07Z</time>
      </trkpt>
      <trkpt lat="46.33276" lon="4.77199">
        <ele>279.2</ele>
        <time>2019-08-25T06:32:12Z</time>
      </trkpt>
      <trkpt lat="46.33281" lon="4.772">
        <ele>279.3</ele>
        <time>2019-08-25T06:32:13Z</time>
      </trkpt>
      <trkpt lat="46.33297" lon="4.772">
        <ele>279.5</ele>
        <time>2019-08-25T06:32:17Z</time>
      </trkpt>
      <trkpt lat="46.33306" lon="4.772">
        <ele>279.7</ele>
        <time>2019-08-25T06:32:19Z</time>
      </trkpt>
      <trkpt lat="46.33322" lon="4.77197">
        <ele>279.8</ele>
        <time>2019-08-25T06:32:23Z</time>
      </trkpt>
      <trkpt lat="46.33326" lon="4.77197">
        <ele>279.9</ele>
        <time>2019-08-25T06:32:24Z</time>
      </trkpt>
      <trkpt lat="46.33355" lon="4.77193">
        <ele>280</ele>
        <time>2019-08-25T06:32:31Z</time>
      </trkpt>
      <trkpt lat="46.33364" lon="4.77196">
        <ele>280</ele>
        <time>2019-08-25T06:32:33Z</time>
      </trkpt>
      <trkpt lat="46.33377" lon="4.77204">
        <ele>279.8</ele>
        <time>2019-08-25T06:32:36Z</time>
      </trkpt>
      <trkpt lat="46.33393" lon="4.77209">
        <ele>279.4</ele>
        <time>2019-08-25T06:32:39Z</time>
      </trkpt>
      <trkpt lat="46.33404" lon="4.7721">
        <ele>279.1</ele>
        <time>2019-08-25T06:32:41Z</time>
      </trkpt>
      <trkpt lat="46.33417" lon="4.7721">
        <ele>278.7</ele>
        <time>2019-08-25T06:32:43Z</time>
      </trkpt>
      <trkpt lat="46.33438" lon="4.77204">
        <ele>278.1</ele>
        <time>2019-08-25T06:32:46Z</time>
      </trkpt>
      <trkpt lat="46.33445" lon="4.772">
        <ele>277.9</ele>
        <time>2019-08-25T06:32:47Z</time>
      </trkpt>
      <trkpt lat="46.33467" lon="4.77186">
        <ele>274.8</ele>
        <time>2019-08-25T06:32:50Z</time>
      </trkpt>
      <trkpt lat="46.33474" lon="4.77183">
        <ele>274.3</ele>
        <time>2019-08-25T06:32:51Z</time>
      </trkpt>
      <trkpt lat="46.33495" lon="4.77172">
        <ele>272.5</ele>
        <time>2019-08-25T06:32:54Z</time>
      </trkpt>
      <trkpt lat="46.33506" lon="4.77154">
        <ele>271.5</ele>
        <time>2019-08-25T06:32:56Z</time>
      </trkpt>
      <trkpt lat="46.33513" lon="4.77147">
        <ele>271</ele>
        <time>2019-08-25T06:32:57Z</time>
      </trkpt>
      <trkpt lat="46.33521" lon="4.77141">
        <ele>270.6</ele>
        <time>2019-08-25T06:32:58Z</time>
      </trkpt>
      <trkpt lat="46.33557" lon="4.77126">
        <ele>269</ele>
        <time>2019-08-25T06:33:02Z</time>
      </trkpt>
      <trkpt lat="46.33566" lon="4.77125">
        <ele>268.8</ele>
        <time>2019-08-25T06:33:03Z</time>
      </trkpt>
      <trkpt lat="46.33584" lon="4.77117">
        <ele>268.8</ele>
        <time>2019-08-25T06:33:05Z</time>
      </trkpt>
      <trkpt lat="46.33592" lon="4.7711">
        <ele>268.8</ele>
        <time>2019-08-25T06:33:06Z</time>
      </trkpt>
      <trkpt lat="46.33598" lon="4.77102">
        <ele>268.5</ele>
        <time>2019-08-25T06:33:07Z</time>
      </trkpt>
      <trkpt lat="46.3361" lon="4.77086">
        <ele>267.9</ele>
        <time>2019-08-25T06:33:09Z</time>
      </trkpt>
      <trkpt lat="46.33632" lon="4.77068">
        <ele>268.3</ele>
        <time>2019-08-25T06:33:13Z</time>
      </trkpt>
      <trkpt lat="46.33656" lon="4.77056">
        <ele>269.9</ele>
        <time>2019-08-25T06:33:18Z</time>
      </trkpt>
      <trkpt lat="46.33669" lon="4.7705">
        <ele>270.8</ele>
        <time>2019-08-25T06:33:21Z</time>
      </trkpt>
      <trkpt lat="46.33687" lon="4.77042">
        <ele>271.9</ele>
        <time>2019-08-25T06:33:26Z</time>
      </trkpt>
      <trkpt lat="46.33691" lon="4.77041">
        <ele>272.1</ele>
        <time>2019-08-25T06:33:27Z</time>
      </trkpt>
      <trkpt lat="46.3371" lon="4.77039">
        <ele>273</ele>
        <time>2019-08-25T06:33:32Z</time>
      </trkpt>
      <trkpt lat="46.33718" lon="4.77039">
        <ele>273.4</ele>
        <time>2019-08-25T06:33:34Z</time>
      </trkpt>
      <trkpt lat="46.33725" lon="4.77039">
        <ele>273.8</ele>
        <time>2019-08-25T06:33:36Z</time>
      </trkpt>
      <trkpt lat="46.3374" lon="4.77039">
        <ele>274.5</ele>
        <time>2019-08-25T06:33:40Z</time>
      </trkpt>
      <trkpt lat="46.33756" lon="4.77039">
        <ele>275.7</ele>
        <time>2019-08-25T06:33:45Z</time>
      </trkpt>
      <trkpt lat="46.33763" lon="4.77039">
        <ele>276</ele>
        <time>2019-08-25T06:33:47Z</time>
      </trkpt>
      <trkpt lat="46.33769" lon="4.77041">
        <ele>276.4</ele>
        <time>2019-08-25T06:33:49Z</time>
      </trkpt>
      <trkpt lat="46.33781" lon="4.77045">
        <ele>277.5</ele>
        <time>2019-08-25T06:33:53Z</time>
      </trkpt>
      <trkpt lat="46.33784" lon="4.77046">
        <ele>277.7</ele>
        <time>2019-08-25T06:33:54Z</time>
      </trkpt>
      <trkpt lat="46.33799" lon="4.77049">
        <ele>278.8</ele>
        <time>2019-08-25T06:33:59Z</time>
      </trkpt>
      <trkpt lat="46.33808" lon="4.77049">
        <ele>279.3</ele>
        <time>2019-08-25T06:34:02Z</time>
      </trkpt>
      <trkpt lat="46.33835" lon="4.77048">
        <ele>280.3</ele>
        <time>2019-08-25T06:34:10Z</time>
      </trkpt>
      <trkpt lat="46.33849" lon="4.77047">
        <ele>280.8</ele>
        <time>2019-08-25T06:34:14Z</time>
      </trkpt>
      <trkpt lat="46.33868" lon="4.77045">
        <ele>281.3</ele>
        <time>2019-08-25T06:34:19Z</time>
      </trkpt>
      <trkpt lat="46.33884" lon="4.77044">
        <ele>281.7</ele>
        <time>2019-08-25T06:34:23Z</time>
      </trkpt>
      <trkpt lat="46.33892" lon="4.77044">
        <ele>281.8</ele>
        <time>2019-08-25T06:34:25Z</time>
      </trkpt>
      <trkpt lat="46.33896" lon="4.77045">
        <ele>281.9</ele>
        <time>2019-08-25T06:34:26Z</time>
      </trkpt>
      <trkpt lat="46.33929" lon="4.77048">
        <ele>282.9</ele>
        <time>2019-08-25T06:34:34Z</time>
      </trkpt>
      <trkpt lat="46.33932" lon="4.77049">
        <ele>283.1</ele>
        <time>2019-08-25T06:34:35Z</time>
      </trkpt>
      <trkpt lat="46.33955" lon="4.77058">
        <ele>283.8</ele>
        <time>2019-08-25T06:34:41Z</time>
      </trkpt>
      <trkpt lat="46.33961" lon="4.77062">
        <ele>284</ele>
        <time>2019-08-25T06:34:43Z</time>
      </trkpt>
      <trkpt lat="46.3397" lon="4.77072">
        <ele>284.4</ele>
        <time>2019-08-25T06:34:46Z</time>
      </trkpt>
      <trkpt lat="46.33976" lon="4.77078">
        <ele>284.8</ele>
        <time>2019-08-25T06:34:48Z</time>
      </trkpt>
      <trkpt lat="46.33995" lon="4.77101">
        <ele>286.1</ele>
        <time>2019-08-25T06:34:55Z</time>
      </trkpt>
      <trkpt lat="46.33998" lon="4.77104">
        <ele>286.2</ele>
        <time>2019-08-25T06:34:56Z</time>
      </trkpt>
      <trkpt lat="46.34013" lon="4.77118">
        <ele>287</ele>
        <time>2019-08-25T06:35:01Z</time>
      </trkpt>
      <trkpt lat="46.34019" lon="4.77124">
        <ele>287.3</ele>
        <time>2019-08-25T06:35:03Z</time>
      </trkpt>
      <trkpt lat="46.34028" lon="4.77131">
        <ele>287.7</ele>
        <time>2019-08-25T06:35:06Z</time>
      </trkpt>
      <trkpt lat="46.34041" lon="4.77141">
        <ele>288.3</ele>
        <time>2019-08-25T06:35:10Z</time>
      </trkpt>
      <trkpt lat="46.34047" lon="4.77145">
        <ele>288.6</ele>
        <time>2019-08-25T06:35:12Z</time>
      </trkpt>
      <trkpt lat="46.34061" lon="4.77152">
        <ele>289</ele>
        <time>2019-08-25T06:35:16Z</time>
      </trkpt>
      <trkpt lat="46.34071" lon="4.77156">
        <ele>289.3</ele>
        <time>2019-08-25T06:35:19Z</time>
      </trkpt>
      <trkpt lat="46.34085" lon="4.77159">
        <ele>289.7</ele>
        <time>2019-08-25T06:35:23Z</time>
      </trkpt>
      <trkpt lat="46.34099" lon="4.77163">
        <ele>290.3</ele>
        <time>2019-08-25T06:35:27Z</time>
      </trkpt>
      <trkpt lat="46.34103" lon="4.77163">
        <ele>290.5</ele>
        <time>2019-08-25T06:35:28Z</time>
      </trkpt>
      <trkpt lat="46.34116" lon="4.77167">
        <ele>291.2</ele>
        <time>2019-08-25T06:35:32Z</time>
      </trkpt>
      <trkpt lat="46.34119" lon="4.77168">
        <ele>291.4</ele>
        <time>2019-08-25T06:35:33Z</time>
      </trkpt>
      <trkpt lat="46.34128" lon="4.77174">
        <ele>291.8</ele>
        <time>2019-08-25T06:35:37Z</time>
      </trkpt>
      <trkpt lat="46.34131" lon="4.77175">
        <ele>291.9</ele>
        <time>2019-08-25T06:35:38Z</time>
      </trkpt>
      <trkpt lat="46.34156" lon="4.77189">
        <ele>292.1</ele>
        <time>2019-08-25T06:35:46Z</time>
      </trkpt>
      <trkpt lat="46.34159" lon="4.77191">
        <ele>292.1</ele>
        <time>2019-08-25T06:35:47Z</time>
      </trkpt>
      <trkpt lat="46.34188" lon="4.77208">
        <ele>291.7</ele>
        <time>2019-08-25T06:35:54Z</time>
      </trkpt>
      <trkpt lat="46.34198" lon="4.77214">
        <ele>291.4</ele>
        <time>2019-08-25T06:35:56Z</time>
      </trkpt>
      <trkpt lat="46.34219" lon="4.77226">
        <ele>290.4</ele>
        <time>2019-08-25T06:36:00Z</time>
      </trkpt>
      <trkpt lat="46.34232" lon="4.77232">
        <ele>289.3</ele>
        <time>2019-08-25T06:36:02Z</time>
      </trkpt>
      <trkpt lat="46.3425" lon="4.77245">
        <ele>287.8</ele>
        <time>2019-08-25T06:36:05Z</time>
      </trkpt>
      <trkpt lat="46.34254" lon="4.77253">
        <ele>287.5</ele>
        <time>2019-08-25T06:36:06Z</time>
      </trkpt>
      <trkpt lat="46.34266" lon="4.77274">
        <ele>286.8</ele>
        <time>2019-08-25T06:36:09Z</time>
      </trkpt>
      <trkpt lat="46.34271" lon="4.77277">
        <ele>286.8</ele>
        <time>2019-08-25T06:36:10Z</time>
      </trkpt>
      <trkpt lat="46.34287" lon="4.77279">
        <ele>287.1</ele>
        <time>2019-08-25T06:36:13Z</time>
      </trkpt>
      <trkpt lat="46.34291" lon="4.77277">
        <ele>287.3</ele>
        <time>2019-08-25T06:36:14Z</time>
      </trkpt>
      <trkpt lat="46.34297" lon="4.77271">
        <ele>287.8</ele>
        <time>2019-08-25T06:36:16Z</time>
      </trkpt>
      <trkpt lat="46.34299" lon="4.7726">
        <ele>288.5</ele>
        <time>2019-08-25T06:36:19Z</time>
      </trkpt>
      <trkpt lat="46.34307" lon="4.7724">
        <ele>290.4</ele>
        <time>2019-08-25T06:36:25Z</time>
      </trkpt>
      <trkpt lat="46.34311" lon="4.77238">
        <ele>290.9</ele>
        <time>2019-08-25T06:36:27Z</time>
      </trkpt>
      <trkpt lat="46.34315" lon="4.77236">
        <ele>291.6</ele>
        <time>2019-08-25T06:36:29Z</time>
      </trkpt>
      <trkpt lat="46.34318" lon="4.77236">
        <ele>292</ele>
        <time>2019-08-25T06:36:31Z</time>
      </trkpt>
      <trkpt lat="46.3432" lon="4.77236">
        <ele>292.5</ele>
        <time>2019-08-25T06:36:33Z</time>
      </trkpt>
      <trkpt lat="46.34321" lon="4.77236">
        <ele>292.7</ele>
        <time>2019-08-25T06:36:34Z</time>
      </trkpt>
      <trkpt lat="46.34323" lon="4.77238">
        <ele>293.1</ele>
        <time>2019-08-25T06:36:36Z</time>
      </trkpt>
      <trkpt lat="46.34328" lon="4.77242">
        <ele>294.2</ele>
        <time>2019-08-25T06:36:39Z</time>
      </trkpt>
      <trkpt lat="46.3433" lon="4.77243">
        <ele>294.6</ele>
        <time>2019-08-25T06:36:40Z</time>
      </trkpt>
      <trkpt lat="46.34334" lon="4.77248">
        <ele>295.8</ele>
        <time>2019-08-25T06:36:43Z</time>
      </trkpt>
      <trkpt lat="46.34339" lon="4.77255">
        <ele>296.9</ele>
        <time>2019-08-25T06:36:47Z</time>
      </trkpt>
      <trkpt lat="46.34343" lon="4.7726">
        <ele>297.4</ele>
        <time>2019-08-25T06:36:50Z</time>
      </trkpt>
      <trkpt lat="46.34347" lon="4.77265">
        <ele>298.1</ele>
        <time>2019-08-25T06:36:53Z</time>
      </trkpt>
      <trkpt lat="46.34351" lon="4.77268">
        <ele>298.6</ele>
        <time>2019-08-25T06:36:56Z</time>
      </trkpt>
      <trkpt lat="46.34354" lon="4.77272">
        <ele>299</ele>
        <time>2019-08-25T06:36:59Z</time>
      </trkpt>
      <trkpt lat="46.34358" lon="4.77275">
        <ele>299.5</ele>
        <time>2019-08-25T06:37:02Z</time>
      </trkpt>
      <trkpt lat="46.34364" lon="4.77279">
        <ele>300.2</ele>
        <time>2019-08-25T06:37:05Z</time>
      </trkpt>
      <trkpt lat="46.3437" lon="4.77281">
        <ele>300.8</ele>
        <time>2019-08-25T06:37:08Z</time>
      </trkpt>
      <trkpt lat="46.34375" lon="4.77282">
        <ele>301.1</ele>
        <time>2019-08-25T06:37:11Z</time>
      </trkpt>
      <trkpt lat="46.34377" lon="4.77283">
        <ele>301.3</ele>
        <time>2019-08-25T06:37:12Z</time>
      </trkpt>
      <trkpt lat="46.3438" lon="4.77284">
        <ele>301.6</ele>
        <time>2019-08-25T06:37:14Z</time>
      </trkpt>
      <trkpt lat="46.34388" lon="4.77288">
        <ele>302.4</ele>
        <time>2019-08-25T06:37:17Z</time>
      </trkpt>
      <trkpt lat="46.34391" lon="4.77289">
        <ele>302.6</ele>
        <time>2019-08-25T06:37:18Z</time>
      </trkpt>
      <trkpt lat="46.34395" lon="4.77292">
        <ele>303</ele>
        <time>2019-08-25T06:37:20Z</time>
      </trkpt>
      <trkpt lat="46.34403" lon="4.77298">
        <ele>303.8</ele>
        <time>2019-08-25T06:37:24Z</time>
      </trkpt>
      <trkpt lat="46.34414" lon="4.77313">
        <ele>304.7</ele>
        <time>2019-08-25T06:37:30Z</time>
      </trkpt>
      <trkpt lat="46.34417" lon="4.77317">
        <ele>305.2</ele>
        <time>2019-08-25T06:37:32Z</time>
      </trkpt>
      <trkpt lat="46.3442" lon="4.77321">
        <ele>305.6</ele>
        <time>2019-08-25T06:37:34Z</time>
      </trkpt>
      <trkpt lat="46.34423" lon="4.77325">
        <ele>306</ele>
        <time>2019-08-25T06:37:36Z</time>
      </trkpt>
      <trkpt lat="46.34427" lon="4.77329">
        <ele>306.4</ele>
        <time>2019-08-25T06:37:38Z</time>
      </trkpt>
      <trkpt lat="46.34429" lon="4.77331">
        <ele>306.5</ele>
        <time>2019-08-25T06:37:39Z</time>
      </trkpt>
      <trkpt lat="46.34433" lon="4.77335">
        <ele>307</ele>
        <time>2019-08-25T06:37:42Z</time>
      </trkpt>
      <trkpt lat="46.34437" lon="4.77337">
        <ele>307.4</ele>
        <time>2019-08-25T06:37:44Z</time>
      </trkpt>
      <trkpt lat="46.3444" lon="4.77339">
        <ele>307.7</ele>
        <time>2019-08-25T06:37:46Z</time>
      </trkpt>
      <trkpt lat="46.34443" lon="4.77342">
        <ele>308</ele>
        <time>2019-08-25T06:37:48Z</time>
      </trkpt>
      <trkpt lat="46.34446" lon="4.77345">
        <ele>308.4</ele>
        <time>2019-08-25T06:37:50Z</time>
      </trkpt>
      <trkpt lat="46.3445" lon="4.77346">
        <ele>308.8</ele>
        <time>2019-08-25T06:37:52Z</time>
      </trkpt>
      <trkpt lat="46.34454" lon="4.77348">
        <ele>309.3</ele>
        <time>2019-08-25T06:37:54Z</time>
      </trkpt>
      <trkpt lat="46.34458" lon="4.77351">
        <ele>309.9</ele>
        <time>2019-08-25T06:37:56Z</time>
      </trkpt>
      <trkpt lat="46.34461" lon="4.77351">
        <ele>310.3</ele>
        <time>2019-08-25T06:37:58Z</time>
      </trkpt>
      <trkpt lat="46.3447" lon="4.77353">
        <ele>311.5</ele>
        <time>2019-08-25T06:38:02Z</time>
      </trkpt>
      <trkpt lat="46.34475" lon="4.77353">
        <ele>312.4</ele>
        <time>2019-08-25T06:38:05Z</time>
      </trkpt>
      <trkpt lat="46.34481" lon="4.77352">
        <ele>313.3</ele>
        <time>2019-08-25T06:38:08Z</time>
      </trkpt>
      <trkpt lat="46.34484" lon="4.7735">
        <ele>313.7</ele>
        <time>2019-08-25T06:38:10Z</time>
      </trkpt>
      <trkpt lat="46.34486" lon="4.77349">
        <ele>314</ele>
        <time>2019-08-25T06:38:11Z</time>
      </trkpt>
      <trkpt lat="46.34491" lon="4.77348">
        <ele>314.7</ele>
        <time>2019-08-25T06:38:14Z</time>
      </trkpt>
      <trkpt lat="46.34494" lon="4.7735">
        <ele>315.2</ele>
        <time>2019-08-25T06:38:16Z</time>
      </trkpt>
      <trkpt lat="46.34497" lon="4.77354">
        <ele>315.7</ele>
        <time>2019-08-25T06:38:18Z</time>
      </trkpt>
      <trkpt lat="46.34501" lon="4.77357">
        <ele>316.3</ele>
        <time>2019-08-25T06:38:20Z</time>
      </trkpt>
      <trkpt lat="46.34507" lon="4.77362">
        <ele>317.2</ele>
        <time>2019-08-25T06:38:23Z</time>
      </trkpt>
      <trkpt lat="46.34519" lon="4.77365">
        <ele>318.7</ele>
        <time>2019-08-25T06:38:29Z</time>
      </trkpt>
      <trkpt lat="46.34523" lon="4.77365">
        <ele>319.2</ele>
        <time>2019-08-25T06:38:31Z</time>
      </trkpt>
      <trkpt lat="46.34527" lon="4.77365">
        <ele>319.6</ele>
        <time>2019-08-25T06:38:33Z</time>
      </trkpt>
      <trkpt lat="46.34536" lon="4.77361">
        <ele>320.6</ele>
        <time>2019-08-25T06:38:37Z</time>
      </trkpt>
      <trkpt lat="46.34551" lon="4.77355">
        <ele>322.2</ele>
        <time>2019-08-25T06:38:45Z</time>
      </trkpt>
      <trkpt lat="46.34562" lon="4.77355">
        <ele>323.3</ele>
        <time>2019-08-25T06:38:52Z</time>
      </trkpt>
      <trkpt lat="46.34572" lon="4.7736">
        <ele>324.5</ele>
        <time>2019-08-25T06:38:57Z</time>
      </trkpt>
      <trkpt lat="46.34576" lon="4.77362">
        <ele>324.8</ele>
        <time>2019-08-25T06:38:59Z</time>
      </trkpt>
      <trkpt lat="46.3459" lon="4.77371">
        <ele>326.2</ele>
        <time>2019-08-25T06:39:06Z</time>
      </trkpt>
      <trkpt lat="46.34606" lon="4.77372">
        <ele>327.3</ele>
        <time>2019-08-25T06:39:13Z</time>
      </trkpt>
      <trkpt lat="46.34609" lon="4.77372">
        <ele>327.6</ele>
        <time>2019-08-25T06:39:14Z</time>
      </trkpt>
      <trkpt lat="46.34618" lon="4.77372">
        <ele>328.2</ele>
        <time>2019-08-25T06:39:18Z</time>
      </trkpt>
      <trkpt lat="46.34625" lon="4.77373">
        <ele>328.7</ele>
        <time>2019-08-25T06:39:21Z</time>
      </trkpt>
      <trkpt lat="46.34632" lon="4.77374">
        <ele>329.1</ele>
        <time>2019-08-25T06:39:24Z</time>
      </trkpt>
      <trkpt lat="46.34637" lon="4.77375">
        <ele>329.5</ele>
        <time>2019-08-25T06:39:26Z</time>
      </trkpt>
      <trkpt lat="46.34648" lon="4.77375">
        <ele>330</ele>
        <time>2019-08-25T06:39:31Z</time>
      </trkpt>
      <trkpt lat="46.34661" lon="4.77374">
        <ele>330.4</ele>
        <time>2019-08-25T06:39:36Z</time>
      </trkpt>
      <trkpt lat="46.34676" lon="4.77378">
        <ele>330.6</ele>
        <time>2019-08-25T06:39:42Z</time>
      </trkpt>
      <trkpt lat="46.34682" lon="4.77378">
        <ele>330.8</ele>
        <time>2019-08-25T06:39:44Z</time>
      </trkpt>
      <trkpt lat="46.34694" lon="4.7738">
        <ele>330.8</ele>
        <time>2019-08-25T06:39:48Z</time>
      </trkpt>
      <trkpt lat="46.34703" lon="4.77381">
        <ele>330.8</ele>
        <time>2019-08-25T06:39:51Z</time>
      </trkpt>
      <trkpt lat="46.34714" lon="4.77382">
        <ele>330.9</ele>
        <time>2019-08-25T06:39:55Z</time>
      </trkpt>
      <trkpt lat="46.34717" lon="4.77383">
        <ele>331.1</ele>
        <time>2019-08-25T06:39:56Z</time>
      </trkpt>
      <trkpt lat="46.34731" lon="4.77384">
        <ele>331.4</ele>
        <time>2019-08-25T06:40:01Z</time>
      </trkpt>
      <trkpt lat="46.34734" lon="4.77383">
        <ele>331.6</ele>
        <time>2019-08-25T06:40:02Z</time>
      </trkpt>
      <trkpt lat="46.3475" lon="4.7738">
        <ele>331.8</ele>
        <time>2019-08-25T06:40:06Z</time>
      </trkpt>
      <trkpt lat="46.3476" lon="4.77384">
        <ele>331.9</ele>
        <time>2019-08-25T06:40:09Z</time>
      </trkpt>
      <trkpt lat="46.34766" lon="4.77388">
        <ele>332.1</ele>
        <time>2019-08-25T06:40:11Z</time>
      </trkpt>
      <trkpt lat="46.34782" lon="4.77401">
        <ele>332.5</ele>
        <time>2019-08-25T06:40:16Z</time>
      </trkpt>
      <trkpt lat="46.34785" lon="4.77405">
        <ele>332.9</ele>
        <time>2019-08-25T06:40:17Z</time>
      </trkpt>
      <trkpt lat="46.34795" lon="4.77414">
        <ele>333.4</ele>
        <time>2019-08-25T06:40:20Z</time>
      </trkpt>
      <trkpt lat="46.34805" lon="4.7742">
        <ele>333.8</ele>
        <time>2019-08-25T06:40:23Z</time>
      </trkpt>
      <trkpt lat="46.34834" lon="4.7744">
        <ele>334.6</ele>
        <time>2019-08-25T06:40:32Z</time>
      </trkpt>
      <trkpt lat="46.34851" lon="4.77452">
        <ele>335</ele>
        <time>2019-08-25T06:40:38Z</time>
      </trkpt>
      <trkpt lat="46.34855" lon="4.7745">
        <ele>335.2</ele>
        <time>2019-08-25T06:40:40Z</time>
      </trkpt>
      <trkpt lat="46.34859" lon="4.77443">
        <ele>335.4</ele>
        <time>2019-08-25T06:40:42Z</time>
      </trkpt>
      <trkpt lat="46.34872" lon="4.77404">
        <ele>335.2</ele>
        <time>2019-08-25T06:40:49Z</time>
      </trkpt>
      <trkpt lat="46.34878" lon="4.77388">
        <ele>334.7</ele>
        <time>2019-08-25T06:40:51Z</time>
      </trkpt>
      <trkpt lat="46.34883" lon="4.77372">
        <ele>334.1</ele>
        <time>2019-08-25T06:40:53Z</time>
      </trkpt>
      <trkpt lat="46.34886" lon="4.77367">
        <ele>333.8</ele>
        <time>2019-08-25T06:40:54Z</time>
      </trkpt>
      <trkpt lat="46.34894" lon="4.77363">
        <ele>333.1</ele>
        <time>2019-08-25T06:40:56Z</time>
      </trkpt>
      <trkpt lat="46.34899" lon="4.77362">
        <ele>332.8</ele>
        <time>2019-08-25T06:40:57Z</time>
      </trkpt>
      <trkpt lat="46.34904" lon="4.77362">
        <ele>332.4</ele>
        <time>2019-08-25T06:40:58Z</time>
      </trkpt>
      <trkpt lat="46.34909" lon="4.77362">
        <ele>332</ele>
        <time>2019-08-25T06:40:59Z</time>
      </trkpt>
      <trkpt lat="46.34921" lon="4.77364">
        <ele>331.2</ele>
        <time>2019-08-25T06:41:01Z</time>
      </trkpt>
      <trkpt lat="46.34926" lon="4.77365">
        <ele>330.9</ele>
        <time>2019-08-25T06:41:02Z</time>
      </trkpt>
      <trkpt lat="46.34932" lon="4.77368">
        <ele>330.7</ele>
        <time>2019-08-25T06:41:03Z</time>
      </trkpt>
      <trkpt lat="46.34937" lon="4.77372">
        <ele>330.4</ele>
        <time>2019-08-25T06:41:04Z</time>
      </trkpt>
      <trkpt lat="46.3495" lon="4.7738">
        <ele>330</ele>
        <time>2019-08-25T06:41:06Z</time>
      </trkpt>
      <trkpt lat="46.34961" lon="4.77386">
        <ele>330.7</ele>
        <time>2019-08-25T06:41:08Z</time>
      </trkpt>
      <trkpt lat="46.34978" lon="4.77396">
        <ele>332.1</ele>
        <time>2019-08-25T06:41:11Z</time>
      </trkpt>
      <trkpt lat="46.34986" lon="4.77394">
        <ele>332.6</ele>
        <time>2019-08-25T06:41:13Z</time>
      </trkpt>
      <trkpt lat="46.34988" lon="4.77389">
        <ele>332.9</ele>
        <time>2019-08-25T06:41:14Z</time>
      </trkpt>
      <trkpt lat="46.3499" lon="4.77384">
        <ele>333.2</ele>
        <time>2019-08-25T06:41:15Z</time>
      </trkpt>
      <trkpt lat="46.34993" lon="4.77359">
        <ele>333.3</ele>
        <time>2019-08-25T06:41:19Z</time>
      </trkpt>
      <trkpt lat="46.34994" lon="4.77325">
        <ele>332.2</ele>
        <time>2019-08-25T06:41:24Z</time>
      </trkpt>
      <trkpt lat="46.34994" lon="4.77318">
        <ele>332.1</ele>
        <time>2019-08-25T06:41:25Z</time>
      </trkpt>
      <trkpt lat="46.34994" lon="4.77311">
        <ele>331.7</ele>
        <time>2019-08-25T06:41:26Z</time>
      </trkpt>
      <trkpt lat="46.34996" lon="4.77291">
        <ele>331.3</ele>
        <time>2019-08-25T06:41:29Z</time>
      </trkpt>
      <trkpt lat="46.34999" lon="4.77245">
        <ele>331.5</ele>
        <time>2019-08-25T06:41:36Z</time>
      </trkpt>
      <trkpt lat="46.34999" lon="4.77238">
        <ele>331.7</ele>
        <time>2019-08-25T06:41:37Z</time>
      </trkpt>
      <trkpt lat="46.34999" lon="4.77204">
        <ele>332.9</ele>
        <time>2019-08-25T06:41:43Z</time>
      </trkpt>
      <trkpt lat="46.34997" lon="4.77163">
        <ele>333</ele>
        <time>2019-08-25T06:41:51Z</time>
      </trkpt>
      <trkpt lat="46.34996" lon="4.7715">
        <ele>333.1</ele>
        <time>2019-08-25T06:41:54Z</time>
      </trkpt>
      <trkpt lat="46.34997" lon="4.77144">
        <ele>333.3</ele>
        <time>2019-08-25T06:41:56Z</time>
      </trkpt>
      <trkpt lat="46.34998" lon="4.7714">
        <ele>334.1</ele>
        <time>2019-08-25T06:41:58Z</time>
      </trkpt>
      <trkpt lat="46.35" lon="4.77138">
        <ele>334.1</ele>
        <time>2019-08-25T06:41:59Z</time>
      </trkpt>
      <trkpt lat="46.35002" lon="4.77137">
        <ele>335</ele>
        <time>2019-08-25T06:42:01Z</time>
      </trkpt>
      <trkpt lat="46.35003" lon="4.77135">
        <ele>335</ele>
        <time>2019-08-25T06:42:02Z</time>
      </trkpt>
      <trkpt lat="46.35005" lon="4.77128">
        <ele>335.9</ele>
        <time>2019-08-25T06:42:05Z</time>
      </trkpt>
      <trkpt lat="46.35005" lon="4.77125">
        <ele>335.9</ele>
        <time>2019-08-25T06:42:06Z</time>
      </trkpt>
      <trkpt lat="46.35005" lon="4.7712">
        <ele>336.1</ele>
        <time>2019-08-25T06:42:08Z</time>
      </trkpt>
      <trkpt lat="46.35008" lon="4.77111">
        <ele>337</ele>
        <time>2019-08-25T06:42:11Z</time>
      </trkpt>
      <trkpt lat="46.35014" lon="4.77087">
        <ele>338.5</ele>
        <time>2019-08-25T06:42:17Z</time>
      </trkpt>
      <trkpt lat="46.35019" lon="4.77065">
        <ele>338.9</ele>
        <time>2019-08-25T06:42:23Z</time>
      </trkpt>
      <trkpt lat="46.35026" lon="4.77046">
        <ele>338.8</ele>
        <time>2019-08-25T06:42:29Z</time>
      </trkpt>
      <trkpt lat="46.35032" lon="4.77029">
        <ele>338.3</ele>
        <time>2019-08-25T06:42:35Z</time>
      </trkpt>
      <trkpt lat="46.35043" lon="4.77008">
        <ele>338</ele>
        <time>2019-08-25T06:42:42Z</time>
      </trkpt>
      <trkpt lat="46.35055" lon="4.7699">
        <ele>337.9</ele>
        <time>2019-08-25T06:42:47Z</time>
      </trkpt>
      <trkpt lat="46.35057" lon="4.76988">
        <ele>338.2</ele>
        <time>2019-08-25T06:42:48Z</time>
      </trkpt>
      <trkpt lat="46.35066" lon="4.76985">
        <ele>338.3</ele>
        <time>2019-08-25T06:42:53Z</time>
      </trkpt>
      <trkpt lat="46.35072" lon="4.76984">
        <ele>339</ele>
        <time>2019-08-25T06:42:56Z</time>
      </trkpt>
      <trkpt lat="46.3508" lon="4.76983">
        <ele>339.4</ele>
        <time>2019-08-25T06:42:59Z</time>
      </trkpt>
      <trkpt lat="46.35082" lon="4.76983">
        <ele>339.6</ele>
        <time>2019-08-25T06:43:00Z</time>
      </trkpt>
      <trkpt lat="46.35089" lon="4.76989">
        <ele>340.5</ele>
        <time>2019-08-25T06:43:03Z</time>
      </trkpt>
      <trkpt lat="46.35091" lon="4.76991">
        <ele>340.7</ele>
        <time>2019-08-25T06:43:04Z</time>
      </trkpt>
      <trkpt lat="46.35095" lon="4.76996">
        <ele>342</ele>
        <time>2019-08-25T06:43:06Z</time>
      </trkpt>
      <trkpt lat="46.351" lon="4.77003">
        <ele>342.8</ele>
        <time>2019-08-25T06:43:09Z</time>
      </trkpt>
      <trkpt lat="46.35107" lon="4.77011">
        <ele>343.9</ele>
        <time>2019-08-25T06:43:13Z</time>
      </trkpt>
      <trkpt lat="46.35109" lon="4.77013">
        <ele>344.5</ele>
        <time>2019-08-25T06:43:14Z</time>
      </trkpt>
      <trkpt lat="46.35115" lon="4.77017">
        <ele>344.8</ele>
        <time>2019-08-25T06:43:17Z</time>
      </trkpt>
      <trkpt lat="46.35121" lon="4.77019">
        <ele>345.4</ele>
        <time>2019-08-25T06:43:20Z</time>
      </trkpt>
      <trkpt lat="46.35129" lon="4.77019">
        <ele>345.9</ele>
        <time>2019-08-25T06:43:24Z</time>
      </trkpt>
      <trkpt lat="46.35135" lon="4.77019">
        <ele>346.2</ele>
        <time>2019-08-25T06:43:27Z</time>
      </trkpt>
      <trkpt lat="46.35136" lon="4.77021">
        <ele>346.3</ele>
        <time>2019-08-25T06:43:28Z</time>
      </trkpt>
      <trkpt lat="46.35138" lon="4.77023">
        <ele>347</ele>
        <time>2019-08-25T06:43:29Z</time>
      </trkpt>
      <trkpt lat="46.35139" lon="4.77027">
        <ele>347.5</ele>
        <time>2019-08-25T06:43:31Z</time>
      </trkpt>
      <trkpt lat="46.3514" lon="4.77032">
        <ele>348.1</ele>
        <time>2019-08-25T06:43:33Z</time>
      </trkpt>
      <trkpt lat="46.35141" lon="4.77038">
        <ele>348.9</ele>
        <time>2019-08-25T06:43:35Z</time>
      </trkpt>
      <trkpt lat="46.35142" lon="4.77042">
        <ele>349.4</ele>
        <time>2019-08-25T06:43:37Z</time>
      </trkpt>
      <trkpt lat="46.35144" lon="4.77048">
        <ele>350.6</ele>
        <time>2019-08-25T06:43:40Z</time>
      </trkpt>
      <trkpt lat="46.35145" lon="4.77055">
        <ele>351.2</ele>
        <time>2019-08-25T06:43:43Z</time>
      </trkpt>
      <trkpt lat="46.35149" lon="4.77062">
        <ele>352.5</ele>
        <time>2019-08-25T06:43:48Z</time>
      </trkpt>
      <trkpt lat="46.35151" lon="4.77063">
        <ele>352.6</ele>
        <time>2019-08-25T06:43:49Z</time>
      </trkpt>
      <trkpt lat="46.35156" lon="4.77067">
        <ele>353.4</ele>
        <time>2019-08-25T06:43:53Z</time>
      </trkpt>
      <trkpt lat="46.35158" lon="4.77068">
        <ele>353.4</ele>
        <time>2019-08-25T06:43:54Z</time>
      </trkpt>
      <trkpt lat="46.35163" lon="4.77075">
        <ele>354.9</ele>
        <time>2019-08-25T06:43:58Z</time>
      </trkpt>
      <trkpt lat="46.35165" lon="4.7708">
        <ele>355.7</ele>
        <time>2019-08-25T06:44:00Z</time>
      </trkpt>
      <trkpt lat="46.35168" lon="4.77089">
        <ele>357.2</ele>
        <time>2019-08-25T06:44:04Z</time>
      </trkpt>
      <trkpt lat="46.35171" lon="4.77097">
        <ele>358.5</ele>
        <time>2019-08-25T06:44:08Z</time>
      </trkpt>
      <trkpt lat="46.35174" lon="4.77108">
        <ele>360.4</ele>
        <time>2019-08-25T06:44:13Z</time>
      </trkpt>
      <trkpt lat="46.35175" lon="4.77113">
        <ele>361</ele>
        <time>2019-08-25T06:44:16Z</time>
      </trkpt>
      <trkpt lat="46.35178" lon="4.77122">
        <ele>362.3</ele>
        <time>2019-08-25T06:44:20Z</time>
      </trkpt>
      <trkpt lat="46.35178" lon="4.77124">
        <ele>362.4</ele>
        <time>2019-08-25T06:44:21Z</time>
      </trkpt>
      <trkpt lat="46.3518" lon="4.77131">
        <ele>363.7</ele>
        <time>2019-08-25T06:44:24Z</time>
      </trkpt>
      <trkpt lat="46.35182" lon="4.77138">
        <ele>365.1</ele>
        <time>2019-08-25T06:44:27Z</time>
      </trkpt>
      <trkpt lat="46.35183" lon="4.7714">
        <ele>365.1</ele>
        <time>2019-08-25T06:44:28Z</time>
      </trkpt>
      <trkpt lat="46.35184" lon="4.77144">
        <ele>365.7</ele>
        <time>2019-08-25T06:44:30Z</time>
      </trkpt>
      <trkpt lat="46.35187" lon="4.7715">
        <ele>366.8</ele>
        <time>2019-08-25T06:44:33Z</time>
      </trkpt>
      <trkpt lat="46.35188" lon="4.77152">
        <ele>366.8</ele>
        <time>2019-08-25T06:44:34Z</time>
      </trkpt>
      <trkpt lat="46.35189" lon="4.77156">
        <ele>367.3</ele>
        <time>2019-08-25T06:44:36Z</time>
      </trkpt>
      <trkpt lat="46.3519" lon="4.77162">
        <ele>367.8</ele>
        <time>2019-08-25T06:44:39Z</time>
      </trkpt>
      <trkpt lat="46.35193" lon="4.77165">
        <ele>368.3</ele>
        <time>2019-08-25T06:44:41Z</time>
      </trkpt>
      <trkpt lat="46.35195" lon="4.77169">
        <ele>368.8</ele>
        <time>2019-08-25T06:44:43Z</time>
      </trkpt>
      <trkpt lat="46.35196" lon="4.77174">
        <ele>369.3</ele>
        <time>2019-08-25T06:44:45Z</time>
      </trkpt>
      <trkpt lat="46.35196" lon="4.77179">
        <ele>369.7</ele>
        <time>2019-08-25T06:44:47Z</time>
      </trkpt>
      <trkpt lat="46.35197" lon="4.7718">
        <ele>370.1</ele>
        <time>2019-08-25T06:44:48Z</time>
      </trkpt>
      <trkpt lat="46.35199" lon="4.77186">
        <ele>370.4</ele>
        <time>2019-08-25T06:44:51Z</time>
      </trkpt>
      <trkpt lat="46.35199" lon="4.7719">
        <ele>370.7</ele>
        <time>2019-08-25T06:44:53Z</time>
      </trkpt>
      <trkpt lat="46.35199" lon="4.77193">
        <ele>370.8</ele>
        <time>2019-08-25T06:44:54Z</time>
      </trkpt>
      <trkpt lat="46.352" lon="4.77197">
        <ele>371.2</ele>
        <time>2019-08-25T06:44:56Z</time>
      </trkpt>
      <trkpt lat="46.35201" lon="4.77204">
        <ele>371.9</ele>
        <time>2019-08-25T06:45:00Z</time>
      </trkpt>
      <trkpt lat="46.35201" lon="4.77206">
        <ele>372.3</ele>
        <time>2019-08-25T06:45:01Z</time>
      </trkpt>
      <trkpt lat="46.35202" lon="4.7721">
        <ele>372.3</ele>
        <time>2019-08-25T06:45:03Z</time>
      </trkpt>
      <trkpt lat="46.35204" lon="4.77221">
        <ele>373.8</ele>
        <time>2019-08-25T06:45:08Z</time>
      </trkpt>
      <trkpt lat="46.35205" lon="4.77225">
        <ele>374.2</ele>
        <time>2019-08-25T06:45:10Z</time>
      </trkpt>
      <trkpt lat="46.35207" lon="4.77231">
        <ele>374.8</ele>
        <time>2019-08-25T06:45:13Z</time>
      </trkpt>
      <trkpt lat="46.35209" lon="4.77235">
        <ele>375.2</ele>
        <time>2019-08-25T06:45:15Z</time>
      </trkpt>
      <trkpt lat="46.3521" lon="4.77237">
        <ele>375.6</ele>
        <time>2019-08-25T06:45:16Z</time>
      </trkpt>
      <trkpt lat="46.35212" lon="4.77246">
        <ele>376.3</ele>
        <time>2019-08-25T06:45:20Z</time>
      </trkpt>
      <trkpt lat="46.35213" lon="4.77252">
        <ele>376.5</ele>
        <time>2019-08-25T06:45:23Z</time>
      </trkpt>
      <trkpt lat="46.35216" lon="4.77261">
        <ele>377.1</ele>
        <time>2019-08-25T06:45:27Z</time>
      </trkpt>
      <trkpt lat="46.35216" lon="4.77268">
        <ele>377.4</ele>
        <time>2019-08-25T06:45:30Z</time>
      </trkpt>
      <trkpt lat="46.35216" lon="4.77271">
        <ele>377.5</ele>
        <time>2019-08-25T06:45:32Z</time>
      </trkpt>
      <trkpt lat="46.35216" lon="4.77273">
        <ele>377.5</ele>
        <time>2019-08-25T06:45:33Z</time>
      </trkpt>
      <trkpt lat="46.35218" lon="4.77277">
        <ele>377.8</ele>
        <time>2019-08-25T06:45:35Z</time>
      </trkpt>
      <trkpt lat="46.3522" lon="4.77284">
        <ele>378</ele>
        <time>2019-08-25T06:45:38Z</time>
      </trkpt>
      <trkpt lat="46.3522" lon="4.77286">
        <ele>378.1</ele>
        <time>2019-08-25T06:45:39Z</time>
      </trkpt>
      <trkpt lat="46.35222" lon="4.77296">
        <ele>378.3</ele>
        <time>2019-08-25T06:45:43Z</time>
      </trkpt>
      <trkpt lat="46.35223" lon="4.773">
        <ele>378.5</ele>
        <time>2019-08-25T06:45:45Z</time>
      </trkpt>
      <trkpt lat="46.35225" lon="4.77307">
        <ele>378.6</ele>
        <time>2019-08-25T06:45:48Z</time>
      </trkpt>
      <trkpt lat="46.35227" lon="4.7731">
        <ele>378.9</ele>
        <time>2019-08-25T06:45:50Z</time>
      </trkpt>
      <trkpt lat="46.35227" lon="4.77311">
        <ele>378.9</ele>
        <time>2019-08-25T06:45:51Z</time>
      </trkpt>
      <trkpt lat="46.3523" lon="4.77316">
        <ele>379.3</ele>
        <time>2019-08-25T06:45:54Z</time>
      </trkpt>
      <trkpt lat="46.35235" lon="4.7732">
        <ele>379.8</ele>
        <time>2019-08-25T06:45:57Z</time>
      </trkpt>
      <trkpt lat="46.35239" lon="4.77323">
        <ele>380.2</ele>
        <time>2019-08-25T06:46:00Z</time>
      </trkpt>
      <trkpt lat="46.35245" lon="4.77323">
        <ele>380.6</ele>
        <time>2019-08-25T06:46:03Z</time>
      </trkpt>
      <trkpt lat="46.35249" lon="4.77324">
        <ele>380.8</ele>
        <time>2019-08-25T06:46:05Z</time>
      </trkpt>
      <trkpt lat="46.35256" lon="4.77324">
        <ele>381.3</ele>
        <time>2019-08-25T06:46:08Z</time>
      </trkpt>
      <trkpt lat="46.35259" lon="4.77324">
        <ele>381.5</ele>
        <time>2019-08-25T06:46:09Z</time>
      </trkpt>
      <trkpt lat="46.35263" lon="4.77325">
        <ele>381.8</ele>
        <time>2019-08-25T06:46:11Z</time>
      </trkpt>
      <trkpt lat="46.35272" lon="4.77326">
        <ele>382.3</ele>
        <time>2019-08-25T06:46:15Z</time>
      </trkpt>
      <trkpt lat="46.35286" lon="4.77327">
        <ele>383.2</ele>
        <time>2019-08-25T06:46:21Z</time>
      </trkpt>
      <trkpt lat="46.35298" lon="4.77325">
        <ele>383.9</ele>
        <time>2019-08-25T06:46:26Z</time>
      </trkpt>
      <trkpt lat="46.35303" lon="4.77324">
        <ele>385</ele>
        <time>2019-08-25T06:46:28Z</time>
      </trkpt>
      <trkpt lat="46.35311" lon="4.77324">
        <ele>385.5</ele>
        <time>2019-08-25T06:46:32Z</time>
      </trkpt>
      <trkpt lat="46.35318" lon="4.77326">
        <ele>385.8</ele>
        <time>2019-08-25T06:46:35Z</time>
      </trkpt>
      <trkpt lat="46.35329" lon="4.77328">
        <ele>386.6</ele>
        <time>2019-08-25T06:46:40Z</time>
      </trkpt>
      <trkpt lat="46.35333" lon="4.77329">
        <ele>386.9</ele>
        <time>2019-08-25T06:46:42Z</time>
      </trkpt>
      <trkpt lat="46.35345" lon="4.77328">
        <ele>387.8</ele>
        <time>2019-08-25T06:46:48Z</time>
      </trkpt>
      <trkpt lat="46.3536" lon="4.77327">
        <ele>389.1</ele>
        <time>2019-08-25T06:46:55Z</time>
      </trkpt>
      <trkpt lat="46.35372" lon="4.77328">
        <ele>390.3</ele>
        <time>2019-08-25T06:47:01Z</time>
      </trkpt>
      <trkpt lat="46.35374" lon="4.77328">
        <ele>390.5</ele>
        <time>2019-08-25T06:47:02Z</time>
      </trkpt>
      <trkpt lat="46.3538" lon="4.77331">
        <ele>391.1</ele>
        <time>2019-08-25T06:47:05Z</time>
      </trkpt>
      <trkpt lat="46.35387" lon="4.77335">
        <ele>391.4</ele>
        <time>2019-08-25T06:47:09Z</time>
      </trkpt>
      <trkpt lat="46.35389" lon="4.77336">
        <ele>391.5</ele>
        <time>2019-08-25T06:47:10Z</time>
      </trkpt>
      <trkpt lat="46.35392" lon="4.77338">
        <ele>391.7</ele>
        <time>2019-08-25T06:47:12Z</time>
      </trkpt>
      <trkpt lat="46.35404" lon="4.77341">
        <ele>392.2</ele>
        <time>2019-08-25T06:47:18Z</time>
      </trkpt>
      <trkpt lat="46.3541" lon="4.77343">
        <ele>392.6</ele>
        <time>2019-08-25T06:47:21Z</time>
      </trkpt>
      <trkpt lat="46.35418" lon="4.77345">
        <ele>393.1</ele>
        <time>2019-08-25T06:47:25Z</time>
      </trkpt>
      <trkpt lat="46.3542" lon="4.77344">
        <ele>393.2</ele>
        <time>2019-08-25T06:47:26Z</time>
      </trkpt>
      <trkpt lat="46.35434" lon="4.77342">
        <ele>393.7</ele>
        <time>2019-08-25T06:47:33Z</time>
      </trkpt>
      <trkpt lat="46.35448" lon="4.77342">
        <ele>394.2</ele>
        <time>2019-08-25T06:47:39Z</time>
      </trkpt>
      <trkpt lat="46.35453" lon="4.77342">
        <ele>394.3</ele>
        <time>2019-08-25T06:47:41Z</time>
      </trkpt>
      <trkpt lat="46.35468" lon="4.77342">
        <ele>394.5</ele>
        <time>2019-08-25T06:47:47Z</time>
      </trkpt>
      <trkpt lat="46.3548" lon="4.77344">
        <ele>394.4</ele>
        <time>2019-08-25T06:47:53Z</time>
      </trkpt>
      <trkpt lat="46.35484" lon="4.77347">
        <ele>394.4</ele>
        <time>2019-08-25T06:47:55Z</time>
      </trkpt>
      <trkpt lat="46.35486" lon="4.7735">
        <ele>394.3</ele>
        <time>2019-08-25T06:47:56Z</time>
      </trkpt>
      <trkpt lat="46.35493" lon="4.77356">
        <ele>394.2</ele>
        <time>2019-08-25T06:47:58Z</time>
      </trkpt>
      <trkpt lat="46.35508" lon="4.77369">
        <ele>393.8</ele>
        <time>2019-08-25T06:48:03Z</time>
      </trkpt>
      <trkpt lat="46.35515" lon="4.77376">
        <ele>393.6</ele>
        <time>2019-08-25T06:48:05Z</time>
      </trkpt>
      <trkpt lat="46.35524" lon="4.77385">
        <ele>393.5</ele>
        <time>2019-08-25T06:48:08Z</time>
      </trkpt>
      <trkpt lat="46.35542" lon="4.77397">
        <ele>393.4</ele>
        <time>2019-08-25T06:48:13Z</time>
      </trkpt>
      <trkpt lat="46.35561" lon="4.77399">
        <ele>393.5</ele>
        <time>2019-08-25T06:48:18Z</time>
      </trkpt>
      <trkpt lat="46.35586" lon="4.77398">
        <ele>394.1</ele>
        <time>2019-08-25T06:48:24Z</time>
      </trkpt>
      <trkpt lat="46.3559" lon="4.77398">
        <ele>394.1</ele>
        <time>2019-08-25T06:48:25Z</time>
      </trkpt>
      <trkpt lat="46.35613" lon="4.77399">
        <ele>394.7</ele>
        <time>2019-08-25T06:48:31Z</time>
      </trkpt>
      <trkpt lat="46.35631" lon="4.77403">
        <ele>395.1</ele>
        <time>2019-08-25T06:48:37Z</time>
      </trkpt>
      <trkpt lat="46.35634" lon="4.77404">
        <ele>395.2</ele>
        <time>2019-08-25T06:48:38Z</time>
      </trkpt>
      <trkpt lat="46.35647" lon="4.77404">
        <ele>395.4</ele>
        <time>2019-08-25T06:48:42Z</time>
      </trkpt>
      <trkpt lat="46.35651" lon="4.77403">
        <ele>395.5</ele>
        <time>2019-08-25T06:48:43Z</time>
      </trkpt>
      <trkpt lat="46.35672" lon="4.77402">
        <ele>395.8</ele>
        <time>2019-08-25T06:48:49Z</time>
      </trkpt>
      <trkpt lat="46.35676" lon="4.77403">
        <ele>395.9</ele>
        <time>2019-08-25T06:48:50Z</time>
      </trkpt>
      <trkpt lat="46.35683" lon="4.77403">
        <ele>396</ele>
        <time>2019-08-25T06:48:52Z</time>
      </trkpt>
      <trkpt lat="46.35693" lon="4.77404">
        <ele>396.3</ele>
        <time>2019-08-25T06:48:55Z</time>
      </trkpt>
      <trkpt lat="46.35695" lon="4.77405">
        <ele>396.4</ele>
        <time>2019-08-25T06:48:56Z</time>
      </trkpt>
      <trkpt lat="46.35698" lon="4.77406">
        <ele>396.5</ele>
        <time>2019-08-25T06:48:57Z</time>
      </trkpt>
      <trkpt lat="46.35704" lon="4.77408">
        <ele>396.6</ele>
        <time>2019-08-25T06:48:59Z</time>
      </trkpt>
      <trkpt lat="46.35712" lon="4.77412">
        <ele>396.8</ele>
        <time>2019-08-25T06:49:02Z</time>
      </trkpt>
      <trkpt lat="46.35717" lon="4.77415">
        <ele>396.8</ele>
        <time>2019-08-25T06:49:04Z</time>
      </trkpt>
      <trkpt lat="46.35723" lon="4.7742">
        <ele>396.9</ele>
        <time>2019-08-25T06:49:06Z</time>
      </trkpt>
      <trkpt lat="46.35731" lon="4.77429">
        <ele>396.9</ele>
        <time>2019-08-25T06:49:09Z</time>
      </trkpt>
      <trkpt lat="46.3575" lon="4.77445">
        <ele>396.5</ele>
        <time>2019-08-25T06:49:15Z</time>
      </trkpt>
      <trkpt lat="46.35753" lon="4.77448">
        <ele>396.2</ele>
        <time>2019-08-25T06:49:16Z</time>
      </trkpt>
      <trkpt lat="46.35768" lon="4.77459">
        <ele>394.3</ele>
        <time>2019-08-25T06:49:20Z</time>
      </trkpt>
      <trkpt lat="46.35771" lon="4.77462">
        <ele>393.5</ele>
        <time>2019-08-25T06:49:21Z</time>
      </trkpt>
      <trkpt lat="46.35793" lon="4.77476">
        <ele>390</ele>
        <time>2019-08-25T06:49:26Z</time>
      </trkpt>
      <trkpt lat="46.35802" lon="4.77479">
        <ele>388.1</ele>
        <time>2019-08-25T06:49:28Z</time>
      </trkpt>
      <trkpt lat="46.35812" lon="4.77485">
        <ele>386.1</ele>
        <time>2019-08-25T06:49:30Z</time>
      </trkpt>
      <trkpt lat="46.35818" lon="4.77489">
        <ele>385.2</ele>
        <time>2019-08-25T06:49:31Z</time>
      </trkpt>
      <trkpt lat="46.35846" lon="4.77512">
        <ele>380.3</ele>
        <time>2019-08-25T06:49:36Z</time>
      </trkpt>
      <trkpt lat="46.35875" lon="4.77539">
        <ele>376.5</ele>
        <time>2019-08-25T06:49:41Z</time>
      </trkpt>
      <trkpt lat="46.35892" lon="4.77555">
        <ele>374.2</ele>
        <time>2019-08-25T06:49:44Z</time>
      </trkpt>
      <trkpt lat="46.35903" lon="4.77565">
        <ele>373.1</ele>
        <time>2019-08-25T06:49:46Z</time>
      </trkpt>
      <trkpt lat="46.35915" lon="4.77575">
        <ele>372.1</ele>
        <time>2019-08-25T06:49:48Z</time>
      </trkpt>
      <trkpt lat="46.35921" lon="4.7758">
        <ele>371.5</ele>
        <time>2019-08-25T06:49:49Z</time>
      </trkpt>
      <trkpt lat="46.35927" lon="4.77583">
        <ele>371.1</ele>
        <time>2019-08-25T06:49:50Z</time>
      </trkpt>
      <trkpt lat="46.35944" lon="4.77595">
        <ele>369.7</ele>
        <time>2019-08-25T06:49:53Z</time>
      </trkpt>
      <trkpt lat="46.35959" lon="4.77608">
        <ele>368.2</ele>
        <time>2019-08-25T06:49:56Z</time>
      </trkpt>
      <trkpt lat="46.35967" lon="4.77614">
        <ele>367.2</ele>
        <time>2019-08-25T06:49:58Z</time>
      </trkpt>
      <trkpt lat="46.35972" lon="4.77616">
        <ele>366.7</ele>
        <time>2019-08-25T06:49:59Z</time>
      </trkpt>
      <trkpt lat="46.35978" lon="4.77618">
        <ele>366.2</ele>
        <time>2019-08-25T06:50:00Z</time>
      </trkpt>
      <trkpt lat="46.35989" lon="4.77621">
        <ele>365.4</ele>
        <time>2019-08-25T06:50:02Z</time>
      </trkpt>
      <trkpt lat="46.36007" lon="4.77627">
        <ele>364.5</ele>
        <time>2019-08-25T06:50:05Z</time>
      </trkpt>
      <trkpt lat="46.36013" lon="4.77628">
        <ele>364.3</ele>
        <time>2019-08-25T06:50:06Z</time>
      </trkpt>
      <trkpt lat="46.36026" lon="4.77631">
        <ele>363.8</ele>
        <time>2019-08-25T06:50:08Z</time>
      </trkpt>
      <trkpt lat="46.36032" lon="4.77631">
        <ele>363.5</ele>
        <time>2019-08-25T06:50:09Z</time>
      </trkpt>
      <trkpt lat="46.36042" lon="4.77635">
        <ele>363.1</ele>
        <time>2019-08-25T06:50:11Z</time>
      </trkpt>
      <trkpt lat="46.36047" lon="4.77638">
        <ele>363</ele>
        <time>2019-08-25T06:50:12Z</time>
      </trkpt>
      <trkpt lat="46.36056" lon="4.77648">
        <ele>362.6</ele>
        <time>2019-08-25T06:50:14Z</time>
      </trkpt>
      <trkpt lat="46.36067" lon="4.77662">
        <ele>361.5</ele>
        <time>2019-08-25T06:50:16Z</time>
      </trkpt>
      <trkpt lat="46.36077" lon="4.77673">
        <ele>360.2</ele>
        <time>2019-08-25T06:50:18Z</time>
      </trkpt>
      <trkpt lat="46.36083" lon="4.77676">
        <ele>359.5</ele>
        <time>2019-08-25T06:50:19Z</time>
      </trkpt>
      <trkpt lat="46.36089" lon="4.77679">
        <ele>358.9</ele>
        <time>2019-08-25T06:50:20Z</time>
      </trkpt>
      <trkpt lat="46.36101" lon="4.77683">
        <ele>357.9</ele>
        <time>2019-08-25T06:50:22Z</time>
      </trkpt>
      <trkpt lat="46.36123" lon="4.7769">
        <ele>356</ele>
        <time>2019-08-25T06:50:25Z</time>
      </trkpt>
      <trkpt lat="46.36148" lon="4.777">
        <ele>355</ele>
        <time>2019-08-25T06:50:28Z</time>
      </trkpt>
      <trkpt lat="46.36163" lon="4.77698">
        <ele>354.8</ele>
        <time>2019-08-25T06:50:30Z</time>
      </trkpt>
      <trkpt lat="46.3617" lon="4.77696">
        <ele>354.7</ele>
        <time>2019-08-25T06:50:31Z</time>
      </trkpt>
      <trkpt lat="46.36177" lon="4.77693">
        <ele>354.6</ele>
        <time>2019-08-25T06:50:32Z</time>
      </trkpt>
      <trkpt lat="46.36182" lon="4.77692">
        <ele>354.5</ele>
        <time>2019-08-25T06:50:33Z</time>
      </trkpt>
      <trkpt lat="46.36187" lon="4.77693">
        <ele>354.4</ele>
        <time>2019-08-25T06:50:34Z</time>
      </trkpt>
      <trkpt lat="46.3619" lon="4.77694">
        <ele>354.4</ele>
        <time>2019-08-25T06:50:35Z</time>
      </trkpt>
      <trkpt lat="46.36197" lon="4.77701">
        <ele>354.2</ele>
        <time>2019-08-25T06:50:38Z</time>
      </trkpt>
      <trkpt lat="46.362" lon="4.77703">
        <ele>354.2</ele>
        <time>2019-08-25T06:50:39Z</time>
      </trkpt>
      <trkpt lat="46.36206" lon="4.77706">
        <ele>354</ele>
        <time>2019-08-25T06:50:41Z</time>
      </trkpt>
      <trkpt lat="46.36213" lon="4.77707">
        <ele>353.8</ele>
        <time>2019-08-25T06:50:43Z</time>
      </trkpt>
      <trkpt lat="46.36217" lon="4.77706">
        <ele>353.6</ele>
        <time>2019-08-25T06:50:44Z</time>
      </trkpt>
      <trkpt lat="46.36221" lon="4.77705">
        <ele>353.5</ele>
        <time>2019-08-25T06:50:45Z</time>
      </trkpt>
      <trkpt lat="46.36231" lon="4.77702">
        <ele>353.2</ele>
        <time>2019-08-25T06:50:47Z</time>
      </trkpt>
      <trkpt lat="46.36242" lon="4.77697">
        <ele>353.1</ele>
        <time>2019-08-25T06:50:49Z</time>
      </trkpt>
      <trkpt lat="46.36257" lon="4.77692">
        <ele>352.9</ele>
        <time>2019-08-25T06:50:52Z</time>
      </trkpt>
      <trkpt lat="46.3627" lon="4.77688">
        <ele>352.8</ele>
        <time>2019-08-25T06:50:55Z</time>
      </trkpt>
      <trkpt lat="46.36274" lon="4.77686">
        <ele>352.8</ele>
        <time>2019-08-25T06:50:56Z</time>
      </trkpt>
      <trkpt lat="46.36283" lon="4.77684">
        <ele>352.7</ele>
        <time>2019-08-25T06:50:58Z</time>
      </trkpt>
      <trkpt lat="46.36292" lon="4.77678">
        <ele>352.6</ele>
        <time>2019-08-25T06:51:00Z</time>
      </trkpt>
      <trkpt lat="46.36304" lon="4.77669">
        <ele>352.5</ele>
        <time>2019-08-25T06:51:03Z</time>
      </trkpt>
      <trkpt lat="46.36318" lon="4.77662">
        <ele>352.2</ele>
        <time>2019-08-25T06:51:06Z</time>
      </trkpt>
      <trkpt lat="46.36332" lon="4.77655">
        <ele>352.1</ele>
        <time>2019-08-25T06:51:09Z</time>
      </trkpt>
      <trkpt lat="46.36341" lon="4.77649">
        <ele>352</ele>
        <time>2019-08-25T06:51:11Z</time>
      </trkpt>
      <trkpt lat="46.36345" lon="4.77645">
        <ele>351.9</ele>
        <time>2019-08-25T06:51:12Z</time>
      </trkpt>
      <trkpt lat="46.3636" lon="4.77628">
        <ele>351.8</ele>
        <time>2019-08-25T06:51:16Z</time>
      </trkpt>
      <trkpt lat="46.36367" lon="4.77619">
        <ele>351.8</ele>
        <time>2019-08-25T06:51:18Z</time>
      </trkpt>
      <trkpt lat="46.36374" lon="4.7761">
        <ele>351.7</ele>
        <time>2019-08-25T06:51:20Z</time>
      </trkpt>
      <trkpt lat="46.36385" lon="4.77585">
        <ele>351.7</ele>
        <time>2019-08-25T06:51:24Z</time>
      </trkpt>
      <trkpt lat="46.3639" lon="4.77572">
        <ele>351.7</ele>
        <time>2019-08-25T06:51:26Z</time>
      </trkpt>
      <trkpt lat="46.36397" lon="4.77561">
        <ele>351.7</ele>
        <time>2019-08-25T06:51:29Z</time>
      </trkpt>
      <trkpt lat="46.36399" lon="4.77556">
        <ele>351.7</ele>
        <time>2019-08-25T06:51:31Z</time>
      </trkpt>
      <trkpt lat="46.36404" lon="4.77546">
        <ele>351.7</ele>
        <time>2019-08-25T06:51:34Z</time>
      </trkpt>
      <trkpt lat="46.36406" lon="4.77544">
        <ele>351.7</ele>
        <time>2019-08-25T06:51:35Z</time>
      </trkpt>
      <trkpt lat="46.36408" lon="4.77541">
        <ele>351.7</ele>
        <time>2019-08-25T06:51:36Z</time>
      </trkpt>
      <trkpt lat="46.3641" lon="4.77539">
        <ele>351.7</ele>
        <time>2019-08-25T06:51:37Z</time>
      </trkpt>
      <trkpt lat="46.36415" lon="4.77535">
        <ele>351.8</ele>
        <time>2019-08-25T06:51:39Z</time>
      </trkpt>
      <trkpt lat="46.3642" lon="4.77533">
        <ele>351.8</ele>
        <time>2019-08-25T06:51:41Z</time>
      </trkpt>
      <trkpt lat="46.36423" lon="4.77531">
        <ele>351.9</ele>
        <time>2019-08-25T06:51:42Z</time>
      </trkpt>
      <trkpt lat="46.36427" lon="4.77525">
        <ele>351.9</ele>
        <time>2019-08-25T06:51:44Z</time>
      </trkpt>
      <trkpt lat="46.3643" lon="4.77517">
        <ele>352.1</ele>
        <time>2019-08-25T06:51:46Z</time>
      </trkpt>
      <trkpt lat="46.36431" lon="4.77512">
        <ele>352.1</ele>
        <time>2019-08-25T06:51:47Z</time>
      </trkpt>
      <trkpt lat="46.36432" lon="4.77508">
        <ele>352.2</ele>
        <time>2019-08-25T06:51:48Z</time>
      </trkpt>
      <trkpt lat="46.36433" lon="4.775">
        <ele>352.3</ele>
        <time>2019-08-25T06:51:50Z</time>
      </trkpt>
      <trkpt lat="46.36434" lon="4.77495">
        <ele>352.4</ele>
        <time>2019-08-25T06:51:51Z</time>
      </trkpt>
      <trkpt lat="46.36435" lon="4.7749">
        <ele>352.5</ele>
        <time>2019-08-25T06:51:52Z</time>
      </trkpt>
      <trkpt lat="46.36436" lon="4.77485">
        <ele>352.6</ele>
        <time>2019-08-25T06:51:53Z</time>
      </trkpt>
      <trkpt lat="46.36442" lon="4.77472">
        <ele>352.9</ele>
        <time>2019-08-25T06:51:56Z</time>
      </trkpt>
      <trkpt lat="46.36444" lon="4.77467">
        <ele>353</ele>
        <time>2019-08-25T06:51:57Z</time>
      </trkpt>
      <trkpt lat="46.36446" lon="4.77462">
        <ele>353.1</ele>
        <time>2019-08-25T06:51:58Z</time>
      </trkpt>
      <trkpt lat="46.36457" lon="4.77444">
        <ele>353.5</ele>
        <time>2019-08-25T06:52:03Z</time>
      </trkpt>
      <trkpt lat="46.36459" lon="4.77441">
        <ele>353.6</ele>
        <time>2019-08-25T06:52:04Z</time>
      </trkpt>
      <trkpt lat="46.36465" lon="4.7743">
        <ele>353.8</ele>
        <time>2019-08-25T06:52:07Z</time>
      </trkpt>
      <trkpt lat="46.3647" lon="4.77419">
        <ele>354.1</ele>
        <time>2019-08-25T06:52:10Z</time>
      </trkpt>
      <trkpt lat="46.36479" lon="4.77394">
        <ele>354.8</ele>
        <time>2019-08-25T06:52:16Z</time>
      </trkpt>
      <trkpt lat="46.36482" lon="4.77386">
        <ele>355</ele>
        <time>2019-08-25T06:52:18Z</time>
      </trkpt>
      <trkpt lat="46.3649" lon="4.77358">
        <ele>355.4</ele>
        <time>2019-08-25T06:52:24Z</time>
      </trkpt>
      <trkpt lat="46.36498" lon="4.77335">
        <ele>355.7</ele>
        <time>2019-08-25T06:52:29Z</time>
      </trkpt>
      <trkpt lat="46.365" lon="4.77331">
        <ele>355.7</ele>
        <time>2019-08-25T06:52:30Z</time>
      </trkpt>
      <trkpt lat="46.36505" lon="4.7731">
        <ele>356</ele>
        <time>2019-08-25T06:52:35Z</time>
      </trkpt>
      <trkpt lat="46.36505" lon="4.773">
        <ele>356.1</ele>
        <time>2019-08-25T06:52:37Z</time>
      </trkpt>
      <trkpt lat="46.36508" lon="4.77273">
        <ele>356.3</ele>
        <time>2019-08-25T06:52:42Z</time>
      </trkpt>
      <trkpt lat="46.36513" lon="4.77237">
        <ele>356.1</ele>
        <time>2019-08-25T06:52:48Z</time>
      </trkpt>
      <trkpt lat="46.36516" lon="4.77204">
        <ele>355.7</ele>
        <time>2019-08-25T06:52:52Z</time>
      </trkpt>
      <trkpt lat="46.36516" lon="4.77189">
        <ele>355.4</ele>
        <time>2019-08-25T06:52:54Z</time>
      </trkpt>
      <trkpt lat="46.36518" lon="4.77145">
        <ele>354.2</ele>
        <time>2019-08-25T06:52:59Z</time>
      </trkpt>
      <trkpt lat="46.36519" lon="4.77135">
        <ele>353.9</ele>
        <time>2019-08-25T06:53:00Z</time>
      </trkpt>
      <trkpt lat="46.36522" lon="4.77095">
        <ele>352.5</ele>
        <time>2019-08-25T06:53:04Z</time>
      </trkpt>
      <trkpt lat="46.36527" lon="4.77043">
        <ele>351.2</ele>
        <time>2019-08-25T06:53:09Z</time>
      </trkpt>
      <trkpt lat="46.36529" lon="4.77035">
        <ele>350.8</ele>
        <time>2019-08-25T06:53:10Z</time>
      </trkpt>
      <trkpt lat="46.36531" lon="4.77026">
        <ele>350.4</ele>
        <time>2019-08-25T06:53:11Z</time>
      </trkpt>
      <trkpt lat="46.36533" lon="4.77007">
        <ele>349.6</ele>
        <time>2019-08-25T06:53:13Z</time>
      </trkpt>
      <trkpt lat="46.36534" lon="4.76998">
        <ele>349.3</ele>
        <time>2019-08-25T06:53:14Z</time>
      </trkpt>
      <trkpt lat="46.36535" lon="4.76969">
        <ele>348.8</ele>
        <time>2019-08-25T06:53:17Z</time>
      </trkpt>
      <trkpt lat="46.36536" lon="4.76919">
        <ele>347.8</ele>
        <time>2019-08-25T06:53:22Z</time>
      </trkpt>
      <trkpt lat="46.36537" lon="4.76897">
        <ele>347.2</ele>
        <time>2019-08-25T06:53:24Z</time>
      </trkpt>
      <trkpt lat="46.36537" lon="4.76876">
        <ele>346.4</ele>
        <time>2019-08-25T06:53:26Z</time>
      </trkpt>
      <trkpt lat="46.36546" lon="4.76839">
        <ele>345.1</ele>
        <time>2019-08-25T06:53:30Z</time>
      </trkpt>
      <trkpt lat="46.3655" lon="4.76823">
        <ele>344.7</ele>
        <time>2019-08-25T06:53:33Z</time>
      </trkpt>
      <trkpt lat="46.36552" lon="4.76822">
        <ele>344.7</ele>
        <time>2019-08-25T06:53:34Z</time>
      </trkpt>
      <trkpt lat="46.36565" lon="4.76825">
        <ele>344.8</ele>
        <time>2019-08-25T06:53:38Z</time>
      </trkpt>
      <trkpt lat="46.36589" lon="4.76831">
        <ele>345.3</ele>
        <time>2019-08-25T06:53:43Z</time>
      </trkpt>
      <trkpt lat="46.36593" lon="4.76834">
        <ele>345.4</ele>
        <time>2019-08-25T06:53:44Z</time>
      </trkpt>
      <trkpt lat="46.36604" lon="4.76843">
        <ele>345.8</ele>
        <time>2019-08-25T06:53:48Z</time>
      </trkpt>
      <trkpt lat="46.36615" lon="4.76848">
        <ele>346.1</ele>
        <time>2019-08-25T06:53:51Z</time>
      </trkpt>
      <trkpt lat="46.36619" lon="4.76849">
        <ele>346.2</ele>
        <time>2019-08-25T06:53:52Z</time>
      </trkpt>
      <trkpt lat="46.36623" lon="4.7685">
        <ele>346.4</ele>
        <time>2019-08-25T06:53:53Z</time>
      </trkpt>
      <trkpt lat="46.3663" lon="4.76852">
        <ele>346.8</ele>
        <time>2019-08-25T06:53:55Z</time>
      </trkpt>
      <trkpt lat="46.3664" lon="4.76852">
        <ele>346.9</ele>
        <time>2019-08-25T06:53:57Z</time>
      </trkpt>
      <trkpt lat="46.36645" lon="4.76852">
        <ele>347</ele>
        <time>2019-08-25T06:53:58Z</time>
      </trkpt>
      <trkpt lat="46.36668" lon="4.76848">
        <ele>346.3</ele>
        <time>2019-08-25T06:54:02Z</time>
      </trkpt>
      <trkpt lat="46.36693" lon="4.76842">
        <ele>343.8</ele>
        <time>2019-08-25T06:54:06Z</time>
      </trkpt>
      <trkpt lat="46.36704" lon="4.76842">
        <ele>342.4</ele>
        <time>2019-08-25T06:54:08Z</time>
      </trkpt>
      <trkpt lat="46.36721" lon="4.76845">
        <ele>340</ele>
        <time>2019-08-25T06:54:11Z</time>
      </trkpt>
      <trkpt lat="46.36733" lon="4.76846">
        <ele>338.4</ele>
        <time>2019-08-25T06:54:13Z</time>
      </trkpt>
      <trkpt lat="46.36739" lon="4.76847">
        <ele>337.5</ele>
        <time>2019-08-25T06:54:14Z</time>
      </trkpt>
      <trkpt lat="46.36745" lon="4.76847">
        <ele>336.9</ele>
        <time>2019-08-25T06:54:15Z</time>
      </trkpt>
      <trkpt lat="46.3675" lon="4.76848">
        <ele>336.3</ele>
        <time>2019-08-25T06:54:16Z</time>
      </trkpt>
      <trkpt lat="46.36768" lon="4.76851">
        <ele>334.6</ele>
        <time>2019-08-25T06:54:19Z</time>
      </trkpt>
      <trkpt lat="46.3679" lon="4.76852">
        <ele>333</ele>
        <time>2019-08-25T06:54:23Z</time>
      </trkpt>
      <trkpt lat="46.368" lon="4.76854">
        <ele>332.3</ele>
        <time>2019-08-25T06:54:25Z</time>
      </trkpt>
      <trkpt lat="46.36829" lon="4.76855">
        <ele>331.8</ele>
        <time>2019-08-25T06:54:30Z</time>
      </trkpt>
      <trkpt lat="46.36842" lon="4.76856">
        <ele>332.1</ele>
        <time>2019-08-25T06:54:32Z</time>
      </trkpt>
      <trkpt lat="46.36868" lon="4.76856">
        <ele>332.4</ele>
        <time>2019-08-25T06:54:36Z</time>
      </trkpt>
      <trkpt lat="46.36897" lon="4.76855">
        <ele>331.5</ele>
        <time>2019-08-25T06:54:40Z</time>
      </trkpt>
      <trkpt lat="46.3692" lon="4.76854">
        <ele>331.2</ele>
        <time>2019-08-25T06:54:43Z</time>
      </trkpt>
      <trkpt lat="46.36942" lon="4.76864">
        <ele>330.9</ele>
        <time>2019-08-25T06:54:46Z</time>
      </trkpt>
      <trkpt lat="46.36948" lon="4.76868">
        <ele>330.7</ele>
        <time>2019-08-25T06:54:47Z</time>
      </trkpt>
      <trkpt lat="46.36969" lon="4.76886">
        <ele>330.5</ele>
        <time>2019-08-25T06:54:51Z</time>
      </trkpt>
      <trkpt lat="46.36973" lon="4.76891">
        <ele>330.5</ele>
        <time>2019-08-25T06:54:52Z</time>
      </trkpt>
      <trkpt lat="46.36981" lon="4.76901">
        <ele>330.6</ele>
        <time>2019-08-25T06:54:54Z</time>
      </trkpt>
      <trkpt lat="46.36991" lon="4.76918">
        <ele>330.7</ele>
        <time>2019-08-25T06:54:57Z</time>
      </trkpt>
      <trkpt lat="46.37008" lon="4.76946">
        <ele>330.8</ele>
        <time>2019-08-25T06:55:02Z</time>
      </trkpt>
      <trkpt lat="46.37012" lon="4.76952">
        <ele>330.9</ele>
        <time>2019-08-25T06:55:03Z</time>
      </trkpt>
      <trkpt lat="46.37021" lon="4.76965">
        <ele>331</ele>
        <time>2019-08-25T06:55:05Z</time>
      </trkpt>
      <trkpt lat="46.3703" lon="4.76985">
        <ele>330.8</ele>
        <time>2019-08-25T06:55:08Z</time>
      </trkpt>
      <trkpt lat="46.3705" lon="4.77028">
        <ele>330.8</ele>
        <time>2019-08-25T06:55:14Z</time>
      </trkpt>
      <trkpt lat="46.37069" lon="4.7706">
        <ele>330.1</ele>
        <time>2019-08-25T06:55:19Z</time>
      </trkpt>
      <trkpt lat="46.37073" lon="4.77068">
        <ele>329.9</ele>
        <time>2019-08-25T06:55:20Z</time>
      </trkpt>
      <trkpt lat="46.37095" lon="4.7711">
        <ele>329.1</ele>
        <time>2019-08-25T06:55:26Z</time>
      </trkpt>
      <trkpt lat="46.3712" lon="4.77152">
        <ele>328.5</ele>
        <time>2019-08-25T06:55:32Z</time>
      </trkpt>
      <trkpt lat="46.37139" lon="4.77198">
        <ele>329.2</ele>
        <time>2019-08-25T06:55:37Z</time>
      </trkpt>
      <trkpt lat="46.37143" lon="4.77207">
        <ele>328.9</ele>
        <time>2019-08-25T06:55:38Z</time>
      </trkpt>
      <trkpt lat="46.37161" lon="4.77249">
        <ele>328.8</ele>
        <time>2019-08-25T06:55:43Z</time>
      </trkpt>
      <trkpt lat="46.37172" lon="4.77271">
        <ele>328.4</ele>
        <time>2019-08-25T06:55:46Z</time>
      </trkpt>
      <trkpt lat="46.37182" lon="4.77281">
        <ele>327</ele>
        <time>2019-08-25T06:55:48Z</time>
      </trkpt>
      <trkpt lat="46.37195" lon="4.77288">
        <ele>324.9</ele>
        <time>2019-08-25T06:55:50Z</time>
      </trkpt>
      <trkpt lat="46.37207" lon="4.77296">
        <ele>323.2</ele>
        <time>2019-08-25T06:55:52Z</time>
      </trkpt>
      <trkpt lat="46.37212" lon="4.773">
        <ele>322.7</ele>
        <time>2019-08-25T06:55:53Z</time>
      </trkpt>
      <trkpt lat="46.37216" lon="4.77306">
        <ele>321.8</ele>
        <time>2019-08-25T06:55:55Z</time>
      </trkpt>
      <trkpt lat="46.37213" lon="4.77322">
        <ele>323.1</ele>
        <time>2019-08-25T06:56:00Z</time>
      </trkpt>
      <trkpt lat="46.37212" lon="4.77334">
        <ele>324.2</ele>
        <time>2019-08-25T06:56:03Z</time>
      </trkpt>
      <trkpt lat="46.37211" lon="4.77342">
        <ele>324.8</ele>
        <time>2019-08-25T06:56:05Z</time>
      </trkpt>
      <trkpt lat="46.37211" lon="4.77361">
        <ele>326.1</ele>
        <time>2019-08-25T06:56:11Z</time>
      </trkpt>
      <trkpt lat="46.3721" lon="4.77368">
        <ele>326.5</ele>
        <time>2019-08-25T06:56:14Z</time>
      </trkpt>
      <trkpt lat="46.37209" lon="4.77375">
        <ele>327</ele>
        <time>2019-08-25T06:56:17Z</time>
      </trkpt>
      <trkpt lat="46.37201" lon="4.77402">
        <ele>328.6</ele>
        <time>2019-08-25T06:56:23Z</time>
      </trkpt>
      <trkpt lat="46.37189" lon="4.77433">
        <ele>330.3</ele>
        <time>2019-08-25T06:56:30Z</time>
      </trkpt>
      <trkpt lat="46.37182" lon="4.77448">
        <ele>331</ele>
        <time>2019-08-25T06:56:34Z</time>
      </trkpt>
      <trkpt lat="46.37178" lon="4.77459">
        <ele>331.5</ele>
        <time>2019-08-25T06:56:37Z</time>
      </trkpt>
      <trkpt lat="46.3717" lon="4.77477">
        <ele>332.2</ele>
        <time>2019-08-25T06:56:42Z</time>
      </trkpt>
      <trkpt lat="46.37167" lon="4.77486">
        <ele>332.4</ele>
        <time>2019-08-25T06:56:44Z</time>
      </trkpt>
      <trkpt lat="46.37166" lon="4.77494">
        <ele>332.6</ele>
        <time>2019-08-25T06:56:46Z</time>
      </trkpt>
      <trkpt lat="46.37162" lon="4.77512">
        <ele>333.2</ele>
        <time>2019-08-25T06:56:50Z</time>
      </trkpt>
      <trkpt lat="46.37157" lon="4.7753">
        <ele>334.2</ele>
        <time>2019-08-25T06:56:55Z</time>
      </trkpt>
      <trkpt lat="46.37147" lon="4.7756">
        <ele>336.2</ele>
        <time>2019-08-25T06:57:02Z</time>
      </trkpt>
      <trkpt lat="46.37135" lon="4.77581">
        <ele>337.6</ele>
        <time>2019-08-25T06:57:09Z</time>
      </trkpt>
      <trkpt lat="46.37122" lon="4.77599">
        <ele>338.6</ele>
        <time>2019-08-25T06:57:16Z</time>
      </trkpt>
      <trkpt lat="46.37108" lon="4.77626">
        <ele>339.8</ele>
        <time>2019-08-25T06:57:23Z</time>
      </trkpt>
      <trkpt lat="46.37104" lon="4.77635">
        <ele>340</ele>
        <time>2019-08-25T06:57:25Z</time>
      </trkpt>
      <trkpt lat="46.37098" lon="4.77646">
        <ele>340</ele>
        <time>2019-08-25T06:57:29Z</time>
      </trkpt>
      <trkpt lat="46.37085" lon="4.77669">
        <ele>339.6</ele>
        <time>2019-08-25T06:57:36Z</time>
      </trkpt>
      <trkpt lat="46.37082" lon="4.77678">
        <ele>339.6</ele>
        <time>2019-08-25T06:57:38Z</time>
      </trkpt>
      <trkpt lat="46.37082" lon="4.77693">
        <ele>339.6</ele>
        <time>2019-08-25T06:57:41Z</time>
      </trkpt>
      <trkpt lat="46.37081" lon="4.77698">
        <ele>339.5</ele>
        <time>2019-08-25T06:57:42Z</time>
      </trkpt>
      <trkpt lat="46.37082" lon="4.77715">
        <ele>339.5</ele>
        <time>2019-08-25T06:57:46Z</time>
      </trkpt>
      <trkpt lat="46.37081" lon="4.77725">
        <ele>339.6</ele>
        <time>2019-08-25T06:57:48Z</time>
      </trkpt>
      <trkpt lat="46.37081" lon="4.77742">
        <ele>340.2</ele>
        <time>2019-08-25T06:57:51Z</time>
      </trkpt>
      <trkpt lat="46.37082" lon="4.77747">
        <ele>340.5</ele>
        <time>2019-08-25T06:57:52Z</time>
      </trkpt>
      <trkpt lat="46.37079" lon="4.77765">
        <ele>342.4</ele>
        <time>2019-08-25T06:57:56Z</time>
      </trkpt>
      <trkpt lat="46.37077" lon="4.77769">
        <ele>342.9</ele>
        <time>2019-08-25T06:57:57Z</time>
      </trkpt>
      <trkpt lat="46.37071" lon="4.77776">
        <ele>343.5</ele>
        <time>2019-08-25T06:58:00Z</time>
      </trkpt>
      <trkpt lat="46.37067" lon="4.77778">
        <ele>343.9</ele>
        <time>2019-08-25T06:58:02Z</time>
      </trkpt>
      <trkpt lat="46.37054" lon="4.77777">
        <ele>344.9</ele>
        <time>2019-08-25T06:58:07Z</time>
      </trkpt>
      <trkpt lat="46.37041" lon="4.77778">
        <ele>345.5</ele>
        <time>2019-08-25T06:58:13Z</time>
      </trkpt>
      <trkpt lat="46.37039" lon="4.77778">
        <ele>345.6</ele>
        <time>2019-08-25T06:58:14Z</time>
      </trkpt>
      <trkpt lat="46.37032" lon="4.77777">
        <ele>346</ele>
        <time>2019-08-25T06:58:17Z</time>
      </trkpt>
      <trkpt lat="46.37023" lon="4.77777">
        <ele>346.6</ele>
        <time>2019-08-25T06:58:21Z</time>
      </trkpt>
      <trkpt lat="46.37018" lon="4.77778">
        <ele>347</ele>
        <time>2019-08-25T06:58:23Z</time>
      </trkpt>
      <trkpt lat="46.37012" lon="4.77784">
        <ele>347.7</ele>
        <time>2019-08-25T06:58:26Z</time>
      </trkpt>
      <trkpt lat="46.37011" lon="4.77792">
        <ele>347.9</ele>
        <time>2019-08-25T06:58:28Z</time>
      </trkpt>
      <trkpt lat="46.3701" lon="4.778">
        <ele>347.8</ele>
        <time>2019-08-25T06:58:30Z</time>
      </trkpt>
      <trkpt lat="46.37014" lon="4.77823">
        <ele>347.4</ele>
        <time>2019-08-25T06:58:35Z</time>
      </trkpt>
      <trkpt lat="46.37021" lon="4.77835">
        <ele>346.6</ele>
        <time>2019-08-25T06:58:37Z</time>
      </trkpt>
      <trkpt lat="46.3703" lon="4.77845">
        <ele>344.4</ele>
        <time>2019-08-25T06:58:39Z</time>
      </trkpt>
      <trkpt lat="46.37052" lon="4.77864">
        <ele>340.2</ele>
        <time>2019-08-25T06:58:43Z</time>
      </trkpt>
      <trkpt lat="46.37064" lon="4.77879">
        <ele>338</ele>
        <time>2019-08-25T06:58:45Z</time>
      </trkpt>
      <trkpt lat="46.37076" lon="4.77897">
        <ele>335.7</ele>
        <time>2019-08-25T06:58:47Z</time>
      </trkpt>
      <trkpt lat="46.37087" lon="4.77916">
        <ele>333.4</ele>
        <time>2019-08-25T06:58:49Z</time>
      </trkpt>
      <trkpt lat="46.37094" lon="4.77938">
        <ele>332.5</ele>
        <time>2019-08-25T06:58:51Z</time>
      </trkpt>
      <trkpt lat="46.37106" lon="4.77978">
        <ele>330.3</ele>
        <time>2019-08-25T06:58:55Z</time>
      </trkpt>
      <trkpt lat="46.37116" lon="4.77984">
        <ele>328.8</ele>
        <time>2019-08-25T06:58:57Z</time>
      </trkpt>
      <trkpt lat="46.37124" lon="4.77982">
        <ele>328.4</ele>
        <time>2019-08-25T06:58:58Z</time>
      </trkpt>
      <trkpt lat="46.37132" lon="4.7798">
        <ele>327.5</ele>
        <time>2019-08-25T06:58:59Z</time>
      </trkpt>
      <trkpt lat="46.3714" lon="4.77976">
        <ele>326.6</ele>
        <time>2019-08-25T06:59:00Z</time>
      </trkpt>
      <trkpt lat="46.37158" lon="4.77971">
        <ele>324.9</ele>
        <time>2019-08-25T06:59:02Z</time>
      </trkpt>
      <trkpt lat="46.37167" lon="4.77972">
        <ele>323.8</ele>
        <time>2019-08-25T06:59:03Z</time>
      </trkpt>
      <trkpt lat="46.37176" lon="4.77975">
        <ele>322.6</ele>
        <time>2019-08-25T06:59:04Z</time>
      </trkpt>
      <trkpt lat="46.37203" lon="4.77986">
        <ele>319.3</ele>
        <time>2019-08-25T06:59:07Z</time>
      </trkpt>
      <trkpt lat="46.37212" lon="4.7799">
        <ele>318.1</ele>
        <time>2019-08-25T06:59:08Z</time>
      </trkpt>
      <trkpt lat="46.37248" lon="4.77997">
        <ele>313.7</ele>
        <time>2019-08-25T06:59:12Z</time>
      </trkpt>
      <trkpt lat="46.37257" lon="4.77995">
        <ele>312.3</ele>
        <time>2019-08-25T06:59:13Z</time>
      </trkpt>
      <trkpt lat="46.37277" lon="4.77985">
        <ele>309.5</ele>
        <time>2019-08-25T06:59:15Z</time>
      </trkpt>
      <trkpt lat="46.37287" lon="4.77979">
        <ele>308.4</ele>
        <time>2019-08-25T06:59:16Z</time>
      </trkpt>
      <trkpt lat="46.37297" lon="4.77973">
        <ele>307.1</ele>
        <time>2019-08-25T06:59:17Z</time>
      </trkpt>
      <trkpt lat="46.37305" lon="4.77968">
        <ele>306.1</ele>
        <time>2019-08-25T06:59:18Z</time>
      </trkpt>
      <trkpt lat="46.37319" lon="4.77959">
        <ele>305.2</ele>
        <time>2019-08-25T06:59:20Z</time>
      </trkpt>
      <trkpt lat="46.37335" lon="4.77955">
        <ele>304.7</ele>
        <time>2019-08-25T06:59:23Z</time>
      </trkpt>
      <trkpt lat="46.3734" lon="4.77955">
        <ele>304.6</ele>
        <time>2019-08-25T06:59:24Z</time>
      </trkpt>
      <trkpt lat="46.37343" lon="4.7796">
        <ele>304.5</ele>
        <time>2019-08-25T06:59:25Z</time>
      </trkpt>
      <trkpt lat="46.37351" lon="4.7796">
        <ele>304.5</ele>
        <time>2019-08-25T06:59:27Z</time>
      </trkpt>
      <trkpt lat="46.37355" lon="4.77957">
        <ele>304.4</ele>
        <time>2019-08-25T06:59:28Z</time>
      </trkpt>
      <trkpt lat="46.37359" lon="4.77954">
        <ele>304.3</ele>
        <time>2019-08-25T06:59:29Z</time>
      </trkpt>
      <trkpt lat="46.37362" lon="4.77955">
        <ele>304.2</ele>
        <time>2019-08-25T06:59:30Z</time>
      </trkpt>
      <trkpt lat="46.37365" lon="4.77956">
        <ele>304.1</ele>
        <time>2019-08-25T06:59:31Z</time>
      </trkpt>
      <trkpt lat="46.3737" lon="4.77955">
        <ele>304</ele>
        <time>2019-08-25T06:59:32Z</time>
      </trkpt>
      <trkpt lat="46.37379" lon="4.77951">
        <ele>303.9</ele>
        <time>2019-08-25T06:59:34Z</time>
      </trkpt>
      <trkpt lat="46.37383" lon="4.77949">
        <ele>303.7</ele>
        <time>2019-08-25T06:59:35Z</time>
      </trkpt>
      <trkpt lat="46.37387" lon="4.77948">
        <ele>303.6</ele>
        <time>2019-08-25T06:59:36Z</time>
      </trkpt>
      <trkpt lat="46.37402" lon="4.77947">
        <ele>302.9</ele>
        <time>2019-08-25T06:59:39Z</time>
      </trkpt>
      <trkpt lat="46.37412" lon="4.77947">
        <ele>302.4</ele>
        <time>2019-08-25T06:59:41Z</time>
      </trkpt>
      <trkpt lat="46.37421" lon="4.77944">
        <ele>302</ele>
        <time>2019-08-25T06:59:43Z</time>
      </trkpt>
      <trkpt lat="46.3743" lon="4.7794">
        <ele>301.7</ele>
        <time>2019-08-25T06:59:45Z</time>
      </trkpt>
      <trkpt lat="46.37435" lon="4.77938">
        <ele>301.6</ele>
        <time>2019-08-25T06:59:46Z</time>
      </trkpt>
      <trkpt lat="46.3745" lon="4.77927">
        <ele>301.1</ele>
        <time>2019-08-25T06:59:50Z</time>
      </trkpt>
      <trkpt lat="46.37453" lon="4.77924">
        <ele>301</ele>
        <time>2019-08-25T06:59:51Z</time>
      </trkpt>
      <trkpt lat="46.37458" lon="4.77923">
        <ele>300.9</ele>
        <time>2019-08-25T06:59:52Z</time>
      </trkpt>
      <trkpt lat="46.37466" lon="4.7792">
        <ele>300.7</ele>
        <time>2019-08-25T06:59:54Z</time>
      </trkpt>
      <trkpt lat="46.37471" lon="4.7792">
        <ele>300.6</ele>
        <time>2019-08-25T06:59:55Z</time>
      </trkpt>
      <trkpt lat="46.37481" lon="4.77925">
        <ele>300.1</ele>
        <time>2019-08-25T06:59:58Z</time>
      </trkpt>
      <trkpt lat="46.37486" lon="4.77941">
        <ele>300</ele>
        <time>2019-08-25T07:00:01Z</time>
      </trkpt>
      <trkpt lat="46.37489" lon="4.77959">
        <ele>299.8</ele>
        <time>2019-08-25T07:00:04Z</time>
      </trkpt>
      <trkpt lat="46.3749" lon="4.77966">
        <ele>299.8</ele>
        <time>2019-08-25T07:00:05Z</time>
      </trkpt>
      <trkpt lat="46.3749" lon="4.77973">
        <ele>299.7</ele>
        <time>2019-08-25T07:00:06Z</time>
      </trkpt>
      <trkpt lat="46.37491" lon="4.77981">
        <ele>299.7</ele>
        <time>2019-08-25T07:00:07Z</time>
      </trkpt>
      <trkpt lat="46.37491" lon="4.7802">
        <ele>299.5</ele>
        <time>2019-08-25T07:00:13Z</time>
      </trkpt>
      <trkpt lat="46.37492" lon="4.78027">
        <ele>299.5</ele>
        <time>2019-08-25T07:00:14Z</time>
      </trkpt>
      <trkpt lat="46.37492" lon="4.78048">
        <ele>299.3</ele>
        <time>2019-08-25T07:00:17Z</time>
      </trkpt>
      <trkpt lat="46.37491" lon="4.7806">
        <ele>299.1</ele>
        <time>2019-08-25T07:00:19Z</time>
      </trkpt>
      <trkpt lat="46.37484" lon="4.78092">
        <ele>298.6</ele>
        <time>2019-08-25T07:00:24Z</time>
      </trkpt>
      <trkpt lat="46.37481" lon="4.78104">
        <ele>298.5</ele>
        <time>2019-08-25T07:00:26Z</time>
      </trkpt>
      <trkpt lat="46.3748" lon="4.78111">
        <ele>298.4</ele>
        <time>2019-08-25T07:00:27Z</time>
      </trkpt>
      <trkpt lat="46.3748" lon="4.78128">
        <ele>298.3</ele>
        <time>2019-08-25T07:00:29Z</time>
      </trkpt>
      <trkpt lat="46.37484" lon="4.7815">
        <ele>298.3</ele>
        <time>2019-08-25T07:00:32Z</time>
      </trkpt>
      <trkpt lat="46.37488" lon="4.78165">
        <ele>298.4</ele>
        <time>2019-08-25T07:00:34Z</time>
      </trkpt>
      <trkpt lat="46.37505" lon="4.78219">
        <ele>297.7</ele>
        <time>2019-08-25T07:00:41Z</time>
      </trkpt>
      <trkpt lat="46.37511" lon="4.78237">
        <ele>297.4</ele>
        <time>2019-08-25T07:00:43Z</time>
      </trkpt>
      <trkpt lat="46.37519" lon="4.78252">
        <ele>297.2</ele>
        <time>2019-08-25T07:00:45Z</time>
      </trkpt>
      <trkpt lat="46.37523" lon="4.78259">
        <ele>297</ele>
        <time>2019-08-25T07:00:46Z</time>
      </trkpt>
      <trkpt lat="46.37527" lon="4.78267">
        <ele>296.9</ele>
        <time>2019-08-25T07:00:47Z</time>
      </trkpt>
      <trkpt lat="46.37531" lon="4.78273">
        <ele>296.7</ele>
        <time>2019-08-25T07:00:48Z</time>
      </trkpt>
      <trkpt lat="46.37544" lon="4.78299">
        <ele>295.8</ele>
        <time>2019-08-25T07:00:52Z</time>
      </trkpt>
      <trkpt lat="46.37549" lon="4.78303">
        <ele>295.6</ele>
        <time>2019-08-25T07:00:53Z</time>
      </trkpt>
      <trkpt lat="46.37564" lon="4.78312">
        <ele>295</ele>
        <time>2019-08-25T07:00:56Z</time>
      </trkpt>
      <trkpt lat="46.37576" lon="4.78317">
        <ele>294.5</ele>
        <time>2019-08-25T07:00:58Z</time>
      </trkpt>
      <trkpt lat="46.37613" lon="4.78341">
        <ele>291.4</ele>
        <time>2019-08-25T07:01:04Z</time>
      </trkpt>
      <trkpt lat="46.37641" lon="4.7836">
        <ele>287.9</ele>
        <time>2019-08-25T07:01:08Z</time>
      </trkpt>
      <trkpt lat="46.37663" lon="4.78378">
        <ele>286.2</ele>
        <time>2019-08-25T07:01:11Z</time>
      </trkpt>
      <trkpt lat="46.37679" lon="4.78404">
        <ele>283.4</ele>
        <time>2019-08-25T07:01:14Z</time>
      </trkpt>
      <trkpt lat="46.37682" lon="4.78413">
        <ele>282.4</ele>
        <time>2019-08-25T07:01:15Z</time>
      </trkpt>
      <trkpt lat="46.37691" lon="4.78424">
        <ele>280.6</ele>
        <time>2019-08-25T07:01:18Z</time>
      </trkpt>
      <trkpt lat="46.37694" lon="4.78428">
        <ele>280.2</ele>
        <time>2019-08-25T07:01:19Z</time>
      </trkpt>
      <trkpt lat="46.37697" lon="4.78431">
        <ele>279.9</ele>
        <time>2019-08-25T07:01:20Z</time>
      </trkpt>
      <trkpt lat="46.37701" lon="4.78433">
        <ele>279.7</ele>
        <time>2019-08-25T07:01:21Z</time>
      </trkpt>
      <trkpt lat="46.37705" lon="4.78433">
        <ele>279.4</ele>
        <time>2019-08-25T07:01:22Z</time>
      </trkpt>
      <trkpt lat="46.37709" lon="4.78435">
        <ele>279.2</ele>
        <time>2019-08-25T07:01:23Z</time>
      </trkpt>
      <trkpt lat="46.37715" lon="4.78435">
        <ele>278.8</ele>
        <time>2019-08-25T07:01:24Z</time>
      </trkpt>
      <trkpt lat="46.3772" lon="4.78436">
        <ele>278.5</ele>
        <time>2019-08-25T07:01:25Z</time>
      </trkpt>
      <trkpt lat="46.37726" lon="4.78436">
        <ele>277.9</ele>
        <time>2019-08-25T07:01:26Z</time>
      </trkpt>
      <trkpt lat="46.37733" lon="4.78436">
        <ele>277.2</ele>
        <time>2019-08-25T07:01:27Z</time>
      </trkpt>
      <trkpt lat="46.37741" lon="4.78436">
        <ele>276.5</ele>
        <time>2019-08-25T07:01:28Z</time>
      </trkpt>
      <trkpt lat="46.37748" lon="4.78435">
        <ele>275.8</ele>
        <time>2019-08-25T07:01:29Z</time>
      </trkpt>
      <trkpt lat="46.37757" lon="4.78435">
        <ele>275.2</ele>
        <time>2019-08-25T07:01:30Z</time>
      </trkpt>
      <trkpt lat="46.37767" lon="4.78436">
        <ele>274.6</ele>
        <time>2019-08-25T07:01:31Z</time>
      </trkpt>
      <trkpt lat="46.37776" lon="4.78436">
        <ele>274.1</ele>
        <time>2019-08-25T07:01:32Z</time>
      </trkpt>
      <trkpt lat="46.37785" lon="4.78437">
        <ele>273.4</ele>
        <time>2019-08-25T07:01:33Z</time>
      </trkpt>
      <trkpt lat="46.37793" lon="4.78439">
        <ele>272.9</ele>
        <time>2019-08-25T07:01:34Z</time>
      </trkpt>
      <trkpt lat="46.37807" lon="4.78441">
        <ele>272.2</ele>
        <time>2019-08-25T07:01:36Z</time>
      </trkpt>
      <trkpt lat="46.37814" lon="4.78438">
        <ele>271.5</ele>
        <time>2019-08-25T07:01:37Z</time>
      </trkpt>
      <trkpt lat="46.37827" lon="4.7843">
        <ele>270.3</ele>
        <time>2019-08-25T07:01:39Z</time>
      </trkpt>
      <trkpt lat="46.37833" lon="4.78424">
        <ele>269.6</ele>
        <time>2019-08-25T07:01:40Z</time>
      </trkpt>
      <trkpt lat="46.3784" lon="4.78418">
        <ele>268.9</ele>
        <time>2019-08-25T07:01:41Z</time>
      </trkpt>
      <trkpt lat="46.37847" lon="4.78411">
        <ele>268.2</ele>
        <time>2019-08-25T07:01:42Z</time>
      </trkpt>
      <trkpt lat="46.37854" lon="4.78404">
        <ele>267.6</ele>
        <time>2019-08-25T07:01:43Z</time>
      </trkpt>
      <trkpt lat="46.37862" lon="4.78397">
        <ele>266.9</ele>
        <time>2019-08-25T07:01:44Z</time>
      </trkpt>
      <trkpt lat="46.3787" lon="4.7839">
        <ele>266.2</ele>
        <time>2019-08-25T07:01:45Z</time>
      </trkpt>
      <trkpt lat="46.37876" lon="4.78385">
        <ele>265.5</ele>
        <time>2019-08-25T07:01:46Z</time>
      </trkpt>
      <trkpt lat="46.37881" lon="4.78381">
        <ele>264.6</ele>
        <time>2019-08-25T07:01:47Z</time>
      </trkpt>
      <trkpt lat="46.37885" lon="4.78379">
        <ele>264</ele>
        <time>2019-08-25T07:01:48Z</time>
      </trkpt>
      <trkpt lat="46.37888" lon="4.78378">
        <ele>263.5</ele>
        <time>2019-08-25T07:01:49Z</time>
      </trkpt>
      <trkpt lat="46.37891" lon="4.78377">
        <ele>263</ele>
        <time>2019-08-25T07:01:50Z</time>
      </trkpt>
      <trkpt lat="46.37894" lon="4.78374">
        <ele>262.5</ele>
        <time>2019-08-25T07:01:51Z</time>
      </trkpt>
      <trkpt lat="46.37898" lon="4.78371">
        <ele>261.5</ele>
        <time>2019-08-25T07:01:52Z</time>
      </trkpt>
      <trkpt lat="46.37902" lon="4.78368">
        <ele>261.4</ele>
        <time>2019-08-25T07:01:53Z</time>
      </trkpt>
      <trkpt lat="46.37907" lon="4.78365">
        <ele>261.1</ele>
        <time>2019-08-25T07:01:54Z</time>
      </trkpt>
      <trkpt lat="46.37912" lon="4.78363">
        <ele>260.9</ele>
        <time>2019-08-25T07:01:55Z</time>
      </trkpt>
      <trkpt lat="46.37924" lon="4.78357">
        <ele>260.3</ele>
        <time>2019-08-25T07:01:57Z</time>
      </trkpt>
      <trkpt lat="46.37937" lon="4.78351">
        <ele>259.8</ele>
        <time>2019-08-25T07:01:59Z</time>
      </trkpt>
      <trkpt lat="46.37945" lon="4.78348">
        <ele>259.6</ele>
        <time>2019-08-25T07:02:00Z</time>
      </trkpt>
      <trkpt lat="46.37952" lon="4.78346">
        <ele>259.1</ele>
        <time>2019-08-25T07:02:01Z</time>
      </trkpt>
      <trkpt lat="46.37967" lon="4.78343">
        <ele>258.6</ele>
        <time>2019-08-25T07:02:03Z</time>
      </trkpt>
      <trkpt lat="46.37975" lon="4.7834">
        <ele>258.2</ele>
        <time>2019-08-25T07:02:04Z</time>
      </trkpt>
      <trkpt lat="46.37983" lon="4.78335">
        <ele>257.9</ele>
        <time>2019-08-25T07:02:05Z</time>
      </trkpt>
      <trkpt lat="46.37999" lon="4.78328">
        <ele>257.2</ele>
        <time>2019-08-25T07:02:07Z</time>
      </trkpt>
      <trkpt lat="46.38013" lon="4.7832">
        <ele>256.5</ele>
        <time>2019-08-25T07:02:09Z</time>
      </trkpt>
      <trkpt lat="46.38027" lon="4.78311">
        <ele>255.6</ele>
        <time>2019-08-25T07:02:11Z</time>
      </trkpt>
      <trkpt lat="46.38039" lon="4.78304">
        <ele>254.7</ele>
        <time>2019-08-25T07:02:13Z</time>
      </trkpt>
      <trkpt lat="46.38044" lon="4.78301">
        <ele>254.4</ele>
        <time>2019-08-25T07:02:14Z</time>
      </trkpt>
      <trkpt lat="46.38049" lon="4.78298">
        <ele>254.1</ele>
        <time>2019-08-25T07:02:15Z</time>
      </trkpt>
      <trkpt lat="46.38054" lon="4.78294">
        <ele>253.7</ele>
        <time>2019-08-25T07:02:17Z</time>
      </trkpt>
      <trkpt lat="46.38055" lon="4.78293">
        <ele>253.3</ele>
        <time>2019-08-25T07:02:18Z</time>
      </trkpt>
      <trkpt lat="46.38056" lon="4.78291">
        <ele>253.3</ele>
        <time>2019-08-25T07:02:19Z</time>
      </trkpt>
      <trkpt lat="46.38057" lon="4.78289">
        <ele>253.3</ele>
        <time>2019-08-25T07:02:21Z</time>
      </trkpt>
      <trkpt lat="46.38057" lon="4.78288">
        <ele>253.2</ele>
        <time>2019-08-25T07:02:22Z</time>
      </trkpt>
      <trkpt lat="46.38057" lon="4.78277">
        <ele>253.1</ele>
        <time>2019-08-25T07:02:31Z</time>
      </trkpt>
      <trkpt lat="46.38055" lon="4.78273">
        <ele>253</ele>
        <time>2019-08-25T07:02:34Z</time>
      </trkpt>
      <trkpt lat="46.38055" lon="4.78263">
        <ele>252.9</ele>
        <time>2019-08-25T07:06:14Z</time>
      </trkpt>
      <trkpt lat="46.38055" lon="4.78255">
        <ele>252.8</ele>
        <time>2019-08-25T07:06:16Z</time>
      </trkpt>
      <trkpt lat="46.38052" lon="4.78223">
        <ele>252.4</ele>
        <time>2019-08-25T07:06:22Z</time>
      </trkpt>
      <trkpt lat="46.38051" lon="4.78199">
        <ele>252</ele>
        <time>2019-08-25T07:06:27Z</time>
      </trkpt>
      <trkpt lat="46.3806" lon="4.78165">
        <ele>251.3</ele>
        <time>2019-08-25T07:06:33Z</time>
      </trkpt>
      <trkpt lat="46.38066" lon="4.78146">
        <ele>250.9</ele>
        <time>2019-08-25T07:06:36Z</time>
      </trkpt>
      <trkpt lat="46.3807" lon="4.78126">
        <ele>250.7</ele>
        <time>2019-08-25T07:06:39Z</time>
      </trkpt>
      <trkpt lat="46.3808" lon="4.78082">
        <ele>250.2</ele>
        <time>2019-08-25T07:06:46Z</time>
      </trkpt>
      <trkpt lat="46.38084" lon="4.78062">
        <ele>249.9</ele>
        <time>2019-08-25T07:06:49Z</time>
      </trkpt>
      <trkpt lat="46.38092" lon="4.7803">
        <ele>249.1</ele>
        <time>2019-08-25T07:06:54Z</time>
      </trkpt>
      <trkpt lat="46.38101" lon="4.78002">
        <ele>248.3</ele>
        <time>2019-08-25T07:06:58Z</time>
      </trkpt>
      <trkpt lat="46.38102" lon="4.77995">
        <ele>248.2</ele>
        <time>2019-08-25T07:06:59Z</time>
      </trkpt>
      <trkpt lat="46.38103" lon="4.77987">
        <ele>248.1</ele>
        <time>2019-08-25T07:07:00Z</time>
      </trkpt>
      <trkpt lat="46.38102" lon="4.77963">
        <ele>247.5</ele>
        <time>2019-08-25T07:07:03Z</time>
      </trkpt>
      <trkpt lat="46.38101" lon="4.77955">
        <ele>247.3</ele>
        <time>2019-08-25T07:07:04Z</time>
      </trkpt>
      <trkpt lat="46.381" lon="4.77948">
        <ele>247.1</ele>
        <time>2019-08-25T07:07:05Z</time>
      </trkpt>
      <trkpt lat="46.38092" lon="4.77919">
        <ele>246.4</ele>
        <time>2019-08-25T07:07:09Z</time>
      </trkpt>
      <trkpt lat="46.38088" lon="4.77904">
        <ele>246.1</ele>
        <time>2019-08-25T07:07:11Z</time>
      </trkpt>
      <trkpt lat="46.38084" lon="4.77888">
        <ele>246</ele>
        <time>2019-08-25T07:07:13Z</time>
      </trkpt>
      <trkpt lat="46.38073" lon="4.77849">
        <ele>246.2</ele>
        <time>2019-08-25T07:07:18Z</time>
      </trkpt>
      <trkpt lat="46.38065" lon="4.77806">
        <ele>246.8</ele>
        <time>2019-08-25T07:07:24Z</time>
      </trkpt>
      <trkpt lat="46.38063" lon="4.77792">
        <ele>247</ele>
        <time>2019-08-25T07:07:26Z</time>
      </trkpt>
      <trkpt lat="46.3806" lon="4.77767">
        <ele>247.6</ele>
        <time>2019-08-25T07:07:30Z</time>
      </trkpt>
      <trkpt lat="46.38056" lon="4.7774">
        <ele>248.4</ele>
        <time>2019-08-25T07:07:35Z</time>
      </trkpt>
      <trkpt lat="46.38057" lon="4.77734">
        <ele>248.5</ele>
        <time>2019-08-25T07:07:36Z</time>
      </trkpt>
      <trkpt lat="46.38063" lon="4.77717">
        <ele>249</ele>
        <time>2019-08-25T07:07:39Z</time>
      </trkpt>
      <trkpt lat="46.38065" lon="4.77705">
        <ele>249.5</ele>
        <time>2019-08-25T07:07:41Z</time>
      </trkpt>
      <trkpt lat="46.38064" lon="4.77698">
        <ele>249.7</ele>
        <time>2019-08-25T07:07:42Z</time>
      </trkpt>
      <trkpt lat="46.38063" lon="4.77686">
        <ele>250.4</ele>
        <time>2019-08-25T07:07:44Z</time>
      </trkpt>
      <trkpt lat="46.38061" lon="4.77676">
        <ele>251</ele>
        <time>2019-08-25T07:07:46Z</time>
      </trkpt>
      <trkpt lat="46.38059" lon="4.77669">
        <ele>251.5</ele>
        <time>2019-08-25T07:07:48Z</time>
      </trkpt>
      <trkpt lat="46.38058" lon="4.77665">
        <ele>251.7</ele>
        <time>2019-08-25T07:07:49Z</time>
      </trkpt>
      <trkpt lat="46.38053" lon="4.77652">
        <ele>252.6</ele>
        <time>2019-08-25T07:07:54Z</time>
      </trkpt>
      <trkpt lat="46.3805" lon="4.77645">
        <ele>253.2</ele>
        <time>2019-08-25T07:07:57Z</time>
      </trkpt>
      <trkpt lat="46.38046" lon="4.77638">
        <ele>253.7</ele>
        <time>2019-08-25T07:08:01Z</time>
      </trkpt>
      <trkpt lat="46.38045" lon="4.77636">
        <ele>253.8</ele>
        <time>2019-08-25T07:08:02Z</time>
      </trkpt>
      <trkpt lat="46.38045" lon="4.77628">
        <ele>254.4</ele>
        <time>2019-08-25T07:08:05Z</time>
      </trkpt>
      <trkpt lat="46.38045" lon="4.77625">
        <ele>254.5</ele>
        <time>2019-08-25T07:08:06Z</time>
      </trkpt>
      <trkpt lat="46.38045" lon="4.7762">
        <ele>254.6</ele>
        <time>2019-08-25T07:08:08Z</time>
      </trkpt>
      <trkpt lat="46.38045" lon="4.77609">
        <ele>255</ele>
        <time>2019-08-25T07:08:12Z</time>
      </trkpt>
      <trkpt lat="46.38045" lon="4.77599">
        <ele>255.3</ele>
        <time>2019-08-25T07:08:16Z</time>
      </trkpt>
      <trkpt lat="46.38045" lon="4.7759">
        <ele>255.6</ele>
        <time>2019-08-25T07:08:19Z</time>
      </trkpt>
      <trkpt lat="46.38045" lon="4.77578">
        <ele>255.8</ele>
        <time>2019-08-25T07:08:23Z</time>
      </trkpt>
      <trkpt lat="46.38045" lon="4.77568">
        <ele>256</ele>
        <time>2019-08-25T07:08:26Z</time>
      </trkpt>
      <trkpt lat="46.38044" lon="4.77565">
        <ele>256.1</ele>
        <time>2019-08-25T07:08:27Z</time>
      </trkpt>
      <trkpt lat="46.38041" lon="4.77563">
        <ele>256.2</ele>
        <time>2019-08-25T07:08:28Z</time>
      </trkpt>
      <trkpt lat="46.38037" lon="4.7756">
        <ele>256.4</ele>
        <time>2019-08-25T07:08:30Z</time>
      </trkpt>
      <trkpt lat="46.3802" lon="4.77552">
        <ele>257.3</ele>
        <time>2019-08-25T07:08:37Z</time>
      </trkpt>
      <trkpt lat="46.38019" lon="4.7755">
        <ele>257.3</ele>
        <time>2019-08-25T07:08:38Z</time>
      </trkpt>
      <trkpt lat="46.38018" lon="4.77543">
        <ele>257.3</ele>
        <time>2019-08-25T07:08:41Z</time>
      </trkpt>
      <trkpt lat="46.38015" lon="4.77533">
        <ele>257.8</ele>
        <time>2019-08-25T07:08:44Z</time>
      </trkpt>
      <trkpt lat="46.38008" lon="4.77523">
        <ele>258.5</ele>
        <time>2019-08-25T07:08:48Z</time>
      </trkpt>
      <trkpt lat="46.38006" lon="4.7752">
        <ele>258.8</ele>
        <time>2019-08-25T07:08:50Z</time>
      </trkpt>
      <trkpt lat="46.38004" lon="4.77518">
        <ele>258.9</ele>
        <time>2019-08-25T07:08:51Z</time>
      </trkpt>
      <trkpt lat="46.38" lon="4.77513">
        <ele>259.4</ele>
        <time>2019-08-25T07:08:54Z</time>
      </trkpt>
      <trkpt lat="46.37994" lon="4.77505">
        <ele>260.3</ele>
        <time>2019-08-25T07:08:58Z</time>
      </trkpt>
      <trkpt lat="46.37984" lon="4.77493">
        <ele>261</ele>
        <time>2019-08-25T07:09:03Z</time>
      </trkpt>
      <trkpt lat="46.37981" lon="4.77489">
        <ele>261.3</ele>
        <time>2019-08-25T07:09:05Z</time>
      </trkpt>
      <trkpt lat="46.37969" lon="4.77476">
        <ele>261.9</ele>
        <time>2019-08-25T07:09:11Z</time>
      </trkpt>
      <trkpt lat="46.37962" lon="4.77467">
        <ele>263</ele>
        <time>2019-08-25T07:09:15Z</time>
      </trkpt>
      <trkpt lat="46.37957" lon="4.77462">
        <ele>263.7</ele>
        <time>2019-08-25T07:09:17Z</time>
      </trkpt>
      <trkpt lat="46.37945" lon="4.7745">
        <ele>265.5</ele>
        <time>2019-08-25T07:09:24Z</time>
      </trkpt>
      <trkpt lat="46.37941" lon="4.77444">
        <ele>266.6</ele>
        <time>2019-08-25T07:09:27Z</time>
      </trkpt>
      <trkpt lat="46.37933" lon="4.77436">
        <ele>268.2</ele>
        <time>2019-08-25T07:09:31Z</time>
      </trkpt>
      <trkpt lat="46.37928" lon="4.77431">
        <ele>269</ele>
        <time>2019-08-25T07:09:34Z</time>
      </trkpt>
      <trkpt lat="46.37918" lon="4.77419">
        <ele>270.5</ele>
        <time>2019-08-25T07:09:39Z</time>
      </trkpt>
      <trkpt lat="46.37908" lon="4.77408">
        <ele>272.7</ele>
        <time>2019-08-25T07:09:44Z</time>
      </trkpt>
      <trkpt lat="46.37905" lon="4.77404">
        <ele>273.2</ele>
        <time>2019-08-25T07:09:46Z</time>
      </trkpt>
      <trkpt lat="46.37903" lon="4.77402">
        <ele>273.4</ele>
        <time>2019-08-25T07:09:47Z</time>
      </trkpt>
      <trkpt lat="46.37896" lon="4.77392">
        <ele>274.4</ele>
        <time>2019-08-25T07:09:51Z</time>
      </trkpt>
      <trkpt lat="46.37891" lon="4.77387">
        <ele>275.4</ele>
        <time>2019-08-25T07:09:54Z</time>
      </trkpt>
      <trkpt lat="46.37889" lon="4.77385">
        <ele>275.9</ele>
        <time>2019-08-25T07:09:55Z</time>
      </trkpt>
      <trkpt lat="46.37883" lon="4.77378">
        <ele>276.6</ele>
        <time>2019-08-25T07:09:58Z</time>
      </trkpt>
      <trkpt lat="46.37872" lon="4.77368">
        <ele>277.4</ele>
        <time>2019-08-25T07:10:02Z</time>
      </trkpt>
      <trkpt lat="46.37868" lon="4.77363">
        <ele>277.4</ele>
        <time>2019-08-25T07:10:04Z</time>
      </trkpt>
      <trkpt lat="46.37855" lon="4.77358">
        <ele>278.1</ele>
        <time>2019-08-25T07:10:09Z</time>
      </trkpt>
      <trkpt lat="46.37853" lon="4.77357">
        <ele>278.4</ele>
        <time>2019-08-25T07:10:10Z</time>
      </trkpt>
      <trkpt lat="46.3784" lon="4.77351">
        <ele>279.4</ele>
        <time>2019-08-25T07:10:15Z</time>
      </trkpt>
      <trkpt lat="46.37838" lon="4.7735">
        <ele>279.5</ele>
        <time>2019-08-25T07:10:16Z</time>
      </trkpt>
      <trkpt lat="46.37832" lon="4.77346">
        <ele>279.7</ele>
        <time>2019-08-25T07:10:19Z</time>
      </trkpt>
      <trkpt lat="46.37825" lon="4.77342">
        <ele>280.2</ele>
        <time>2019-08-25T07:10:22Z</time>
      </trkpt>
      <trkpt lat="46.37823" lon="4.7734">
        <ele>280.4</ele>
        <time>2019-08-25T07:10:23Z</time>
      </trkpt>
      <trkpt lat="46.37818" lon="4.77336">
        <ele>280.5</ele>
        <time>2019-08-25T07:10:26Z</time>
      </trkpt>
      <trkpt lat="46.37814" lon="4.77334">
        <ele>280.6</ele>
        <time>2019-08-25T07:10:28Z</time>
      </trkpt>
      <trkpt lat="46.37812" lon="4.77333">
        <ele>280.8</ele>
        <time>2019-08-25T07:10:29Z</time>
      </trkpt>
      <trkpt lat="46.37804" lon="4.7733">
        <ele>281.2</ele>
        <time>2019-08-25T07:10:32Z</time>
      </trkpt>
      <trkpt lat="46.37797" lon="4.77327">
        <ele>281.5</ele>
        <time>2019-08-25T07:10:35Z</time>
      </trkpt>
      <trkpt lat="46.37788" lon="4.77322">
        <ele>281.7</ele>
        <time>2019-08-25T07:10:39Z</time>
      </trkpt>
      <trkpt lat="46.37781" lon="4.77318">
        <ele>281.8</ele>
        <time>2019-08-25T07:10:42Z</time>
      </trkpt>
      <trkpt lat="46.37775" lon="4.77314">
        <ele>281.8</ele>
        <time>2019-08-25T07:10:45Z</time>
      </trkpt>
      <trkpt lat="46.37768" lon="4.7731">
        <ele>281.8</ele>
        <time>2019-08-25T07:10:48Z</time>
      </trkpt>
      <trkpt lat="46.37762" lon="4.77307">
        <ele>281.9</ele>
        <time>2019-08-25T07:10:51Z</time>
      </trkpt>
      <trkpt lat="46.37759" lon="4.77306">
        <ele>282</ele>
        <time>2019-08-25T07:10:52Z</time>
      </trkpt>
      <trkpt lat="46.37751" lon="4.77301">
        <ele>282.3</ele>
        <time>2019-08-25T07:10:56Z</time>
      </trkpt>
      <trkpt lat="46.37746" lon="4.77298">
        <ele>282.5</ele>
        <time>2019-08-25T07:10:58Z</time>
      </trkpt>
      <trkpt lat="46.37744" lon="4.77297">
        <ele>282.6</ele>
        <time>2019-08-25T07:10:59Z</time>
      </trkpt>
      <trkpt lat="46.37736" lon="4.77293">
        <ele>282.9</ele>
        <time>2019-08-25T07:11:03Z</time>
      </trkpt>
      <trkpt lat="46.37731" lon="4.7729">
        <ele>283.2</ele>
        <time>2019-08-25T07:11:05Z</time>
      </trkpt>
      <trkpt lat="46.37726" lon="4.77288">
        <ele>283.5</ele>
        <time>2019-08-25T07:11:07Z</time>
      </trkpt>
      <trkpt lat="46.37723" lon="4.77286">
        <ele>283.7</ele>
        <time>2019-08-25T07:11:09Z</time>
      </trkpt>
      <trkpt lat="46.37717" lon="4.77281">
        <ele>284.1</ele>
        <time>2019-08-25T07:11:12Z</time>
      </trkpt>
      <trkpt lat="46.37715" lon="4.7728">
        <ele>284.2</ele>
        <time>2019-08-25T07:11:13Z</time>
      </trkpt>
      <trkpt lat="46.37708" lon="4.77276">
        <ele>284.4</ele>
        <time>2019-08-25T07:11:16Z</time>
      </trkpt>
      <trkpt lat="46.37697" lon="4.77271">
        <ele>284.4</ele>
        <time>2019-08-25T07:11:20Z</time>
      </trkpt>
      <trkpt lat="46.37695" lon="4.7727">
        <ele>284.5</ele>
        <time>2019-08-25T07:11:21Z</time>
      </trkpt>
      <trkpt lat="46.37688" lon="4.77266">
        <ele>284.5</ele>
        <time>2019-08-25T07:11:24Z</time>
      </trkpt>
      <trkpt lat="46.37683" lon="4.77264">
        <ele>284.5</ele>
        <time>2019-08-25T07:11:27Z</time>
      </trkpt>
      <trkpt lat="46.37679" lon="4.77262">
        <ele>284.5</ele>
        <time>2019-08-25T07:11:29Z</time>
      </trkpt>
      <trkpt lat="46.37677" lon="4.77261">
        <ele>284.5</ele>
        <time>2019-08-25T07:11:30Z</time>
      </trkpt>
      <trkpt lat="46.37667" lon="4.77253">
        <ele>284.5</ele>
        <time>2019-08-25T07:11:34Z</time>
      </trkpt>
      <trkpt lat="46.37663" lon="4.77251">
        <ele>284.5</ele>
        <time>2019-08-25T07:11:35Z</time>
      </trkpt>
      <trkpt lat="46.37643" lon="4.77245">
        <ele>285.2</ele>
        <time>2019-08-25T07:11:41Z</time>
      </trkpt>
      <trkpt lat="46.37635" lon="4.77233">
        <ele>285.4</ele>
        <time>2019-08-25T07:11:47Z</time>
      </trkpt>
      <trkpt lat="46.37634" lon="4.77206">
        <ele>283.2</ele>
        <time>2019-08-25T07:11:52Z</time>
      </trkpt>
      <trkpt lat="46.3763" lon="4.77183">
        <ele>282.3</ele>
        <time>2019-08-25T07:11:55Z</time>
      </trkpt>
      <trkpt lat="46.37629" lon="4.77175">
        <ele>281.8</ele>
        <time>2019-08-25T07:11:56Z</time>
      </trkpt>
      <trkpt lat="46.37628" lon="4.77167">
        <ele>281.2</ele>
        <time>2019-08-25T07:11:57Z</time>
      </trkpt>
      <trkpt lat="46.37621" lon="4.77117">
        <ele>278.3</ele>
        <time>2019-08-25T07:12:04Z</time>
      </trkpt>
      <trkpt lat="46.37623" lon="4.77106">
        <ele>277.2</ele>
        <time>2019-08-25T07:12:07Z</time>
      </trkpt>
      <trkpt lat="46.37625" lon="4.77102">
        <ele>276.8</ele>
        <time>2019-08-25T07:12:08Z</time>
      </trkpt>
      <trkpt lat="46.37627" lon="4.77099">
        <ele>276.8</ele>
        <time>2019-08-25T07:12:09Z</time>
      </trkpt>
      <trkpt lat="46.37626" lon="4.77087">
        <ele>275.6</ele>
        <time>2019-08-25T07:12:12Z</time>
      </trkpt>
      <trkpt lat="46.37624" lon="4.77082">
        <ele>275.3</ele>
        <time>2019-08-25T07:12:13Z</time>
      </trkpt>
      <trkpt lat="46.37617" lon="4.77071">
        <ele>274.5</ele>
        <time>2019-08-25T07:12:15Z</time>
      </trkpt>
      <trkpt lat="46.37612" lon="4.77064">
        <ele>274.1</ele>
        <time>2019-08-25T07:12:16Z</time>
      </trkpt>
      <trkpt lat="46.37609" lon="4.77057">
        <ele>273.9</ele>
        <time>2019-08-25T07:12:17Z</time>
      </trkpt>
      <trkpt lat="46.37602" lon="4.77044">
        <ele>273.5</ele>
        <time>2019-08-25T07:12:19Z</time>
      </trkpt>
      <trkpt lat="46.37598" lon="4.77037">
        <ele>273.3</ele>
        <time>2019-08-25T07:12:20Z</time>
      </trkpt>
      <trkpt lat="46.37591" lon="4.77023">
        <ele>272.1</ele>
        <time>2019-08-25T07:12:22Z</time>
      </trkpt>
      <trkpt lat="46.37583" lon="4.77009">
        <ele>271.3</ele>
        <time>2019-08-25T07:12:24Z</time>
      </trkpt>
      <trkpt lat="46.37574" lon="4.76996">
        <ele>270.8</ele>
        <time>2019-08-25T07:12:26Z</time>
      </trkpt>
      <trkpt lat="46.37565" lon="4.76983">
        <ele>270.5</ele>
        <time>2019-08-25T07:12:28Z</time>
      </trkpt>
      <trkpt lat="46.37561" lon="4.76978">
        <ele>270.6</ele>
        <time>2019-08-25T07:12:29Z</time>
      </trkpt>
      <trkpt lat="46.37556" lon="4.76972">
        <ele>270.7</ele>
        <time>2019-08-25T07:12:30Z</time>
      </trkpt>
      <trkpt lat="46.37548" lon="4.76962">
        <ele>270.7</ele>
        <time>2019-08-25T07:12:32Z</time>
      </trkpt>
      <trkpt lat="46.3754" lon="4.76951">
        <ele>270.8</ele>
        <time>2019-08-25T07:12:34Z</time>
      </trkpt>
      <trkpt lat="46.37531" lon="4.7694">
        <ele>270.5</ele>
        <time>2019-08-25T07:12:36Z</time>
      </trkpt>
      <trkpt lat="46.37522" lon="4.76929">
        <ele>270.2</ele>
        <time>2019-08-25T07:12:38Z</time>
      </trkpt>
      <trkpt lat="46.37518" lon="4.76923">
        <ele>270.2</ele>
        <time>2019-08-25T07:12:39Z</time>
      </trkpt>
      <trkpt lat="46.3751" lon="4.76912">
        <ele>270</ele>
        <time>2019-08-25T07:12:41Z</time>
      </trkpt>
      <trkpt lat="46.37509" lon="4.76905">
        <ele>269.7</ele>
        <time>2019-08-25T07:12:42Z</time>
      </trkpt>
      <trkpt lat="46.37508" lon="4.76898">
        <ele>269.5</ele>
        <time>2019-08-25T07:12:43Z</time>
      </trkpt>
      <trkpt lat="46.37508" lon="4.7689">
        <ele>269.4</ele>
        <time>2019-08-25T07:12:44Z</time>
      </trkpt>
      <trkpt lat="46.37511" lon="4.76862">
        <ele>269</ele>
        <time>2019-08-25T07:12:47Z</time>
      </trkpt>
      <trkpt lat="46.37516" lon="4.76843">
        <ele>269.1</ele>
        <time>2019-08-25T07:12:49Z</time>
      </trkpt>
      <trkpt lat="46.37519" lon="4.76835">
        <ele>269.4</ele>
        <time>2019-08-25T07:12:50Z</time>
      </trkpt>
      <trkpt lat="46.37522" lon="4.76827">
        <ele>269.7</ele>
        <time>2019-08-25T07:12:51Z</time>
      </trkpt>
      <trkpt lat="46.37527" lon="4.76821">
        <ele>270.2</ele>
        <time>2019-08-25T07:12:52Z</time>
      </trkpt>
      <trkpt lat="46.37538" lon="4.76813">
        <ele>271.4</ele>
        <time>2019-08-25T07:12:54Z</time>
      </trkpt>
      <trkpt lat="46.37544" lon="4.76809">
        <ele>271.8</ele>
        <time>2019-08-25T07:12:55Z</time>
      </trkpt>
      <trkpt lat="46.37549" lon="4.76805">
        <ele>272.6</ele>
        <time>2019-08-25T07:12:56Z</time>
      </trkpt>
      <trkpt lat="46.37553" lon="4.76801">
        <ele>273.3</ele>
        <time>2019-08-25T07:12:57Z</time>
      </trkpt>
      <trkpt lat="46.37567" lon="4.76791">
        <ele>276</ele>
        <time>2019-08-25T07:13:01Z</time>
      </trkpt>
      <trkpt lat="46.37575" lon="4.76785">
        <ele>277.9</ele>
        <time>2019-08-25T07:13:06Z</time>
      </trkpt>
      <trkpt lat="46.3758" lon="4.76782">
        <ele>279</ele>
        <time>2019-08-25T07:13:10Z</time>
      </trkpt>
      <trkpt lat="46.37582" lon="4.76782">
        <ele>279.5</ele>
        <time>2019-08-25T07:13:12Z</time>
      </trkpt>
      <trkpt lat="46.37584" lon="4.7678">
        <ele>280</ele>
        <time>2019-08-25T07:13:14Z</time>
      </trkpt>
      <trkpt lat="46.37587" lon="4.76779">
        <ele>280.7</ele>
        <time>2019-08-25T07:13:16Z</time>
      </trkpt>
      <trkpt lat="46.37588" lon="4.76778">
        <ele>280.9</ele>
        <time>2019-08-25T07:13:17Z</time>
      </trkpt>
      <trkpt lat="46.37591" lon="4.76777">
        <ele>281.6</ele>
        <time>2019-08-25T07:13:29Z</time>
      </trkpt>
      <trkpt lat="46.37592" lon="4.76777">
        <ele>281.9</ele>
        <time>2019-08-25T07:13:30Z</time>
      </trkpt>
      <trkpt lat="46.37594" lon="4.76776">
        <ele>282.1</ele>
        <time>2019-08-25T07:13:31Z</time>
      </trkpt>
      <trkpt lat="46.37599" lon="4.76775">
        <ele>283.1</ele>
        <time>2019-08-25T07:13:34Z</time>
      </trkpt>
      <trkpt lat="46.37604" lon="4.76773">
        <ele>283.9</ele>
        <time>2019-08-25T07:13:38Z</time>
      </trkpt>
      <trkpt lat="46.37617" lon="4.76763">
        <ele>285.6</ele>
        <time>2019-08-25T07:13:50Z</time>
      </trkpt>
      <trkpt lat="46.37618" lon="4.76759">
        <ele>285.9</ele>
        <time>2019-08-25T07:13:52Z</time>
      </trkpt>
      <trkpt lat="46.37621" lon="4.76746">
        <ele>287</ele>
        <time>2019-08-25T07:13:58Z</time>
      </trkpt>
      <trkpt lat="46.37622" lon="4.7674">
        <ele>287.3</ele>
        <time>2019-08-25T07:14:00Z</time>
      </trkpt>
      <trkpt lat="46.37625" lon="4.76719">
        <ele>289</ele>
        <time>2019-08-25T07:14:07Z</time>
      </trkpt>
      <trkpt lat="46.37627" lon="4.76704">
        <ele>289.8</ele>
        <time>2019-08-25T07:14:12Z</time>
      </trkpt>
      <trkpt lat="46.37627" lon="4.76698">
        <ele>290.3</ele>
        <time>2019-08-25T07:14:14Z</time>
      </trkpt>
      <trkpt lat="46.3763" lon="4.76683">
        <ele>291.3</ele>
        <time>2019-08-25T07:14:19Z</time>
      </trkpt>
      <trkpt lat="46.3763" lon="4.76673">
        <ele>291.8</ele>
        <time>2019-08-25T07:14:22Z</time>
      </trkpt>
      <trkpt lat="46.37631" lon="4.76668">
        <ele>292.2</ele>
        <time>2019-08-25T07:14:24Z</time>
      </trkpt>
      <trkpt lat="46.37634" lon="4.76652">
        <ele>293.2</ele>
        <time>2019-08-25T07:14:30Z</time>
      </trkpt>
      <trkpt lat="46.37634" lon="4.76649">
        <ele>293.4</ele>
        <time>2019-08-25T07:14:31Z</time>
      </trkpt>
      <trkpt lat="46.37635" lon="4.76638">
        <ele>293.9</ele>
        <time>2019-08-25T07:14:35Z</time>
      </trkpt>
      <trkpt lat="46.37637" lon="4.76621">
        <ele>294.9</ele>
        <time>2019-08-25T07:14:41Z</time>
      </trkpt>
      <trkpt lat="46.37637" lon="4.76608">
        <ele>296</ele>
        <time>2019-08-25T07:14:46Z</time>
      </trkpt>
      <trkpt lat="46.37638" lon="4.76603">
        <ele>296.5</ele>
        <time>2019-08-25T07:14:48Z</time>
      </trkpt>
      <trkpt lat="46.37641" lon="4.76598">
        <ele>297</ele>
        <time>2019-08-25T07:14:50Z</time>
      </trkpt>
      <trkpt lat="46.37646" lon="4.76591">
        <ele>297.8</ele>
        <time>2019-08-25T07:14:54Z</time>
      </trkpt>
      <trkpt lat="46.3765" lon="4.76586">
        <ele>298.3</ele>
        <time>2019-08-25T07:14:57Z</time>
      </trkpt>
      <trkpt lat="46.37652" lon="4.76582">
        <ele>298.6</ele>
        <time>2019-08-25T07:14:59Z</time>
      </trkpt>
      <trkpt lat="46.37653" lon="4.76578">
        <ele>298.9</ele>
        <time>2019-08-25T07:15:01Z</time>
      </trkpt>
      <trkpt lat="46.37673" lon="4.76554">
        <ele>300.5</ele>
        <time>2019-08-25T07:15:15Z</time>
      </trkpt>
      <trkpt lat="46.37677" lon="4.76546">
        <ele>300.9</ele>
        <time>2019-08-25T07:15:18Z</time>
      </trkpt>
      <trkpt lat="46.37682" lon="4.76537">
        <ele>301.3</ele>
        <time>2019-08-25T07:15:22Z</time>
      </trkpt>
      <trkpt lat="46.37687" lon="4.76528">
        <ele>301.7</ele>
        <time>2019-08-25T07:15:26Z</time>
      </trkpt>
      <trkpt lat="46.37692" lon="4.76517">
        <ele>302.3</ele>
        <time>2019-08-25T07:15:30Z</time>
      </trkpt>
      <trkpt lat="46.37693" lon="4.76508">
        <ele>302.7</ele>
        <time>2019-08-25T07:15:33Z</time>
      </trkpt>
      <trkpt lat="46.37692" lon="4.76504">
        <ele>302.9</ele>
        <time>2019-08-25T07:15:34Z</time>
      </trkpt>
      <trkpt lat="46.37691" lon="4.76497">
        <ele>303.2</ele>
        <time>2019-08-25T07:15:35Z</time>
      </trkpt>
      <trkpt lat="46.37689" lon="4.76482">
        <ele>303.9</ele>
        <time>2019-08-25T07:15:38Z</time>
      </trkpt>
      <trkpt lat="46.37691" lon="4.7646">
        <ele>304.8</ele>
        <time>2019-08-25T07:15:43Z</time>
      </trkpt>
      <trkpt lat="46.37692" lon="4.76456">
        <ele>304.9</ele>
        <time>2019-08-25T07:15:44Z</time>
      </trkpt>
      <trkpt lat="46.37697" lon="4.76432">
        <ele>305.8</ele>
        <time>2019-08-25T07:15:50Z</time>
      </trkpt>
      <trkpt lat="46.37703" lon="4.76409">
        <ele>307</ele>
        <time>2019-08-25T07:15:57Z</time>
      </trkpt>
      <trkpt lat="46.37711" lon="4.76379">
        <ele>308.3</ele>
        <time>2019-08-25T07:16:04Z</time>
      </trkpt>
      <trkpt lat="46.37713" lon="4.76348">
        <ele>309.9</ele>
        <time>2019-08-25T07:16:11Z</time>
      </trkpt>
      <trkpt lat="46.37711" lon="4.76315">
        <ele>311.5</ele>
        <time>2019-08-25T07:16:19Z</time>
      </trkpt>
      <trkpt lat="46.37708" lon="4.76286">
        <ele>312.4</ele>
        <time>2019-08-25T07:16:26Z</time>
      </trkpt>
      <trkpt lat="46.37707" lon="4.76258">
        <ele>313.5</ele>
        <time>2019-08-25T07:16:32Z</time>
      </trkpt>
      <trkpt lat="46.37705" lon="4.76227">
        <ele>314.6</ele>
        <time>2019-08-25T07:16:39Z</time>
      </trkpt>
      <trkpt lat="46.37704" lon="4.76209">
        <ele>315.3</ele>
        <time>2019-08-25T07:16:43Z</time>
      </trkpt>
      <trkpt lat="46.37705" lon="4.76193">
        <ele>315.9</ele>
        <time>2019-08-25T07:16:47Z</time>
      </trkpt>
      <trkpt lat="46.37709" lon="4.76168">
        <ele>317.2</ele>
        <time>2019-08-25T07:16:53Z</time>
      </trkpt>
      <trkpt lat="46.3771" lon="4.76165">
        <ele>317.4</ele>
        <time>2019-08-25T07:16:54Z</time>
      </trkpt>
      <trkpt lat="46.37711" lon="4.76155">
        <ele>318</ele>
        <time>2019-08-25T07:16:57Z</time>
      </trkpt>
      <trkpt lat="46.37714" lon="4.76139">
        <ele>319</ele>
        <time>2019-08-25T07:17:01Z</time>
      </trkpt>
      <trkpt lat="46.37716" lon="4.76123">
        <ele>319.9</ele>
        <time>2019-08-25T07:17:05Z</time>
      </trkpt>
      <trkpt lat="46.37717" lon="4.76118">
        <ele>320.1</ele>
        <time>2019-08-25T07:17:07Z</time>
      </trkpt>
      <trkpt lat="46.37718" lon="4.76106">
        <ele>320.6</ele>
        <time>2019-08-25T07:17:10Z</time>
      </trkpt>
      <trkpt lat="46.3772" lon="4.76096">
        <ele>321.2</ele>
        <time>2019-08-25T07:17:13Z</time>
      </trkpt>
      <trkpt lat="46.37721" lon="4.76086">
        <ele>321.8</ele>
        <time>2019-08-25T07:17:16Z</time>
      </trkpt>
      <trkpt lat="46.37722" lon="4.76069">
        <ele>322.7</ele>
        <time>2019-08-25T07:17:21Z</time>
      </trkpt>
      <trkpt lat="46.37722" lon="4.76054">
        <ele>323.6</ele>
        <time>2019-08-25T07:17:25Z</time>
      </trkpt>
      <trkpt lat="46.37721" lon="4.76045">
        <ele>324.1</ele>
        <time>2019-08-25T07:17:28Z</time>
      </trkpt>
      <trkpt lat="46.37721" lon="4.76042">
        <ele>324.3</ele>
        <time>2019-08-25T07:17:29Z</time>
      </trkpt>
      <trkpt lat="46.37717" lon="4.76021">
        <ele>325.3</ele>
        <time>2019-08-25T07:17:34Z</time>
      </trkpt>
      <trkpt lat="46.37716" lon="4.76017">
        <ele>325.5</ele>
        <time>2019-08-25T07:17:35Z</time>
      </trkpt>
      <trkpt lat="46.37713" lon="4.76007">
        <ele>325.9</ele>
        <time>2019-08-25T07:17:38Z</time>
      </trkpt>
      <trkpt lat="46.37711" lon="4.76">
        <ele>326.2</ele>
        <time>2019-08-25T07:17:40Z</time>
      </trkpt>
      <trkpt lat="46.37709" lon="4.75997">
        <ele>326.4</ele>
        <time>2019-08-25T07:17:41Z</time>
      </trkpt>
      <trkpt lat="46.37701" lon="4.75978">
        <ele>327.4</ele>
        <time>2019-08-25T07:17:46Z</time>
      </trkpt>
      <trkpt lat="46.377" lon="4.75967">
        <ele>327.7</ele>
        <time>2019-08-25T07:17:49Z</time>
      </trkpt>
      <trkpt lat="46.37698" lon="4.75957">
        <ele>328</ele>
        <time>2019-08-25T07:17:52Z</time>
      </trkpt>
      <trkpt lat="46.37698" lon="4.75954">
        <ele>328.1</ele>
        <time>2019-08-25T07:17:53Z</time>
      </trkpt>
      <trkpt lat="46.37698" lon="4.75939">
        <ele>328.8</ele>
        <time>2019-08-25T07:17:57Z</time>
      </trkpt>
      <trkpt lat="46.37698" lon="4.75934">
        <ele>329</ele>
        <time>2019-08-25T07:17:58Z</time>
      </trkpt>
      <trkpt lat="46.37697" lon="4.75925">
        <ele>329.5</ele>
        <time>2019-08-25T07:18:01Z</time>
      </trkpt>
      <trkpt lat="46.37696" lon="4.75916">
        <ele>330</ele>
        <time>2019-08-25T07:18:04Z</time>
      </trkpt>
      <trkpt lat="46.37695" lon="4.75913">
        <ele>330.3</ele>
        <time>2019-08-25T07:18:05Z</time>
      </trkpt>
      <trkpt lat="46.37693" lon="4.75908">
        <ele>330.7</ele>
        <time>2019-08-25T07:18:07Z</time>
      </trkpt>
      <trkpt lat="46.3769" lon="4.75899">
        <ele>331.4</ele>
        <time>2019-08-25T07:18:10Z</time>
      </trkpt>
      <trkpt lat="46.3769" lon="4.75896">
        <ele>331.7</ele>
        <time>2019-08-25T07:18:11Z</time>
      </trkpt>
      <trkpt lat="46.37688" lon="4.75891">
        <ele>332.2</ele>
        <time>2019-08-25T07:18:13Z</time>
      </trkpt>
      <trkpt lat="46.37686" lon="4.75881">
        <ele>333.3</ele>
        <time>2019-08-25T07:18:16Z</time>
      </trkpt>
      <trkpt lat="46.37685" lon="4.75876">
        <ele>333.8</ele>
        <time>2019-08-25T07:18:18Z</time>
      </trkpt>
      <trkpt lat="46.37684" lon="4.75871">
        <ele>334.3</ele>
        <time>2019-08-25T07:18:20Z</time>
      </trkpt>
      <trkpt lat="46.37683" lon="4.75866">
        <ele>334.8</ele>
        <time>2019-08-25T07:18:22Z</time>
      </trkpt>
      <trkpt lat="46.37682" lon="4.75862">
        <ele>335.3</ele>
        <time>2019-08-25T07:18:24Z</time>
      </trkpt>
      <trkpt lat="46.37679" lon="4.75843">
        <ele>336.7</ele>
        <time>2019-08-25T07:18:33Z</time>
      </trkpt>
      <trkpt lat="46.37679" lon="4.75837">
        <ele>337.2</ele>
        <time>2019-08-25T07:18:36Z</time>
      </trkpt>
      <trkpt lat="46.37678" lon="4.75815">
        <ele>339.1</ele>
        <time>2019-08-25T07:18:44Z</time>
      </trkpt>
      <trkpt lat="46.37681" lon="4.75799">
        <ele>340.4</ele>
        <time>2019-08-25T07:18:51Z</time>
      </trkpt>
      <trkpt lat="46.37682" lon="4.75796">
        <ele>340.7</ele>
        <time>2019-08-25T07:18:52Z</time>
      </trkpt>
      <trkpt lat="46.37685" lon="4.75773">
        <ele>342.8</ele>
        <time>2019-08-25T07:19:02Z</time>
      </trkpt>
      <trkpt lat="46.37685" lon="4.75768">
        <ele>343.2</ele>
        <time>2019-08-25T07:19:04Z</time>
      </trkpt>
      <trkpt lat="46.37686" lon="4.75766">
        <ele>343.4</ele>
        <time>2019-08-25T07:19:05Z</time>
      </trkpt>
      <trkpt lat="46.3769" lon="4.75748">
        <ele>344.6</ele>
        <time>2019-08-25T07:19:11Z</time>
      </trkpt>
      <trkpt lat="46.37692" lon="4.75727">
        <ele>345.7</ele>
        <time>2019-08-25T07:19:19Z</time>
      </trkpt>
      <trkpt lat="46.37691" lon="4.75705">
        <ele>346.5</ele>
        <time>2019-08-25T07:19:26Z</time>
      </trkpt>
      <trkpt lat="46.37692" lon="4.75678">
        <ele>346.6</ele>
        <time>2019-08-25T07:19:33Z</time>
      </trkpt>
      <trkpt lat="46.37695" lon="4.75649">
        <ele>346</ele>
        <time>2019-08-25T07:19:40Z</time>
      </trkpt>
      <trkpt lat="46.37704" lon="4.75618">
        <ele>345</ele>
        <time>2019-08-25T07:19:46Z</time>
      </trkpt>
      <trkpt lat="46.37716" lon="4.7558">
        <ele>347.2</ele>
        <time>2019-08-25T07:19:52Z</time>
      </trkpt>
      <trkpt lat="46.37726" lon="4.75547">
        <ele>348.7</ele>
        <time>2019-08-25T07:19:57Z</time>
      </trkpt>
      <trkpt lat="46.37731" lon="4.75536">
        <ele>349.2</ele>
        <time>2019-08-25T07:19:59Z</time>
      </trkpt>
      <trkpt lat="46.37733" lon="4.75529">
        <ele>349.4</ele>
        <time>2019-08-25T07:20:00Z</time>
      </trkpt>
      <trkpt lat="46.37742" lon="4.75511">
        <ele>350.1</ele>
        <time>2019-08-25T07:20:03Z</time>
      </trkpt>
      <trkpt lat="46.37746" lon="4.75506">
        <ele>350.3</ele>
        <time>2019-08-25T07:20:04Z</time>
      </trkpt>
      <trkpt lat="46.37753" lon="4.75495">
        <ele>350.8</ele>
        <time>2019-08-25T07:20:06Z</time>
      </trkpt>
      <trkpt lat="46.3776" lon="4.75483">
        <ele>351.3</ele>
        <time>2019-08-25T07:20:08Z</time>
      </trkpt>
      <trkpt lat="46.3777" lon="4.75464">
        <ele>352.3</ele>
        <time>2019-08-25T07:20:11Z</time>
      </trkpt>
      <trkpt lat="46.37782" lon="4.75435">
        <ele>353.9</ele>
        <time>2019-08-25T07:20:16Z</time>
      </trkpt>
      <trkpt lat="46.37785" lon="4.75438">
        <ele>354.3</ele>
        <time>2019-08-25T07:20:19Z</time>
      </trkpt>
      <trkpt lat="46.37786" lon="4.7544">
        <ele>354.4</ele>
        <time>2019-08-25T07:20:20Z</time>
      </trkpt>
      <trkpt lat="46.37786" lon="4.75443">
        <ele>354.6</ele>
        <time>2019-08-25T07:20:21Z</time>
      </trkpt>
      <trkpt lat="46.37786" lon="4.75455">
        <ele>355.4</ele>
        <time>2019-08-25T07:20:27Z</time>
      </trkpt>
      <trkpt lat="46.37787" lon="4.75459">
        <ele>355.6</ele>
        <time>2019-08-25T07:20:29Z</time>
      </trkpt>
      <trkpt lat="46.3779" lon="4.75472">
        <ele>356.3</ele>
        <time>2019-08-25T07:20:34Z</time>
      </trkpt>
      <trkpt lat="46.37798" lon="4.75492">
        <ele>357.6</ele>
        <time>2019-08-25T07:20:42Z</time>
      </trkpt>
      <trkpt lat="46.37804" lon="4.75506">
        <ele>358.5</ele>
        <time>2019-08-25T07:20:49Z</time>
      </trkpt>
      <trkpt lat="46.37804" lon="4.75509">
        <ele>358.7</ele>
        <time>2019-08-25T07:20:50Z</time>
      </trkpt>
      <trkpt lat="46.37806" lon="4.75526">
        <ele>359.7</ele>
        <time>2019-08-25T07:20:57Z</time>
      </trkpt>
      <trkpt lat="46.37808" lon="4.75532">
        <ele>359.8</ele>
        <time>2019-08-25T07:20:59Z</time>
      </trkpt>
      <trkpt lat="46.37815" lon="4.75555">
        <ele>360.5</ele>
        <time>2019-08-25T07:21:07Z</time>
      </trkpt>
      <trkpt lat="46.37816" lon="4.7556">
        <ele>360.6</ele>
        <time>2019-08-25T07:21:09Z</time>
      </trkpt>
      <trkpt lat="46.37819" lon="4.75569">
        <ele>361.1</ele>
        <time>2019-08-25T07:21:14Z</time>
      </trkpt>
      <trkpt lat="46.37822" lon="4.75577">
        <ele>361.6</ele>
        <time>2019-08-25T07:21:18Z</time>
      </trkpt>
      <trkpt lat="46.37826" lon="4.75583">
        <ele>362.2</ele>
        <time>2019-08-25T07:21:21Z</time>
      </trkpt>
      <trkpt lat="46.37829" lon="4.75591">
        <ele>362.8</ele>
        <time>2019-08-25T07:21:24Z</time>
      </trkpt>
      <trkpt lat="46.37846" lon="4.756">
        <ele>365.1</ele>
        <time>2019-08-25T07:21:34Z</time>
      </trkpt>
      <trkpt lat="46.3785" lon="4.75601">
        <ele>365.5</ele>
        <time>2019-08-25T07:21:36Z</time>
      </trkpt>
      <trkpt lat="46.37863" lon="4.75606">
        <ele>366.6</ele>
        <time>2019-08-25T07:21:43Z</time>
      </trkpt>
      <trkpt lat="46.37866" lon="4.75606">
        <ele>366.9</ele>
        <time>2019-08-25T07:21:44Z</time>
      </trkpt>
      <trkpt lat="46.37877" lon="4.75603">
        <ele>367.9</ele>
        <time>2019-08-25T07:21:50Z</time>
      </trkpt>
      <trkpt lat="46.37883" lon="4.75603">
        <ele>368.4</ele>
        <time>2019-08-25T07:21:53Z</time>
      </trkpt>
      <trkpt lat="46.3789" lon="4.75607">
        <ele>369</ele>
        <time>2019-08-25T07:21:56Z</time>
      </trkpt>
      <trkpt lat="46.37892" lon="4.75608">
        <ele>369.2</ele>
        <time>2019-08-25T07:21:57Z</time>
      </trkpt>
      <trkpt lat="46.37902" lon="4.75608">
        <ele>370</ele>
        <time>2019-08-25T07:22:02Z</time>
      </trkpt>
      <trkpt lat="46.37904" lon="4.75608">
        <ele>370.2</ele>
        <time>2019-08-25T07:22:03Z</time>
      </trkpt>
      <trkpt lat="46.37911" lon="4.75608">
        <ele>370.8</ele>
        <time>2019-08-25T07:22:06Z</time>
      </trkpt>
      <trkpt lat="46.3792" lon="4.75607">
        <ele>371.4</ele>
        <time>2019-08-25T07:22:10Z</time>
      </trkpt>
      <trkpt lat="46.37936" lon="4.75601">
        <ele>372.5</ele>
        <time>2019-08-25T07:22:17Z</time>
      </trkpt>
      <trkpt lat="46.37941" lon="4.756">
        <ele>372.8</ele>
        <time>2019-08-25T07:22:19Z</time>
      </trkpt>
      <trkpt lat="46.37949" lon="4.75597">
        <ele>373.4</ele>
        <time>2019-08-25T07:22:23Z</time>
      </trkpt>
      <trkpt lat="46.37952" lon="4.75597">
        <ele>373.5</ele>
        <time>2019-08-25T07:22:24Z</time>
      </trkpt>
      <trkpt lat="46.37968" lon="4.75592">
        <ele>374.8</ele>
        <time>2019-08-25T07:22:31Z</time>
      </trkpt>
      <trkpt lat="46.37979" lon="4.75588">
        <ele>375.8</ele>
        <time>2019-08-25T07:22:37Z</time>
      </trkpt>
      <trkpt lat="46.37981" lon="4.75588">
        <ele>376</ele>
        <time>2019-08-25T07:22:38Z</time>
      </trkpt>
      <trkpt lat="46.37999" lon="4.75586">
        <ele>377.3</ele>
        <time>2019-08-25T07:22:48Z</time>
      </trkpt>
      <trkpt lat="46.38011" lon="4.75588">
        <ele>377.9</ele>
        <time>2019-08-25T07:22:52Z</time>
      </trkpt>
      <trkpt lat="46.38017" lon="4.75586">
        <ele>378.1</ele>
        <time>2019-08-25T07:22:55Z</time>
      </trkpt>
      <trkpt lat="46.38027" lon="4.75586">
        <ele>378.6</ele>
        <time>2019-08-25T07:22:59Z</time>
      </trkpt>
      <trkpt lat="46.38034" lon="4.75587">
        <ele>378.8</ele>
        <time>2019-08-25T07:23:02Z</time>
      </trkpt>
      <trkpt lat="46.3805" lon="4.75585">
        <ele>379.4</ele>
        <time>2019-08-25T07:23:08Z</time>
      </trkpt>
      <trkpt lat="46.38066" lon="4.75586">
        <ele>379.7</ele>
        <time>2019-08-25T07:23:14Z</time>
      </trkpt>
      <trkpt lat="46.38069" lon="4.7559">
        <ele>379.8</ele>
        <time>2019-08-25T07:23:16Z</time>
      </trkpt>
      <trkpt lat="46.38077" lon="4.75604">
        <ele>379.9</ele>
        <time>2019-08-25T07:23:19Z</time>
      </trkpt>
      <trkpt lat="46.38081" lon="4.75615">
        <ele>379.7</ele>
        <time>2019-08-25T07:23:21Z</time>
      </trkpt>
      <trkpt lat="46.38087" lon="4.75641">
        <ele>378.4</ele>
        <time>2019-08-25T07:23:25Z</time>
      </trkpt>
      <trkpt lat="46.38091" lon="4.75652">
        <ele>377</ele>
        <time>2019-08-25T07:23:27Z</time>
      </trkpt>
      <trkpt lat="46.38106" lon="4.75677">
        <ele>372.8</ele>
        <time>2019-08-25T07:23:30Z</time>
      </trkpt>
      <trkpt lat="46.38114" lon="4.75683">
        <ele>371.4</ele>
        <time>2019-08-25T07:23:31Z</time>
      </trkpt>
      <trkpt lat="46.38135" lon="4.75701">
        <ele>367.9</ele>
        <time>2019-08-25T07:23:34Z</time>
      </trkpt>
      <trkpt lat="46.38158" lon="4.75723">
        <ele>365</ele>
        <time>2019-08-25T07:23:37Z</time>
      </trkpt>
      <trkpt lat="46.38173" lon="4.75738">
        <ele>363</ele>
        <time>2019-08-25T07:23:39Z</time>
      </trkpt>
      <trkpt lat="46.38189" lon="4.75749">
        <ele>360.9</ele>
        <time>2019-08-25T07:23:41Z</time>
      </trkpt>
      <trkpt lat="46.38209" lon="4.75766">
        <ele>357.5</ele>
        <time>2019-08-25T07:23:44Z</time>
      </trkpt>
      <trkpt lat="46.38215" lon="4.75773">
        <ele>356.3</ele>
        <time>2019-08-25T07:23:45Z</time>
      </trkpt>
      <trkpt lat="46.3822" lon="4.7578">
        <ele>355.3</ele>
        <time>2019-08-25T07:23:46Z</time>
      </trkpt>
      <trkpt lat="46.38231" lon="4.75791">
        <ele>353.1</ele>
        <time>2019-08-25T07:23:48Z</time>
      </trkpt>
      <trkpt lat="46.38245" lon="4.75804">
        <ele>350.4</ele>
        <time>2019-08-25T07:23:50Z</time>
      </trkpt>
      <trkpt lat="46.38259" lon="4.7582">
        <ele>347.7</ele>
        <time>2019-08-25T07:23:52Z</time>
      </trkpt>
      <trkpt lat="46.38271" lon="4.75833">
        <ele>345.1</ele>
        <time>2019-08-25T07:23:54Z</time>
      </trkpt>
      <trkpt lat="46.38277" lon="4.7584">
        <ele>343.7</ele>
        <time>2019-08-25T07:23:55Z</time>
      </trkpt>
      <trkpt lat="46.38284" lon="4.75848">
        <ele>342.2</ele>
        <time>2019-08-25T07:23:56Z</time>
      </trkpt>
      <trkpt lat="46.38288" lon="4.75855">
        <ele>341.1</ele>
        <time>2019-08-25T07:23:57Z</time>
      </trkpt>
      <trkpt lat="46.38291" lon="4.75862">
        <ele>340.2</ele>
        <time>2019-08-25T07:23:58Z</time>
      </trkpt>
      <trkpt lat="46.38293" lon="4.75868">
        <ele>339.3</ele>
        <time>2019-08-25T07:23:59Z</time>
      </trkpt>
      <trkpt lat="46.38296" lon="4.75875">
        <ele>338.3</ele>
        <time>2019-08-25T07:24:00Z</time>
      </trkpt>
      <trkpt lat="46.383" lon="4.7588">
        <ele>337.5</ele>
        <time>2019-08-25T07:24:01Z</time>
      </trkpt>
      <trkpt lat="46.38303" lon="4.75887">
        <ele>336.6</ele>
        <time>2019-08-25T07:24:02Z</time>
      </trkpt>
      <trkpt lat="46.38306" lon="4.75894">
        <ele>335.7</ele>
        <time>2019-08-25T07:24:03Z</time>
      </trkpt>
      <trkpt lat="46.3831" lon="4.75902">
        <ele>334.6</ele>
        <time>2019-08-25T07:24:04Z</time>
      </trkpt>
      <trkpt lat="46.38313" lon="4.75908">
        <ele>333.7</ele>
        <time>2019-08-25T07:24:05Z</time>
      </trkpt>
      <trkpt lat="46.38317" lon="4.75913">
        <ele>332.8</ele>
        <time>2019-08-25T07:24:06Z</time>
      </trkpt>
      <trkpt lat="46.3832" lon="4.75918">
        <ele>331.8</ele>
        <time>2019-08-25T07:24:07Z</time>
      </trkpt>
      <trkpt lat="46.38323" lon="4.75923">
        <ele>331</ele>
        <time>2019-08-25T07:24:08Z</time>
      </trkpt>
      <trkpt lat="46.38327" lon="4.75928">
        <ele>329.9</ele>
        <time>2019-08-25T07:24:09Z</time>
      </trkpt>
      <trkpt lat="46.38331" lon="4.75934">
        <ele>328.8</ele>
        <time>2019-08-25T07:24:10Z</time>
      </trkpt>
      <trkpt lat="46.38335" lon="4.75938">
        <ele>327.8</ele>
        <time>2019-08-25T07:24:11Z</time>
      </trkpt>
      <trkpt lat="46.38341" lon="4.75943">
        <ele>326.6</ele>
        <time>2019-08-25T07:24:12Z</time>
      </trkpt>
      <trkpt lat="46.38346" lon="4.75947">
        <ele>325.6</ele>
        <time>2019-08-25T07:24:13Z</time>
      </trkpt>
      <trkpt lat="46.38348" lon="4.75951">
        <ele>325</ele>
        <time>2019-08-25T07:24:14Z</time>
      </trkpt>
      <trkpt lat="46.38349" lon="4.75956">
        <ele>324.3</ele>
        <time>2019-08-25T07:24:15Z</time>
      </trkpt>
      <trkpt lat="46.38351" lon="4.75963">
        <ele>323.6</ele>
        <time>2019-08-25T07:24:16Z</time>
      </trkpt>
      <trkpt lat="46.38352" lon="4.7597">
        <ele>322.9</ele>
        <time>2019-08-25T07:24:17Z</time>
      </trkpt>
      <trkpt lat="46.38352" lon="4.75978">
        <ele>322.1</ele>
        <time>2019-08-25T07:24:18Z</time>
      </trkpt>
      <trkpt lat="46.38353" lon="4.75987">
        <ele>321.2</ele>
        <time>2019-08-25T07:24:19Z</time>
      </trkpt>
      <trkpt lat="46.38355" lon="4.75997">
        <ele>320</ele>
        <time>2019-08-25T07:24:20Z</time>
      </trkpt>
      <trkpt lat="46.38356" lon="4.76008">
        <ele>318.6</ele>
        <time>2019-08-25T07:24:21Z</time>
      </trkpt>
      <trkpt lat="46.38359" lon="4.76017">
        <ele>317.4</ele>
        <time>2019-08-25T07:24:22Z</time>
      </trkpt>
      <trkpt lat="46.38361" lon="4.76023">
        <ele>316.3</ele>
        <time>2019-08-25T07:24:23Z</time>
      </trkpt>
      <trkpt lat="46.38362" lon="4.76028">
        <ele>315.6</ele>
        <time>2019-08-25T07:24:24Z</time>
      </trkpt>
      <trkpt lat="46.38363" lon="4.76034">
        <ele>314.9</ele>
        <time>2019-08-25T07:24:25Z</time>
      </trkpt>
      <trkpt lat="46.38362" lon="4.76041">
        <ele>314.1</ele>
        <time>2019-08-25T07:24:26Z</time>
      </trkpt>
      <trkpt lat="46.38362" lon="4.76058">
        <ele>311.9</ele>
        <time>2019-08-25T07:24:28Z</time>
      </trkpt>
      <trkpt lat="46.38363" lon="4.76068">
        <ele>310.8</ele>
        <time>2019-08-25T07:24:29Z</time>
      </trkpt>
      <trkpt lat="46.38364" lon="4.76088">
        <ele>308.8</ele>
        <time>2019-08-25T07:24:31Z</time>
      </trkpt>
      <trkpt lat="46.38365" lon="4.76096">
        <ele>308.1</ele>
        <time>2019-08-25T07:24:32Z</time>
      </trkpt>
      <trkpt lat="46.38366" lon="4.76102">
        <ele>307.4</ele>
        <time>2019-08-25T07:24:33Z</time>
      </trkpt>
      <trkpt lat="46.38367" lon="4.7611">
        <ele>306.6</ele>
        <time>2019-08-25T07:24:35Z</time>
      </trkpt>
      <trkpt lat="46.38369" lon="4.76112">
        <ele>306</ele>
        <time>2019-08-25T07:24:36Z</time>
      </trkpt>
      <trkpt lat="46.38371" lon="4.76114">
        <ele>305.4</ele>
        <time>2019-08-25T07:24:37Z</time>
      </trkpt>
      <trkpt lat="46.38378" lon="4.76114">
        <ele>303.7</ele>
        <time>2019-08-25T07:24:39Z</time>
      </trkpt>
      <trkpt lat="46.38382" lon="4.76114">
        <ele>302.7</ele>
        <time>2019-08-25T07:24:40Z</time>
      </trkpt>
      <trkpt lat="46.38386" lon="4.76113">
        <ele>301</ele>
        <time>2019-08-25T07:24:41Z</time>
      </trkpt>
      <trkpt lat="46.38396" lon="4.76106">
        <ele>297.4</ele>
        <time>2019-08-25T07:24:43Z</time>
      </trkpt>
      <trkpt lat="46.38401" lon="4.76102">
        <ele>296</ele>
        <time>2019-08-25T07:24:44Z</time>
      </trkpt>
      <trkpt lat="46.38405" lon="4.76098">
        <ele>294.9</ele>
        <time>2019-08-25T07:24:45Z</time>
      </trkpt>
      <trkpt lat="46.3841" lon="4.76092">
        <ele>294.2</ele>
        <time>2019-08-25T07:24:47Z</time>
      </trkpt>
      <trkpt lat="46.38412" lon="4.76088">
        <ele>293.8</ele>
        <time>2019-08-25T07:24:48Z</time>
      </trkpt>
      <trkpt lat="46.38414" lon="4.76083">
        <ele>293.3</ele>
        <time>2019-08-25T07:24:49Z</time>
      </trkpt>
      <trkpt lat="46.38416" lon="4.76071">
        <ele>292.3</ele>
        <time>2019-08-25T07:24:51Z</time>
      </trkpt>
      <trkpt lat="46.38417" lon="4.76064">
        <ele>291.8</ele>
        <time>2019-08-25T07:24:52Z</time>
      </trkpt>
      <trkpt lat="46.38421" lon="4.76041">
        <ele>290.8</ele>
        <time>2019-08-25T07:24:55Z</time>
      </trkpt>
      <trkpt lat="46.38425" lon="4.76025">
        <ele>289.7</ele>
        <time>2019-08-25T07:24:57Z</time>
      </trkpt>
      <trkpt lat="46.38426" lon="4.76017">
        <ele>289.2</ele>
        <time>2019-08-25T07:24:58Z</time>
      </trkpt>
      <trkpt lat="46.38431" lon="4.75997">
        <ele>288.3</ele>
        <time>2019-08-25T07:25:00Z</time>
      </trkpt>
      <trkpt lat="46.38435" lon="4.75979">
        <ele>287.6</ele>
        <time>2019-08-25T07:25:02Z</time>
      </trkpt>
      <trkpt lat="46.38439" lon="4.75969">
        <ele>287.2</ele>
        <time>2019-08-25T07:25:04Z</time>
      </trkpt>
      <trkpt lat="46.38441" lon="4.75969">
        <ele>287.1</ele>
        <time>2019-08-25T07:25:05Z</time>
      </trkpt>
      <trkpt lat="46.38443" lon="4.75971">
        <ele>287</ele>
        <time>2019-08-25T07:25:06Z</time>
      </trkpt>
      <trkpt lat="46.38448" lon="4.75976">
        <ele>284.2</ele>
        <time>2019-08-25T07:25:08Z</time>
      </trkpt>
      <trkpt lat="46.38452" lon="4.7598">
        <ele>282.7</ele>
        <time>2019-08-25T07:25:09Z</time>
      </trkpt>
      <trkpt lat="46.38455" lon="4.75987">
        <ele>281.2</ele>
        <time>2019-08-25T07:25:10Z</time>
      </trkpt>
      <trkpt lat="46.38457" lon="4.75996">
        <ele>279.9</ele>
        <time>2019-08-25T07:25:11Z</time>
      </trkpt>
      <trkpt lat="46.38459" lon="4.76003">
        <ele>279.7</ele>
        <time>2019-08-25T07:25:12Z</time>
      </trkpt>
      <trkpt lat="46.38464" lon="4.76015">
        <ele>277.6</ele>
        <time>2019-08-25T07:25:15Z</time>
      </trkpt>
      <trkpt lat="46.38465" lon="4.76017">
        <ele>277.4</ele>
        <time>2019-08-25T07:25:16Z</time>
      </trkpt>
      <trkpt lat="46.38466" lon="4.76019">
        <ele>276.2</ele>
        <time>2019-08-25T07:25:17Z</time>
      </trkpt>
      <trkpt lat="46.38471" lon="4.76021">
        <ele>274.8</ele>
        <time>2019-08-25T07:25:19Z</time>
      </trkpt>
      <trkpt lat="46.38474" lon="4.76022">
        <ele>273.5</ele>
        <time>2019-08-25T07:25:21Z</time>
      </trkpt>
      <trkpt lat="46.38476" lon="4.76029">
        <ele>272.3</ele>
        <time>2019-08-25T07:25:42Z</time>
      </trkpt>
      <trkpt lat="46.38477" lon="4.76031">
        <ele>272.1</ele>
        <time>2019-08-25T07:25:43Z</time>
      </trkpt>
      <trkpt lat="46.38477" lon="4.76034">
        <ele>271.8</ele>
        <time>2019-08-25T07:25:44Z</time>
      </trkpt>
      <trkpt lat="46.38478" lon="4.76043">
        <ele>270.5</ele>
        <time>2019-08-25T07:25:46Z</time>
      </trkpt>
      <trkpt lat="46.3848" lon="4.76053">
        <ele>270</ele>
        <time>2019-08-25T07:25:48Z</time>
      </trkpt>
      <trkpt lat="46.38481" lon="4.76062">
        <ele>268.4</ele>
        <time>2019-08-25T07:25:50Z</time>
      </trkpt>
      <trkpt lat="46.38484" lon="4.76066">
        <ele>266.7</ele>
        <time>2019-08-25T07:25:52Z</time>
      </trkpt>
      <trkpt lat="46.38488" lon="4.76071">
        <ele>265.4</ele>
        <time>2019-08-25T07:25:54Z</time>
      </trkpt>
      <trkpt lat="46.3849" lon="4.76078">
        <ele>263.6</ele>
        <time>2019-08-25T07:25:56Z</time>
      </trkpt>
      <trkpt lat="46.38492" lon="4.76088">
        <ele>262.6</ele>
        <time>2019-08-25T07:25:57Z</time>
      </trkpt>
      <trkpt lat="46.38493" lon="4.76095">
        <ele>260.9</ele>
        <time>2019-08-25T07:25:58Z</time>
      </trkpt>
      <trkpt lat="46.385" lon="4.76103">
        <ele>258.6</ele>
        <time>2019-08-25T07:26:00Z</time>
      </trkpt>
      <trkpt lat="46.38504" lon="4.76104">
        <ele>257.7</ele>
        <time>2019-08-25T07:26:01Z</time>
      </trkpt>
      <trkpt lat="46.38512" lon="4.76105">
        <ele>256.1</ele>
        <time>2019-08-25T07:26:03Z</time>
      </trkpt>
      <trkpt lat="46.38523" lon="4.76092">
        <ele>255.9</ele>
        <time>2019-08-25T07:26:05Z</time>
      </trkpt>
      <trkpt lat="46.38527" lon="4.76086">
        <ele>255.9</ele>
        <time>2019-08-25T07:26:06Z</time>
      </trkpt>
      <trkpt lat="46.38531" lon="4.7608">
        <ele>256.1</ele>
        <time>2019-08-25T07:26:07Z</time>
      </trkpt>
      <trkpt lat="46.38541" lon="4.76066">
        <ele>256.5</ele>
        <time>2019-08-25T07:26:10Z</time>
      </trkpt>
      <trkpt lat="46.38553" lon="4.76057">
        <ele>257.2</ele>
        <time>2019-08-25T07:26:14Z</time>
      </trkpt>
      <trkpt lat="46.38555" lon="4.76056">
        <ele>257.2</ele>
        <time>2019-08-25T07:26:15Z</time>
      </trkpt>
      <trkpt lat="46.38557" lon="4.76056">
        <ele>257</ele>
        <time>2019-08-25T07:26:16Z</time>
      </trkpt>
      <trkpt lat="46.38567" lon="4.76056">
        <ele>258</ele>
        <time>2019-08-25T07:26:20Z</time>
      </trkpt>
      <trkpt lat="46.38571" lon="4.76058">
        <ele>258.1</ele>
        <time>2019-08-25T07:26:22Z</time>
      </trkpt>
      <trkpt lat="46.38573" lon="4.76056">
        <ele>258.1</ele>
        <time>2019-08-25T07:26:23Z</time>
      </trkpt>
      <trkpt lat="46.38574" lon="4.76054">
        <ele>258.2</ele>
        <time>2019-08-25T07:26:24Z</time>
      </trkpt>
      <trkpt lat="46.38583" lon="4.76041">
        <ele>258.5</ele>
        <time>2019-08-25T07:26:30Z</time>
      </trkpt>
      <trkpt lat="46.38591" lon="4.76019">
        <ele>258.9</ele>
        <time>2019-08-25T07:26:55Z</time>
      </trkpt>
      <trkpt lat="46.38611" lon="4.75971">
        <ele>259.9</ele>
        <time>2019-08-25T07:28:03Z</time>
      </trkpt>
      <trkpt lat="46.38615" lon="4.75961">
        <ele>260</ele>
        <time>2019-08-25T07:28:09Z</time>
      </trkpt>
      <trkpt lat="46.38616" lon="4.75954">
        <ele>260</ele>
        <time>2019-08-25T07:28:10Z</time>
      </trkpt>
      <trkpt lat="46.38621" lon="4.75921">
        <ele>260.4</ele>
        <time>2019-08-25T07:28:15Z</time>
      </trkpt>
      <trkpt lat="46.38623" lon="4.75916">
        <ele>260.5</ele>
        <time>2019-08-25T07:28:16Z</time>
      </trkpt>
      <trkpt lat="46.38629" lon="4.75894">
        <ele>260.9</ele>
        <time>2019-08-25T07:28:20Z</time>
      </trkpt>
      <trkpt lat="46.3864" lon="4.75851">
        <ele>261.5</ele>
        <time>2019-08-25T07:28:26Z</time>
      </trkpt>
      <trkpt lat="46.38642" lon="4.75844">
        <ele>261.7</ele>
        <time>2019-08-25T07:28:27Z</time>
      </trkpt>
      <trkpt lat="46.38647" lon="4.75815">
        <ele>262.1</ele>
        <time>2019-08-25T07:28:30Z</time>
      </trkpt>
      <trkpt lat="46.3865" lon="4.75788">
        <ele>262.6</ele>
        <time>2019-08-25T07:28:33Z</time>
      </trkpt>
      <trkpt lat="46.3865" lon="4.75779">
        <ele>262.7</ele>
        <time>2019-08-25T07:28:34Z</time>
      </trkpt>
      <trkpt lat="46.3865" lon="4.75745">
        <ele>263.3</ele>
        <time>2019-08-25T07:28:38Z</time>
      </trkpt>
      <trkpt lat="46.38654" lon="4.75733">
        <ele>263.5</ele>
        <time>2019-08-25T07:28:41Z</time>
      </trkpt>
      <trkpt lat="46.38655" lon="4.7573">
        <ele>272.9</ele>
        <time>2019-08-25T07:28:42Z</time>
      </trkpt>
      <trkpt lat="46.38659" lon="4.7572">
        <ele>274.3</ele>
        <time>2019-08-25T07:28:46Z</time>
      </trkpt>
      <trkpt lat="46.38661" lon="4.75718">
        <ele>274.6</ele>
        <time>2019-08-25T07:28:47Z</time>
      </trkpt>
      <trkpt lat="46.38662" lon="4.75717">
        <ele>275</ele>
        <time>2019-08-25T07:28:48Z</time>
      </trkpt>
      <trkpt lat="46.38667" lon="4.7571">
        <ele>276.1</ele>
        <time>2019-08-25T07:28:52Z</time>
      </trkpt>
      <trkpt lat="46.38673" lon="4.75707">
        <ele>277.2</ele>
        <time>2019-08-25T07:28:56Z</time>
      </trkpt>
      <trkpt lat="46.38679" lon="4.75704">
        <ele>278.3</ele>
        <time>2019-08-25T07:29:00Z</time>
      </trkpt>
      <trkpt lat="46.38684" lon="4.75699">
        <ele>279.3</ele>
        <time>2019-08-25T07:29:03Z</time>
      </trkpt>
      <trkpt lat="46.38686" lon="4.75698">
        <ele>279.5</ele>
        <time>2019-08-25T07:29:04Z</time>
      </trkpt>
      <trkpt lat="46.38692" lon="4.75691">
        <ele>280.8</ele>
        <time>2019-08-25T07:29:07Z</time>
      </trkpt>
      <trkpt lat="46.38695" lon="4.75688">
        <ele>281.4</ele>
        <time>2019-08-25T07:29:09Z</time>
      </trkpt>
      <trkpt lat="46.38698" lon="4.75685">
        <ele>281.9</ele>
        <time>2019-08-25T07:29:11Z</time>
      </trkpt>
      <trkpt lat="46.3871" lon="4.75676">
        <ele>284.2</ele>
        <time>2019-08-25T07:29:17Z</time>
      </trkpt>
      <trkpt lat="46.38715" lon="4.75672">
        <ele>285.1</ele>
        <time>2019-08-25T07:29:20Z</time>
      </trkpt>
      <trkpt lat="46.38724" lon="4.75663">
        <ele>286.7</ele>
        <time>2019-08-25T07:29:26Z</time>
      </trkpt>
      <trkpt lat="46.38726" lon="4.75662">
        <ele>287.1</ele>
        <time>2019-08-25T07:29:27Z</time>
      </trkpt>
      <trkpt lat="46.38735" lon="4.75654">
        <ele>288.8</ele>
        <time>2019-08-25T07:29:33Z</time>
      </trkpt>
      <trkpt lat="46.38739" lon="4.7565">
        <ele>289.6</ele>
        <time>2019-08-25T07:29:35Z</time>
      </trkpt>
      <trkpt lat="46.38755" lon="4.75641">
        <ele>292.3</ele>
        <time>2019-08-25T07:29:44Z</time>
      </trkpt>
      <trkpt lat="46.38766" lon="4.75641">
        <ele>292.8</ele>
        <time>2019-08-25T07:29:51Z</time>
      </trkpt>
      <trkpt lat="46.38751" lon="4.75711">
        <ele>294.9</ele>
        <time>2019-08-25T07:30:22Z</time>
      </trkpt>
      <trkpt lat="46.38748" lon="4.75724">
        <ele>295.7</ele>
        <time>2019-08-25T07:30:28Z</time>
      </trkpt>
      <trkpt lat="46.38743" lon="4.75742">
        <ele>296.8</ele>
        <time>2019-08-25T07:30:36Z</time>
      </trkpt>
      <trkpt lat="46.3874" lon="4.75751">
        <ele>297.3</ele>
        <time>2019-08-25T07:30:41Z</time>
      </trkpt>
      <trkpt lat="46.38737" lon="4.75759">
        <ele>297.8</ele>
        <time>2019-08-25T07:30:45Z</time>
      </trkpt>
      <trkpt lat="46.38735" lon="4.75764">
        <ele>298</ele>
        <time>2019-08-25T07:30:47Z</time>
      </trkpt>
      <trkpt lat="46.38734" lon="4.7577">
        <ele>298.3</ele>
        <time>2019-08-25T07:30:50Z</time>
      </trkpt>
      <trkpt lat="46.38731" lon="4.75777">
        <ele>298.7</ele>
        <time>2019-08-25T07:30:54Z</time>
      </trkpt>
      <trkpt lat="46.3873" lon="4.75781">
        <ele>298.9</ele>
        <time>2019-08-25T07:30:56Z</time>
      </trkpt>
      <trkpt lat="46.38729" lon="4.75789">
        <ele>299.4</ele>
        <time>2019-08-25T07:31:00Z</time>
      </trkpt>
      <trkpt lat="46.38728" lon="4.75795">
        <ele>299.9</ele>
        <time>2019-08-25T07:31:03Z</time>
      </trkpt>
      <trkpt lat="46.38727" lon="4.75797">
        <ele>300</ele>
        <time>2019-08-25T07:31:04Z</time>
      </trkpt>
      <trkpt lat="46.38725" lon="4.75806">
        <ele>300.5</ele>
        <time>2019-08-25T07:31:08Z</time>
      </trkpt>
      <trkpt lat="46.38724" lon="4.75817">
        <ele>301</ele>
        <time>2019-08-25T07:31:12Z</time>
      </trkpt>
      <trkpt lat="46.38721" lon="4.75837">
        <ele>301.5</ele>
        <time>2019-08-25T07:31:21Z</time>
      </trkpt>
      <trkpt lat="46.3872" lon="4.75842">
        <ele>301.6</ele>
        <time>2019-08-25T07:31:23Z</time>
      </trkpt>
      <trkpt lat="46.38717" lon="4.75858">
        <ele>301.7</ele>
        <time>2019-08-25T07:31:28Z</time>
      </trkpt>
      <trkpt lat="46.38716" lon="4.75865">
        <ele>301.8</ele>
        <time>2019-08-25T07:31:30Z</time>
      </trkpt>
      <trkpt lat="46.38715" lon="4.7589">
        <ele>302.1</ele>
        <time>2019-08-25T07:31:37Z</time>
      </trkpt>
      <trkpt lat="46.38714" lon="4.75893">
        <ele>302.1</ele>
        <time>2019-08-25T07:31:38Z</time>
      </trkpt>
      <trkpt lat="46.38713" lon="4.759">
        <ele>302.2</ele>
        <time>2019-08-25T07:31:40Z</time>
      </trkpt>
      <trkpt lat="46.38712" lon="4.7591">
        <ele>302.4</ele>
        <time>2019-08-25T07:31:43Z</time>
      </trkpt>
      <trkpt lat="46.38706" lon="4.75935">
        <ele>302.8</ele>
        <time>2019-08-25T07:31:50Z</time>
      </trkpt>
      <trkpt lat="46.38704" lon="4.75957">
        <ele>303.3</ele>
        <time>2019-08-25T07:31:56Z</time>
      </trkpt>
      <trkpt lat="46.38701" lon="4.75972">
        <ele>303.7</ele>
        <time>2019-08-25T07:32:00Z</time>
      </trkpt>
      <trkpt lat="46.38699" lon="4.75982">
        <ele>304.1</ele>
        <time>2019-08-25T07:32:03Z</time>
      </trkpt>
      <trkpt lat="46.38698" lon="4.75997">
        <ele>304.9</ele>
        <time>2019-08-25T07:32:07Z</time>
      </trkpt>
      <trkpt lat="46.38696" lon="4.76005">
        <ele>305.3</ele>
        <time>2019-08-25T07:32:10Z</time>
      </trkpt>
      <trkpt lat="46.38695" lon="4.76012">
        <ele>305.7</ele>
        <time>2019-08-25T07:32:12Z</time>
      </trkpt>
      <trkpt lat="46.38695" lon="4.76025">
        <ele>306.3</ele>
        <time>2019-08-25T07:32:17Z</time>
      </trkpt>
      <trkpt lat="46.38694" lon="4.7603">
        <ele>306.5</ele>
        <time>2019-08-25T07:32:19Z</time>
      </trkpt>
      <trkpt lat="46.38691" lon="4.76045">
        <ele>306.9</ele>
        <time>2019-08-25T07:32:24Z</time>
      </trkpt>
      <trkpt lat="46.38685" lon="4.76069">
        <ele>307.2</ele>
        <time>2019-08-25T07:32:30Z</time>
      </trkpt>
      <trkpt lat="46.38684" lon="4.76073">
        <ele>307.2</ele>
        <time>2019-08-25T07:32:31Z</time>
      </trkpt>
      <trkpt lat="46.38683" lon="4.76101">
        <ele>307.8</ele>
        <time>2019-08-25T07:32:37Z</time>
      </trkpt>
      <trkpt lat="46.38689" lon="4.76105">
        <ele>308.3</ele>
        <time>2019-08-25T07:32:40Z</time>
      </trkpt>
      <trkpt lat="46.3869" lon="4.76105">
        <ele>308.4</ele>
        <time>2019-08-25T07:32:41Z</time>
      </trkpt>
      <trkpt lat="46.38697" lon="4.76094">
        <ele>309.3</ele>
        <time>2019-08-25T07:32:47Z</time>
      </trkpt>
      <trkpt lat="46.38705" lon="4.76073">
        <ele>310.2</ele>
        <time>2019-08-25T07:32:55Z</time>
      </trkpt>
      <trkpt lat="46.38716" lon="4.76045">
        <ele>311.1</ele>
        <time>2019-08-25T07:33:04Z</time>
      </trkpt>
      <trkpt lat="46.38728" lon="4.76021">
        <ele>312</ele>
        <time>2019-08-25T07:33:13Z</time>
      </trkpt>
      <trkpt lat="46.38736" lon="4.76017">
        <ele>312.7</ele>
        <time>2019-08-25T07:33:18Z</time>
      </trkpt>
      <trkpt lat="46.38737" lon="4.76017">
        <ele>312.8</ele>
        <time>2019-08-25T07:33:19Z</time>
      </trkpt>
      <trkpt lat="46.38743" lon="4.76018">
        <ele>313.4</ele>
        <time>2019-08-25T07:33:23Z</time>
      </trkpt>
      <trkpt lat="46.38749" lon="4.76018">
        <ele>314.1</ele>
        <time>2019-08-25T07:33:27Z</time>
      </trkpt>
      <trkpt lat="46.3875" lon="4.76018">
        <ele>314.3</ele>
        <time>2019-08-25T07:33:28Z</time>
      </trkpt>
      <trkpt lat="46.38761" lon="4.76019">
        <ele>315.4</ele>
        <time>2019-08-25T07:33:35Z</time>
      </trkpt>
      <trkpt lat="46.38763" lon="4.76019">
        <ele>315.6</ele>
        <time>2019-08-25T07:33:36Z</time>
      </trkpt>
      <trkpt lat="46.38768" lon="4.7602">
        <ele>316.1</ele>
        <time>2019-08-25T07:33:39Z</time>
      </trkpt>
      <trkpt lat="46.38776" lon="4.76021">
        <ele>316.8</ele>
        <time>2019-08-25T07:33:44Z</time>
      </trkpt>
      <trkpt lat="46.38781" lon="4.76022">
        <ele>317.2</ele>
        <time>2019-08-25T07:33:47Z</time>
      </trkpt>
      <trkpt lat="46.38788" lon="4.76024">
        <ele>318</ele>
        <time>2019-08-25T07:33:52Z</time>
      </trkpt>
      <trkpt lat="46.38792" lon="4.76022">
        <ele>318.5</ele>
        <time>2019-08-25T07:33:55Z</time>
      </trkpt>
      <trkpt lat="46.38795" lon="4.76017">
        <ele>319.1</ele>
        <time>2019-08-25T07:33:57Z</time>
      </trkpt>
      <trkpt lat="46.38804" lon="4.75999">
        <ele>320.6</ele>
        <time>2019-08-25T07:34:02Z</time>
      </trkpt>
      <trkpt lat="46.38818" lon="4.75968">
        <ele>321.9</ele>
        <time>2019-08-25T07:34:09Z</time>
      </trkpt>
      <trkpt lat="46.38826" lon="4.75953">
        <ele>322.8</ele>
        <time>2019-08-25T07:34:13Z</time>
      </trkpt>
      <trkpt lat="46.38832" lon="4.75942">
        <ele>323.3</ele>
        <time>2019-08-25T07:34:16Z</time>
      </trkpt>
      <trkpt lat="46.38847" lon="4.75927">
        <ele>324.4</ele>
        <time>2019-08-25T07:34:22Z</time>
      </trkpt>
      <trkpt lat="46.38871" lon="4.75905">
        <ele>324.3</ele>
        <time>2019-08-25T07:34:29Z</time>
      </trkpt>
      <trkpt lat="46.38894" lon="4.75887">
        <ele>323.3</ele>
        <time>2019-08-25T07:34:35Z</time>
      </trkpt>
      <trkpt lat="46.38902" lon="4.7588">
        <ele>322.9</ele>
        <time>2019-08-25T07:34:37Z</time>
      </trkpt>
      <trkpt lat="46.3892" lon="4.75864">
        <ele>322.2</ele>
        <time>2019-08-25T07:34:41Z</time>
      </trkpt>
      <trkpt lat="46.38958" lon="4.75835">
        <ele>321.8</ele>
        <time>2019-08-25T07:34:48Z</time>
      </trkpt>
      <trkpt lat="46.38976" lon="4.75816">
        <ele>321.8</ele>
        <time>2019-08-25T07:34:52Z</time>
      </trkpt>
      <trkpt lat="46.38983" lon="4.75806">
        <ele>321.9</ele>
        <time>2019-08-25T07:34:54Z</time>
      </trkpt>
      <trkpt lat="46.39014" lon="4.75765">
        <ele>321.7</ele>
        <time>2019-08-25T07:35:02Z</time>
      </trkpt>
      <trkpt lat="46.39018" lon="4.7576">
        <ele>321.7</ele>
        <time>2019-08-25T07:35:03Z</time>
      </trkpt>
      <trkpt lat="46.39021" lon="4.75754">
        <ele>321.7</ele>
        <time>2019-08-25T07:35:04Z</time>
      </trkpt>
      <trkpt lat="46.39028" lon="4.7574">
        <ele>321.6</ele>
        <time>2019-08-25T07:35:06Z</time>
      </trkpt>
      <trkpt lat="46.39034" lon="4.75723">
        <ele>321.6</ele>
        <time>2019-08-25T07:35:08Z</time>
      </trkpt>
      <trkpt lat="46.39058" lon="4.75664">
        <ele>322.2</ele>
        <time>2019-08-25T07:35:16Z</time>
      </trkpt>
      <trkpt lat="46.39074" lon="4.75635">
        <ele>323.1</ele>
        <time>2019-08-25T07:35:21Z</time>
      </trkpt>
      <trkpt lat="46.39077" lon="4.75629">
        <ele>323.4</ele>
        <time>2019-08-25T07:35:22Z</time>
      </trkpt>
      <trkpt lat="46.39099" lon="4.756">
        <ele>325</ele>
        <time>2019-08-25T07:35:29Z</time>
      </trkpt>
      <trkpt lat="46.39105" lon="4.75592">
        <ele>325.4</ele>
        <time>2019-08-25T07:35:31Z</time>
      </trkpt>
      <trkpt lat="46.39115" lon="4.75575">
        <ele>326</ele>
        <time>2019-08-25T07:35:35Z</time>
      </trkpt>
      <trkpt lat="46.39125" lon="4.75555">
        <ele>326.2</ele>
        <time>2019-08-25T07:35:39Z</time>
      </trkpt>
      <trkpt lat="46.39129" lon="4.75543">
        <ele>326.3</ele>
        <time>2019-08-25T07:35:41Z</time>
      </trkpt>
      <trkpt lat="46.39132" lon="4.75532">
        <ele>326.3</ele>
        <time>2019-08-25T07:35:43Z</time>
      </trkpt>
      <trkpt lat="46.39142" lon="4.75505">
        <ele>326.4</ele>
        <time>2019-08-25T07:35:48Z</time>
      </trkpt>
      <trkpt lat="46.39156" lon="4.75475">
        <ele>327.2</ele>
        <time>2019-08-25T07:35:55Z</time>
      </trkpt>
      <trkpt lat="46.39165" lon="4.75472">
        <ele>328.3</ele>
        <time>2019-08-25T07:36:03Z</time>
      </trkpt>
      <trkpt lat="46.3917" lon="4.75473">
        <ele>328.8</ele>
        <time>2019-08-25T07:36:06Z</time>
      </trkpt>
      <trkpt lat="46.39176" lon="4.75472">
        <ele>329.5</ele>
        <time>2019-08-25T07:36:11Z</time>
      </trkpt>
      <trkpt lat="46.39205" lon="4.75475">
        <ele>333.6</ele>
        <time>2019-08-25T07:36:25Z</time>
      </trkpt>
      <trkpt lat="46.39212" lon="4.75475">
        <ele>334.3</ele>
        <time>2019-08-25T07:36:27Z</time>
      </trkpt>
      <trkpt lat="46.39218" lon="4.75474">
        <ele>334.9</ele>
        <time>2019-08-25T07:36:29Z</time>
      </trkpt>
      <trkpt lat="46.39224" lon="4.75472">
        <ele>335.7</ele>
        <time>2019-08-25T07:36:32Z</time>
      </trkpt>
      <trkpt lat="46.3923" lon="4.75469">
        <ele>336.5</ele>
        <time>2019-08-25T07:36:35Z</time>
      </trkpt>
      <trkpt lat="46.39235" lon="4.75501">
        <ele>338.9</ele>
        <time>2019-08-25T07:36:48Z</time>
      </trkpt>
      <trkpt lat="46.39235" lon="4.75504">
        <ele>339.3</ele>
        <time>2019-08-25T07:36:49Z</time>
      </trkpt>
      <trkpt lat="46.39232" lon="4.75518">
        <ele>339.9</ele>
        <time>2019-08-25T07:36:52Z</time>
      </trkpt>
      <trkpt lat="46.39227" lon="4.75538">
        <ele>340.9</ele>
        <time>2019-08-25T07:36:56Z</time>
      </trkpt>
      <trkpt lat="46.39223" lon="4.75555">
        <ele>341.6</ele>
        <time>2019-08-25T07:36:59Z</time>
      </trkpt>
      <trkpt lat="46.3922" lon="4.7557">
        <ele>342.3</ele>
        <time>2019-08-25T07:37:02Z</time>
      </trkpt>
      <trkpt lat="46.39217" lon="4.75581">
        <ele>342.7</ele>
        <time>2019-08-25T07:37:04Z</time>
      </trkpt>
      <trkpt lat="46.39211" lon="4.756">
        <ele>343.1</ele>
        <time>2019-08-25T07:37:08Z</time>
      </trkpt>
      <trkpt lat="46.39206" lon="4.75612">
        <ele>343.9</ele>
        <time>2019-08-25T07:37:11Z</time>
      </trkpt>
      <trkpt lat="46.39195" lon="4.75632">
        <ele>344</ele>
        <time>2019-08-25T07:37:16Z</time>
      </trkpt>
      <trkpt lat="46.39193" lon="4.75636">
        <ele>344</ele>
        <time>2019-08-25T07:37:17Z</time>
      </trkpt>
      <trkpt lat="46.39176" lon="4.75666">
        <ele>344</ele>
        <time>2019-08-25T07:37:24Z</time>
      </trkpt>
      <trkpt lat="46.39174" lon="4.7567">
        <ele>344.3</ele>
        <time>2019-08-25T07:37:25Z</time>
      </trkpt>
      <trkpt lat="46.39159" lon="4.75699">
        <ele>342.8</ele>
        <time>2019-08-25T07:37:31Z</time>
      </trkpt>
      <trkpt lat="46.39147" lon="4.75725">
        <ele>342.8</ele>
        <time>2019-08-25T07:37:37Z</time>
      </trkpt>
      <trkpt lat="46.39143" lon="4.75734">
        <ele>342</ele>
        <time>2019-08-25T07:37:39Z</time>
      </trkpt>
      <trkpt lat="46.39137" lon="4.75748">
        <ele>341.3</ele>
        <time>2019-08-25T07:37:42Z</time>
      </trkpt>
      <trkpt lat="46.3913" lon="4.75767">
        <ele>340.7</ele>
        <time>2019-08-25T07:37:46Z</time>
      </trkpt>
      <trkpt lat="46.39129" lon="4.75772">
        <ele>340.8</ele>
        <time>2019-08-25T07:37:47Z</time>
      </trkpt>
      <trkpt lat="46.39126" lon="4.75796">
        <ele>341.2</ele>
        <time>2019-08-25T07:37:52Z</time>
      </trkpt>
      <trkpt lat="46.39126" lon="4.75815">
        <ele>341.3</ele>
        <time>2019-08-25T07:37:56Z</time>
      </trkpt>
      <trkpt lat="46.39125" lon="4.75829">
        <ele>341.9</ele>
        <time>2019-08-25T07:38:00Z</time>
      </trkpt>
      <trkpt lat="46.39124" lon="4.75848">
        <ele>342.5</ele>
        <time>2019-08-25T07:38:06Z</time>
      </trkpt>
      <trkpt lat="46.39123" lon="4.75874">
        <ele>344.2</ele>
        <time>2019-08-25T07:38:12Z</time>
      </trkpt>
      <trkpt lat="46.39123" lon="4.75879">
        <ele>344.5</ele>
        <time>2019-08-25T07:38:13Z</time>
      </trkpt>
      <trkpt lat="46.39122" lon="4.75894">
        <ele>345.3</ele>
        <time>2019-08-25T07:38:17Z</time>
      </trkpt>
      <trkpt lat="46.3912" lon="4.75905">
        <ele>345.5</ele>
        <time>2019-08-25T07:38:20Z</time>
      </trkpt>
      <trkpt lat="46.39111" lon="4.75932">
        <ele>346.2</ele>
        <time>2019-08-25T07:38:28Z</time>
      </trkpt>
      <trkpt lat="46.3911" lon="4.75935">
        <ele>345.7</ele>
        <time>2019-08-25T07:38:29Z</time>
      </trkpt>
      <trkpt lat="46.39101" lon="4.75962">
        <ele>345.2</ele>
        <time>2019-08-25T07:38:36Z</time>
      </trkpt>
      <trkpt lat="46.39095" lon="4.75989">
        <ele>345.1</ele>
        <time>2019-08-25T07:38:42Z</time>
      </trkpt>
      <trkpt lat="46.39093" lon="4.75994">
        <ele>345.3</ele>
        <time>2019-08-25T07:38:43Z</time>
      </trkpt>
      <trkpt lat="46.3909" lon="4.76022">
        <ele>345.1</ele>
        <time>2019-08-25T07:38:48Z</time>
      </trkpt>
      <trkpt lat="46.39088" lon="4.76039">
        <ele>345.1</ele>
        <time>2019-08-25T07:38:51Z</time>
      </trkpt>
      <trkpt lat="46.39087" lon="4.76045">
        <ele>344.4</ele>
        <time>2019-08-25T07:38:52Z</time>
      </trkpt>
      <trkpt lat="46.39082" lon="4.76058">
        <ele>343.7</ele>
        <time>2019-08-25T07:38:56Z</time>
      </trkpt>
      <trkpt lat="46.39073" lon="4.76054">
        <ele>342.1</ele>
        <time>2019-08-25T07:39:00Z</time>
      </trkpt>
      <trkpt lat="46.39069" lon="4.76053">
        <ele>341.1</ele>
        <time>2019-08-25T07:39:01Z</time>
      </trkpt>
      <trkpt lat="46.39048" lon="4.7605">
        <ele>337.9</ele>
        <time>2019-08-25T07:39:05Z</time>
      </trkpt>
      <trkpt lat="46.39034" lon="4.76051">
        <ele>336.8</ele>
        <time>2019-08-25T07:39:08Z</time>
      </trkpt>
      <trkpt lat="46.39026" lon="4.76049">
        <ele>336</ele>
        <time>2019-08-25T07:39:10Z</time>
      </trkpt>
      <trkpt lat="46.39015" lon="4.7605">
        <ele>335.2</ele>
        <time>2019-08-25T07:39:13Z</time>
      </trkpt>
      <trkpt lat="46.39012" lon="4.7605">
        <ele>335</ele>
        <time>2019-08-25T07:39:14Z</time>
      </trkpt>
      <trkpt lat="46.39009" lon="4.7605">
        <ele>334.8</ele>
        <time>2019-08-25T07:39:15Z</time>
      </trkpt>
      <trkpt lat="46.38999" lon="4.76051">
        <ele>334.1</ele>
        <time>2019-08-25T07:39:19Z</time>
      </trkpt>
      <trkpt lat="46.38986" lon="4.76045">
        <ele>333.1</ele>
        <time>2019-08-25T07:39:24Z</time>
      </trkpt>
      <trkpt lat="46.38977" lon="4.76042">
        <ele>332.8</ele>
        <time>2019-08-25T07:39:27Z</time>
      </trkpt>
      <trkpt lat="46.3897" lon="4.76039">
        <ele>332.6</ele>
        <time>2019-08-25T07:39:29Z</time>
      </trkpt>
      <trkpt lat="46.38956" lon="4.76037">
        <ele>332.1</ele>
        <time>2019-08-25T07:39:32Z</time>
      </trkpt>
      <trkpt lat="46.38944" lon="4.76045">
        <ele>331.5</ele>
        <time>2019-08-25T07:39:36Z</time>
      </trkpt>
      <trkpt lat="46.38938" lon="4.7607">
        <ele>330.9</ele>
        <time>2019-08-25T07:39:40Z</time>
      </trkpt>
      <trkpt lat="46.38933" lon="4.76109">
        <ele>330.3</ele>
        <time>2019-08-25T07:39:45Z</time>
      </trkpt>
      <trkpt lat="46.38933" lon="4.76129">
        <ele>330.1</ele>
        <time>2019-08-25T07:39:47Z</time>
      </trkpt>
      <trkpt lat="46.38933" lon="4.76159">
        <ele>329.7</ele>
        <time>2019-08-25T07:39:50Z</time>
      </trkpt>
      <trkpt lat="46.38933" lon="4.7617">
        <ele>329.6</ele>
        <time>2019-08-25T07:39:51Z</time>
      </trkpt>
      <trkpt lat="46.38931" lon="4.76192">
        <ele>329.4</ele>
        <time>2019-08-25T07:39:53Z</time>
      </trkpt>
      <trkpt lat="46.38923" lon="4.76238">
        <ele>327.2</ele>
        <time>2019-08-25T07:39:57Z</time>
      </trkpt>
      <trkpt lat="46.38922" lon="4.76249">
        <ele>326.6</ele>
        <time>2019-08-25T07:39:58Z</time>
      </trkpt>
      <trkpt lat="46.3892" lon="4.76283">
        <ele>324.6</ele>
        <time>2019-08-25T07:40:02Z</time>
      </trkpt>
      <trkpt lat="46.38955" lon="4.76317">
        <ele>323.1</ele>
        <time>2019-08-25T07:40:35Z</time>
      </trkpt>
      <trkpt lat="46.38966" lon="4.76335">
        <ele>322.1</ele>
        <time>2019-08-25T07:40:43Z</time>
      </trkpt>
      <trkpt lat="46.38971" lon="4.76341">
        <ele>322.1</ele>
        <time>2019-08-25T07:40:46Z</time>
      </trkpt>
      <trkpt lat="46.38975" lon="4.76344">
        <ele>322.5</ele>
        <time>2019-08-25T07:40:48Z</time>
      </trkpt>
      <trkpt lat="46.38979" lon="4.76346">
        <ele>322.8</ele>
        <time>2019-08-25T07:40:50Z</time>
      </trkpt>
      <trkpt lat="46.38982" lon="4.76348">
        <ele>323</ele>
        <time>2019-08-25T07:40:52Z</time>
      </trkpt>
      <trkpt lat="46.38985" lon="4.76351">
        <ele>323.3</ele>
        <time>2019-08-25T07:40:54Z</time>
      </trkpt>
      <trkpt lat="46.38988" lon="4.76352">
        <ele>323.5</ele>
        <time>2019-08-25T07:40:55Z</time>
      </trkpt>
      <trkpt lat="46.38996" lon="4.76355">
        <ele>324.3</ele>
        <time>2019-08-25T07:40:59Z</time>
      </trkpt>
      <trkpt lat="46.39" lon="4.76356">
        <ele>324.6</ele>
        <time>2019-08-25T07:41:01Z</time>
      </trkpt>
      <trkpt lat="46.39018" lon="4.76358">
        <ele>326.3</ele>
        <time>2019-08-25T07:41:07Z</time>
      </trkpt>
      <trkpt lat="46.39033" lon="4.76353">
        <ele>328.1</ele>
        <time>2019-08-25T07:41:15Z</time>
      </trkpt>
      <trkpt lat="46.39046" lon="4.76342">
        <ele>330.1</ele>
        <time>2019-08-25T07:41:24Z</time>
      </trkpt>
      <trkpt lat="46.39055" lon="4.76334">
        <ele>331.4</ele>
        <time>2019-08-25T07:41:30Z</time>
      </trkpt>
      <trkpt lat="46.39056" lon="4.76332">
        <ele>331.4</ele>
        <time>2019-08-25T07:41:31Z</time>
      </trkpt>
      <trkpt lat="46.39067" lon="4.76322">
        <ele>332.7</ele>
        <time>2019-08-25T07:41:39Z</time>
      </trkpt>
      <trkpt lat="46.39078" lon="4.76312">
        <ele>334.1</ele>
        <time>2019-08-25T07:41:46Z</time>
      </trkpt>
      <trkpt lat="46.39083" lon="4.76305">
        <ele>334.7</ele>
        <time>2019-08-25T07:41:50Z</time>
      </trkpt>
      <trkpt lat="46.3909" lon="4.76295">
        <ele>336</ele>
        <time>2019-08-25T07:41:55Z</time>
      </trkpt>
      <trkpt lat="46.39093" lon="4.7629">
        <ele>336.6</ele>
        <time>2019-08-25T07:41:58Z</time>
      </trkpt>
      <trkpt lat="46.39096" lon="4.76288">
        <ele>336.6</ele>
        <time>2019-08-25T07:42:00Z</time>
      </trkpt>
      <trkpt lat="46.39099" lon="4.76285">
        <ele>337.2</ele>
        <time>2019-08-25T07:42:02Z</time>
      </trkpt>
      <trkpt lat="46.39111" lon="4.76278">
        <ele>338.6</ele>
        <time>2019-08-25T07:42:09Z</time>
      </trkpt>
      <trkpt lat="46.3912" lon="4.76266">
        <ele>339.9</ele>
        <time>2019-08-25T07:42:16Z</time>
      </trkpt>
      <trkpt lat="46.39122" lon="4.76265">
        <ele>340.3</ele>
        <time>2019-08-25T07:42:17Z</time>
      </trkpt>
      <trkpt lat="46.39128" lon="4.76255">
        <ele>341.1</ele>
        <time>2019-08-25T07:42:22Z</time>
      </trkpt>
      <trkpt lat="46.39132" lon="4.76249">
        <ele>342</ele>
        <time>2019-08-25T07:42:26Z</time>
      </trkpt>
      <trkpt lat="46.39133" lon="4.76247">
        <ele>342</ele>
        <time>2019-08-25T07:42:27Z</time>
      </trkpt>
      <trkpt lat="46.39137" lon="4.76236">
        <ele>343</ele>
        <time>2019-08-25T07:42:32Z</time>
      </trkpt>
      <trkpt lat="46.39141" lon="4.76232">
        <ele>343.7</ele>
        <time>2019-08-25T07:42:35Z</time>
      </trkpt>
      <trkpt lat="46.39142" lon="4.7623">
        <ele>344.2</ele>
        <time>2019-08-25T07:42:36Z</time>
      </trkpt>
      <trkpt lat="46.39148" lon="4.76215">
        <ele>346.1</ele>
        <time>2019-08-25T07:42:43Z</time>
      </trkpt>
      <trkpt lat="46.39153" lon="4.7621">
        <ele>347.2</ele>
        <time>2019-08-25T07:42:47Z</time>
      </trkpt>
      <trkpt lat="46.39154" lon="4.7621">
        <ele>347.2</ele>
        <time>2019-08-25T07:42:48Z</time>
      </trkpt>
      <trkpt lat="46.39157" lon="4.7621">
        <ele>346.8</ele>
        <time>2019-08-25T07:42:49Z</time>
      </trkpt>
      <trkpt lat="46.39162" lon="4.76211">
        <ele>346.9</ele>
        <time>2019-08-25T07:42:51Z</time>
      </trkpt>
      <trkpt lat="46.39171" lon="4.7621">
        <ele>347.5</ele>
        <time>2019-08-25T07:42:54Z</time>
      </trkpt>
      <trkpt lat="46.39185" lon="4.76206">
        <ele>347.5</ele>
        <time>2019-08-25T07:42:59Z</time>
      </trkpt>
      <trkpt lat="46.39189" lon="4.76205">
        <ele>348</ele>
        <time>2019-08-25T07:43:00Z</time>
      </trkpt>
      <trkpt lat="46.39202" lon="4.762">
        <ele>348.6</ele>
        <time>2019-08-25T07:43:05Z</time>
      </trkpt>
      <trkpt lat="46.39225" lon="4.76191">
        <ele>349.8</ele>
        <time>2019-08-25T07:43:12Z</time>
      </trkpt>
      <trkpt lat="46.39248" lon="4.76186">
        <ele>350.4</ele>
        <time>2019-08-25T07:43:18Z</time>
      </trkpt>
      <trkpt lat="46.39283" lon="4.76185">
        <ele>350.7</ele>
        <time>2019-08-25T07:43:26Z</time>
      </trkpt>
      <trkpt lat="46.39316" lon="4.76188">
        <ele>351.3</ele>
        <time>2019-08-25T07:43:32Z</time>
      </trkpt>
      <trkpt lat="46.3935" lon="4.76193">
        <ele>351.9</ele>
        <time>2019-08-25T07:43:37Z</time>
      </trkpt>
      <trkpt lat="46.39387" lon="4.76197">
        <ele>353.1</ele>
        <time>2019-08-25T07:43:43Z</time>
      </trkpt>
      <trkpt lat="46.39414" lon="4.76199">
        <ele>353.4</ele>
        <time>2019-08-25T07:43:49Z</time>
      </trkpt>
      <trkpt lat="46.39442" lon="4.76205">
        <ele>353.9</ele>
        <time>2019-08-25T07:43:56Z</time>
      </trkpt>
      <trkpt lat="46.39451" lon="4.76209">
        <ele>353.5</ele>
        <time>2019-08-25T07:43:58Z</time>
      </trkpt>
      <trkpt lat="46.39465" lon="4.7621">
        <ele>353.8</ele>
        <time>2019-08-25T07:44:01Z</time>
      </trkpt>
      <trkpt lat="46.3947" lon="4.7621">
        <ele>354.1</ele>
        <time>2019-08-25T07:44:02Z</time>
      </trkpt>
      <trkpt lat="46.3948" lon="4.7621">
        <ele>354</ele>
        <time>2019-08-25T07:44:04Z</time>
      </trkpt>
      <trkpt lat="46.39493" lon="4.76213">
        <ele>354.8</ele>
        <time>2019-08-25T07:44:07Z</time>
      </trkpt>
      <trkpt lat="46.39503" lon="4.76214">
        <ele>355.1</ele>
        <time>2019-08-25T07:44:09Z</time>
      </trkpt>
      <trkpt lat="46.39518" lon="4.76212">
        <ele>355.5</ele>
        <time>2019-08-25T07:44:12Z</time>
      </trkpt>
      <trkpt lat="46.39531" lon="4.76211">
        <ele>355.6</ele>
        <time>2019-08-25T07:44:15Z</time>
      </trkpt>
      <trkpt lat="46.39551" lon="4.76206">
        <ele>356.5</ele>
        <time>2019-08-25T07:44:20Z</time>
      </trkpt>
      <trkpt lat="46.39569" lon="4.76203">
        <ele>357.3</ele>
        <time>2019-08-25T07:44:24Z</time>
      </trkpt>
      <trkpt lat="46.39577" lon="4.76205">
        <ele>357.4</ele>
        <time>2019-08-25T07:44:26Z</time>
      </trkpt>
      <trkpt lat="46.39598" lon="4.76215">
        <ele>356.6</ele>
        <time>2019-08-25T07:44:31Z</time>
      </trkpt>
      <trkpt lat="46.39602" lon="4.76218">
        <ele>356.7</ele>
        <time>2019-08-25T07:44:32Z</time>
      </trkpt>
      <trkpt lat="46.3962" lon="4.76231">
        <ele>356.6</ele>
        <time>2019-08-25T07:44:36Z</time>
      </trkpt>
      <trkpt lat="46.39629" lon="4.76237">
        <ele>356</ele>
        <time>2019-08-25T07:44:38Z</time>
      </trkpt>
      <trkpt lat="46.39649" lon="4.76251">
        <ele>355.1</ele>
        <time>2019-08-25T07:44:42Z</time>
      </trkpt>
      <trkpt lat="46.39664" lon="4.76262">
        <ele>355</ele>
        <time>2019-08-25T07:44:45Z</time>
      </trkpt>
      <trkpt lat="46.39681" lon="4.76276">
        <ele>353.4</ele>
        <time>2019-08-25T07:44:48Z</time>
      </trkpt>
      <trkpt lat="46.39686" lon="4.76281">
        <ele>352.9</ele>
        <time>2019-08-25T07:44:49Z</time>
      </trkpt>
      <trkpt lat="46.39691" lon="4.76287">
        <ele>352.4</ele>
        <time>2019-08-25T07:44:50Z</time>
      </trkpt>
      <trkpt lat="46.39715" lon="4.76311">
        <ele>348.8</ele>
        <time>2019-08-25T07:44:54Z</time>
      </trkpt>
      <trkpt lat="46.3972" lon="4.76315">
        <ele>347.9</ele>
        <time>2019-08-25T07:44:55Z</time>
      </trkpt>
      <trkpt lat="46.39728" lon="4.76315">
        <ele>347.4</ele>
        <time>2019-08-25T07:44:56Z</time>
      </trkpt>
      <trkpt lat="46.3978" lon="4.76315">
        <ele>346.3</ele>
        <time>2019-08-25T07:45:03Z</time>
      </trkpt>
      <trkpt lat="46.3983" lon="4.7632">
        <ele>346.3</ele>
        <time>2019-08-25T07:45:09Z</time>
      </trkpt>
      <trkpt lat="46.39874" lon="4.76333">
        <ele>346.4</ele>
        <time>2019-08-25T07:45:15Z</time>
      </trkpt>
      <trkpt lat="46.39908" lon="4.76343">
        <ele>347.2</ele>
        <time>2019-08-25T07:45:21Z</time>
      </trkpt>
      <trkpt lat="46.39914" lon="4.76344">
        <ele>347</ele>
        <time>2019-08-25T07:45:22Z</time>
      </trkpt>
      <trkpt lat="46.39919" lon="4.76346">
        <ele>347.4</ele>
        <time>2019-08-25T07:45:23Z</time>
      </trkpt>
      <trkpt lat="46.3994" lon="4.76359">
        <ele>346.3</ele>
        <time>2019-08-25T07:45:27Z</time>
      </trkpt>
      <trkpt lat="46.39949" lon="4.76366">
        <ele>345.6</ele>
        <time>2019-08-25T07:45:29Z</time>
      </trkpt>
      <trkpt lat="46.39965" lon="4.76378">
        <ele>344.5</ele>
        <time>2019-08-25T07:45:33Z</time>
      </trkpt>
      <trkpt lat="46.39979" lon="4.76386">
        <ele>344.5</ele>
        <time>2019-08-25T07:45:36Z</time>
      </trkpt>
      <trkpt lat="46.39995" lon="4.76392">
        <ele>344.5</ele>
        <time>2019-08-25T07:45:39Z</time>
      </trkpt>
      <trkpt lat="46.40015" lon="4.76398">
        <ele>346.3</ele>
        <time>2019-08-25T07:45:44Z</time>
      </trkpt>
      <trkpt lat="46.40034" lon="4.7641">
        <ele>346.9</ele>
        <time>2019-08-25T07:45:50Z</time>
      </trkpt>
      <trkpt lat="46.40047" lon="4.76422">
        <ele>347</ele>
        <time>2019-08-25T07:45:54Z</time>
      </trkpt>
      <trkpt lat="46.40057" lon="4.76431">
        <ele>346.8</ele>
        <time>2019-08-25T07:45:57Z</time>
      </trkpt>
      <trkpt lat="46.40077" lon="4.76442">
        <ele>346.2</ele>
        <time>2019-08-25T07:46:02Z</time>
      </trkpt>
      <trkpt lat="46.40101" lon="4.76457">
        <ele>344.7</ele>
        <time>2019-08-25T07:46:08Z</time>
      </trkpt>
      <trkpt lat="46.40122" lon="4.76471">
        <ele>343.7</ele>
        <time>2019-08-25T07:46:14Z</time>
      </trkpt>
      <trkpt lat="46.40125" lon="4.76473">
        <ele>343.4</ele>
        <time>2019-08-25T07:46:15Z</time>
      </trkpt>
      <trkpt lat="46.40134" lon="4.76483">
        <ele>342.6</ele>
        <time>2019-08-25T07:46:19Z</time>
      </trkpt>
      <trkpt lat="46.40146" lon="4.76507">
        <ele>340.8</ele>
        <time>2019-08-25T07:46:25Z</time>
      </trkpt>
      <trkpt lat="46.40161" lon="4.76535">
        <ele>337.8</ele>
        <time>2019-08-25T07:46:30Z</time>
      </trkpt>
      <trkpt lat="46.4017" lon="4.76551">
        <ele>336.2</ele>
        <time>2019-08-25T07:46:33Z</time>
      </trkpt>
      <trkpt lat="46.40181" lon="4.76574">
        <ele>334.2</ele>
        <time>2019-08-25T07:46:37Z</time>
      </trkpt>
      <trkpt lat="46.40193" lon="4.76595">
        <ele>332.6</ele>
        <time>2019-08-25T07:46:40Z</time>
      </trkpt>
      <trkpt lat="46.40198" lon="4.76604">
        <ele>332</ele>
        <time>2019-08-25T07:46:41Z</time>
      </trkpt>
      <trkpt lat="46.40211" lon="4.76622">
        <ele>330.5</ele>
        <time>2019-08-25T07:46:43Z</time>
      </trkpt>
      <trkpt lat="46.40224" lon="4.76641">
        <ele>328.6</ele>
        <time>2019-08-25T07:46:45Z</time>
      </trkpt>
      <trkpt lat="46.4023" lon="4.76651">
        <ele>327.9</ele>
        <time>2019-08-25T07:46:46Z</time>
      </trkpt>
      <trkpt lat="46.40247" lon="4.76683">
        <ele>325.8</ele>
        <time>2019-08-25T07:46:49Z</time>
      </trkpt>
      <trkpt lat="46.40265" lon="4.76716">
        <ele>324.1</ele>
        <time>2019-08-25T07:46:52Z</time>
      </trkpt>
      <trkpt lat="46.40281" lon="4.76749">
        <ele>323.5</ele>
        <time>2019-08-25T07:46:55Z</time>
      </trkpt>
      <trkpt lat="46.40294" lon="4.76779">
        <ele>322.7</ele>
        <time>2019-08-25T07:46:58Z</time>
      </trkpt>
      <trkpt lat="46.40304" lon="4.76812">
        <ele>320.5</ele>
        <time>2019-08-25T07:47:01Z</time>
      </trkpt>
      <trkpt lat="46.40311" lon="4.76833">
        <ele>318.7</ele>
        <time>2019-08-25T07:47:03Z</time>
      </trkpt>
      <trkpt lat="46.40323" lon="4.76876">
        <ele>315.7</ele>
        <time>2019-08-25T07:47:07Z</time>
      </trkpt>
      <trkpt lat="46.40328" lon="4.76899">
        <ele>314.7</ele>
        <time>2019-08-25T07:47:09Z</time>
      </trkpt>
      <trkpt lat="46.40331" lon="4.76911">
        <ele>314.2</ele>
        <time>2019-08-25T07:47:10Z</time>
      </trkpt>
      <trkpt lat="46.40337" lon="4.76949">
        <ele>312.2</ele>
        <time>2019-08-25T07:47:13Z</time>
      </trkpt>
      <trkpt lat="46.40342" lon="4.76975">
        <ele>310.2</ele>
        <time>2019-08-25T07:47:15Z</time>
      </trkpt>
      <trkpt lat="46.40345" lon="4.76988">
        <ele>309.3</ele>
        <time>2019-08-25T07:47:16Z</time>
      </trkpt>
      <trkpt lat="46.40348" lon="4.77001">
        <ele>308.5</ele>
        <time>2019-08-25T07:47:17Z</time>
      </trkpt>
      <trkpt lat="46.40355" lon="4.77027">
        <ele>306.8</ele>
        <time>2019-08-25T07:47:19Z</time>
      </trkpt>
      <trkpt lat="46.40363" lon="4.77054">
        <ele>304.8</ele>
        <time>2019-08-25T07:47:21Z</time>
      </trkpt>
      <trkpt lat="46.40371" lon="4.77081">
        <ele>302.6</ele>
        <time>2019-08-25T07:47:23Z</time>
      </trkpt>
      <trkpt lat="46.40379" lon="4.77109">
        <ele>300.8</ele>
        <time>2019-08-25T07:47:25Z</time>
      </trkpt>
      <trkpt lat="46.40387" lon="4.77133">
        <ele>298.6</ele>
        <time>2019-08-25T07:47:27Z</time>
      </trkpt>
      <trkpt lat="46.40395" lon="4.77159">
        <ele>296.1</ele>
        <time>2019-08-25T07:47:29Z</time>
      </trkpt>
      <trkpt lat="46.40402" lon="4.77184">
        <ele>294.3</ele>
        <time>2019-08-25T07:47:31Z</time>
      </trkpt>
      <trkpt lat="46.40406" lon="4.77197">
        <ele>293.3</ele>
        <time>2019-08-25T07:47:32Z</time>
      </trkpt>
      <trkpt lat="46.4041" lon="4.7721">
        <ele>292.4</ele>
        <time>2019-08-25T07:47:33Z</time>
      </trkpt>
      <trkpt lat="46.40413" lon="4.77222">
        <ele>291.7</ele>
        <time>2019-08-25T07:47:34Z</time>
      </trkpt>
      <trkpt lat="46.40417" lon="4.77235">
        <ele>291.2</ele>
        <time>2019-08-25T07:47:35Z</time>
      </trkpt>
      <trkpt lat="46.40421" lon="4.77247">
        <ele>290.7</ele>
        <time>2019-08-25T07:47:36Z</time>
      </trkpt>
      <trkpt lat="46.40424" lon="4.7726">
        <ele>289.9</ele>
        <time>2019-08-25T07:47:37Z</time>
      </trkpt>
      <trkpt lat="46.40426" lon="4.7727">
        <ele>289.2</ele>
        <time>2019-08-25T07:47:38Z</time>
      </trkpt>
      <trkpt lat="46.40429" lon="4.77279">
        <ele>288.6</ele>
        <time>2019-08-25T07:47:39Z</time>
      </trkpt>
      <trkpt lat="46.40432" lon="4.77286">
        <ele>287.9</ele>
        <time>2019-08-25T07:47:40Z</time>
      </trkpt>
      <trkpt lat="46.40435" lon="4.7729">
        <ele>287.3</ele>
        <time>2019-08-25T07:47:42Z</time>
      </trkpt>
      <trkpt lat="46.40437" lon="4.7729">
        <ele>287.1</ele>
        <time>2019-08-25T07:47:43Z</time>
      </trkpt>
      <trkpt lat="46.40438" lon="4.77285">
        <ele>286.7</ele>
        <time>2019-08-25T07:47:45Z</time>
      </trkpt>
      <trkpt lat="46.40438" lon="4.7728">
        <ele>287</ele>
        <time>2019-08-25T07:47:46Z</time>
      </trkpt>
      <trkpt lat="46.40439" lon="4.77275">
        <ele>287.4</ele>
        <time>2019-08-25T07:47:47Z</time>
      </trkpt>
      <trkpt lat="46.4044" lon="4.77269">
        <ele>288</ele>
        <time>2019-08-25T07:47:49Z</time>
      </trkpt>
      <trkpt lat="46.4044" lon="4.77262">
        <ele>288.3</ele>
        <time>2019-08-25T07:47:51Z</time>
      </trkpt>
      <trkpt lat="46.4044" lon="4.77259">
        <ele>288.6</ele>
        <time>2019-08-25T07:47:52Z</time>
      </trkpt>
      <trkpt lat="46.40441" lon="4.77255">
        <ele>289</ele>
        <time>2019-08-25T07:47:53Z</time>
      </trkpt>
      <trkpt lat="46.40441" lon="4.77246">
        <ele>289.6</ele>
        <time>2019-08-25T07:47:56Z</time>
      </trkpt>
      <trkpt lat="46.40441" lon="4.7724">
        <ele>290.1</ele>
        <time>2019-08-25T07:47:58Z</time>
      </trkpt>
      <trkpt lat="46.4044" lon="4.77232">
        <ele>290.4</ele>
        <time>2019-08-25T07:48:01Z</time>
      </trkpt>
      <trkpt lat="46.4044" lon="4.77224">
        <ele>290.5</ele>
        <time>2019-08-25T07:48:04Z</time>
      </trkpt>
      <trkpt lat="46.40442" lon="4.77219">
        <ele>290.7</ele>
        <time>2019-08-25T07:48:06Z</time>
      </trkpt>
      <trkpt lat="46.40445" lon="4.77204">
        <ele>290.7</ele>
        <time>2019-08-25T07:48:11Z</time>
      </trkpt>
      <trkpt lat="46.40446" lon="4.77193">
        <ele>290.9</ele>
        <time>2019-08-25T07:48:15Z</time>
      </trkpt>
      <trkpt lat="46.40444" lon="4.77177">
        <ele>291.1</ele>
        <time>2019-08-25T07:48:22Z</time>
      </trkpt>
      <trkpt lat="46.40445" lon="4.77169">
        <ele>291.2</ele>
        <time>2019-08-25T07:48:25Z</time>
      </trkpt>
      <trkpt lat="46.40447" lon="4.77099">
        <ele>291.8</ele>
        <time>2019-08-25T07:48:50Z</time>
      </trkpt>
      <trkpt lat="46.40447" lon="4.77087">
        <ele>292.4</ele>
        <time>2019-08-25T07:48:53Z</time>
      </trkpt>
      <trkpt lat="46.40447" lon="4.77075">
        <ele>293</ele>
        <time>2019-08-25T07:48:57Z</time>
      </trkpt>
      <trkpt lat="46.40447" lon="4.77066">
        <ele>293.5</ele>
        <time>2019-08-25T07:49:00Z</time>
      </trkpt>
      <trkpt lat="46.40449" lon="4.77054">
        <ele>293.5</ele>
        <time>2019-08-25T07:49:03Z</time>
      </trkpt>
      <trkpt lat="46.40453" lon="4.77041">
        <ele>293.4</ele>
        <time>2019-08-25T07:49:06Z</time>
      </trkpt>
      <trkpt lat="46.40454" lon="4.77026">
        <ele>293.6</ele>
        <time>2019-08-25T07:49:10Z</time>
      </trkpt>
      <trkpt lat="46.40454" lon="4.77021">
        <ele>293.8</ele>
        <time>2019-08-25T07:49:12Z</time>
      </trkpt>
      <trkpt lat="46.40453" lon="4.77015">
        <ele>293.9</ele>
        <time>2019-08-25T07:49:14Z</time>
      </trkpt>
      <trkpt lat="46.40435" lon="4.76989">
        <ele>298.4</ele>
        <time>2019-08-25T07:49:30Z</time>
      </trkpt>
      <trkpt lat="46.40427" lon="4.76978">
        <ele>300.4</ele>
        <time>2019-08-25T07:49:36Z</time>
      </trkpt>
      <trkpt lat="46.40423" lon="4.76964">
        <ele>301.2</ele>
        <time>2019-08-25T07:49:41Z</time>
      </trkpt>
      <trkpt lat="46.40422" lon="4.76955">
        <ele>301.4</ele>
        <time>2019-08-25T07:49:44Z</time>
      </trkpt>
      <trkpt lat="46.40423" lon="4.76948">
        <ele>301.5</ele>
        <time>2019-08-25T07:49:47Z</time>
      </trkpt>
      <trkpt lat="46.40424" lon="4.76945">
        <ele>301.6</ele>
        <time>2019-08-25T07:49:48Z</time>
      </trkpt>
      <trkpt lat="46.40425" lon="4.7694">
        <ele>301.6</ele>
        <time>2019-08-25T07:49:50Z</time>
      </trkpt>
      <trkpt lat="46.40424" lon="4.76937">
        <ele>301.7</ele>
        <time>2019-08-25T07:49:51Z</time>
      </trkpt>
      <trkpt lat="46.40424" lon="4.76934">
        <ele>301.8</ele>
        <time>2019-08-25T07:49:52Z</time>
      </trkpt>
      <trkpt lat="46.40425" lon="4.76922">
        <ele>301.3</ele>
        <time>2019-08-25T07:49:56Z</time>
      </trkpt>
      <trkpt lat="46.40423" lon="4.76905">
        <ele>301.9</ele>
        <time>2019-08-25T07:50:01Z</time>
      </trkpt>
      <trkpt lat="46.40421" lon="4.76899">
        <ele>302.5</ele>
        <time>2019-08-25T07:50:03Z</time>
      </trkpt>
      <trkpt lat="46.4042" lon="4.76897">
        <ele>302.6</ele>
        <time>2019-08-25T07:50:04Z</time>
      </trkpt>
      <trkpt lat="46.40416" lon="4.76881">
        <ele>303.8</ele>
        <time>2019-08-25T07:50:09Z</time>
      </trkpt>
      <trkpt lat="46.40415" lon="4.76878">
        <ele>303.8</ele>
        <time>2019-08-25T07:50:10Z</time>
      </trkpt>
      <trkpt lat="46.40413" lon="4.76862">
        <ele>303.9</ele>
        <time>2019-08-25T07:50:15Z</time>
      </trkpt>
      <trkpt lat="46.40407" lon="4.76836">
        <ele>305.1</ele>
        <time>2019-08-25T07:50:22Z</time>
      </trkpt>
      <trkpt lat="46.40403" lon="4.76822">
        <ele>306.3</ele>
        <time>2019-08-25T07:50:26Z</time>
      </trkpt>
      <trkpt lat="46.40399" lon="4.76809">
        <ele>307.1</ele>
        <time>2019-08-25T07:50:30Z</time>
      </trkpt>
      <trkpt lat="46.40397" lon="4.76802">
        <ele>307.9</ele>
        <time>2019-08-25T07:50:32Z</time>
      </trkpt>
      <trkpt lat="46.40393" lon="4.76781">
        <ele>308.7</ele>
        <time>2019-08-25T07:50:38Z</time>
      </trkpt>
      <trkpt lat="46.40392" lon="4.76777">
        <ele>309.2</ele>
        <time>2019-08-25T07:50:39Z</time>
      </trkpt>
      <trkpt lat="46.40387" lon="4.76751">
        <ele>310.7</ele>
        <time>2019-08-25T07:50:46Z</time>
      </trkpt>
      <trkpt lat="46.40384" lon="4.76727">
        <ele>312.2</ele>
        <time>2019-08-25T07:50:53Z</time>
      </trkpt>
      <trkpt lat="46.4038" lon="4.76717">
        <ele>313.5</ele>
        <time>2019-08-25T07:50:57Z</time>
      </trkpt>
      <trkpt lat="46.40376" lon="4.76709">
        <ele>314</ele>
        <time>2019-08-25T07:51:00Z</time>
      </trkpt>
      <trkpt lat="46.40377" lon="4.76698">
        <ele>313.7</ele>
        <time>2019-08-25T07:51:04Z</time>
      </trkpt>
      <trkpt lat="46.40377" lon="4.76694">
        <ele>313.6</ele>
        <time>2019-08-25T07:51:05Z</time>
      </trkpt>
      <trkpt lat="46.40378" lon="4.76676">
        <ele>312.4</ele>
        <time>2019-08-25T07:51:10Z</time>
      </trkpt>
      <trkpt lat="46.40377" lon="4.76672">
        <ele>312.8</ele>
        <time>2019-08-25T07:51:11Z</time>
      </trkpt>
      <trkpt lat="46.40372" lon="4.76665">
        <ele>313.1</ele>
        <time>2019-08-25T07:51:14Z</time>
      </trkpt>
      <trkpt lat="46.40371" lon="4.76663">
        <ele>313.7</ele>
        <time>2019-08-25T07:51:15Z</time>
      </trkpt>
      <trkpt lat="46.40369" lon="4.76657">
        <ele>313.5</ele>
        <time>2019-08-25T07:51:17Z</time>
      </trkpt>
      <trkpt lat="46.40366" lon="4.7665">
        <ele>313.7</ele>
        <time>2019-08-25T07:51:20Z</time>
      </trkpt>
      <trkpt lat="46.40361" lon="4.76642">
        <ele>314.5</ele>
        <time>2019-08-25T07:51:24Z</time>
      </trkpt>
      <trkpt lat="46.40352" lon="4.76625">
        <ele>315.6</ele>
        <time>2019-08-25T07:51:31Z</time>
      </trkpt>
      <trkpt lat="46.40326" lon="4.76561">
        <ele>318.7</ele>
        <time>2019-08-25T07:51:57Z</time>
      </trkpt>
      <trkpt lat="46.4032" lon="4.76555">
        <ele>319.9</ele>
        <time>2019-08-25T07:52:00Z</time>
      </trkpt>
      <trkpt lat="46.40317" lon="4.76549">
        <ele>320.4</ele>
        <time>2019-08-25T07:52:03Z</time>
      </trkpt>
      <trkpt lat="46.40311" lon="4.76522">
        <ele>320.6</ele>
        <time>2019-08-25T07:52:13Z</time>
      </trkpt>
      <trkpt lat="46.40302" lon="4.76498">
        <ele>321.1</ele>
        <time>2019-08-25T07:52:21Z</time>
      </trkpt>
      <trkpt lat="46.403" lon="4.76495">
        <ele>321.8</ele>
        <time>2019-08-25T07:52:22Z</time>
      </trkpt>
      <trkpt lat="46.40299" lon="4.76493">
        <ele>321.6</ele>
        <time>2019-08-25T07:52:23Z</time>
      </trkpt>
      <trkpt lat="46.40295" lon="4.76479">
        <ele>321.6</ele>
        <time>2019-08-25T07:52:28Z</time>
      </trkpt>
      <trkpt lat="46.40276" lon="4.76466">
        <ele>325.7</ele>
        <time>2019-08-25T07:52:39Z</time>
      </trkpt>
      <trkpt lat="46.40273" lon="4.76463">
        <ele>326.3</ele>
        <time>2019-08-25T07:52:41Z</time>
      </trkpt>
      <trkpt lat="46.40264" lon="4.76455">
        <ele>328</ele>
        <time>2019-08-25T07:52:47Z</time>
      </trkpt>
      <trkpt lat="46.40263" lon="4.76454">
        <ele>328</ele>
        <time>2019-08-25T07:52:48Z</time>
      </trkpt>
      <trkpt lat="46.40213" lon="4.7638">
        <ele>339.5</ele>
        <time>2019-08-25T07:53:44Z</time>
      </trkpt>
      <trkpt lat="46.40183" lon="4.76307">
        <ele>348.2</ele>
        <time>2019-08-25T07:54:25Z</time>
      </trkpt>
      <trkpt lat="46.40182" lon="4.76287">
        <ele>349.4</ele>
        <time>2019-08-25T07:54:32Z</time>
      </trkpt>
      <trkpt lat="46.40181" lon="4.76269">
        <ele>350.8</ele>
        <time>2019-08-25T07:54:38Z</time>
      </trkpt>
      <trkpt lat="46.4018" lon="4.76266">
        <ele>351.1</ele>
        <time>2019-08-25T07:54:39Z</time>
      </trkpt>
      <trkpt lat="46.40166" lon="4.76242">
        <ele>354.1</ele>
        <time>2019-08-25T07:54:51Z</time>
      </trkpt>
      <trkpt lat="46.40135" lon="4.76211">
        <ele>358.8</ele>
        <time>2019-08-25T07:55:21Z</time>
      </trkpt>
      <trkpt lat="46.40131" lon="4.762">
        <ele>359.5</ele>
        <time>2019-08-25T07:55:26Z</time>
      </trkpt>
      <trkpt lat="46.40127" lon="4.76195">
        <ele>360.1</ele>
        <time>2019-08-25T07:55:29Z</time>
      </trkpt>
      <trkpt lat="46.4012" lon="4.76178">
        <ele>361.8</ele>
        <time>2019-08-25T07:55:37Z</time>
      </trkpt>
      <trkpt lat="46.40119" lon="4.76177">
        <ele>362</ele>
        <time>2019-08-25T07:55:38Z</time>
      </trkpt>
      <trkpt lat="46.40116" lon="4.76166">
        <ele>362.9</ele>
        <time>2019-08-25T07:55:42Z</time>
      </trkpt>
      <trkpt lat="46.40116" lon="4.76159">
        <ele>363.2</ele>
        <time>2019-08-25T07:55:44Z</time>
      </trkpt>
      <trkpt lat="46.40115" lon="4.76152">
        <ele>363.5</ele>
        <time>2019-08-25T07:55:46Z</time>
      </trkpt>
      <trkpt lat="46.40115" lon="4.76144">
        <ele>363.9</ele>
        <time>2019-08-25T07:55:49Z</time>
      </trkpt>
      <trkpt lat="46.40115" lon="4.7614">
        <ele>364</ele>
        <time>2019-08-25T07:55:50Z</time>
      </trkpt>
      <trkpt lat="46.40116" lon="4.76125">
        <ele>364.2</ele>
        <time>2019-08-25T07:55:56Z</time>
      </trkpt>
      <trkpt lat="46.40116" lon="4.76123">
        <ele>364.2</ele>
        <time>2019-08-25T07:55:57Z</time>
      </trkpt>
      <trkpt lat="46.40119" lon="4.76114">
        <ele>364.1</ele>
        <time>2019-08-25T07:56:01Z</time>
      </trkpt>
      <trkpt lat="46.4012" lon="4.76109">
        <ele>364.1</ele>
        <time>2019-08-25T07:56:02Z</time>
      </trkpt>
      <trkpt lat="46.4012" lon="4.76101">
        <ele>364.2</ele>
        <time>2019-08-25T07:56:04Z</time>
      </trkpt>
      <trkpt lat="46.40119" lon="4.76088">
        <ele>364.4</ele>
        <time>2019-08-25T07:56:08Z</time>
      </trkpt>
      <trkpt lat="46.40115" lon="4.76066">
        <ele>365.3</ele>
        <time>2019-08-25T07:56:15Z</time>
      </trkpt>
      <trkpt lat="46.40115" lon="4.76063">
        <ele>365.5</ele>
        <time>2019-08-25T07:56:16Z</time>
      </trkpt>
      <trkpt lat="46.4011" lon="4.76056">
        <ele>366</ele>
        <time>2019-08-25T07:56:19Z</time>
      </trkpt>
      <trkpt lat="46.40108" lon="4.76055">
        <ele>366.2</ele>
        <time>2019-08-25T07:56:20Z</time>
      </trkpt>
      <trkpt lat="46.40102" lon="4.76053">
        <ele>366.9</ele>
        <time>2019-08-25T07:56:23Z</time>
      </trkpt>
      <trkpt lat="46.40091" lon="4.7605">
        <ele>368.7</ele>
        <time>2019-08-25T07:56:28Z</time>
      </trkpt>
      <trkpt lat="46.40089" lon="4.7605">
        <ele>369</ele>
        <time>2019-08-25T07:56:29Z</time>
      </trkpt>
      <trkpt lat="46.40081" lon="4.76047">
        <ele>369.9</ele>
        <time>2019-08-25T07:56:33Z</time>
      </trkpt>
      <trkpt lat="46.40075" lon="4.76044">
        <ele>370.6</ele>
        <time>2019-08-25T07:56:36Z</time>
      </trkpt>
      <trkpt lat="46.40077" lon="4.76033">
        <ele>371.7</ele>
        <time>2019-08-25T07:56:40Z</time>
      </trkpt>
      <trkpt lat="46.40078" lon="4.7603">
        <ele>371.7</ele>
        <time>2019-08-25T07:56:41Z</time>
      </trkpt>
      <trkpt lat="46.40081" lon="4.76005">
        <ele>372.1</ele>
        <time>2019-08-25T07:56:48Z</time>
      </trkpt>
      <trkpt lat="46.40083" lon="4.7599">
        <ele>372.4</ele>
        <time>2019-08-25T07:56:52Z</time>
      </trkpt>
      <trkpt lat="46.40085" lon="4.75977">
        <ele>372.7</ele>
        <time>2019-08-25T07:56:55Z</time>
      </trkpt>
      <trkpt lat="46.40087" lon="4.75968">
        <ele>372.8</ele>
        <time>2019-08-25T07:56:57Z</time>
      </trkpt>
      <trkpt lat="46.40091" lon="4.75946">
        <ele>373.4</ele>
        <time>2019-08-25T07:57:02Z</time>
      </trkpt>
      <trkpt lat="46.40091" lon="4.75941">
        <ele>373.4</ele>
        <time>2019-08-25T07:57:03Z</time>
      </trkpt>
      <trkpt lat="46.4009" lon="4.75926">
        <ele>373.2</ele>
        <time>2019-08-25T07:57:07Z</time>
      </trkpt>
      <trkpt lat="46.40088" lon="4.75923">
        <ele>373</ele>
        <time>2019-08-25T07:57:08Z</time>
      </trkpt>
      <trkpt lat="46.40086" lon="4.7592">
        <ele>372.9</ele>
        <time>2019-08-25T07:57:09Z</time>
      </trkpt>
      <trkpt lat="46.40081" lon="4.75916">
        <ele>374.1</ele>
        <time>2019-08-25T07:57:11Z</time>
      </trkpt>
      <trkpt lat="46.40077" lon="4.75912">
        <ele>375.2</ele>
        <time>2019-08-25T07:57:13Z</time>
      </trkpt>
      <trkpt lat="46.40065" lon="4.759">
        <ele>377.3</ele>
        <time>2019-08-25T07:57:19Z</time>
      </trkpt>
      <trkpt lat="46.40063" lon="4.75897">
        <ele>377.7</ele>
        <time>2019-08-25T07:57:20Z</time>
      </trkpt>
      <trkpt lat="46.40053" lon="4.75888">
        <ele>379.3</ele>
        <time>2019-08-25T07:57:25Z</time>
      </trkpt>
      <trkpt lat="46.40049" lon="4.75885">
        <ele>380.2</ele>
        <time>2019-08-25T07:57:27Z</time>
      </trkpt>
      <trkpt lat="46.40044" lon="4.75881">
        <ele>381</ele>
        <time>2019-08-25T07:57:30Z</time>
      </trkpt>
      <trkpt lat="46.40036" lon="4.75874">
        <ele>382.3</ele>
        <time>2019-08-25T07:57:34Z</time>
      </trkpt>
      <trkpt lat="46.40032" lon="4.7587">
        <ele>383</ele>
        <time>2019-08-25T07:57:36Z</time>
      </trkpt>
      <trkpt lat="46.4003" lon="4.75869">
        <ele>383.3</ele>
        <time>2019-08-25T07:57:37Z</time>
      </trkpt>
      <trkpt lat="46.40014" lon="4.75858">
        <ele>385.2</ele>
        <time>2019-08-25T07:57:44Z</time>
      </trkpt>
      <trkpt lat="46.40011" lon="4.75856">
        <ele>385.4</ele>
        <time>2019-08-25T07:57:45Z</time>
      </trkpt>
      <trkpt lat="46.40003" lon="4.75849">
        <ele>386.5</ele>
        <time>2019-08-25T07:57:49Z</time>
      </trkpt>
      <trkpt lat="46.39998" lon="4.75846">
        <ele>386.9</ele>
        <time>2019-08-25T07:57:51Z</time>
      </trkpt>
      <trkpt lat="46.39985" lon="4.75833">
        <ele>388.8</ele>
        <time>2019-08-25T07:57:58Z</time>
      </trkpt>
      <trkpt lat="46.39982" lon="4.75829">
        <ele>389.1</ele>
        <time>2019-08-25T07:58:00Z</time>
      </trkpt>
      <trkpt lat="46.39978" lon="4.75826">
        <ele>389.5</ele>
        <time>2019-08-25T07:58:02Z</time>
      </trkpt>
      <trkpt lat="46.39971" lon="4.75819">
        <ele>390.4</ele>
        <time>2019-08-25T07:58:06Z</time>
      </trkpt>
      <trkpt lat="46.39965" lon="4.75815">
        <ele>390.4</ele>
        <time>2019-08-25T07:58:09Z</time>
      </trkpt>
      <trkpt lat="46.39953" lon="4.75805">
        <ele>391.4</ele>
        <time>2019-08-25T07:58:15Z</time>
      </trkpt>
      <trkpt lat="46.39949" lon="4.75802">
        <ele>391.7</ele>
        <time>2019-08-25T07:58:17Z</time>
      </trkpt>
      <trkpt lat="46.39936" lon="4.7579">
        <ele>392.3</ele>
        <time>2019-08-25T07:58:23Z</time>
      </trkpt>
      <trkpt lat="46.39929" lon="4.75784">
        <ele>392.5</ele>
        <time>2019-08-25T07:58:26Z</time>
      </trkpt>
      <trkpt lat="46.39924" lon="4.75779">
        <ele>392.7</ele>
        <time>2019-08-25T07:58:28Z</time>
      </trkpt>
      <trkpt lat="46.39915" lon="4.75772">
        <ele>393.1</ele>
        <time>2019-08-25T07:58:32Z</time>
      </trkpt>
      <trkpt lat="46.39912" lon="4.7577">
        <ele>393.2</ele>
        <time>2019-08-25T07:58:33Z</time>
      </trkpt>
      <trkpt lat="46.39889" lon="4.7575">
        <ele>393.9</ele>
        <time>2019-08-25T07:58:41Z</time>
      </trkpt>
      <trkpt lat="46.39877" lon="4.75738">
        <ele>394.2</ele>
        <time>2019-08-25T07:58:45Z</time>
      </trkpt>
      <trkpt lat="46.39863" lon="4.75724">
        <ele>394.6</ele>
        <time>2019-08-25T07:58:50Z</time>
      </trkpt>
      <trkpt lat="46.39848" lon="4.7571">
        <ele>394.9</ele>
        <time>2019-08-25T07:58:55Z</time>
      </trkpt>
      <trkpt lat="46.39835" lon="4.75701">
        <ele>395.1</ele>
        <time>2019-08-25T07:58:58Z</time>
      </trkpt>
      <trkpt lat="46.39827" lon="4.75697">
        <ele>395.2</ele>
        <time>2019-08-25T07:59:00Z</time>
      </trkpt>
      <trkpt lat="46.39809" lon="4.75696">
        <ele>395.4</ele>
        <time>2019-08-25T07:59:04Z</time>
      </trkpt>
      <trkpt lat="46.3978" lon="4.75694">
        <ele>395.3</ele>
        <time>2019-08-25T07:59:12Z</time>
      </trkpt>
      <trkpt lat="46.39778" lon="4.75693">
        <ele>395.3</ele>
        <time>2019-08-25T07:59:13Z</time>
      </trkpt>
      <trkpt lat="46.39777" lon="4.75688">
        <ele>395.2</ele>
        <time>2019-08-25T07:59:15Z</time>
      </trkpt>
      <trkpt lat="46.39775" lon="4.75669">
        <ele>395.3</ele>
        <time>2019-08-25T07:59:21Z</time>
      </trkpt>
      <trkpt lat="46.39765" lon="4.7565">
        <ele>394.8</ele>
        <time>2019-08-25T07:59:27Z</time>
      </trkpt>
      <trkpt lat="46.39753" lon="4.75642">
        <ele>394.3</ele>
        <time>2019-08-25T07:59:31Z</time>
      </trkpt>
      <trkpt lat="46.39745" lon="4.75624">
        <ele>394.1</ele>
        <time>2019-08-25T07:59:35Z</time>
      </trkpt>
      <trkpt lat="46.39736" lon="4.75612">
        <ele>393.9</ele>
        <time>2019-08-25T07:59:39Z</time>
      </trkpt>
      <trkpt lat="46.39718" lon="4.75592">
        <ele>393</ele>
        <time>2019-08-25T07:59:44Z</time>
      </trkpt>
      <trkpt lat="46.39715" lon="4.75582">
        <ele>392.6</ele>
        <time>2019-08-25T07:59:46Z</time>
      </trkpt>
      <trkpt lat="46.39714" lon="4.75574">
        <ele>392.3</ele>
        <time>2019-08-25T07:59:48Z</time>
      </trkpt>
      <trkpt lat="46.39703" lon="4.75558">
        <ele>391.7</ele>
        <time>2019-08-25T07:59:53Z</time>
      </trkpt>
      <trkpt lat="46.39699" lon="4.75555">
        <ele>391.3</ele>
        <time>2019-08-25T07:59:54Z</time>
      </trkpt>
      <trkpt lat="46.39695" lon="4.75553">
        <ele>391.1</ele>
        <time>2019-08-25T07:59:55Z</time>
      </trkpt>
      <trkpt lat="46.39693" lon="4.7555">
        <ele>390.8</ele>
        <time>2019-08-25T07:59:56Z</time>
      </trkpt>
      <trkpt lat="46.39692" lon="4.75546">
        <ele>390.8</ele>
        <time>2019-08-25T07:59:57Z</time>
      </trkpt>
      <trkpt lat="46.39691" lon="4.7554">
        <ele>390.6</ele>
        <time>2019-08-25T07:59:59Z</time>
      </trkpt>
      <trkpt lat="46.3969" lon="4.75538">
        <ele>390.5</ele>
        <time>2019-08-25T08:00:00Z</time>
      </trkpt>
      <trkpt lat="46.39689" lon="4.75529">
        <ele>390.6</ele>
        <time>2019-08-25T08:00:03Z</time>
      </trkpt>
      <trkpt lat="46.3969" lon="4.75504">
        <ele>390.9</ele>
        <time>2019-08-25T08:00:09Z</time>
      </trkpt>
      <trkpt lat="46.39691" lon="4.75499">
        <ele>390.9</ele>
        <time>2019-08-25T08:00:10Z</time>
      </trkpt>
      <trkpt lat="46.39692" lon="4.75473">
        <ele>390.9</ele>
        <time>2019-08-25T08:00:14Z</time>
      </trkpt>
      <trkpt lat="46.39693" lon="4.75452">
        <ele>390</ele>
        <time>2019-08-25T08:00:17Z</time>
      </trkpt>
      <trkpt lat="46.39694" lon="4.75436">
        <ele>389.4</ele>
        <time>2019-08-25T08:00:19Z</time>
      </trkpt>
      <trkpt lat="46.39695" lon="4.75427">
        <ele>389</ele>
        <time>2019-08-25T08:00:20Z</time>
      </trkpt>
      <trkpt lat="46.39696" lon="4.75399">
        <ele>387.3</ele>
        <time>2019-08-25T08:00:23Z</time>
      </trkpt>
      <trkpt lat="46.39696" lon="4.7539">
        <ele>386.7</ele>
        <time>2019-08-25T08:00:24Z</time>
      </trkpt>
      <trkpt lat="46.39696" lon="4.75372">
        <ele>385.2</ele>
        <time>2019-08-25T08:00:26Z</time>
      </trkpt>
      <trkpt lat="46.39695" lon="4.75358">
        <ele>383.8</ele>
        <time>2019-08-25T08:00:28Z</time>
      </trkpt>
      <trkpt lat="46.39693" lon="4.75356">
        <ele>383.6</ele>
        <time>2019-08-25T08:00:29Z</time>
      </trkpt>
      <trkpt lat="46.39684" lon="4.75358">
        <ele>382.8</ele>
        <time>2019-08-25T08:00:33Z</time>
      </trkpt>
      <trkpt lat="46.39681" lon="4.7536">
        <ele>382.6</ele>
        <time>2019-08-25T08:00:34Z</time>
      </trkpt>
      <trkpt lat="46.39674" lon="4.75364">
        <ele>381.9</ele>
        <time>2019-08-25T08:00:36Z</time>
      </trkpt>
      <trkpt lat="46.39667" lon="4.75369">
        <ele>381</ele>
        <time>2019-08-25T08:00:38Z</time>
      </trkpt>
      <trkpt lat="46.39662" lon="4.75371">
        <ele>380.6</ele>
        <time>2019-08-25T08:00:39Z</time>
      </trkpt>
      <trkpt lat="46.39647" lon="4.75379">
        <ele>379.2</ele>
        <time>2019-08-25T08:00:42Z</time>
      </trkpt>
      <trkpt lat="46.39642" lon="4.75382">
        <ele>378.8</ele>
        <time>2019-08-25T08:00:43Z</time>
      </trkpt>
      <trkpt lat="46.39628" lon="4.75387">
        <ele>377.7</ele>
        <time>2019-08-25T08:00:45Z</time>
      </trkpt>
      <trkpt lat="46.39614" lon="4.75394">
        <ele>376.6</ele>
        <time>2019-08-25T08:00:47Z</time>
      </trkpt>
      <trkpt lat="46.39607" lon="4.75397">
        <ele>376</ele>
        <time>2019-08-25T08:00:48Z</time>
      </trkpt>
      <trkpt lat="46.39592" lon="4.75405">
        <ele>374.7</ele>
        <time>2019-08-25T08:00:50Z</time>
      </trkpt>
      <trkpt lat="46.39577" lon="4.75412">
        <ele>373</ele>
        <time>2019-08-25T08:00:52Z</time>
      </trkpt>
      <trkpt lat="46.3957" lon="4.75414">
        <ele>372.1</ele>
        <time>2019-08-25T08:00:53Z</time>
      </trkpt>
      <trkpt lat="46.39561" lon="4.75414">
        <ele>371</ele>
        <time>2019-08-25T08:00:54Z</time>
      </trkpt>
      <trkpt lat="46.39544" lon="4.75412">
        <ele>368.6</ele>
        <time>2019-08-25T08:00:56Z</time>
      </trkpt>
      <trkpt lat="46.39529" lon="4.75408">
        <ele>366.2</ele>
        <time>2019-08-25T08:00:58Z</time>
      </trkpt>
      <trkpt lat="46.39522" lon="4.75405">
        <ele>365.1</ele>
        <time>2019-08-25T08:00:59Z</time>
      </trkpt>
      <trkpt lat="46.39515" lon="4.75402">
        <ele>364.3</ele>
        <time>2019-08-25T08:01:00Z</time>
      </trkpt>
      <trkpt lat="46.39501" lon="4.75398">
        <ele>362.8</ele>
        <time>2019-08-25T08:01:02Z</time>
      </trkpt>
      <trkpt lat="46.39486" lon="4.75396">
        <ele>361.2</ele>
        <time>2019-08-25T08:01:04Z</time>
      </trkpt>
      <trkpt lat="46.39479" lon="4.75397">
        <ele>360.4</ele>
        <time>2019-08-25T08:01:05Z</time>
      </trkpt>
      <trkpt lat="46.39472" lon="4.75399">
        <ele>359.5</ele>
        <time>2019-08-25T08:01:06Z</time>
      </trkpt>
      <trkpt lat="46.39458" lon="4.75406">
        <ele>357.7</ele>
        <time>2019-08-25T08:01:08Z</time>
      </trkpt>
      <trkpt lat="46.39452" lon="4.75409">
        <ele>357</ele>
        <time>2019-08-25T08:01:09Z</time>
      </trkpt>
      <trkpt lat="46.39446" lon="4.75412">
        <ele>356.2</ele>
        <time>2019-08-25T08:01:10Z</time>
      </trkpt>
      <trkpt lat="46.39437" lon="4.75413">
        <ele>354.9</ele>
        <time>2019-08-25T08:01:12Z</time>
      </trkpt>
      <trkpt lat="46.39432" lon="4.75404">
        <ele>353.8</ele>
        <time>2019-08-25T08:01:14Z</time>
      </trkpt>
      <trkpt lat="46.39429" lon="4.75398">
        <ele>353</ele>
        <time>2019-08-25T08:01:15Z</time>
      </trkpt>
      <trkpt lat="46.39426" lon="4.75392">
        <ele>352.1</ele>
        <time>2019-08-25T08:01:16Z</time>
      </trkpt>
      <trkpt lat="46.39417" lon="4.7538">
        <ele>350.2</ele>
        <time>2019-08-25T08:01:18Z</time>
      </trkpt>
      <trkpt lat="46.39408" lon="4.75369">
        <ele>348.2</ele>
        <time>2019-08-25T08:01:20Z</time>
      </trkpt>
      <trkpt lat="46.39399" lon="4.75356">
        <ele>346.5</ele>
        <time>2019-08-25T08:01:22Z</time>
      </trkpt>
      <trkpt lat="46.39389" lon="4.75342">
        <ele>344.5</ele>
        <time>2019-08-25T08:01:24Z</time>
      </trkpt>
      <trkpt lat="46.39384" lon="4.75336">
        <ele>343.5</ele>
        <time>2019-08-25T08:01:25Z</time>
      </trkpt>
      <trkpt lat="46.39379" lon="4.7533">
        <ele>342.3</ele>
        <time>2019-08-25T08:01:26Z</time>
      </trkpt>
      <trkpt lat="46.3937" lon="4.75315">
        <ele>340.3</ele>
        <time>2019-08-25T08:01:28Z</time>
      </trkpt>
      <trkpt lat="46.39363" lon="4.75298">
        <ele>338.5</ele>
        <time>2019-08-25T08:01:30Z</time>
      </trkpt>
      <trkpt lat="46.39357" lon="4.7528">
        <ele>336.7</ele>
        <time>2019-08-25T08:01:32Z</time>
      </trkpt>
      <trkpt lat="46.3935" lon="4.75259">
        <ele>334.6</ele>
        <time>2019-08-25T08:01:34Z</time>
      </trkpt>
      <trkpt lat="46.39346" lon="4.75248">
        <ele>333.1</ele>
        <time>2019-08-25T08:01:35Z</time>
      </trkpt>
      <trkpt lat="46.39342" lon="4.75238">
        <ele>332.2</ele>
        <time>2019-08-25T08:01:36Z</time>
      </trkpt>
      <trkpt lat="46.39336" lon="4.75223">
        <ele>331</ele>
        <time>2019-08-25T08:01:38Z</time>
      </trkpt>
      <trkpt lat="46.39335" lon="4.75218">
        <ele>330.6</ele>
        <time>2019-08-25T08:01:39Z</time>
      </trkpt>
      <trkpt lat="46.39336" lon="4.75214">
        <ele>330</ele>
        <time>2019-08-25T08:01:40Z</time>
      </trkpt>
      <trkpt lat="46.39341" lon="4.75209">
        <ele>330</ele>
        <time>2019-08-25T08:01:42Z</time>
      </trkpt>
      <trkpt lat="46.39347" lon="4.75208">
        <ele>330</ele>
        <time>2019-08-25T08:01:44Z</time>
      </trkpt>
      <trkpt lat="46.39354" lon="4.75205">
        <ele>330</ele>
        <time>2019-08-25T08:01:46Z</time>
      </trkpt>
      <trkpt lat="46.39361" lon="4.75202">
        <ele>330</ele>
        <time>2019-08-25T08:01:48Z</time>
      </trkpt>
      <trkpt lat="46.39368" lon="4.75198">
        <ele>329.8</ele>
        <time>2019-08-25T08:01:50Z</time>
      </trkpt>
      <trkpt lat="46.39376" lon="4.75194">
        <ele>329.5</ele>
        <time>2019-08-25T08:01:52Z</time>
      </trkpt>
      <trkpt lat="46.39379" lon="4.75192">
        <ele>329.3</ele>
        <time>2019-08-25T08:01:53Z</time>
      </trkpt>
      <trkpt lat="46.39383" lon="4.75191">
        <ele>329.1</ele>
        <time>2019-08-25T08:01:54Z</time>
      </trkpt>
      <trkpt lat="46.39391" lon="4.75188">
        <ele>328.6</ele>
        <time>2019-08-25T08:01:56Z</time>
      </trkpt>
      <trkpt lat="46.394" lon="4.75184">
        <ele>328</ele>
        <time>2019-08-25T08:01:58Z</time>
      </trkpt>
      <trkpt lat="46.39414" lon="4.75179">
        <ele>326.3</ele>
        <time>2019-08-25T08:02:01Z</time>
      </trkpt>
      <trkpt lat="46.39424" lon="4.75179">
        <ele>324.1</ele>
        <time>2019-08-25T08:02:05Z</time>
      </trkpt>
      <trkpt lat="46.39431" lon="4.75182">
        <ele>322.7</ele>
        <time>2019-08-25T08:02:09Z</time>
      </trkpt>
      <trkpt lat="46.39438" lon="4.75183">
        <ele>321.1</ele>
        <time>2019-08-25T08:02:12Z</time>
      </trkpt>
      <trkpt lat="46.39439" lon="4.75181">
        <ele>320.6</ele>
        <time>2019-08-25T08:02:13Z</time>
      </trkpt>
      <trkpt lat="46.39442" lon="4.75177">
        <ele>319.6</ele>
        <time>2019-08-25T08:02:15Z</time>
      </trkpt>
      <trkpt lat="46.39447" lon="4.75172">
        <ele>318.3</ele>
        <time>2019-08-25T08:02:17Z</time>
      </trkpt>
      <trkpt lat="46.39449" lon="4.7517">
        <ele>317.6</ele>
        <time>2019-08-25T08:02:18Z</time>
      </trkpt>
      <trkpt lat="46.39456" lon="4.75169">
        <ele>316.2</ele>
        <time>2019-08-25T08:02:21Z</time>
      </trkpt>
      <trkpt lat="46.39458" lon="4.75169">
        <ele>315.9</ele>
        <time>2019-08-25T08:02:22Z</time>
      </trkpt>
      <trkpt lat="46.39471" lon="4.75165">
        <ele>314.9</ele>
        <time>2019-08-25T08:02:27Z</time>
      </trkpt>
      <trkpt lat="46.39483" lon="4.75147">
        <ele>315.9</ele>
        <time>2019-08-25T08:02:33Z</time>
      </trkpt>
      <trkpt lat="46.3949" lon="4.75122">
        <ele>317.5</ele>
        <time>2019-08-25T08:02:40Z</time>
      </trkpt>
      <trkpt lat="46.39492" lon="4.75119">
        <ele>317.7</ele>
        <time>2019-08-25T08:02:41Z</time>
      </trkpt>
      <trkpt lat="46.39498" lon="4.75101">
        <ele>318.4</ele>
        <time>2019-08-25T08:02:46Z</time>
      </trkpt>
      <trkpt lat="46.39503" lon="4.75091">
        <ele>318.6</ele>
        <time>2019-08-25T08:02:49Z</time>
      </trkpt>
      <trkpt lat="46.39508" lon="4.75081">
        <ele>318.7</ele>
        <time>2019-08-25T08:02:52Z</time>
      </trkpt>
      <trkpt lat="46.39515" lon="4.75071">
        <ele>318.7</ele>
        <time>2019-08-25T08:02:55Z</time>
      </trkpt>
      <trkpt lat="46.39525" lon="4.75062">
        <ele>318.9</ele>
        <time>2019-08-25T08:02:59Z</time>
      </trkpt>
      <trkpt lat="46.39533" lon="4.75055">
        <ele>319.1</ele>
        <time>2019-08-25T08:03:02Z</time>
      </trkpt>
      <trkpt lat="46.39536" lon="4.75054">
        <ele>319.2</ele>
        <time>2019-08-25T08:03:03Z</time>
      </trkpt>
      <trkpt lat="46.39544" lon="4.75049">
        <ele>319.5</ele>
        <time>2019-08-25T08:03:06Z</time>
      </trkpt>
      <trkpt lat="46.39551" lon="4.75041">
        <ele>319.9</ele>
        <time>2019-08-25T08:03:09Z</time>
      </trkpt>
      <trkpt lat="46.39564" lon="4.75034">
        <ele>320.2</ele>
        <time>2019-08-25T08:03:13Z</time>
      </trkpt>
      <trkpt lat="46.39572" lon="4.75031">
        <ele>320.2</ele>
        <time>2019-08-25T08:03:15Z</time>
      </trkpt>
      <trkpt lat="46.39585" lon="4.75025">
        <ele>320.3</ele>
        <time>2019-08-25T08:03:19Z</time>
      </trkpt>
      <trkpt lat="46.39599" lon="4.75018">
        <ele>320.4</ele>
        <time>2019-08-25T08:03:23Z</time>
      </trkpt>
      <trkpt lat="46.39603" lon="4.75017">
        <ele>320.4</ele>
        <time>2019-08-25T08:03:24Z</time>
      </trkpt>
      <trkpt lat="46.39629" lon="4.75005">
        <ele>320.2</ele>
        <time>2019-08-25T08:03:30Z</time>
      </trkpt>
      <trkpt lat="46.39633" lon="4.75002">
        <ele>320.1</ele>
        <time>2019-08-25T08:03:31Z</time>
      </trkpt>
      <trkpt lat="46.39665" lon="4.74986">
        <ele>318.2</ele>
        <time>2019-08-25T08:03:38Z</time>
      </trkpt>
      <trkpt lat="46.39696" lon="4.74979">
        <ele>316.6</ele>
        <time>2019-08-25T08:03:44Z</time>
      </trkpt>
      <trkpt lat="46.39731" lon="4.74978">
        <ele>314.5</ele>
        <time>2019-08-25T08:03:50Z</time>
      </trkpt>
      <trkpt lat="46.39745" lon="4.74979">
        <ele>314</ele>
        <time>2019-08-25T08:03:54Z</time>
      </trkpt>
      <trkpt lat="46.39749" lon="4.74976">
        <ele>314</ele>
        <time>2019-08-25T08:03:56Z</time>
      </trkpt>
      <trkpt lat="46.3975" lon="4.74969">
        <ele>314.1</ele>
        <time>2019-08-25T08:03:58Z</time>
      </trkpt>
      <trkpt lat="46.39749" lon="4.74953">
        <ele>313.7</ele>
        <time>2019-08-25T08:04:02Z</time>
      </trkpt>
      <trkpt lat="46.39746" lon="4.7495">
        <ele>313.6</ele>
        <time>2019-08-25T08:04:04Z</time>
      </trkpt>
      <trkpt lat="46.39742" lon="4.74938">
        <ele>313.5</ele>
        <time>2019-08-25T08:04:09Z</time>
      </trkpt>
      <trkpt lat="46.39748" lon="4.74928">
        <ele>312.9</ele>
        <time>2019-08-25T08:04:14Z</time>
      </trkpt>
      <trkpt lat="46.3975" lon="4.74927">
        <ele>312.8</ele>
        <time>2019-08-25T08:04:15Z</time>
      </trkpt>
      <trkpt lat="46.39758" lon="4.74928">
        <ele>312.4</ele>
        <time>2019-08-25T08:04:19Z</time>
      </trkpt>
      <trkpt lat="46.3976" lon="4.74928">
        <ele>312.3</ele>
        <time>2019-08-25T08:04:20Z</time>
      </trkpt>
      <trkpt lat="46.3977" lon="4.74928">
        <ele>311.8</ele>
        <time>2019-08-25T08:04:24Z</time>
      </trkpt>
      <trkpt lat="46.39772" lon="4.7493">
        <ele>311.7</ele>
        <time>2019-08-25T08:04:25Z</time>
      </trkpt>
      <trkpt lat="46.39777" lon="4.74938">
        <ele>311.5</ele>
        <time>2019-08-25T08:04:28Z</time>
      </trkpt>
      <trkpt lat="46.3979" lon="4.74949">
        <ele>310.6</ele>
        <time>2019-08-25T08:04:33Z</time>
      </trkpt>
      <trkpt lat="46.39809" lon="4.74963">
        <ele>308.6</ele>
        <time>2019-08-25T08:04:40Z</time>
      </trkpt>
      <trkpt lat="46.39815" lon="4.74967">
        <ele>308.2</ele>
        <time>2019-08-25T08:04:42Z</time>
      </trkpt>
      <trkpt lat="46.39821" lon="4.74974">
        <ele>307.9</ele>
        <time>2019-08-25T08:04:44Z</time>
      </trkpt>
      <trkpt lat="46.39841" lon="4.74997">
        <ele>306.9</ele>
        <time>2019-08-25T08:04:50Z</time>
      </trkpt>
      <trkpt lat="46.39848" lon="4.75006">
        <ele>306.6</ele>
        <time>2019-08-25T08:04:52Z</time>
      </trkpt>
      <trkpt lat="46.39863" lon="4.75024">
        <ele>305.7</ele>
        <time>2019-08-25T08:04:57Z</time>
      </trkpt>
      <trkpt lat="46.39868" lon="4.75029">
        <ele>305.4</ele>
        <time>2019-08-25T08:04:59Z</time>
      </trkpt>
      <trkpt lat="46.3987" lon="4.75037">
        <ele>305.2</ele>
        <time>2019-08-25T08:05:04Z</time>
      </trkpt>
      <trkpt lat="46.39869" lon="4.75037">
        <ele>305.1</ele>
        <time>2019-08-25T08:05:05Z</time>
      </trkpt>
      <trkpt lat="46.39864" lon="4.75039">
        <ele>305</ele>
        <time>2019-08-25T08:05:09Z</time>
      </trkpt>
      <trkpt lat="46.3986" lon="4.75038">
        <ele>304.9</ele>
        <time>2019-08-25T08:05:12Z</time>
      </trkpt>
      <trkpt lat="46.39855" lon="4.75041">
        <ele>304.7</ele>
        <time>2019-08-25T08:05:16Z</time>
      </trkpt>
      <trkpt lat="46.39854" lon="4.75049">
        <ele>304.6</ele>
        <time>2019-08-25T08:05:20Z</time>
      </trkpt>
      <trkpt lat="46.39855" lon="4.75051">
        <ele>304.6</ele>
        <time>2019-08-25T08:05:21Z</time>
      </trkpt>
      <trkpt lat="46.39862" lon="4.75067">
        <ele>304.6</ele>
        <time>2019-08-25T08:05:25Z</time>
      </trkpt>
      <trkpt lat="46.3988" lon="4.75097">
        <ele>304.8</ele>
        <time>2019-08-25T08:05:30Z</time>
      </trkpt>
      <trkpt lat="46.39903" lon="4.75146">
        <ele>303.7</ele>
        <time>2019-08-25T08:05:37Z</time>
      </trkpt>
      <trkpt lat="46.39929" lon="4.75195">
        <ele>302.9</ele>
        <time>2019-08-25T08:05:44Z</time>
      </trkpt>
      <trkpt lat="46.39962" lon="4.75246">
        <ele>300.5</ele>
        <time>2019-08-25T08:05:51Z</time>
      </trkpt>
      <trkpt lat="46.39994" lon="4.75283">
        <ele>299.3</ele>
        <time>2019-08-25T08:05:56Z</time>
      </trkpt>
      <trkpt lat="46.40002" lon="4.75289">
        <ele>299.2</ele>
        <time>2019-08-25T08:05:57Z</time>
      </trkpt>
      <trkpt lat="46.40033" lon="4.75312">
        <ele>297.9</ele>
        <time>2019-08-25T08:06:01Z</time>
      </trkpt>
      <trkpt lat="46.40056" lon="4.75327">
        <ele>297.4</ele>
        <time>2019-08-25T08:06:04Z</time>
      </trkpt>
      <trkpt lat="46.40062" lon="4.75334">
        <ele>296.7</ele>
        <time>2019-08-25T08:06:05Z</time>
      </trkpt>
      <trkpt lat="46.40069" lon="4.75341">
        <ele>295.7</ele>
        <time>2019-08-25T08:06:06Z</time>
      </trkpt>
      <trkpt lat="46.40104" lon="4.75379">
        <ele>292.4</ele>
        <time>2019-08-25T08:06:11Z</time>
      </trkpt>
      <trkpt lat="46.40131" lon="4.75407">
        <ele>290</ele>
        <time>2019-08-25T08:06:15Z</time>
      </trkpt>
      <trkpt lat="46.40137" lon="4.75412">
        <ele>289.7</ele>
        <time>2019-08-25T08:06:16Z</time>
      </trkpt>
      <trkpt lat="46.40149" lon="4.75419">
        <ele>289.7</ele>
        <time>2019-08-25T08:06:18Z</time>
      </trkpt>
      <trkpt lat="46.4016" lon="4.75421">
        <ele>287.9</ele>
        <time>2019-08-25T08:06:20Z</time>
      </trkpt>
      <trkpt lat="46.40174" lon="4.75422">
        <ele>284.5</ele>
        <time>2019-08-25T08:06:23Z</time>
      </trkpt>
      <trkpt lat="46.40177" lon="4.75415">
        <ele>282.7</ele>
        <time>2019-08-25T08:06:24Z</time>
      </trkpt>
      <trkpt lat="46.4018" lon="4.7541">
        <ele>281.5</ele>
        <time>2019-08-25T08:06:25Z</time>
      </trkpt>
      <trkpt lat="46.40183" lon="4.75405">
        <ele>280.3</ele>
        <time>2019-08-25T08:06:26Z</time>
      </trkpt>
      <trkpt lat="46.40189" lon="4.75382">
        <ele>275.8</ele>
        <time>2019-08-25T08:06:31Z</time>
      </trkpt>
      <trkpt lat="46.4019" lon="4.75377">
        <ele>274.6</ele>
        <time>2019-08-25T08:06:32Z</time>
      </trkpt>
      <trkpt lat="46.40188" lon="4.75367">
        <ele>274</ele>
        <time>2019-08-25T08:06:34Z</time>
      </trkpt>
      <trkpt lat="46.40185" lon="4.7536">
        <ele>273.5</ele>
        <time>2019-08-25T08:06:36Z</time>
      </trkpt>
      <trkpt lat="46.40184" lon="4.75355">
        <ele>273</ele>
        <time>2019-08-25T08:06:37Z</time>
      </trkpt>
      <trkpt lat="46.40188" lon="4.75349">
        <ele>271.1</ele>
        <time>2019-08-25T08:06:38Z</time>
      </trkpt>
      <trkpt lat="46.4019" lon="4.75344">
        <ele>270.6</ele>
        <time>2019-08-25T08:06:39Z</time>
      </trkpt>
      <trkpt lat="46.40195" lon="4.7534">
        <ele>268.8</ele>
        <time>2019-08-25T08:06:41Z</time>
      </trkpt>
      <trkpt lat="46.40198" lon="4.75341">
        <ele>268.2</ele>
        <time>2019-08-25T08:06:42Z</time>
      </trkpt>
      <trkpt lat="46.40204" lon="4.75348">
        <ele>267.7</ele>
        <time>2019-08-25T08:06:44Z</time>
      </trkpt>
      <trkpt lat="46.40205" lon="4.75352">
        <ele>268.2</ele>
        <time>2019-08-25T08:06:45Z</time>
      </trkpt>
      <trkpt lat="46.40207" lon="4.75356">
        <ele>267.6</ele>
        <time>2019-08-25T08:06:46Z</time>
      </trkpt>
      <trkpt lat="46.4021" lon="4.7536">
        <ele>268.2</ele>
        <time>2019-08-25T08:06:47Z</time>
      </trkpt>
      <trkpt lat="46.40214" lon="4.75369">
        <ele>268.3</ele>
        <time>2019-08-25T08:06:49Z</time>
      </trkpt>
      <trkpt lat="46.40221" lon="4.75386">
        <ele>270.5</ele>
        <time>2019-08-25T08:06:53Z</time>
      </trkpt>
      <trkpt lat="46.40223" lon="4.75391">
        <ele>271.2</ele>
        <time>2019-08-25T08:06:54Z</time>
      </trkpt>
      <trkpt lat="46.40226" lon="4.75399">
        <ele>271.3</ele>
        <time>2019-08-25T08:06:56Z</time>
      </trkpt>
      <trkpt lat="46.40231" lon="4.75404">
        <ele>271.6</ele>
        <time>2019-08-25T08:06:58Z</time>
      </trkpt>
      <trkpt lat="46.40235" lon="4.75406">
        <ele>271.1</ele>
        <time>2019-08-25T08:06:59Z</time>
      </trkpt>
      <trkpt lat="46.40245" lon="4.75397">
        <ele>267.7</ele>
        <time>2019-08-25T08:07:02Z</time>
      </trkpt>
      <trkpt lat="46.40251" lon="4.75389">
        <ele>265.1</ele>
        <time>2019-08-25T08:07:04Z</time>
      </trkpt>
      <trkpt lat="46.40253" lon="4.75387">
        <ele>265.1</ele>
        <time>2019-08-25T08:07:05Z</time>
      </trkpt>
      <trkpt lat="46.40254" lon="4.75387">
        <ele>264.4</ele>
        <time>2019-08-25T08:07:06Z</time>
      </trkpt>
      <trkpt lat="46.40253" lon="4.75387">
        <ele>265.1</ele>
        <time>2019-08-25T08:07:07Z</time>
      </trkpt>
      <trkpt lat="46.40254" lon="4.75389">
        <ele>264.4</ele>
        <time>2019-08-25T08:07:08Z</time>
      </trkpt>
      <trkpt lat="46.40256" lon="4.75393">
        <ele>264.9</ele>
        <time>2019-08-25T08:07:09Z</time>
      </trkpt>
      <trkpt lat="46.40258" lon="4.75396">
        <ele>265.3</ele>
        <time>2019-08-25T08:07:10Z</time>
      </trkpt>
      <trkpt lat="46.40259" lon="4.75399">
        <ele>265.6</ele>
        <time>2019-08-25T08:07:11Z</time>
      </trkpt>
      <trkpt lat="46.4026" lon="4.75401">
        <ele>266.3</ele>
        <time>2019-08-25T08:07:12Z</time>
      </trkpt>
      <trkpt lat="46.40261" lon="4.75403">
        <ele>266.9</ele>
        <time>2019-08-25T08:07:13Z</time>
      </trkpt>
      <trkpt lat="46.4026" lon="4.75408">
        <ele>268</ele>
        <time>2019-08-25T08:07:15Z</time>
      </trkpt>
      <trkpt lat="46.40258" lon="4.75413">
        <ele>268.5</ele>
        <time>2019-08-25T08:07:17Z</time>
      </trkpt>
      <trkpt lat="46.40258" lon="4.75415">
        <ele>268.8</ele>
        <time>2019-08-25T08:07:18Z</time>
      </trkpt>
      <trkpt lat="46.40256" lon="4.75418">
        <ele>269.1</ele>
        <time>2019-08-25T08:07:20Z</time>
      </trkpt>
      <trkpt lat="46.40252" lon="4.75422">
        <ele>269.2</ele>
        <time>2019-08-25T08:07:22Z</time>
      </trkpt>
      <trkpt lat="46.40251" lon="4.75424">
        <ele>269.3</ele>
        <time>2019-08-25T08:07:23Z</time>
      </trkpt>
      <trkpt lat="46.40249" lon="4.75427">
        <ele>269.7</ele>
        <time>2019-08-25T08:07:25Z</time>
      </trkpt>
      <trkpt lat="46.40248" lon="4.7543">
        <ele>269.9</ele>
        <time>2019-08-25T08:07:26Z</time>
      </trkpt>
      <trkpt lat="46.40246" lon="4.75435">
        <ele>270.1</ele>
        <time>2019-08-25T08:07:28Z</time>
      </trkpt>
      <trkpt lat="46.40247" lon="4.75448">
        <ele>270.4</ele>
        <time>2019-08-25T08:07:35Z</time>
      </trkpt>
      <trkpt lat="46.40248" lon="4.7546">
        <ele>271</ele>
        <time>2019-08-25T08:07:41Z</time>
      </trkpt>
      <trkpt lat="46.40251" lon="4.75496">
        <ele>271.4</ele>
        <time>2019-08-25T08:08:00Z</time>
      </trkpt>
      <trkpt lat="46.40253" lon="4.75498">
        <ele>271.3</ele>
        <time>2019-08-25T08:08:02Z</time>
      </trkpt>
      <trkpt lat="46.40254" lon="4.75505">
        <ele>271.3</ele>
        <time>2019-08-25T08:08:06Z</time>
      </trkpt>
      <trkpt lat="46.40256" lon="4.75512">
        <ele>271.2</ele>
        <time>2019-08-25T08:08:09Z</time>
      </trkpt>
      <trkpt lat="46.40262" lon="4.7557">
        <ele>274.8</ele>
        <time>2019-08-25T08:08:37Z</time>
      </trkpt>
      <trkpt lat="46.40262" lon="4.75576">
        <ele>275.2</ele>
        <time>2019-08-25T08:08:40Z</time>
      </trkpt>
      <trkpt lat="46.40262" lon="4.75578">
        <ele>275.3</ele>
        <time>2019-08-25T08:08:41Z</time>
      </trkpt>
      <trkpt lat="46.40263" lon="4.75587">
        <ele>275.8</ele>
        <time>2019-08-25T08:08:45Z</time>
      </trkpt>
      <trkpt lat="46.40263" lon="4.7559">
        <ele>276.1</ele>
        <time>2019-08-25T08:08:47Z</time>
      </trkpt>
      <trkpt lat="46.40263" lon="4.75592">
        <ele>276.2</ele>
        <time>2019-08-25T08:08:48Z</time>
      </trkpt>
      <trkpt lat="46.40264" lon="4.75602">
        <ele>277.5</ele>
        <time>2019-08-25T08:08:53Z</time>
      </trkpt>
      <trkpt lat="46.40264" lon="4.75605">
        <ele>278</ele>
        <time>2019-08-25T08:08:55Z</time>
      </trkpt>
      <trkpt lat="46.40264" lon="4.75608">
        <ele>278.4</ele>
        <time>2019-08-25T08:08:57Z</time>
      </trkpt>
      <trkpt lat="46.40263" lon="4.75616">
        <ele>279.1</ele>
        <time>2019-08-25T08:09:01Z</time>
      </trkpt>
      <trkpt lat="46.40262" lon="4.7562">
        <ele>279.5</ele>
        <time>2019-08-25T08:09:03Z</time>
      </trkpt>
      <trkpt lat="46.40261" lon="4.75626">
        <ele>280.1</ele>
        <time>2019-08-25T08:09:06Z</time>
      </trkpt>
      <trkpt lat="46.40259" lon="4.75708">
        <ele>292.8</ele>
        <time>2019-08-25T08:09:49Z</time>
      </trkpt>
      <trkpt lat="46.40259" lon="4.75717">
        <ele>294.4</ele>
        <time>2019-08-25T08:09:53Z</time>
      </trkpt>
      <trkpt lat="46.40259" lon="4.75722">
        <ele>295.4</ele>
        <time>2019-08-25T08:09:56Z</time>
      </trkpt>
      <trkpt lat="46.40259" lon="4.75844">
        <ele>309.4</ele>
        <time>2019-08-25T08:10:56Z</time>
      </trkpt>
      <trkpt lat="46.40258" lon="4.75853">
        <ele>310.4</ele>
        <time>2019-08-25T08:11:00Z</time>
      </trkpt>
      <trkpt lat="46.40259" lon="4.75868">
        <ele>311.7</ele>
        <time>2019-08-25T08:11:05Z</time>
      </trkpt>
      <trkpt lat="46.40261" lon="4.75878">
        <ele>312.7</ele>
        <time>2019-08-25T08:11:09Z</time>
      </trkpt>
      <trkpt lat="46.4027" lon="4.75884">
        <ele>310.6</ele>
        <time>2019-08-25T08:11:20Z</time>
      </trkpt>
      <trkpt lat="46.40286" lon="4.75886">
        <ele>303.8</ele>
        <time>2019-08-25T08:11:23Z</time>
      </trkpt>
      <trkpt lat="46.40291" lon="4.75885">
        <ele>302.8</ele>
        <time>2019-08-25T08:11:24Z</time>
      </trkpt>
      <trkpt lat="46.40301" lon="4.75887">
        <ele>298.5</ele>
        <time>2019-08-25T08:11:26Z</time>
      </trkpt>
      <trkpt lat="46.40316" lon="4.7589">
        <ele>292.7</ele>
        <time>2019-08-25T08:11:30Z</time>
      </trkpt>
      <trkpt lat="46.40325" lon="4.75893">
        <ele>289.1</ele>
        <time>2019-08-25T08:11:32Z</time>
      </trkpt>
      <trkpt lat="46.40335" lon="4.75897">
        <ele>285.3</ele>
        <time>2019-08-25T08:11:34Z</time>
      </trkpt>
      <trkpt lat="46.40344" lon="4.75899">
        <ele>281.8</ele>
        <time>2019-08-25T08:11:36Z</time>
      </trkpt>
      <trkpt lat="46.40349" lon="4.759">
        <ele>279.3</ele>
        <time>2019-08-25T08:11:37Z</time>
      </trkpt>
      <trkpt lat="46.40353" lon="4.75899">
        <ele>278.1</ele>
        <time>2019-08-25T08:11:38Z</time>
      </trkpt>
      <trkpt lat="46.4036" lon="4.75898">
        <ele>274.2</ele>
        <time>2019-08-25T08:11:40Z</time>
      </trkpt>
      <trkpt lat="46.40367" lon="4.75897">
        <ele>271.6</ele>
        <time>2019-08-25T08:11:42Z</time>
      </trkpt>
      <trkpt lat="46.4037" lon="4.75897">
        <ele>270.3</ele>
        <time>2019-08-25T08:11:43Z</time>
      </trkpt>
      <trkpt lat="46.40378" lon="4.75897">
        <ele>266.9</ele>
        <time>2019-08-25T08:11:45Z</time>
      </trkpt>
      <trkpt lat="46.40383" lon="4.75897">
        <ele>265.8</ele>
        <time>2019-08-25T08:11:46Z</time>
      </trkpt>
      <trkpt lat="46.40391" lon="4.75899">
        <ele>262</ele>
        <time>2019-08-25T08:11:48Z</time>
      </trkpt>
      <trkpt lat="46.40397" lon="4.75899">
        <ele>259.6</ele>
        <time>2019-08-25T08:11:49Z</time>
      </trkpt>
      <trkpt lat="46.40402" lon="4.75899">
        <ele>257.5</ele>
        <time>2019-08-25T08:11:50Z</time>
      </trkpt>
      <trkpt lat="46.40411" lon="4.75899">
        <ele>254.2</ele>
        <time>2019-08-25T08:11:52Z</time>
      </trkpt>
      <trkpt lat="46.40421" lon="4.75899">
        <ele>250.9</ele>
        <time>2019-08-25T08:11:54Z</time>
      </trkpt>
      <trkpt lat="46.40427" lon="4.75898">
        <ele>249</ele>
        <time>2019-08-25T08:11:55Z</time>
      </trkpt>
      <trkpt lat="46.40432" lon="4.75901">
        <ele>247.3</ele>
        <time>2019-08-25T08:11:56Z</time>
      </trkpt>
      <trkpt lat="46.40436" lon="4.75902">
        <ele>247</ele>
        <time>2019-08-25T08:11:57Z</time>
      </trkpt>
      <trkpt lat="46.40441" lon="4.75903">
        <ele>245.5</ele>
        <time>2019-08-25T08:11:58Z</time>
      </trkpt>
      <trkpt lat="46.40446" lon="4.75906">
        <ele>244.4</ele>
        <time>2019-08-25T08:11:59Z</time>
      </trkpt>
      <trkpt lat="46.40451" lon="4.75907">
        <ele>243.4</ele>
        <time>2019-08-25T08:12:00Z</time>
      </trkpt>
      <trkpt lat="46.40457" lon="4.75902">
        <ele>242.1</ele>
        <time>2019-08-25T08:12:01Z</time>
      </trkpt>
      <trkpt lat="46.40461" lon="4.75899">
        <ele>241.2</ele>
        <time>2019-08-25T08:12:02Z</time>
      </trkpt>
      <trkpt lat="46.40464" lon="4.75897">
        <ele>240.5</ele>
        <time>2019-08-25T08:12:03Z</time>
      </trkpt>
      <trkpt lat="46.40469" lon="4.75895">
        <ele>239.4</ele>
        <time>2019-08-25T08:12:04Z</time>
      </trkpt>
      <trkpt lat="46.40477" lon="4.75892">
        <ele>237.6</ele>
        <time>2019-08-25T08:12:06Z</time>
      </trkpt>
      <trkpt lat="46.40478" lon="4.75895">
        <ele>237.8</ele>
        <time>2019-08-25T08:12:07Z</time>
      </trkpt>
      <trkpt lat="46.40479" lon="4.75899">
        <ele>238</ele>
        <time>2019-08-25T08:12:09Z</time>
      </trkpt>
      <trkpt lat="46.4048" lon="4.75901">
        <ele>238.1</ele>
        <time>2019-08-25T08:12:10Z</time>
      </trkpt>
      <trkpt lat="46.4048" lon="4.75909">
        <ele>238.5</ele>
        <time>2019-08-25T08:12:13Z</time>
      </trkpt>
      <trkpt lat="46.40479" lon="4.75912">
        <ele>238.6</ele>
        <time>2019-08-25T08:12:14Z</time>
      </trkpt>
      <trkpt lat="46.40478" lon="4.75917">
        <ele>238.9</ele>
        <time>2019-08-25T08:12:16Z</time>
      </trkpt>
      <trkpt lat="46.40476" lon="4.75925">
        <ele>239.3</ele>
        <time>2019-08-25T08:12:19Z</time>
      </trkpt>
      <trkpt lat="46.40474" lon="4.75936">
        <ele>239.9</ele>
        <time>2019-08-25T08:12:22Z</time>
      </trkpt>
      <trkpt lat="46.40474" lon="4.7594">
        <ele>240.1</ele>
        <time>2019-08-25T08:12:23Z</time>
      </trkpt>
      <trkpt lat="46.4047" lon="4.75948">
        <ele>240.8</ele>
        <time>2019-08-25T08:12:26Z</time>
      </trkpt>
      <trkpt lat="46.40467" lon="4.75954">
        <ele>241.4</ele>
        <time>2019-08-25T08:12:28Z</time>
      </trkpt>
      <trkpt lat="46.40464" lon="4.75959">
        <ele>241.9</ele>
        <time>2019-08-25T08:12:30Z</time>
      </trkpt>
      <trkpt lat="46.40463" lon="4.75968">
        <ele>242.6</ele>
        <time>2019-08-25T08:12:34Z</time>
      </trkpt>
      <trkpt lat="46.40461" lon="4.75986">
        <ele>244</ele>
        <time>2019-08-25T08:12:42Z</time>
      </trkpt>
      <trkpt lat="46.40463" lon="4.75995">
        <ele>245.1</ele>
        <time>2019-08-25T08:12:46Z</time>
      </trkpt>
      <trkpt lat="46.40463" lon="4.76">
        <ele>245.7</ele>
        <time>2019-08-25T08:12:48Z</time>
      </trkpt>
      <trkpt lat="46.40464" lon="4.76017">
        <ele>248</ele>
        <time>2019-08-25T08:12:56Z</time>
      </trkpt>
      <trkpt lat="46.40469" lon="4.76034">
        <ele>250.6</ele>
        <time>2019-08-25T08:13:04Z</time>
      </trkpt>
      <trkpt lat="46.40472" lon="4.76049">
        <ele>252.2</ele>
        <time>2019-08-25T08:13:11Z</time>
      </trkpt>
      <trkpt lat="46.40477" lon="4.7606">
        <ele>253.2</ele>
        <time>2019-08-25T08:13:17Z</time>
      </trkpt>
      <trkpt lat="46.40477" lon="4.76061">
        <ele>253.4</ele>
        <time>2019-08-25T08:13:18Z</time>
      </trkpt>
      <trkpt lat="46.40478" lon="4.76076">
        <ele>254.5</ele>
        <time>2019-08-25T08:13:25Z</time>
      </trkpt>
      <trkpt lat="46.40482" lon="4.76092">
        <ele>255.7</ele>
        <time>2019-08-25T08:13:32Z</time>
      </trkpt>
      <trkpt lat="46.40485" lon="4.76107">
        <ele>256.7</ele>
        <time>2019-08-25T08:13:39Z</time>
      </trkpt>
      <trkpt lat="46.40486" lon="4.76112">
        <ele>257.1</ele>
        <time>2019-08-25T08:13:41Z</time>
      </trkpt>
      <trkpt lat="46.40488" lon="4.76122">
        <ele>258</ele>
        <time>2019-08-25T08:13:45Z</time>
      </trkpt>
      <trkpt lat="46.40489" lon="4.76125">
        <ele>258.3</ele>
        <time>2019-08-25T08:13:46Z</time>
      </trkpt>
      <trkpt lat="46.40492" lon="4.76129">
        <ele>258.9</ele>
        <time>2019-08-25T08:13:48Z</time>
      </trkpt>
      <trkpt lat="46.40493" lon="4.76132">
        <ele>259.2</ele>
        <time>2019-08-25T08:13:49Z</time>
      </trkpt>
      <trkpt lat="46.40495" lon="4.76135">
        <ele>259.6</ele>
        <time>2019-08-25T08:13:51Z</time>
      </trkpt>
      <trkpt lat="46.40496" lon="4.76142">
        <ele>260.2</ele>
        <time>2019-08-25T08:13:54Z</time>
      </trkpt>
      <trkpt lat="46.40498" lon="4.76151">
        <ele>260.8</ele>
        <time>2019-08-25T08:13:58Z</time>
      </trkpt>
      <trkpt lat="46.40503" lon="4.76172">
        <ele>262.1</ele>
        <time>2019-08-25T08:14:05Z</time>
      </trkpt>
      <trkpt lat="46.4051" lon="4.76192">
        <ele>263.3</ele>
        <time>2019-08-25T08:14:11Z</time>
      </trkpt>
      <trkpt lat="46.40513" lon="4.76202">
        <ele>263.7</ele>
        <time>2019-08-25T08:14:14Z</time>
      </trkpt>
      <trkpt lat="46.40517" lon="4.76216">
        <ele>264.1</ele>
        <time>2019-08-25T08:14:19Z</time>
      </trkpt>
      <trkpt lat="46.40526" lon="4.76241">
        <ele>264.9</ele>
        <time>2019-08-25T08:14:26Z</time>
      </trkpt>
      <trkpt lat="46.40533" lon="4.76267">
        <ele>265.4</ele>
        <time>2019-08-25T08:14:32Z</time>
      </trkpt>
      <trkpt lat="46.40536" lon="4.76285">
        <ele>265.7</ele>
        <time>2019-08-25T08:14:36Z</time>
      </trkpt>
      <trkpt lat="46.40538" lon="4.76293">
        <ele>265.8</ele>
        <time>2019-08-25T08:14:38Z</time>
      </trkpt>
      <trkpt lat="46.40546" lon="4.76322">
        <ele>266.3</ele>
        <time>2019-08-25T08:14:44Z</time>
      </trkpt>
      <trkpt lat="46.40552" lon="4.76348">
        <ele>266.5</ele>
        <time>2019-08-25T08:14:49Z</time>
      </trkpt>
      <trkpt lat="46.40554" lon="4.76353">
        <ele>266.6</ele>
        <time>2019-08-25T08:14:50Z</time>
      </trkpt>
      <trkpt lat="46.40557" lon="4.76371">
        <ele>266.6</ele>
        <time>2019-08-25T08:14:53Z</time>
      </trkpt>
      <trkpt lat="46.40559" lon="4.76396">
        <ele>266.7</ele>
        <time>2019-08-25T08:14:57Z</time>
      </trkpt>
      <trkpt lat="46.40562" lon="4.76423">
        <ele>266.8</ele>
        <time>2019-08-25T08:15:01Z</time>
      </trkpt>
      <trkpt lat="46.40564" lon="4.76437">
        <ele>266.9</ele>
        <time>2019-08-25T08:15:03Z</time>
      </trkpt>
      <trkpt lat="46.40566" lon="4.76465">
        <ele>267.1</ele>
        <time>2019-08-25T08:15:08Z</time>
      </trkpt>
      <trkpt lat="46.40566" lon="4.76476">
        <ele>267.2</ele>
        <time>2019-08-25T08:15:10Z</time>
      </trkpt>
      <trkpt lat="46.40567" lon="4.76487">
        <ele>267.3</ele>
        <time>2019-08-25T08:15:12Z</time>
      </trkpt>
      <trkpt lat="46.40568" lon="4.76497">
        <ele>267.4</ele>
        <time>2019-08-25T08:15:14Z</time>
      </trkpt>
      <trkpt lat="46.40569" lon="4.76503">
        <ele>267.4</ele>
        <time>2019-08-25T08:15:15Z</time>
      </trkpt>
      <trkpt lat="46.40569" lon="4.76513">
        <ele>267.4</ele>
        <time>2019-08-25T08:15:17Z</time>
      </trkpt>
      <trkpt lat="46.40572" lon="4.76538">
        <ele>267.1</ele>
        <time>2019-08-25T08:15:21Z</time>
      </trkpt>
      <trkpt lat="46.40573" lon="4.76545">
        <ele>266.9</ele>
        <time>2019-08-25T08:15:22Z</time>
      </trkpt>
      <trkpt lat="46.40578" lon="4.7656">
        <ele>266.6</ele>
        <time>2019-08-25T08:15:24Z</time>
      </trkpt>
      <trkpt lat="46.40585" lon="4.76583">
        <ele>266</ele>
        <time>2019-08-25T08:15:27Z</time>
      </trkpt>
      <trkpt lat="46.4059" lon="4.76598">
        <ele>265.6</ele>
        <time>2019-08-25T08:15:29Z</time>
      </trkpt>
      <trkpt lat="46.40593" lon="4.76612">
        <ele>265.4</ele>
        <time>2019-08-25T08:15:31Z</time>
      </trkpt>
      <trkpt lat="46.40599" lon="4.76634">
        <ele>265.1</ele>
        <time>2019-08-25T08:15:34Z</time>
      </trkpt>
      <trkpt lat="46.406" lon="4.76641">
        <ele>265</ele>
        <time>2019-08-25T08:15:35Z</time>
      </trkpt>
      <trkpt lat="46.40602" lon="4.76657">
        <ele>265</ele>
        <time>2019-08-25T08:15:37Z</time>
      </trkpt>
      <trkpt lat="46.40601" lon="4.76681">
        <ele>265.3</ele>
        <time>2019-08-25T08:15:40Z</time>
      </trkpt>
      <trkpt lat="46.406" lon="4.76695">
        <ele>265.7</ele>
        <time>2019-08-25T08:15:42Z</time>
      </trkpt>
      <trkpt lat="46.40598" lon="4.76702">
        <ele>265.9</ele>
        <time>2019-08-25T08:15:43Z</time>
      </trkpt>
      <trkpt lat="46.40596" lon="4.76714">
        <ele>266.2</ele>
        <time>2019-08-25T08:15:45Z</time>
      </trkpt>
      <trkpt lat="46.40593" lon="4.76739">
        <ele>267.2</ele>
        <time>2019-08-25T08:15:50Z</time>
      </trkpt>
      <trkpt lat="46.40592" lon="4.76744">
        <ele>267.4</ele>
        <time>2019-08-25T08:15:51Z</time>
      </trkpt>
      <trkpt lat="46.40587" lon="4.76775">
        <ele>268.8</ele>
        <time>2019-08-25T08:15:57Z</time>
      </trkpt>
      <trkpt lat="46.40585" lon="4.76789">
        <ele>269.4</ele>
        <time>2019-08-25T08:16:00Z</time>
      </trkpt>
      <trkpt lat="46.4058" lon="4.76808">
        <ele>270.2</ele>
        <time>2019-08-25T08:16:04Z</time>
      </trkpt>
      <trkpt lat="46.40572" lon="4.76839">
        <ele>271.1</ele>
        <time>2019-08-25T08:16:10Z</time>
      </trkpt>
      <trkpt lat="46.40571" lon="4.76844">
        <ele>271.3</ele>
        <time>2019-08-25T08:16:11Z</time>
      </trkpt>
      <trkpt lat="46.40563" lon="4.76869">
        <ele>272.2</ele>
        <time>2019-08-25T08:16:16Z</time>
      </trkpt>
      <trkpt lat="46.4056" lon="4.76878">
        <ele>272.5</ele>
        <time>2019-08-25T08:16:18Z</time>
      </trkpt>
      <trkpt lat="46.40555" lon="4.76896">
        <ele>273.1</ele>
        <time>2019-08-25T08:16:22Z</time>
      </trkpt>
      <trkpt lat="46.40554" lon="4.769">
        <ele>273.2</ele>
        <time>2019-08-25T08:16:23Z</time>
      </trkpt>
      <trkpt lat="46.40553" lon="4.76913">
        <ele>273.6</ele>
        <time>2019-08-25T08:16:26Z</time>
      </trkpt>
      <trkpt lat="46.40548" lon="4.76941">
        <ele>274</ele>
        <time>2019-08-25T08:16:31Z</time>
      </trkpt>
      <trkpt lat="46.40536" lon="4.76984">
        <ele>274.4</ele>
        <time>2019-08-25T08:16:38Z</time>
      </trkpt>
      <trkpt lat="46.40535" lon="4.77024">
        <ele>275.2</ele>
        <time>2019-08-25T08:16:44Z</time>
      </trkpt>
      <trkpt lat="46.40535" lon="4.77029">
        <ele>275.5</ele>
        <time>2019-08-25T08:16:45Z</time>
      </trkpt>
      <trkpt lat="46.40536" lon="4.77041">
        <ele>276</ele>
        <time>2019-08-25T08:16:47Z</time>
      </trkpt>
      <trkpt lat="46.40533" lon="4.77052">
        <ele>276.4</ele>
        <time>2019-08-25T08:16:49Z</time>
      </trkpt>
      <trkpt lat="46.40531" lon="4.7706">
        <ele>276.8</ele>
        <time>2019-08-25T08:16:51Z</time>
      </trkpt>
      <trkpt lat="46.4053" lon="4.77064">
        <ele>277.1</ele>
        <time>2019-08-25T08:16:52Z</time>
      </trkpt>
      <trkpt lat="46.40529" lon="4.77068">
        <ele>277.2</ele>
        <time>2019-08-25T08:16:53Z</time>
      </trkpt>
      <trkpt lat="46.40519" lon="4.77099">
        <ele>278.3</ele>
        <time>2019-08-25T08:17:00Z</time>
      </trkpt>
      <trkpt lat="46.40516" lon="4.77124">
        <ele>279.3</ele>
        <time>2019-08-25T08:17:06Z</time>
      </trkpt>
      <trkpt lat="46.40514" lon="4.7715">
        <ele>280.8</ele>
        <time>2019-08-25T08:17:13Z</time>
      </trkpt>
      <trkpt lat="46.40507" lon="4.7717">
        <ele>282</ele>
        <time>2019-08-25T08:17:19Z</time>
      </trkpt>
      <trkpt lat="46.40506" lon="4.77174">
        <ele>282.2</ele>
        <time>2019-08-25T08:17:20Z</time>
      </trkpt>
      <trkpt lat="46.40502" lon="4.7718">
        <ele>282.6</ele>
        <time>2019-08-25T08:17:22Z</time>
      </trkpt>
      <trkpt lat="46.40495" lon="4.77205">
        <ele>283.8</ele>
        <time>2019-08-25T08:17:29Z</time>
      </trkpt>
      <trkpt lat="46.40488" lon="4.77227">
        <ele>284.9</ele>
        <time>2019-08-25T08:17:35Z</time>
      </trkpt>
      <trkpt lat="46.40491" lon="4.7723">
        <ele>285.1</ele>
        <time>2019-08-25T08:17:42Z</time>
      </trkpt>
      <trkpt lat="46.40497" lon="4.77231">
        <ele>279.4</ele>
        <time>2019-08-25T08:17:44Z</time>
      </trkpt>
      <trkpt lat="46.40506" lon="4.7723">
        <ele>277</ele>
        <time>2019-08-25T08:17:46Z</time>
      </trkpt>
      <trkpt lat="46.40517" lon="4.77228">
        <ele>274</ele>
        <time>2019-08-25T08:17:49Z</time>
      </trkpt>
      <trkpt lat="46.40523" lon="4.77227">
        <ele>272.3</ele>
        <time>2019-08-25T08:17:50Z</time>
      </trkpt>
      <trkpt lat="46.40531" lon="4.77229">
        <ele>270.6</ele>
        <time>2019-08-25T08:17:51Z</time>
      </trkpt>
      <trkpt lat="46.40545" lon="4.7723">
        <ele>267.6</ele>
        <time>2019-08-25T08:17:53Z</time>
      </trkpt>
      <trkpt lat="46.4056" lon="4.77233">
        <ele>265.2</ele>
        <time>2019-08-25T08:17:55Z</time>
      </trkpt>
      <trkpt lat="46.40576" lon="4.77235">
        <ele>263</ele>
        <time>2019-08-25T08:17:58Z</time>
      </trkpt>
      <trkpt lat="46.40585" lon="4.77237">
        <ele>261.9</ele>
        <time>2019-08-25T08:18:00Z</time>
      </trkpt>
      <trkpt lat="46.40594" lon="4.77237">
        <ele>260.8</ele>
        <time>2019-08-25T08:18:02Z</time>
      </trkpt>
      <trkpt lat="46.40613" lon="4.77234">
        <ele>258.2</ele>
        <time>2019-08-25T08:18:06Z</time>
      </trkpt>
      <trkpt lat="46.40627" lon="4.77234">
        <ele>256.2</ele>
        <time>2019-08-25T08:18:08Z</time>
      </trkpt>
      <trkpt lat="46.40633" lon="4.77233">
        <ele>255.2</ele>
        <time>2019-08-25T08:18:09Z</time>
      </trkpt>
      <trkpt lat="46.40641" lon="4.77233">
        <ele>254.1</ele>
        <time>2019-08-25T08:18:10Z</time>
      </trkpt>
      <trkpt lat="46.40659" lon="4.77229">
        <ele>251.3</ele>
        <time>2019-08-25T08:18:12Z</time>
      </trkpt>
      <trkpt lat="46.40677" lon="4.77227">
        <ele>248.3</ele>
        <time>2019-08-25T08:18:15Z</time>
      </trkpt>
      <trkpt lat="46.40695" lon="4.77222">
        <ele>245.7</ele>
        <time>2019-08-25T08:18:18Z</time>
      </trkpt>
      <trkpt lat="46.40701" lon="4.77221">
        <ele>244.9</ele>
        <time>2019-08-25T08:18:19Z</time>
      </trkpt>
      <trkpt lat="46.40707" lon="4.7722">
        <ele>243.9</ele>
        <time>2019-08-25T08:18:20Z</time>
      </trkpt>
      <trkpt lat="46.4073" lon="4.77219">
        <ele>240.7</ele>
        <time>2019-08-25T08:18:24Z</time>
      </trkpt>
      <trkpt lat="46.40733" lon="4.77222">
        <ele>240.1</ele>
        <time>2019-08-25T08:18:25Z</time>
      </trkpt>
      <trkpt lat="46.40741" lon="4.77227">
        <ele>239.2</ele>
        <time>2019-08-25T08:18:27Z</time>
      </trkpt>
      <trkpt lat="46.40754" lon="4.77244">
        <ele>237.8</ele>
        <time>2019-08-25T08:18:31Z</time>
      </trkpt>
      <trkpt lat="46.40755" lon="4.77248">
        <ele>237.7</ele>
        <time>2019-08-25T08:18:32Z</time>
      </trkpt>
      <trkpt lat="46.40759" lon="4.77274">
        <ele>236.7</ele>
        <time>2019-08-25T08:18:38Z</time>
      </trkpt>
      <trkpt lat="46.40758" lon="4.77287">
        <ele>236.3</ele>
        <time>2019-08-25T08:18:41Z</time>
      </trkpt>
      <trkpt lat="46.40759" lon="4.77296">
        <ele>235.9</ele>
        <time>2019-08-25T08:18:43Z</time>
      </trkpt>
      <trkpt lat="46.40762" lon="4.77312">
        <ele>235.2</ele>
        <time>2019-08-25T08:18:46Z</time>
      </trkpt>
      <trkpt lat="46.40764" lon="4.77322">
        <ele>234.6</ele>
        <time>2019-08-25T08:18:48Z</time>
      </trkpt>
      <trkpt lat="46.40772" lon="4.77357">
        <ele>233</ele>
        <time>2019-08-25T08:18:54Z</time>
      </trkpt>
      <trkpt lat="46.40778" lon="4.77403">
        <ele>232</ele>
        <time>2019-08-25T08:19:01Z</time>
      </trkpt>
      <trkpt lat="46.40781" lon="4.77415">
        <ele>231.9</ele>
        <time>2019-08-25T08:19:03Z</time>
      </trkpt>
      <trkpt lat="46.40782" lon="4.77426">
        <ele>231.8</ele>
        <time>2019-08-25T08:19:05Z</time>
      </trkpt>
      <trkpt lat="46.40781" lon="4.77436">
        <ele>231.8</ele>
        <time>2019-08-25T08:19:07Z</time>
      </trkpt>
      <trkpt lat="46.40777" lon="4.77456">
        <ele>231.6</ele>
        <time>2019-08-25T08:19:12Z</time>
      </trkpt>
      <trkpt lat="46.40777" lon="4.77462">
        <ele>231.6</ele>
        <time>2019-08-25T08:19:13Z</time>
      </trkpt>
      <trkpt lat="46.40777" lon="4.77468">
        <ele>231.4</ele>
        <time>2019-08-25T08:19:14Z</time>
      </trkpt>
      <trkpt lat="46.40779" lon="4.77483">
        <ele>231.2</ele>
        <time>2019-08-25T08:19:17Z</time>
      </trkpt>
      <trkpt lat="46.40781" lon="4.77504">
        <ele>230.6</ele>
        <time>2019-08-25T08:19:21Z</time>
      </trkpt>
      <trkpt lat="46.40782" lon="4.77515">
        <ele>230.3</ele>
        <time>2019-08-25T08:19:23Z</time>
      </trkpt>
      <trkpt lat="46.40785" lon="4.77524">
        <ele>230.1</ele>
        <time>2019-08-25T08:19:24Z</time>
      </trkpt>
      <trkpt lat="46.40786" lon="4.77547">
        <ele>229.6</ele>
        <time>2019-08-25T08:19:27Z</time>
      </trkpt>
      <trkpt lat="46.40788" lon="4.7756">
        <ele>229.2</ele>
        <time>2019-08-25T08:19:29Z</time>
      </trkpt>
      <trkpt lat="46.40789" lon="4.77568">
        <ele>229</ele>
        <time>2019-08-25T08:19:31Z</time>
      </trkpt>
      <trkpt lat="46.4079" lon="4.77572">
        <ele>228.9</ele>
        <time>2019-08-25T08:19:32Z</time>
      </trkpt>
      <trkpt lat="46.40794" lon="4.77584">
        <ele>228.6</ele>
        <time>2019-08-25T08:19:35Z</time>
      </trkpt>
      <trkpt lat="46.40795" lon="4.77589">
        <ele>228.5</ele>
        <time>2019-08-25T08:19:36Z</time>
      </trkpt>
      <trkpt lat="46.40797" lon="4.77611">
        <ele>228</ele>
        <time>2019-08-25T08:19:40Z</time>
      </trkpt>
      <trkpt lat="46.40799" lon="4.77631">
        <ele>227.5</ele>
        <time>2019-08-25T08:19:43Z</time>
      </trkpt>
      <trkpt lat="46.40801" lon="4.77658">
        <ele>227</ele>
        <time>2019-08-25T08:19:47Z</time>
      </trkpt>
      <trkpt lat="46.40808" lon="4.77686">
        <ele>226.6</ele>
        <time>2019-08-25T08:19:51Z</time>
      </trkpt>
      <trkpt lat="46.40812" lon="4.77699">
        <ele>226.4</ele>
        <time>2019-08-25T08:19:53Z</time>
      </trkpt>
      <trkpt lat="46.40812" lon="4.77705">
        <ele>226.4</ele>
        <time>2019-08-25T08:19:54Z</time>
      </trkpt>
      <trkpt lat="46.40815" lon="4.77718">
        <ele>226.2</ele>
        <time>2019-08-25T08:19:56Z</time>
      </trkpt>
      <trkpt lat="46.40816" lon="4.77725">
        <ele>226.1</ele>
        <time>2019-08-25T08:19:57Z</time>
      </trkpt>
      <trkpt lat="46.40818" lon="4.77731">
        <ele>226</ele>
        <time>2019-08-25T08:19:58Z</time>
      </trkpt>
      <trkpt lat="46.4082" lon="4.77737">
        <ele>225.9</ele>
        <time>2019-08-25T08:19:59Z</time>
      </trkpt>
      <trkpt lat="46.4082" lon="4.77745">
        <ele>225.8</ele>
        <time>2019-08-25T08:20:00Z</time>
      </trkpt>
      <trkpt lat="46.4082" lon="4.77754">
        <ele>225.7</ele>
        <time>2019-08-25T08:20:01Z</time>
      </trkpt>
      <trkpt lat="46.40819" lon="4.7777">
        <ele>225.3</ele>
        <time>2019-08-25T08:20:03Z</time>
      </trkpt>
      <trkpt lat="46.40819" lon="4.77778">
        <ele>225.2</ele>
        <time>2019-08-25T08:20:04Z</time>
      </trkpt>
      <trkpt lat="46.40817" lon="4.77791">
        <ele>224.9</ele>
        <time>2019-08-25T08:20:06Z</time>
      </trkpt>
      <trkpt lat="46.40804" lon="4.77831">
        <ele>223.6</ele>
        <time>2019-08-25T08:20:13Z</time>
      </trkpt>
      <trkpt lat="46.40794" lon="4.77877">
        <ele>222.1</ele>
        <time>2019-08-25T08:20:20Z</time>
      </trkpt>
      <trkpt lat="46.40791" lon="4.77891">
        <ele>221.7</ele>
        <time>2019-08-25T08:20:22Z</time>
      </trkpt>
      <trkpt lat="46.40788" lon="4.77907">
        <ele>221.1</ele>
        <time>2019-08-25T08:20:25Z</time>
      </trkpt>
      <trkpt lat="46.40789" lon="4.7792">
        <ele>220.7</ele>
        <time>2019-08-25T08:20:29Z</time>
      </trkpt>
      <trkpt lat="46.4079" lon="4.77927">
        <ele>220.5</ele>
        <time>2019-08-25T08:20:31Z</time>
      </trkpt>
      <trkpt lat="46.40791" lon="4.77933">
        <ele>220.3</ele>
        <time>2019-08-25T08:20:32Z</time>
      </trkpt>
      <trkpt lat="46.4079" lon="4.77955">
        <ele>219.6</ele>
        <time>2019-08-25T08:20:35Z</time>
      </trkpt>
      <trkpt lat="46.4079" lon="4.77963">
        <ele>219.4</ele>
        <time>2019-08-25T08:20:36Z</time>
      </trkpt>
      <trkpt lat="46.4079" lon="4.78016">
        <ele>218</ele>
        <time>2019-08-25T08:20:42Z</time>
      </trkpt>
      <trkpt lat="46.40791" lon="4.78034">
        <ele>217.6</ele>
        <time>2019-08-25T08:20:44Z</time>
      </trkpt>
      <trkpt lat="46.40788" lon="4.78072">
        <ele>216.7</ele>
        <time>2019-08-25T08:20:48Z</time>
      </trkpt>
      <trkpt lat="46.40785" lon="4.78114">
        <ele>215.8</ele>
        <time>2019-08-25T08:20:52Z</time>
      </trkpt>
      <trkpt lat="46.40785" lon="4.78133">
        <ele>215.4</ele>
        <time>2019-08-25T08:20:54Z</time>
      </trkpt>
      <trkpt lat="46.40786" lon="4.78143">
        <ele>215.2</ele>
        <time>2019-08-25T08:20:55Z</time>
      </trkpt>
      <trkpt lat="46.40788" lon="4.78153">
        <ele>215</ele>
        <time>2019-08-25T08:20:56Z</time>
      </trkpt>
      <trkpt lat="46.40789" lon="4.78163">
        <ele>214.8</ele>
        <time>2019-08-25T08:20:57Z</time>
      </trkpt>
      <trkpt lat="46.40793" lon="4.78199">
        <ele>214.1</ele>
        <time>2019-08-25T08:21:01Z</time>
      </trkpt>
      <trkpt lat="46.40793" lon="4.78208">
        <ele>213.9</ele>
        <time>2019-08-25T08:21:02Z</time>
      </trkpt>
      <trkpt lat="46.40793" lon="4.78217">
        <ele>213.8</ele>
        <time>2019-08-25T08:21:03Z</time>
      </trkpt>
      <trkpt lat="46.40789" lon="4.78249">
        <ele>213.3</ele>
        <time>2019-08-25T08:21:07Z</time>
      </trkpt>
      <trkpt lat="46.40787" lon="4.78265">
        <ele>213</ele>
        <time>2019-08-25T08:21:09Z</time>
      </trkpt>
      <trkpt lat="46.40785" lon="4.78281">
        <ele>212.8</ele>
        <time>2019-08-25T08:21:11Z</time>
      </trkpt>
      <trkpt lat="46.40784" lon="4.78305">
        <ele>212.5</ele>
        <time>2019-08-25T08:21:14Z</time>
      </trkpt>
      <trkpt lat="46.40783" lon="4.7832">
        <ele>212.3</ele>
        <time>2019-08-25T08:21:16Z</time>
      </trkpt>
      <trkpt lat="46.40785" lon="4.78355">
        <ele>211.7</ele>
        <time>2019-08-25T08:21:22Z</time>
      </trkpt>
      <trkpt lat="46.40784" lon="4.7839">
        <ele>209.2</ele>
        <time>2019-08-25T08:21:28Z</time>
      </trkpt>
      <trkpt lat="46.40779" lon="4.78428">
        <ele>207.6</ele>
        <time>2019-08-25T08:21:34Z</time>
      </trkpt>
      <trkpt lat="46.40768" lon="4.78496">
        <ele>205.4</ele>
        <time>2019-08-25T08:21:43Z</time>
      </trkpt>
      <trkpt lat="46.4076" lon="4.78524">
        <ele>206.1</ele>
        <time>2019-08-25T08:21:47Z</time>
      </trkpt>
      <trkpt lat="46.40754" lon="4.78542">
        <ele>207</ele>
        <time>2019-08-25T08:21:50Z</time>
      </trkpt>
      <trkpt lat="46.4075" lon="4.78552">
        <ele>208</ele>
        <time>2019-08-25T08:21:52Z</time>
      </trkpt>
      <trkpt lat="46.40742" lon="4.78574">
        <ele>208.6</ele>
        <time>2019-08-25T08:21:56Z</time>
      </trkpt>
      <trkpt lat="46.40731" lon="4.78611">
        <ele>210.5</ele>
        <time>2019-08-25T08:22:02Z</time>
      </trkpt>
      <trkpt lat="46.40724" lon="4.7864">
        <ele>211.7</ele>
        <time>2019-08-25T08:22:06Z</time>
      </trkpt>
      <trkpt lat="46.40718" lon="4.78655">
        <ele>212.9</ele>
        <time>2019-08-25T08:22:08Z</time>
      </trkpt>
      <trkpt lat="46.40706" lon="4.78685">
        <ele>214.5</ele>
        <time>2019-08-25T08:22:12Z</time>
      </trkpt>
      <trkpt lat="46.407" lon="4.78697">
        <ele>215.9</ele>
        <time>2019-08-25T08:22:14Z</time>
      </trkpt>
      <trkpt lat="46.40697" lon="4.78704">
        <ele>216.2</ele>
        <time>2019-08-25T08:22:15Z</time>
      </trkpt>
      <trkpt lat="46.40687" lon="4.78729">
        <ele>216.5</ele>
        <time>2019-08-25T08:22:19Z</time>
      </trkpt>
      <trkpt lat="46.40682" lon="4.7874">
        <ele>216.2</ele>
        <time>2019-08-25T08:22:21Z</time>
      </trkpt>
      <trkpt lat="46.40679" lon="4.78745">
        <ele>216.3</ele>
        <time>2019-08-25T08:22:22Z</time>
      </trkpt>
      <trkpt lat="46.40676" lon="4.7875">
        <ele>216.5</ele>
        <time>2019-08-25T08:22:23Z</time>
      </trkpt>
      <trkpt lat="46.40664" lon="4.78765">
        <ele>217.3</ele>
        <time>2019-08-25T08:22:27Z</time>
      </trkpt>
      <trkpt lat="46.40647" lon="4.78776">
        <ele>218.7</ele>
        <time>2019-08-25T08:22:32Z</time>
      </trkpt>
      <trkpt lat="46.40641" lon="4.78778">
        <ele>219.3</ele>
        <time>2019-08-25T08:22:34Z</time>
      </trkpt>
      <trkpt lat="46.40628" lon="4.78782">
        <ele>219.8</ele>
        <time>2019-08-25T08:22:38Z</time>
      </trkpt>
      <trkpt lat="46.40619" lon="4.7879">
        <ele>219.6</ele>
        <time>2019-08-25T08:22:43Z</time>
      </trkpt>
      <trkpt lat="46.40615" lon="4.78797">
        <ele>219.5</ele>
        <time>2019-08-25T08:22:46Z</time>
      </trkpt>
      <trkpt lat="46.40608" lon="4.7881">
        <ele>219.2</ele>
        <time>2019-08-25T08:22:50Z</time>
      </trkpt>
      <trkpt lat="46.40586" lon="4.78843">
        <ele>217.2</ele>
        <time>2019-08-25T08:22:59Z</time>
      </trkpt>
      <trkpt lat="46.40571" lon="4.78866">
        <ele>216.8</ele>
        <time>2019-08-25T08:23:05Z</time>
      </trkpt>
      <trkpt lat="46.40558" lon="4.78885">
        <ele>216.5</ele>
        <time>2019-08-25T08:23:09Z</time>
      </trkpt>
      <trkpt lat="46.40554" lon="4.7889">
        <ele>216.5</ele>
        <time>2019-08-25T08:23:10Z</time>
      </trkpt>
      <trkpt lat="46.4055" lon="4.78895">
        <ele>216.5</ele>
        <time>2019-08-25T08:23:11Z</time>
      </trkpt>
      <trkpt lat="46.40525" lon="4.78926">
        <ele>217.7</ele>
        <time>2019-08-25T08:23:17Z</time>
      </trkpt>
      <trkpt lat="46.40521" lon="4.78931">
        <ele>217.9</ele>
        <time>2019-08-25T08:23:18Z</time>
      </trkpt>
      <trkpt lat="46.40498" lon="4.78958">
        <ele>219.8</ele>
        <time>2019-08-25T08:23:24Z</time>
      </trkpt>
      <trkpt lat="46.40474" lon="4.78987">
        <ele>221</ele>
        <time>2019-08-25T08:23:31Z</time>
      </trkpt>
      <trkpt lat="46.40468" lon="4.78997">
        <ele>221.2</ele>
        <time>2019-08-25T08:23:33Z</time>
      </trkpt>
      <trkpt lat="46.40453" lon="4.79019">
        <ele>220.9</ele>
        <time>2019-08-25T08:23:37Z</time>
      </trkpt>
      <trkpt lat="46.40434" lon="4.79041">
        <ele>220.6</ele>
        <time>2019-08-25T08:23:42Z</time>
      </trkpt>
      <trkpt lat="46.40429" lon="4.79049">
        <ele>220</ele>
        <time>2019-08-25T08:23:44Z</time>
      </trkpt>
      <trkpt lat="46.40418" lon="4.79063">
        <ele>219.4</ele>
        <time>2019-08-25T08:23:49Z</time>
      </trkpt>
      <trkpt lat="46.40406" lon="4.79065">
        <ele>219.7</ele>
        <time>2019-08-25T08:23:55Z</time>
      </trkpt>
      <trkpt lat="46.40392" lon="4.79072">
        <ele>219.8</ele>
        <time>2019-08-25T08:24:00Z</time>
      </trkpt>
      <trkpt lat="46.40389" lon="4.79074">
        <ele>219.5</ele>
        <time>2019-08-25T08:24:01Z</time>
      </trkpt>
      <trkpt lat="46.40382" lon="4.79085">
        <ele>218.9</ele>
        <time>2019-08-25T08:24:05Z</time>
      </trkpt>
      <trkpt lat="46.4038" lon="4.79087">
        <ele>218.6</ele>
        <time>2019-08-25T08:24:06Z</time>
      </trkpt>
      <trkpt lat="46.40377" lon="4.79095">
        <ele>218</ele>
        <time>2019-08-25T08:24:08Z</time>
      </trkpt>
      <trkpt lat="46.40371" lon="4.79103">
        <ele>217.4</ele>
        <time>2019-08-25T08:24:10Z</time>
      </trkpt>
      <trkpt lat="46.40368" lon="4.79107">
        <ele>217.5</ele>
        <time>2019-08-25T08:24:11Z</time>
      </trkpt>
      <trkpt lat="46.40359" lon="4.79114">
        <ele>217.1</ele>
        <time>2019-08-25T08:24:14Z</time>
      </trkpt>
      <trkpt lat="46.40353" lon="4.79119">
        <ele>217</ele>
        <time>2019-08-25T08:24:16Z</time>
      </trkpt>
      <trkpt lat="46.40348" lon="4.79121">
        <ele>216.9</ele>
        <time>2019-08-25T08:24:18Z</time>
      </trkpt>
      <trkpt lat="46.4034" lon="4.79123">
        <ele>217.1</ele>
        <time>2019-08-25T08:24:20Z</time>
      </trkpt>
      <trkpt lat="46.40336" lon="4.79122">
        <ele>217.2</ele>
        <time>2019-08-25T08:24:21Z</time>
      </trkpt>
      <trkpt lat="46.40333" lon="4.79122">
        <ele>217.5</ele>
        <time>2019-08-25T08:24:22Z</time>
      </trkpt>
      <trkpt lat="46.40323" lon="4.79123">
        <ele>217.7</ele>
        <time>2019-08-25T08:24:25Z</time>
      </trkpt>
      <trkpt lat="46.40321" lon="4.79125">
        <ele>217.6</ele>
        <time>2019-08-25T08:24:26Z</time>
      </trkpt>
      <trkpt lat="46.40312" lon="4.79132">
        <ele>217.3</ele>
        <time>2019-08-25T08:24:29Z</time>
      </trkpt>
      <trkpt lat="46.40305" lon="4.79135">
        <ele>217</ele>
        <time>2019-08-25T08:24:31Z</time>
      </trkpt>
      <trkpt lat="46.40296" lon="4.79132">
        <ele>217.1</ele>
        <time>2019-08-25T08:24:34Z</time>
      </trkpt>
      <trkpt lat="46.40294" lon="4.79129">
        <ele>217.1</ele>
        <time>2019-08-25T08:24:35Z</time>
      </trkpt>
      <trkpt lat="46.4029" lon="4.79123">
        <ele>217.6</ele>
        <time>2019-08-25T08:24:38Z</time>
      </trkpt>
      <trkpt lat="46.40289" lon="4.79123">
        <ele>217.6</ele>
        <time>2019-08-25T08:24:39Z</time>
      </trkpt>
      <trkpt lat="46.40287" lon="4.79122">
        <ele>217.5</ele>
        <time>2019-08-25T08:24:40Z</time>
      </trkpt>
      <trkpt lat="46.40281" lon="4.79116">
        <ele>217.6</ele>
        <time>2019-08-25T08:24:43Z</time>
      </trkpt>
      <trkpt lat="46.40277" lon="4.79104">
        <ele>218.3</ele>
        <time>2019-08-25T08:24:46Z</time>
      </trkpt>
      <trkpt lat="46.40275" lon="4.79101">
        <ele>218.6</ele>
        <time>2019-08-25T08:24:47Z</time>
      </trkpt>
      <trkpt lat="46.40273" lon="4.79099">
        <ele>218.5</ele>
        <time>2019-08-25T08:24:48Z</time>
      </trkpt>
      <trkpt lat="46.40263" lon="4.79101">
        <ele>218.2</ele>
        <time>2019-08-25T08:24:52Z</time>
      </trkpt>
      <trkpt lat="46.40262" lon="4.79103">
        <ele>217.8</ele>
        <time>2019-08-25T08:24:53Z</time>
      </trkpt>
      <trkpt lat="46.40262" lon="4.79109">
        <ele>217.4</ele>
        <time>2019-08-25T08:24:55Z</time>
      </trkpt>
      <trkpt lat="46.40261" lon="4.79112">
        <ele>217.1</ele>
        <time>2019-08-25T08:24:56Z</time>
      </trkpt>
      <trkpt lat="46.40258" lon="4.79128">
        <ele>216.1</ele>
        <time>2019-08-25T08:25:00Z</time>
      </trkpt>
      <trkpt lat="46.40256" lon="4.79134">
        <ele>215.5</ele>
        <time>2019-08-25T08:25:01Z</time>
      </trkpt>
      <trkpt lat="46.4025" lon="4.79153">
        <ele>213.8</ele>
        <time>2019-08-25T08:25:05Z</time>
      </trkpt>
      <trkpt lat="46.40247" lon="4.79162">
        <ele>213</ele>
        <time>2019-08-25T08:25:07Z</time>
      </trkpt>
      <trkpt lat="46.40241" lon="4.79184">
        <ele>211.1</ele>
        <time>2019-08-25T08:25:12Z</time>
      </trkpt>
      <trkpt lat="46.40232" lon="4.79213">
        <ele>209.2</ele>
        <time>2019-08-25T08:25:17Z</time>
      </trkpt>
      <trkpt lat="46.40229" lon="4.79217">
        <ele>209</ele>
        <time>2019-08-25T08:25:18Z</time>
      </trkpt>
      <trkpt lat="46.40218" lon="4.79227">
        <ele>208.6</ele>
        <time>2019-08-25T08:25:21Z</time>
      </trkpt>
      <trkpt lat="46.40211" lon="4.79237">
        <ele>208.1</ele>
        <time>2019-08-25T08:25:23Z</time>
      </trkpt>
      <trkpt lat="46.40199" lon="4.79254">
        <ele>207.6</ele>
        <time>2019-08-25T08:25:26Z</time>
      </trkpt>
      <trkpt lat="46.40181" lon="4.79277">
        <ele>208.2</ele>
        <time>2019-08-25T08:25:31Z</time>
      </trkpt>
      <trkpt lat="46.40178" lon="4.79282">
        <ele>208.4</ele>
        <time>2019-08-25T08:25:32Z</time>
      </trkpt>
      <trkpt lat="46.40166" lon="4.79298">
        <ele>209.6</ele>
        <time>2019-08-25T08:25:37Z</time>
      </trkpt>
      <trkpt lat="46.40159" lon="4.79322">
        <ele>210.8</ele>
        <time>2019-08-25T08:25:42Z</time>
      </trkpt>
      <trkpt lat="46.40155" lon="4.79341">
        <ele>211.3</ele>
        <time>2019-08-25T08:25:46Z</time>
      </trkpt>
      <trkpt lat="46.40152" lon="4.79354">
        <ele>211.6</ele>
        <time>2019-08-25T08:25:49Z</time>
      </trkpt>
      <trkpt lat="46.40151" lon="4.79368">
        <ele>211.4</ele>
        <time>2019-08-25T08:29:20Z</time>
      </trkpt>
      <trkpt lat="46.40149" lon="4.79388">
        <ele>211.3</ele>
        <time>2019-08-25T08:29:26Z</time>
      </trkpt>
      <trkpt lat="46.40148" lon="4.79402">
        <ele>211.1</ele>
        <time>2019-08-25T08:29:30Z</time>
      </trkpt>
      <trkpt lat="46.40148" lon="4.79407">
        <ele>211</ele>
        <time>2019-08-25T08:29:32Z</time>
      </trkpt>
      <trkpt lat="46.40148" lon="4.79411">
        <ele>210.9</ele>
        <time>2019-08-25T08:29:34Z</time>
      </trkpt>
      <trkpt lat="46.40144" lon="4.79412">
        <ele>211</ele>
        <time>2019-08-25T08:29:37Z</time>
      </trkpt>
      <trkpt lat="46.40143" lon="4.79412">
        <ele>211.3</ele>
        <time>2019-08-25T08:29:38Z</time>
      </trkpt>
      <trkpt lat="46.40137" lon="4.7941">
        <ele>212.1</ele>
        <time>2019-08-25T08:29:42Z</time>
      </trkpt>
      <trkpt lat="46.40124" lon="4.79403">
        <ele>213.6</ele>
        <time>2019-08-25T08:29:48Z</time>
      </trkpt>
      <trkpt lat="46.40121" lon="4.79401">
        <ele>213.9</ele>
        <time>2019-08-25T08:29:49Z</time>
      </trkpt>
      <trkpt lat="46.40111" lon="4.79394">
        <ele>215.3</ele>
        <time>2019-08-25T08:29:54Z</time>
      </trkpt>
      <trkpt lat="46.40109" lon="4.79393">
        <ele>215.3</ele>
        <time>2019-08-25T08:29:55Z</time>
      </trkpt>
      <trkpt lat="46.40098" lon="4.79387">
        <ele>216.7</ele>
        <time>2019-08-25T08:30:01Z</time>
      </trkpt>
      <trkpt lat="46.40063" lon="4.79368">
        <ele>222.3</ele>
        <time>2019-08-25T08:30:34Z</time>
      </trkpt>
      <trkpt lat="46.40026" lon="4.79343">
        <ele>228.2</ele>
        <time>2019-08-25T08:31:24Z</time>
      </trkpt>
      <trkpt lat="46.40017" lon="4.7934">
        <ele>229.7</ele>
        <time>2019-08-25T08:31:29Z</time>
      </trkpt>
      <trkpt lat="46.40016" lon="4.7934">
        <ele>230.1</ele>
        <time>2019-08-25T08:31:30Z</time>
      </trkpt>
      <trkpt lat="46.40014" lon="4.79338">
        <ele>230.3</ele>
        <time>2019-08-25T08:31:32Z</time>
      </trkpt>
      <trkpt lat="46.4001" lon="4.79336">
        <ele>230.9</ele>
        <time>2019-08-25T08:31:35Z</time>
      </trkpt>
      <trkpt lat="46.40009" lon="4.79335">
        <ele>230.9</ele>
        <time>2019-08-25T08:31:36Z</time>
      </trkpt>
      <trkpt lat="46.40001" lon="4.79332">
        <ele>232</ele>
        <time>2019-08-25T08:31:42Z</time>
      </trkpt>
      <trkpt lat="46.39996" lon="4.79328">
        <ele>232.8</ele>
        <time>2019-08-25T08:31:46Z</time>
      </trkpt>
      <trkpt lat="46.39996" lon="4.79326">
        <ele>232.8</ele>
        <time>2019-08-25T08:31:47Z</time>
      </trkpt>
      <trkpt lat="46.39996" lon="4.79324">
        <ele>233.4</ele>
        <time>2019-08-25T08:31:48Z</time>
      </trkpt>
      <trkpt lat="46.39997" lon="4.79315">
        <ele>233.7</ele>
        <time>2019-08-25T08:31:51Z</time>
      </trkpt>
      <trkpt lat="46.39997" lon="4.79313">
        <ele>233.7</ele>
        <time>2019-08-25T08:31:52Z</time>
      </trkpt>
      <trkpt lat="46.39995" lon="4.79311">
        <ele>234.3</ele>
        <time>2019-08-25T08:31:54Z</time>
      </trkpt>
      <trkpt lat="46.39991" lon="4.79306">
        <ele>234.9</ele>
        <time>2019-08-25T08:31:57Z</time>
      </trkpt>
      <trkpt lat="46.39982" lon="4.79292">
        <ele>236.6</ele>
        <time>2019-08-25T08:32:03Z</time>
      </trkpt>
      <trkpt lat="46.39976" lon="4.79287">
        <ele>237.6</ele>
        <time>2019-08-25T08:32:06Z</time>
      </trkpt>
      <trkpt lat="46.39967" lon="4.79284">
        <ele>238.4</ele>
        <time>2019-08-25T08:32:10Z</time>
      </trkpt>
      <trkpt lat="46.39962" lon="4.79281">
        <ele>239</ele>
        <time>2019-08-25T08:32:13Z</time>
      </trkpt>
      <trkpt lat="46.39959" lon="4.79279">
        <ele>239.4</ele>
        <time>2019-08-25T08:32:15Z</time>
      </trkpt>
      <trkpt lat="46.39953" lon="4.79276">
        <ele>239.8</ele>
        <time>2019-08-25T08:32:18Z</time>
      </trkpt>
      <trkpt lat="46.39949" lon="4.79278">
        <ele>240</ele>
        <time>2019-08-25T08:32:20Z</time>
      </trkpt>
      <trkpt lat="46.39938" lon="4.79282">
        <ele>240.4</ele>
        <time>2019-08-25T08:32:25Z</time>
      </trkpt>
      <trkpt lat="46.39936" lon="4.79282">
        <ele>240.6</ele>
        <time>2019-08-25T08:32:26Z</time>
      </trkpt>
      <trkpt lat="46.39926" lon="4.79285">
        <ele>240.7</ele>
        <time>2019-08-25T08:32:31Z</time>
      </trkpt>
      <trkpt lat="46.39924" lon="4.79287">
        <ele>240.6</ele>
        <time>2019-08-25T08:32:32Z</time>
      </trkpt>
      <trkpt lat="46.39922" lon="4.7929">
        <ele>240.6</ele>
        <time>2019-08-25T08:32:33Z</time>
      </trkpt>
      <trkpt lat="46.39918" lon="4.79305">
        <ele>240.1</ele>
        <time>2019-08-25T08:32:37Z</time>
      </trkpt>
      <trkpt lat="46.39918" lon="4.79309">
        <ele>240</ele>
        <time>2019-08-25T08:32:38Z</time>
      </trkpt>
      <trkpt lat="46.39911" lon="4.79333">
        <ele>239.5</ele>
        <time>2019-08-25T08:32:43Z</time>
      </trkpt>
      <trkpt lat="46.39902" lon="4.79347">
        <ele>239.6</ele>
        <time>2019-08-25T08:32:47Z</time>
      </trkpt>
      <trkpt lat="46.39899" lon="4.7935">
        <ele>239.6</ele>
        <time>2019-08-25T08:32:48Z</time>
      </trkpt>
      <trkpt lat="46.39893" lon="4.79356">
        <ele>239.7</ele>
        <time>2019-08-25T08:32:50Z</time>
      </trkpt>
      <trkpt lat="46.39884" lon="4.7937">
        <ele>239.8</ele>
        <time>2019-08-25T08:32:54Z</time>
      </trkpt>
      <trkpt lat="46.39875" lon="4.79382">
        <ele>239.6</ele>
        <time>2019-08-25T08:32:57Z</time>
      </trkpt>
      <trkpt lat="46.39869" lon="4.79389">
        <ele>239.6</ele>
        <time>2019-08-25T08:32:59Z</time>
      </trkpt>
      <trkpt lat="46.39855" lon="4.79407">
        <ele>239</ele>
        <time>2019-08-25T08:33:03Z</time>
      </trkpt>
      <trkpt lat="46.39851" lon="4.79418">
        <ele>238.6</ele>
        <time>2019-08-25T08:33:05Z</time>
      </trkpt>
      <trkpt lat="46.39846" lon="4.79429">
        <ele>238.3</ele>
        <time>2019-08-25T08:33:07Z</time>
      </trkpt>
      <trkpt lat="46.39844" lon="4.79434">
        <ele>238.2</ele>
        <time>2019-08-25T08:33:08Z</time>
      </trkpt>
      <trkpt lat="46.39837" lon="4.79451">
        <ele>237.7</ele>
        <time>2019-08-25T08:33:11Z</time>
      </trkpt>
      <trkpt lat="46.39835" lon="4.79458">
        <ele>237.6</ele>
        <time>2019-08-25T08:33:12Z</time>
      </trkpt>
      <trkpt lat="46.39822" lon="4.79502">
        <ele>236.4</ele>
        <time>2019-08-25T08:33:19Z</time>
      </trkpt>
      <trkpt lat="46.39807" lon="4.7954">
        <ele>235.6</ele>
        <time>2019-08-25T08:33:25Z</time>
      </trkpt>
      <trkpt lat="46.39796" lon="4.79557">
        <ele>235.3</ele>
        <time>2019-08-25T08:33:28Z</time>
      </trkpt>
      <trkpt lat="46.39792" lon="4.7956">
        <ele>235.2</ele>
        <time>2019-08-25T08:33:29Z</time>
      </trkpt>
      <trkpt lat="46.39786" lon="4.79563">
        <ele>235.2</ele>
        <time>2019-08-25T08:33:30Z</time>
      </trkpt>
      <trkpt lat="46.39758" lon="4.7958">
        <ele>235</ele>
        <time>2019-08-25T08:33:35Z</time>
      </trkpt>
      <trkpt lat="46.39722" lon="4.79609">
        <ele>234</ele>
        <time>2019-08-25T08:33:41Z</time>
      </trkpt>
      <trkpt lat="46.39703" lon="4.79622">
        <ele>232.6</ele>
        <time>2019-08-25T08:33:44Z</time>
      </trkpt>
      <trkpt lat="46.39689" lon="4.79628">
        <ele>231.4</ele>
        <time>2019-08-25T08:33:46Z</time>
      </trkpt>
      <trkpt lat="46.39684" lon="4.79631">
        <ele>230.8</ele>
        <time>2019-08-25T08:33:47Z</time>
      </trkpt>
      <trkpt lat="46.39676" lon="4.7964">
        <ele>229.8</ele>
        <time>2019-08-25T08:33:49Z</time>
      </trkpt>
      <trkpt lat="46.39673" lon="4.79661">
        <ele>229.5</ele>
        <time>2019-08-25T08:33:52Z</time>
      </trkpt>
      <trkpt lat="46.39673" lon="4.7967">
        <ele>229.3</ele>
        <time>2019-08-25T08:33:53Z</time>
      </trkpt>
      <trkpt lat="46.39673" lon="4.79679">
        <ele>229.1</ele>
        <time>2019-08-25T08:33:54Z</time>
      </trkpt>
      <trkpt lat="46.39675" lon="4.79706">
        <ele>228.3</ele>
        <time>2019-08-25T08:33:57Z</time>
      </trkpt>
      <trkpt lat="46.39678" lon="4.79767">
        <ele>225.5</ele>
        <time>2019-08-25T08:34:03Z</time>
      </trkpt>
      <trkpt lat="46.39681" lon="4.79792">
        <ele>224</ele>
        <time>2019-08-25T08:34:05Z</time>
      </trkpt>
      <trkpt lat="46.39683" lon="4.79805">
        <ele>223.2</ele>
        <time>2019-08-25T08:34:06Z</time>
      </trkpt>
      <trkpt lat="46.39686" lon="4.79818">
        <ele>222.4</ele>
        <time>2019-08-25T08:34:07Z</time>
      </trkpt>
      <trkpt lat="46.39694" lon="4.79845">
        <ele>220.8</ele>
        <time>2019-08-25T08:34:09Z</time>
      </trkpt>
      <trkpt lat="46.39704" lon="4.79874">
        <ele>219</ele>
        <time>2019-08-25T08:34:11Z</time>
      </trkpt>
      <trkpt lat="46.39709" lon="4.79889">
        <ele>218.1</ele>
        <time>2019-08-25T08:34:12Z</time>
      </trkpt>
      <trkpt lat="46.39715" lon="4.79904">
        <ele>217.1</ele>
        <time>2019-08-25T08:34:13Z</time>
      </trkpt>
      <trkpt lat="46.39719" lon="4.79919">
        <ele>216.2</ele>
        <time>2019-08-25T08:34:14Z</time>
      </trkpt>
      <trkpt lat="46.39724" lon="4.79934">
        <ele>215.4</ele>
        <time>2019-08-25T08:34:15Z</time>
      </trkpt>
      <trkpt lat="46.39731" lon="4.79967">
        <ele>213.8</ele>
        <time>2019-08-25T08:34:17Z</time>
      </trkpt>
      <trkpt lat="46.39735" lon="4.79999">
        <ele>212.4</ele>
        <time>2019-08-25T08:34:19Z</time>
      </trkpt>
      <trkpt lat="46.39739" lon="4.80031">
        <ele>210.9</ele>
        <time>2019-08-25T08:34:21Z</time>
      </trkpt>
      <trkpt lat="46.39742" lon="4.8006">
        <ele>209.8</ele>
        <time>2019-08-25T08:34:23Z</time>
      </trkpt>
      <trkpt lat="46.39744" lon="4.80089">
        <ele>209</ele>
        <time>2019-08-25T08:34:25Z</time>
      </trkpt>
      <trkpt lat="46.39745" lon="4.80117">
        <ele>208.5</ele>
        <time>2019-08-25T08:34:27Z</time>
      </trkpt>
      <trkpt lat="46.39744" lon="4.80146">
        <ele>208</ele>
        <time>2019-08-25T08:34:29Z</time>
      </trkpt>
      <trkpt lat="46.39742" lon="4.80173">
        <ele>207.5</ele>
        <time>2019-08-25T08:34:31Z</time>
      </trkpt>
      <trkpt lat="46.39742" lon="4.80186">
        <ele>207.2</ele>
        <time>2019-08-25T08:34:32Z</time>
      </trkpt>
      <trkpt lat="46.39741" lon="4.80196">
        <ele>207.1</ele>
        <time>2019-08-25T08:34:33Z</time>
      </trkpt>
      <trkpt lat="46.39739" lon="4.80213">
        <ele>206.8</ele>
        <time>2019-08-25T08:34:35Z</time>
      </trkpt>
      <trkpt lat="46.39733" lon="4.80223">
        <ele>206.7</ele>
        <time>2019-08-25T08:34:37Z</time>
      </trkpt>
      <trkpt lat="46.39729" lon="4.80227">
        <ele>206.6</ele>
        <time>2019-08-25T08:34:38Z</time>
      </trkpt>
      <trkpt lat="46.39724" lon="4.8023">
        <ele>206.5</ele>
        <time>2019-08-25T08:34:39Z</time>
      </trkpt>
      <trkpt lat="46.39719" lon="4.80234">
        <ele>206.2</ele>
        <time>2019-08-25T08:34:40Z</time>
      </trkpt>
      <trkpt lat="46.39709" lon="4.80242">
        <ele>205.7</ele>
        <time>2019-08-25T08:34:42Z</time>
      </trkpt>
      <trkpt lat="46.39699" lon="4.80252">
        <ele>205.1</ele>
        <time>2019-08-25T08:34:44Z</time>
      </trkpt>
      <trkpt lat="46.39688" lon="4.80262">
        <ele>204.7</ele>
        <time>2019-08-25T08:34:46Z</time>
      </trkpt>
      <trkpt lat="46.39677" lon="4.80271">
        <ele>204.4</ele>
        <time>2019-08-25T08:34:48Z</time>
      </trkpt>
      <trkpt lat="46.39663" lon="4.80283">
        <ele>204.2</ele>
        <time>2019-08-25T08:34:51Z</time>
      </trkpt>
      <trkpt lat="46.39659" lon="4.80287">
        <ele>204.2</ele>
        <time>2019-08-25T08:34:52Z</time>
      </trkpt>
      <trkpt lat="46.39654" lon="4.80288">
        <ele>204.3</ele>
        <time>2019-08-25T08:34:53Z</time>
      </trkpt>
      <trkpt lat="46.39647" lon="4.80284">
        <ele>204.4</ele>
        <time>2019-08-25T08:34:55Z</time>
      </trkpt>
      <trkpt lat="46.39641" lon="4.80264">
        <ele>204.5</ele>
        <time>2019-08-25T08:34:58Z</time>
      </trkpt>
      <trkpt lat="46.3964" lon="4.80258">
        <ele>204.4</ele>
        <time>2019-08-25T08:34:59Z</time>
      </trkpt>
      <trkpt lat="46.39639" lon="4.8025">
        <ele>204.4</ele>
        <time>2019-08-25T08:35:00Z</time>
      </trkpt>
      <trkpt lat="46.39634" lon="4.80221">
        <ele>204.4</ele>
        <time>2019-08-25T08:35:04Z</time>
      </trkpt>
      <trkpt lat="46.39631" lon="4.80175">
        <ele>204.5</ele>
        <time>2019-08-25T08:35:10Z</time>
      </trkpt>
      <trkpt lat="46.39629" lon="4.80152">
        <ele>204.6</ele>
        <time>2019-08-25T08:35:13Z</time>
      </trkpt>
      <trkpt lat="46.39625" lon="4.80133">
        <ele>204.9</ele>
        <time>2019-08-25T08:35:16Z</time>
      </trkpt>
      <trkpt lat="46.39623" lon="4.80127">
        <ele>204.9</ele>
        <time>2019-08-25T08:35:17Z</time>
      </trkpt>
      <trkpt lat="46.39617" lon="4.8012">
        <ele>205.7</ele>
        <time>2019-08-25T08:35:19Z</time>
      </trkpt>
      <trkpt lat="46.39607" lon="4.80117">
        <ele>207.3</ele>
        <time>2019-08-25T08:35:23Z</time>
      </trkpt>
      <trkpt lat="46.39598" lon="4.80112">
        <ele>208.7</ele>
        <time>2019-08-25T08:35:27Z</time>
      </trkpt>
      <trkpt lat="46.39594" lon="4.8011">
        <ele>209.4</ele>
        <time>2019-08-25T08:35:29Z</time>
      </trkpt>
      <trkpt lat="46.39592" lon="4.80109">
        <ele>209.7</ele>
        <time>2019-08-25T08:35:30Z</time>
      </trkpt>
      <trkpt lat="46.39585" lon="4.80105">
        <ele>210.6</ele>
        <time>2019-08-25T08:35:34Z</time>
      </trkpt>
      <trkpt lat="46.39583" lon="4.80105">
        <ele>210.8</ele>
        <time>2019-08-25T08:35:35Z</time>
      </trkpt>
      <trkpt lat="46.39575" lon="4.80101">
        <ele>211.9</ele>
        <time>2019-08-25T08:35:40Z</time>
      </trkpt>
      <trkpt lat="46.39568" lon="4.80097">
        <ele>212.9</ele>
        <time>2019-08-25T08:35:45Z</time>
      </trkpt>
      <trkpt lat="46.39562" lon="4.80094">
        <ele>213.8</ele>
        <time>2019-08-25T08:35:49Z</time>
      </trkpt>
      <trkpt lat="46.39556" lon="4.80091">
        <ele>214.8</ele>
        <time>2019-08-25T08:35:53Z</time>
      </trkpt>
      <trkpt lat="46.39552" lon="4.8009">
        <ele>215.4</ele>
        <time>2019-08-25T08:35:55Z</time>
      </trkpt>
      <trkpt lat="46.39546" lon="4.80087">
        <ele>216.5</ele>
        <time>2019-08-25T08:35:59Z</time>
      </trkpt>
      <trkpt lat="46.39539" lon="4.80085">
        <ele>218</ele>
        <time>2019-08-25T08:36:04Z</time>
      </trkpt>
      <trkpt lat="46.39533" lon="4.80083">
        <ele>219.2</ele>
        <time>2019-08-25T08:36:08Z</time>
      </trkpt>
      <trkpt lat="46.39528" lon="4.80081">
        <ele>220.4</ele>
        <time>2019-08-25T08:36:12Z</time>
      </trkpt>
      <trkpt lat="46.39527" lon="4.8008">
        <ele>220.6</ele>
        <time>2019-08-25T08:36:13Z</time>
      </trkpt>
      <trkpt lat="46.39524" lon="4.80079">
        <ele>221.4</ele>
        <time>2019-08-25T08:36:16Z</time>
      </trkpt>
      <trkpt lat="46.39519" lon="4.80077">
        <ele>222.6</ele>
        <time>2019-08-25T08:36:20Z</time>
      </trkpt>
      <trkpt lat="46.39517" lon="4.80075">
        <ele>223.1</ele>
        <time>2019-08-25T08:36:22Z</time>
      </trkpt>
      <trkpt lat="46.39512" lon="4.80072">
        <ele>224.3</ele>
        <time>2019-08-25T08:36:26Z</time>
      </trkpt>
      <trkpt lat="46.39509" lon="4.80071">
        <ele>224.9</ele>
        <time>2019-08-25T08:36:28Z</time>
      </trkpt>
      <trkpt lat="46.39504" lon="4.80068">
        <ele>225.9</ele>
        <time>2019-08-25T08:36:32Z</time>
      </trkpt>
      <trkpt lat="46.39502" lon="4.80067">
        <ele>226.1</ele>
        <time>2019-08-25T08:36:33Z</time>
      </trkpt>
      <trkpt lat="46.39499" lon="4.80065">
        <ele>226.7</ele>
        <time>2019-08-25T08:36:36Z</time>
      </trkpt>
      <trkpt lat="46.39495" lon="4.80063">
        <ele>227.4</ele>
        <time>2019-08-25T08:36:39Z</time>
      </trkpt>
      <trkpt lat="46.39493" lon="4.80062">
        <ele>227.5</ele>
        <time>2019-08-25T08:36:40Z</time>
      </trkpt>
      <trkpt lat="46.3949" lon="4.80059">
        <ele>228.1</ele>
        <time>2019-08-25T08:36:43Z</time>
      </trkpt>
      <trkpt lat="46.39485" lon="4.80054">
        <ele>228.8</ele>
        <time>2019-08-25T08:36:47Z</time>
      </trkpt>
      <trkpt lat="46.39484" lon="4.80053">
        <ele>229</ele>
        <time>2019-08-25T08:36:48Z</time>
      </trkpt>
      <trkpt lat="46.39479" lon="4.8005">
        <ele>229.6</ele>
        <time>2019-08-25T08:36:52Z</time>
      </trkpt>
      <trkpt lat="46.39475" lon="4.80047">
        <ele>230.1</ele>
        <time>2019-08-25T08:36:55Z</time>
      </trkpt>
      <trkpt lat="46.39473" lon="4.80045">
        <ele>230.5</ele>
        <time>2019-08-25T08:36:57Z</time>
      </trkpt>
      <trkpt lat="46.39468" lon="4.80041">
        <ele>231</ele>
        <time>2019-08-25T08:37:01Z</time>
      </trkpt>
      <trkpt lat="46.39466" lon="4.80039">
        <ele>231.4</ele>
        <time>2019-08-25T08:37:03Z</time>
      </trkpt>
      <trkpt lat="46.39462" lon="4.80036">
        <ele>231.9</ele>
        <time>2019-08-25T08:37:06Z</time>
      </trkpt>
      <trkpt lat="46.39456" lon="4.80031">
        <ele>232.8</ele>
        <time>2019-08-25T08:37:11Z</time>
      </trkpt>
      <trkpt lat="46.39451" lon="4.80028">
        <ele>233.4</ele>
        <time>2019-08-25T08:37:15Z</time>
      </trkpt>
      <trkpt lat="46.39446" lon="4.80024">
        <ele>234</ele>
        <time>2019-08-25T08:37:19Z</time>
      </trkpt>
      <trkpt lat="46.39441" lon="4.8002">
        <ele>234.7</ele>
        <time>2019-08-25T08:37:23Z</time>
      </trkpt>
      <trkpt lat="46.39434" lon="4.80016">
        <ele>235.6</ele>
        <time>2019-08-25T08:37:30Z</time>
      </trkpt>
      <trkpt lat="46.39433" lon="4.80014">
        <ele>235.8</ele>
        <time>2019-08-25T08:37:31Z</time>
      </trkpt>
      <trkpt lat="46.39429" lon="4.80012">
        <ele>236.2</ele>
        <time>2019-08-25T08:37:34Z</time>
      </trkpt>
      <trkpt lat="46.39426" lon="4.80009">
        <ele>236.6</ele>
        <time>2019-08-25T08:37:37Z</time>
      </trkpt>
      <trkpt lat="46.39421" lon="4.80006">
        <ele>237.2</ele>
        <time>2019-08-25T08:37:40Z</time>
      </trkpt>
      <trkpt lat="46.39418" lon="4.80003">
        <ele>237.7</ele>
        <time>2019-08-25T08:37:42Z</time>
      </trkpt>
      <trkpt lat="46.39413" lon="4.79999">
        <ele>238.5</ele>
        <time>2019-08-25T08:37:46Z</time>
      </trkpt>
      <trkpt lat="46.39404" lon="4.79994">
        <ele>239.9</ele>
        <time>2019-08-25T08:37:52Z</time>
      </trkpt>
      <trkpt lat="46.39402" lon="4.79993">
        <ele>240.1</ele>
        <time>2019-08-25T08:37:53Z</time>
      </trkpt>
      <trkpt lat="46.39398" lon="4.7999">
        <ele>240.7</ele>
        <time>2019-08-25T08:37:56Z</time>
      </trkpt>
      <trkpt lat="46.39392" lon="4.79987">
        <ele>241.5</ele>
        <time>2019-08-25T08:38:00Z</time>
      </trkpt>
      <trkpt lat="46.39391" lon="4.79986">
        <ele>241.7</ele>
        <time>2019-08-25T08:38:01Z</time>
      </trkpt>
      <trkpt lat="46.39386" lon="4.79983">
        <ele>242.3</ele>
        <time>2019-08-25T08:38:04Z</time>
      </trkpt>
      <trkpt lat="46.39363" lon="4.79968">
        <ele>245.2</ele>
        <time>2019-08-25T08:38:22Z</time>
      </trkpt>
      <trkpt lat="46.39355" lon="4.79964">
        <ele>246.2</ele>
        <time>2019-08-25T08:38:27Z</time>
      </trkpt>
      <trkpt lat="46.39352" lon="4.79962">
        <ele>246.6</ele>
        <time>2019-08-25T08:38:29Z</time>
      </trkpt>
      <trkpt lat="46.39351" lon="4.79962">
        <ele>246.7</ele>
        <time>2019-08-25T08:38:30Z</time>
      </trkpt>
      <trkpt lat="46.39342" lon="4.7996">
        <ele>247.7</ele>
        <time>2019-08-25T08:38:36Z</time>
      </trkpt>
      <trkpt lat="46.39336" lon="4.79957">
        <ele>248.2</ele>
        <time>2019-08-25T08:38:40Z</time>
      </trkpt>
      <trkpt lat="46.39333" lon="4.79956">
        <ele>248.5</ele>
        <time>2019-08-25T08:38:42Z</time>
      </trkpt>
      <trkpt lat="46.3932" lon="4.79948">
        <ele>249.8</ele>
        <time>2019-08-25T08:38:50Z</time>
      </trkpt>
      <trkpt lat="46.39312" lon="4.79943">
        <ele>250.5</ele>
        <time>2019-08-25T08:38:55Z</time>
      </trkpt>
      <trkpt lat="46.39301" lon="4.79934">
        <ele>251.3</ele>
        <time>2019-08-25T08:39:01Z</time>
      </trkpt>
      <trkpt lat="46.39288" lon="4.79924">
        <ele>252.1</ele>
        <time>2019-08-25T08:39:08Z</time>
      </trkpt>
      <trkpt lat="46.39281" lon="4.79919">
        <ele>252.6</ele>
        <time>2019-08-25T08:39:12Z</time>
      </trkpt>
      <trkpt lat="46.39277" lon="4.79916">
        <ele>252.9</ele>
        <time>2019-08-25T08:39:14Z</time>
      </trkpt>
      <trkpt lat="46.39272" lon="4.79913">
        <ele>253.3</ele>
        <time>2019-08-25T08:39:16Z</time>
      </trkpt>
      <trkpt lat="46.3926" lon="4.79904">
        <ele>254</ele>
        <time>2019-08-25T08:39:22Z</time>
      </trkpt>
      <trkpt lat="46.39249" lon="4.79897">
        <ele>254.4</ele>
        <time>2019-08-25T08:39:27Z</time>
      </trkpt>
      <trkpt lat="46.39247" lon="4.79895">
        <ele>254.5</ele>
        <time>2019-08-25T08:39:28Z</time>
      </trkpt>
      <trkpt lat="46.39227" lon="4.7988">
        <ele>254.8</ele>
        <time>2019-08-25T08:39:36Z</time>
      </trkpt>
      <trkpt lat="46.39216" lon="4.79869">
        <ele>255</ele>
        <time>2019-08-25T08:39:40Z</time>
      </trkpt>
      <trkpt lat="46.39202" lon="4.79859">
        <ele>255.4</ele>
        <time>2019-08-25T08:39:44Z</time>
      </trkpt>
      <trkpt lat="46.39178" lon="4.79847">
        <ele>256.2</ele>
        <time>2019-08-25T08:39:52Z</time>
      </trkpt>
      <trkpt lat="46.39159" lon="4.79842">
        <ele>256.7</ele>
        <time>2019-08-25T08:39:59Z</time>
      </trkpt>
      <trkpt lat="46.39156" lon="4.79841">
        <ele>256.7</ele>
        <time>2019-08-25T08:40:00Z</time>
      </trkpt>
      <trkpt lat="46.39136" lon="4.79836">
        <ele>257.1</ele>
        <time>2019-08-25T08:40:07Z</time>
      </trkpt>
      <trkpt lat="46.39133" lon="4.79834">
        <ele>257.2</ele>
        <time>2019-08-25T08:40:08Z</time>
      </trkpt>
      <trkpt lat="46.39114" lon="4.79828">
        <ele>257.6</ele>
        <time>2019-08-25T08:40:13Z</time>
      </trkpt>
      <trkpt lat="46.39108" lon="4.79828">
        <ele>257.8</ele>
        <time>2019-08-25T08:40:15Z</time>
      </trkpt>
      <trkpt lat="46.39105" lon="4.7983">
        <ele>257.9</ele>
        <time>2019-08-25T08:40:17Z</time>
      </trkpt>
      <trkpt lat="46.39108" lon="4.79835">
        <ele>258</ele>
        <time>2019-08-25T08:40:20Z</time>
      </trkpt>
      <trkpt lat="46.39121" lon="4.79843">
        <ele>258.8</ele>
        <time>2019-08-25T08:40:26Z</time>
      </trkpt>
      <trkpt lat="46.39131" lon="4.7985">
        <ele>259.3</ele>
        <time>2019-08-25T08:40:31Z</time>
      </trkpt>
      <trkpt lat="46.39135" lon="4.79853">
        <ele>259.5</ele>
        <time>2019-08-25T08:40:33Z</time>
      </trkpt>
      <trkpt lat="46.3915" lon="4.79866">
        <ele>260.4</ele>
        <time>2019-08-25T08:40:40Z</time>
      </trkpt>
      <trkpt lat="46.39153" lon="4.79868">
        <ele>260.5</ele>
        <time>2019-08-25T08:40:41Z</time>
      </trkpt>
      <trkpt lat="46.3916" lon="4.79873">
        <ele>260.7</ele>
        <time>2019-08-25T08:40:44Z</time>
      </trkpt>
      <trkpt lat="46.39171" lon="4.79881">
        <ele>260.8</ele>
        <time>2019-08-25T08:40:49Z</time>
      </trkpt>
      <trkpt lat="46.39177" lon="4.79887">
        <ele>261.1</ele>
        <time>2019-08-25T08:40:52Z</time>
      </trkpt>
      <trkpt lat="46.39186" lon="4.79895">
        <ele>261.8</ele>
        <time>2019-08-25T08:40:56Z</time>
      </trkpt>
      <trkpt lat="46.39193" lon="4.79903">
        <ele>262.6</ele>
        <time>2019-08-25T08:40:59Z</time>
      </trkpt>
      <trkpt lat="46.39199" lon="4.7991">
        <ele>263.4</ele>
        <time>2019-08-25T08:41:02Z</time>
      </trkpt>
      <trkpt lat="46.39201" lon="4.79913">
        <ele>263.6</ele>
        <time>2019-08-25T08:41:03Z</time>
      </trkpt>
      <trkpt lat="46.39205" lon="4.79917">
        <ele>264</ele>
        <time>2019-08-25T08:41:05Z</time>
      </trkpt>
      <trkpt lat="46.39211" lon="4.79927">
        <ele>264.6</ele>
        <time>2019-08-25T08:41:09Z</time>
      </trkpt>
      <trkpt lat="46.39213" lon="4.7993">
        <ele>264.8</ele>
        <time>2019-08-25T08:41:10Z</time>
      </trkpt>
      <trkpt lat="46.39216" lon="4.79933">
        <ele>265</ele>
        <time>2019-08-25T08:41:11Z</time>
      </trkpt>
      <trkpt lat="46.39219" lon="4.79937">
        <ele>265.3</ele>
        <time>2019-08-25T08:41:13Z</time>
      </trkpt>
      <trkpt lat="46.39223" lon="4.79942">
        <ele>265.5</ele>
        <time>2019-08-25T08:41:15Z</time>
      </trkpt>
      <trkpt lat="46.39226" lon="4.79946">
        <ele>265.7</ele>
        <time>2019-08-25T08:41:17Z</time>
      </trkpt>
      <trkpt lat="46.3923" lon="4.7995">
        <ele>266</ele>
        <time>2019-08-25T08:41:19Z</time>
      </trkpt>
      <trkpt lat="46.3924" lon="4.79961">
        <ele>266.4</ele>
        <time>2019-08-25T08:41:23Z</time>
      </trkpt>
      <trkpt lat="46.39252" lon="4.79977">
        <ele>267</ele>
        <time>2019-08-25T08:41:29Z</time>
      </trkpt>
      <trkpt lat="46.39256" lon="4.79997">
        <ele>267.6</ele>
        <time>2019-08-25T08:41:34Z</time>
      </trkpt>
      <trkpt lat="46.39255" lon="4.80002">
        <ele>267.8</ele>
        <time>2019-08-25T08:41:35Z</time>
      </trkpt>
      <trkpt lat="46.39253" lon="4.80015">
        <ele>268</ele>
        <time>2019-08-25T08:41:38Z</time>
      </trkpt>
      <trkpt lat="46.39252" lon="4.80024">
        <ele>268</ele>
        <time>2019-08-25T08:41:40Z</time>
      </trkpt>
      <trkpt lat="46.39251" lon="4.80033">
        <ele>267.8</ele>
        <time>2019-08-25T08:41:42Z</time>
      </trkpt>
      <trkpt lat="46.39251" lon="4.80038">
        <ele>267.7</ele>
        <time>2019-08-25T08:41:43Z</time>
      </trkpt>
      <trkpt lat="46.3925" lon="4.80043">
        <ele>267.5</ele>
        <time>2019-08-25T08:41:44Z</time>
      </trkpt>
      <trkpt lat="46.3925" lon="4.80052">
        <ele>267.3</ele>
        <time>2019-08-25T08:41:46Z</time>
      </trkpt>
      <trkpt lat="46.39245" lon="4.80064">
        <ele>266.8</ele>
        <time>2019-08-25T08:41:49Z</time>
      </trkpt>
      <trkpt lat="46.3924" lon="4.80066">
        <ele>266.8</ele>
        <time>2019-08-25T08:41:51Z</time>
      </trkpt>
      <trkpt lat="46.39237" lon="4.80065">
        <ele>266.9</ele>
        <time>2019-08-25T08:41:52Z</time>
      </trkpt>
      <trkpt lat="46.39236" lon="4.80063">
        <ele>267</ele>
        <time>2019-08-25T08:41:53Z</time>
      </trkpt>
      <trkpt lat="46.39235" lon="4.8006">
        <ele>267.1</ele>
        <time>2019-08-25T08:41:54Z</time>
      </trkpt>
      <trkpt lat="46.39229" lon="4.80046">
        <ele>267.3</ele>
        <time>2019-08-25T08:41:57Z</time>
      </trkpt>
      <trkpt lat="46.39227" lon="4.80042">
        <ele>267.4</ele>
        <time>2019-08-25T08:41:58Z</time>
      </trkpt>
      <trkpt lat="46.39216" lon="4.80019">
        <ele>267.9</ele>
        <time>2019-08-25T08:42:03Z</time>
      </trkpt>
      <trkpt lat="46.39214" lon="4.80015">
        <ele>267.9</ele>
        <time>2019-08-25T08:42:04Z</time>
      </trkpt>
      <trkpt lat="46.39196" lon="4.79988">
        <ele>269.1</ele>
        <time>2019-08-25T08:42:11Z</time>
      </trkpt>
      <trkpt lat="46.39176" lon="4.79972">
        <ele>270</ele>
        <time>2019-08-25T08:42:17Z</time>
      </trkpt>
      <trkpt lat="46.39156" lon="4.79963">
        <ele>270.5</ele>
        <time>2019-08-25T08:42:23Z</time>
      </trkpt>
      <trkpt lat="46.3915" lon="4.79961">
        <ele>270.6</ele>
        <time>2019-08-25T08:42:25Z</time>
      </trkpt>
      <trkpt lat="46.39129" lon="4.79954">
        <ele>271.6</ele>
        <time>2019-08-25T08:42:31Z</time>
      </trkpt>
      <trkpt lat="46.39113" lon="4.79954">
        <ele>272.3</ele>
        <time>2019-08-25T08:42:36Z</time>
      </trkpt>
      <trkpt lat="46.39106" lon="4.79954">
        <ele>272.4</ele>
        <time>2019-08-25T08:42:38Z</time>
      </trkpt>
      <trkpt lat="46.39096" lon="4.79951">
        <ele>272.6</ele>
        <time>2019-08-25T08:42:41Z</time>
      </trkpt>
      <trkpt lat="46.39083" lon="4.79942">
        <ele>272.7</ele>
        <time>2019-08-25T08:42:45Z</time>
      </trkpt>
      <trkpt lat="46.39067" lon="4.7992">
        <ele>273</ele>
        <time>2019-08-25T08:42:51Z</time>
      </trkpt>
      <trkpt lat="46.3905" lon="4.79907">
        <ele>273.2</ele>
        <time>2019-08-25T08:42:56Z</time>
      </trkpt>
      <trkpt lat="46.39026" lon="4.79899">
        <ele>274.3</ele>
        <time>2019-08-25T08:43:02Z</time>
      </trkpt>
      <trkpt lat="46.39" lon="4.7989">
        <ele>275.7</ele>
        <time>2019-08-25T08:43:09Z</time>
      </trkpt>
      <trkpt lat="46.38975" lon="4.79882">
        <ele>277.5</ele>
        <time>2019-08-25T08:43:16Z</time>
      </trkpt>
      <trkpt lat="46.38951" lon="4.79874">
        <ele>278.5</ele>
        <time>2019-08-25T08:43:23Z</time>
      </trkpt>
      <trkpt lat="46.38942" lon="4.79871">
        <ele>279</ele>
        <time>2019-08-25T08:43:26Z</time>
      </trkpt>
      <trkpt lat="46.38931" lon="4.79867">
        <ele>279.7</ele>
        <time>2019-08-25T08:43:30Z</time>
      </trkpt>
      <trkpt lat="46.38916" lon="4.79861">
        <ele>280.1</ele>
        <time>2019-08-25T08:43:35Z</time>
      </trkpt>
      <trkpt lat="46.38909" lon="4.7986">
        <ele>280.3</ele>
        <time>2019-08-25T08:43:37Z</time>
      </trkpt>
      <trkpt lat="46.38903" lon="4.79859">
        <ele>280.6</ele>
        <time>2019-08-25T08:43:39Z</time>
      </trkpt>
      <trkpt lat="46.389" lon="4.79858">
        <ele>280.7</ele>
        <time>2019-08-25T08:43:40Z</time>
      </trkpt>
      <trkpt lat="46.3889" lon="4.79858">
        <ele>281.3</ele>
        <time>2019-08-25T08:43:43Z</time>
      </trkpt>
      <trkpt lat="46.38883" lon="4.79857">
        <ele>281.8</ele>
        <time>2019-08-25T08:43:45Z</time>
      </trkpt>
      <trkpt lat="46.38873" lon="4.79856">
        <ele>282.5</ele>
        <time>2019-08-25T08:43:48Z</time>
      </trkpt>
      <trkpt lat="46.3886" lon="4.79855">
        <ele>283.5</ele>
        <time>2019-08-25T08:43:52Z</time>
      </trkpt>
      <trkpt lat="46.38854" lon="4.79853">
        <ele>284</ele>
        <time>2019-08-25T08:43:54Z</time>
      </trkpt>
      <trkpt lat="46.38841" lon="4.7985">
        <ele>284.8</ele>
        <time>2019-08-25T08:43:58Z</time>
      </trkpt>
      <trkpt lat="46.3883" lon="4.79846">
        <ele>285.4</ele>
        <time>2019-08-25T08:44:02Z</time>
      </trkpt>
      <trkpt lat="46.38816" lon="4.79841">
        <ele>285.9</ele>
        <time>2019-08-25T08:44:07Z</time>
      </trkpt>
      <trkpt lat="46.38804" lon="4.79837">
        <ele>286.6</ele>
        <time>2019-08-25T08:44:11Z</time>
      </trkpt>
      <trkpt lat="46.38802" lon="4.79837">
        <ele>286.8</ele>
        <time>2019-08-25T08:44:12Z</time>
      </trkpt>
      <trkpt lat="46.3879" lon="4.79834">
        <ele>287.6</ele>
        <time>2019-08-25T08:44:16Z</time>
      </trkpt>
      <trkpt lat="46.38784" lon="4.79832">
        <ele>287.8</ele>
        <time>2019-08-25T08:44:18Z</time>
      </trkpt>
      <trkpt lat="46.38767" lon="4.79828">
        <ele>288.4</ele>
        <time>2019-08-25T08:44:24Z</time>
      </trkpt>
      <trkpt lat="46.38758" lon="4.79829">
        <ele>289.1</ele>
        <time>2019-08-25T08:44:27Z</time>
      </trkpt>
      <trkpt lat="46.38752" lon="4.7983">
        <ele>289.5</ele>
        <time>2019-08-25T08:44:29Z</time>
      </trkpt>
      <trkpt lat="46.38737" lon="4.79834">
        <ele>290.1</ele>
        <time>2019-08-25T08:44:34Z</time>
      </trkpt>
      <trkpt lat="46.38731" lon="4.79835">
        <ele>290.2</ele>
        <time>2019-08-25T08:44:36Z</time>
      </trkpt>
      <trkpt lat="46.38706" lon="4.79839">
        <ele>291</ele>
        <time>2019-08-25T08:44:44Z</time>
      </trkpt>
      <trkpt lat="46.387" lon="4.7984">
        <ele>291.2</ele>
        <time>2019-08-25T08:44:46Z</time>
      </trkpt>
      <trkpt lat="46.38673" lon="4.79846">
        <ele>292.5</ele>
        <time>2019-08-25T08:44:54Z</time>
      </trkpt>
      <trkpt lat="46.38668" lon="4.79846">
        <ele>292.6</ele>
        <time>2019-08-25T08:45:03Z</time>
      </trkpt>
      <trkpt lat="46.38671" lon="4.79847">
        <ele>292.7</ele>
        <time>2019-08-25T08:45:05Z</time>
      </trkpt>
      <trkpt lat="46.38675" lon="4.79838">
        <ele>292.4</ele>
        <time>2019-08-25T08:45:09Z</time>
      </trkpt>
      <trkpt lat="46.38675" lon="4.79837">
        <ele>292.4</ele>
        <time>2019-08-25T08:45:10Z</time>
      </trkpt>
      <trkpt lat="46.38678" lon="4.79832">
        <ele>292</ele>
        <time>2019-08-25T08:45:14Z</time>
      </trkpt>
      <trkpt lat="46.38679" lon="4.79829">
        <ele>292</ele>
        <time>2019-08-25T08:45:15Z</time>
      </trkpt>
      <trkpt lat="46.38681" lon="4.79819">
        <ele>290.9</ele>
        <time>2019-08-25T08:45:21Z</time>
      </trkpt>
      <trkpt lat="46.38678" lon="4.79806">
        <ele>289.4</ele>
        <time>2019-08-25T08:45:25Z</time>
      </trkpt>
      <trkpt lat="46.38678" lon="4.79802">
        <ele>288.7</ele>
        <time>2019-08-25T08:45:27Z</time>
      </trkpt>
      <trkpt lat="46.3868" lon="4.79785">
        <ele>285.6</ele>
        <time>2019-08-25T08:45:34Z</time>
      </trkpt>
      <trkpt lat="46.38687" lon="4.79777">
        <ele>284.4</ele>
        <time>2019-08-25T08:45:38Z</time>
      </trkpt>
      <trkpt lat="46.38688" lon="4.79776">
        <ele>283.3</ele>
        <time>2019-08-25T08:45:39Z</time>
      </trkpt>
      <trkpt lat="46.38702" lon="4.7976">
        <ele>279.7</ele>
        <time>2019-08-25T08:45:45Z</time>
      </trkpt>
      <trkpt lat="46.38704" lon="4.7975">
        <ele>276.8</ele>
        <time>2019-08-25T08:45:48Z</time>
      </trkpt>
      <trkpt lat="46.38702" lon="4.79742">
        <ele>276.1</ele>
        <time>2019-08-25T08:45:50Z</time>
      </trkpt>
      <trkpt lat="46.38704" lon="4.79728">
        <ele>271.9</ele>
        <time>2019-08-25T08:45:58Z</time>
      </trkpt>
      <trkpt lat="46.38707" lon="4.79728">
        <ele>271.8</ele>
        <time>2019-08-25T08:46:00Z</time>
      </trkpt>
      <trkpt lat="46.38711" lon="4.79728">
        <ele>271.7</ele>
        <time>2019-08-25T08:46:03Z</time>
      </trkpt>
      <trkpt lat="46.38718" lon="4.79729">
        <ele>271.5</ele>
        <time>2019-08-25T08:46:06Z</time>
      </trkpt>
      <trkpt lat="46.38737" lon="4.79736">
        <ele>272.8</ele>
        <time>2019-08-25T08:46:13Z</time>
      </trkpt>
      <trkpt lat="46.3875" lon="4.79736">
        <ele>271.6</ele>
        <time>2019-08-25T08:46:20Z</time>
      </trkpt>
      <trkpt lat="46.38759" lon="4.79733">
        <ele>269.7</ele>
        <time>2019-08-25T08:46:28Z</time>
      </trkpt>
      <trkpt lat="46.38764" lon="4.79732">
        <ele>269.4</ele>
        <time>2019-08-25T08:46:30Z</time>
      </trkpt>
      <trkpt lat="46.38769" lon="4.79733">
        <ele>268.7</ele>
        <time>2019-08-25T08:46:32Z</time>
      </trkpt>
      <trkpt lat="46.38775" lon="4.79735">
        <ele>268.7</ele>
        <time>2019-08-25T08:46:35Z</time>
      </trkpt>
      <trkpt lat="46.38811" lon="4.79749">
        <ele>266.4</ele>
        <time>2019-08-25T08:46:59Z</time>
      </trkpt>
      <trkpt lat="46.38813" lon="4.79753">
        <ele>266.8</ele>
        <time>2019-08-25T08:47:01Z</time>
      </trkpt>
      <trkpt lat="46.38832" lon="4.79766">
        <ele>267.2</ele>
        <time>2019-08-25T08:47:13Z</time>
      </trkpt>
      <trkpt lat="46.38839" lon="4.79766">
        <ele>266.1</ele>
        <time>2019-08-25T08:47:17Z</time>
      </trkpt>
      <trkpt lat="46.38845" lon="4.79765">
        <ele>265.5</ele>
        <time>2019-08-25T08:47:19Z</time>
      </trkpt>
      <trkpt lat="46.38851" lon="4.79765">
        <ele>265.1</ele>
        <time>2019-08-25T08:47:22Z</time>
      </trkpt>
      <trkpt lat="46.38853" lon="4.79766">
        <ele>265.1</ele>
        <time>2019-08-25T08:47:23Z</time>
      </trkpt>
      <trkpt lat="46.38871" lon="4.7977">
        <ele>264.5</ele>
        <time>2019-08-25T08:47:33Z</time>
      </trkpt>
      <trkpt lat="46.38884" lon="4.79758">
        <ele>261.4</ele>
        <time>2019-08-25T08:47:39Z</time>
      </trkpt>
      <trkpt lat="46.38888" lon="4.79747">
        <ele>259.7</ele>
        <time>2019-08-25T08:47:42Z</time>
      </trkpt>
      <trkpt lat="46.38888" lon="4.79741">
        <ele>258.2</ele>
        <time>2019-08-25T08:47:44Z</time>
      </trkpt>
      <trkpt lat="46.38887" lon="4.79738">
        <ele>258.2</ele>
        <time>2019-08-25T08:47:45Z</time>
      </trkpt>
      <trkpt lat="46.38888" lon="4.79734">
        <ele>257.5</ele>
        <time>2019-08-25T08:47:47Z</time>
      </trkpt>
      <trkpt lat="46.38891" lon="4.7973">
        <ele>256.5</ele>
        <time>2019-08-25T08:47:49Z</time>
      </trkpt>
      <trkpt lat="46.38892" lon="4.79729">
        <ele>255.6</ele>
        <time>2019-08-25T08:47:50Z</time>
      </trkpt>
      <trkpt lat="46.38888" lon="4.79724">
        <ele>255.4</ele>
        <time>2019-08-25T08:47:53Z</time>
      </trkpt>
      <trkpt lat="46.38886" lon="4.79722">
        <ele>255.6</ele>
        <time>2019-08-25T08:47:54Z</time>
      </trkpt>
      <trkpt lat="46.38881" lon="4.79721">
        <ele>255.8</ele>
        <time>2019-08-25T08:47:56Z</time>
      </trkpt>
      <trkpt lat="46.38872" lon="4.79716">
        <ele>255.1</ele>
        <time>2019-08-25T08:47:59Z</time>
      </trkpt>
      <trkpt lat="46.3887" lon="4.79714">
        <ele>255.3</ele>
        <time>2019-08-25T08:48:00Z</time>
      </trkpt>
      <trkpt lat="46.38862" lon="4.79703">
        <ele>254.2</ele>
        <time>2019-08-25T08:48:03Z</time>
      </trkpt>
      <trkpt lat="46.38854" lon="4.79698">
        <ele>254</ele>
        <time>2019-08-25T08:48:05Z</time>
      </trkpt>
      <trkpt lat="46.38847" lon="4.79695">
        <ele>254.6</ele>
        <time>2019-08-25T08:48:07Z</time>
      </trkpt>
      <trkpt lat="46.38835" lon="4.79689">
        <ele>254.1</ele>
        <time>2019-08-25T08:48:11Z</time>
      </trkpt>
      <trkpt lat="46.38829" lon="4.79687">
        <ele>254.6</ele>
        <time>2019-08-25T08:48:13Z</time>
      </trkpt>
      <trkpt lat="46.38807" lon="4.79676">
        <ele>254.7</ele>
        <time>2019-08-25T08:48:20Z</time>
      </trkpt>
      <trkpt lat="46.38792" lon="4.79668">
        <ele>254.8</ele>
        <time>2019-08-25T08:48:25Z</time>
      </trkpt>
      <trkpt lat="46.38781" lon="4.79663">
        <ele>255.3</ele>
        <time>2019-08-25T08:48:30Z</time>
      </trkpt>
      <trkpt lat="46.38779" lon="4.79663">
        <ele>255.5</ele>
        <time>2019-08-25T08:48:31Z</time>
      </trkpt>
      <trkpt lat="46.38767" lon="4.79659">
        <ele>255.7</ele>
        <time>2019-08-25T08:48:35Z</time>
      </trkpt>
      <trkpt lat="46.38749" lon="4.79654">
        <ele>255.2</ele>
        <time>2019-08-25T08:48:41Z</time>
      </trkpt>
      <trkpt lat="46.38727" lon="4.79642">
        <ele>252.6</ele>
        <time>2019-08-25T08:48:48Z</time>
      </trkpt>
      <trkpt lat="46.38724" lon="4.79641">
        <ele>252.6</ele>
        <time>2019-08-25T08:48:49Z</time>
      </trkpt>
      <trkpt lat="46.38713" lon="4.79636">
        <ele>251.8</ele>
        <time>2019-08-25T08:48:53Z</time>
      </trkpt>
      <trkpt lat="46.38695" lon="4.79629">
        <ele>249.8</ele>
        <time>2019-08-25T08:49:00Z</time>
      </trkpt>
      <trkpt lat="46.38673" lon="4.79619">
        <ele>247.6</ele>
        <time>2019-08-25T08:49:06Z</time>
      </trkpt>
      <trkpt lat="46.38669" lon="4.79618">
        <ele>246.9</ele>
        <time>2019-08-25T08:49:07Z</time>
      </trkpt>
      <trkpt lat="46.38651" lon="4.79613">
        <ele>246.4</ele>
        <time>2019-08-25T08:49:12Z</time>
      </trkpt>
      <trkpt lat="46.38636" lon="4.79609">
        <ele>246.9</ele>
        <time>2019-08-25T08:49:17Z</time>
      </trkpt>
      <trkpt lat="46.3863" lon="4.79609">
        <ele>246.4</ele>
        <time>2019-08-25T08:49:19Z</time>
      </trkpt>
      <trkpt lat="46.38627" lon="4.79608">
        <ele>246.5</ele>
        <time>2019-08-25T08:49:20Z</time>
      </trkpt>
      <trkpt lat="46.38607" lon="4.79602">
        <ele>247.2</ele>
        <time>2019-08-25T08:49:24Z</time>
      </trkpt>
      <trkpt lat="46.38591" lon="4.79597">
        <ele>247.8</ele>
        <time>2019-08-25T08:49:27Z</time>
      </trkpt>
      <trkpt lat="46.38572" lon="4.79591">
        <ele>247.7</ele>
        <time>2019-08-25T08:49:31Z</time>
      </trkpt>
      <trkpt lat="46.38568" lon="4.79589">
        <ele>248.1</ele>
        <time>2019-08-25T08:49:32Z</time>
      </trkpt>
      <trkpt lat="46.38545" lon="4.79582">
        <ele>247.9</ele>
        <time>2019-08-25T08:49:37Z</time>
      </trkpt>
      <trkpt lat="46.38532" lon="4.79577">
        <ele>247.9</ele>
        <time>2019-08-25T08:49:40Z</time>
      </trkpt>
      <trkpt lat="46.38524" lon="4.79574">
        <ele>247.8</ele>
        <time>2019-08-25T08:49:42Z</time>
      </trkpt>
      <trkpt lat="46.38517" lon="4.79571">
        <ele>248.2</ele>
        <time>2019-08-25T08:49:44Z</time>
      </trkpt>
      <trkpt lat="46.38505" lon="4.79568">
        <ele>248</ele>
        <time>2019-08-25T08:49:48Z</time>
      </trkpt>
      <trkpt lat="46.38485" lon="4.7956">
        <ele>247.3</ele>
        <time>2019-08-25T08:49:53Z</time>
      </trkpt>
      <trkpt lat="46.38481" lon="4.79559">
        <ele>247.6</ele>
        <time>2019-08-25T08:49:54Z</time>
      </trkpt>
      <trkpt lat="46.3846" lon="4.79553">
        <ele>247</ele>
        <time>2019-08-25T08:50:00Z</time>
      </trkpt>
      <trkpt lat="46.38454" lon="4.79549">
        <ele>247.5</ele>
        <time>2019-08-25T08:50:02Z</time>
      </trkpt>
      <trkpt lat="46.38451" lon="4.79544">
        <ele>246.1</ele>
        <time>2019-08-25T08:50:04Z</time>
      </trkpt>
      <trkpt lat="46.3845" lon="4.79542">
        <ele>246.1</ele>
        <time>2019-08-25T08:50:05Z</time>
      </trkpt>
      <trkpt lat="46.38466" lon="4.79523">
        <ele>240.9</ele>
        <time>2019-08-25T08:50:22Z</time>
      </trkpt>
      <trkpt lat="46.38466" lon="4.7952">
        <ele>240.1</ele>
        <time>2019-08-25T08:50:23Z</time>
      </trkpt>
      <trkpt lat="46.3847" lon="4.79504">
        <ele>236.8</ele>
        <time>2019-08-25T08:50:27Z</time>
      </trkpt>
      <trkpt lat="46.38465" lon="4.7949">
        <ele>235.2</ele>
        <time>2019-08-25T08:50:34Z</time>
      </trkpt>
      <trkpt lat="46.38464" lon="4.79486">
        <ele>234.7</ele>
        <time>2019-08-25T08:50:35Z</time>
      </trkpt>
      <trkpt lat="46.38463" lon="4.79482">
        <ele>234.1</ele>
        <time>2019-08-25T08:50:36Z</time>
      </trkpt>
      <trkpt lat="46.38462" lon="4.79479">
        <ele>234.3</ele>
        <time>2019-08-25T08:50:37Z</time>
      </trkpt>
      <trkpt lat="46.38461" lon="4.79478">
        <ele>234.3</ele>
        <time>2019-08-25T08:50:38Z</time>
      </trkpt>
      <trkpt lat="46.38459" lon="4.79477">
        <ele>234.4</ele>
        <time>2019-08-25T08:50:39Z</time>
      </trkpt>
      <trkpt lat="46.38452" lon="4.79478">
        <ele>234.8</ele>
        <time>2019-08-25T08:50:41Z</time>
      </trkpt>
      <trkpt lat="46.38446" lon="4.79478">
        <ele>234.9</ele>
        <time>2019-08-25T08:50:42Z</time>
      </trkpt>
      <trkpt lat="46.38435" lon="4.79477">
        <ele>235.2</ele>
        <time>2019-08-25T08:50:44Z</time>
      </trkpt>
      <trkpt lat="46.38426" lon="4.79477">
        <ele>235.4</ele>
        <time>2019-08-25T08:50:46Z</time>
      </trkpt>
      <trkpt lat="46.38421" lon="4.79477">
        <ele>235.4</ele>
        <time>2019-08-25T08:50:47Z</time>
      </trkpt>
      <trkpt lat="46.38415" lon="4.79477">
        <ele>235.5</ele>
        <time>2019-08-25T08:50:48Z</time>
      </trkpt>
      <trkpt lat="46.3841" lon="4.79477">
        <ele>235.6</ele>
        <time>2019-08-25T08:50:49Z</time>
      </trkpt>
      <trkpt lat="46.384" lon="4.79479">
        <ele>235.8</ele>
        <time>2019-08-25T08:50:51Z</time>
      </trkpt>
      <trkpt lat="46.38387" lon="4.7948">
        <ele>235.9</ele>
        <time>2019-08-25T08:50:54Z</time>
      </trkpt>
      <trkpt lat="46.3837" lon="4.79481">
        <ele>236.1</ele>
        <time>2019-08-25T08:50:58Z</time>
      </trkpt>
      <trkpt lat="46.38357" lon="4.79481">
        <ele>236.2</ele>
        <time>2019-08-25T08:51:01Z</time>
      </trkpt>
      <trkpt lat="46.38326" lon="4.79487">
        <ele>236.5</ele>
        <time>2019-08-25T08:51:08Z</time>
      </trkpt>
      <trkpt lat="46.38294" lon="4.79497">
        <ele>236.9</ele>
        <time>2019-08-25T08:51:15Z</time>
      </trkpt>
      <trkpt lat="46.38289" lon="4.79499">
        <ele>236.9</ele>
        <time>2019-08-25T08:51:16Z</time>
      </trkpt>
      <trkpt lat="46.38262" lon="4.7951">
        <ele>237.2</ele>
        <time>2019-08-25T08:51:22Z</time>
      </trkpt>
      <trkpt lat="46.38229" lon="4.79521">
        <ele>237.4</ele>
        <time>2019-08-25T08:51:29Z</time>
      </trkpt>
      <trkpt lat="46.38219" lon="4.79525">
        <ele>237.4</ele>
        <time>2019-08-25T08:51:31Z</time>
      </trkpt>
      <trkpt lat="46.3819" lon="4.79541">
        <ele>237.2</ele>
        <time>2019-08-25T08:51:37Z</time>
      </trkpt>
      <trkpt lat="46.3818" lon="4.79548">
        <ele>237.1</ele>
        <time>2019-08-25T08:51:39Z</time>
      </trkpt>
      <trkpt lat="46.3817" lon="4.79555">
        <ele>237</ele>
        <time>2019-08-25T08:51:41Z</time>
      </trkpt>
      <trkpt lat="46.38156" lon="4.79566">
        <ele>236.9</ele>
        <time>2019-08-25T08:51:44Z</time>
      </trkpt>
      <trkpt lat="46.38132" lon="4.79586">
        <ele>236.7</ele>
        <time>2019-08-25T08:51:49Z</time>
      </trkpt>
      <trkpt lat="46.38118" lon="4.79597">
        <ele>236.7</ele>
        <time>2019-08-25T08:51:52Z</time>
      </trkpt>
      <trkpt lat="46.38113" lon="4.796">
        <ele>236.7</ele>
        <time>2019-08-25T08:51:53Z</time>
      </trkpt>
      <trkpt lat="46.38105" lon="4.79608">
        <ele>236.8</ele>
        <time>2019-08-25T08:51:55Z</time>
      </trkpt>
      <trkpt lat="46.38102" lon="4.79613">
        <ele>236.8</ele>
        <time>2019-08-25T08:51:56Z</time>
      </trkpt>
      <trkpt lat="46.38096" lon="4.79624">
        <ele>236.8</ele>
        <time>2019-08-25T08:51:58Z</time>
      </trkpt>
      <trkpt lat="46.38089" lon="4.79653">
        <ele>237.7</ele>
        <time>2019-08-25T08:52:03Z</time>
      </trkpt>
      <trkpt lat="46.38088" lon="4.79678">
        <ele>238.7</ele>
        <time>2019-08-25T08:52:08Z</time>
      </trkpt>
      <trkpt lat="46.38088" lon="4.79687">
        <ele>239.2</ele>
        <time>2019-08-25T08:52:10Z</time>
      </trkpt>
      <trkpt lat="46.38088" lon="4.79701">
        <ele>239.7</ele>
        <time>2019-08-25T08:52:13Z</time>
      </trkpt>
      <trkpt lat="46.38089" lon="4.79715">
        <ele>240.2</ele>
        <time>2019-08-25T08:52:16Z</time>
      </trkpt>
      <trkpt lat="46.3809" lon="4.7972">
        <ele>240.4</ele>
        <time>2019-08-25T08:52:17Z</time>
      </trkpt>
      <trkpt lat="46.38093" lon="4.79754">
        <ele>241.1</ele>
        <time>2019-08-25T08:52:24Z</time>
      </trkpt>
      <trkpt lat="46.38096" lon="4.79777">
        <ele>241.5</ele>
        <time>2019-08-25T08:52:29Z</time>
      </trkpt>
      <trkpt lat="46.38098" lon="4.79785">
        <ele>241.6</ele>
        <time>2019-08-25T08:52:31Z</time>
      </trkpt>
      <trkpt lat="46.381" lon="4.79809">
        <ele>241.9</ele>
        <time>2019-08-25T08:52:38Z</time>
      </trkpt>
      <trkpt lat="46.38101" lon="4.79838">
        <ele>242.1</ele>
        <time>2019-08-25T08:52:46Z</time>
      </trkpt>
      <trkpt lat="46.38099" lon="4.79855">
        <ele>242.1</ele>
        <time>2019-08-25T08:52:51Z</time>
      </trkpt>
      <trkpt lat="46.381" lon="4.79858">
        <ele>242.1</ele>
        <time>2019-08-25T08:52:52Z</time>
      </trkpt>
      <trkpt lat="46.381" lon="4.79875">
        <ele>241.9</ele>
        <time>2019-08-25T08:52:56Z</time>
      </trkpt>
      <trkpt lat="46.38101" lon="4.79886">
        <ele>241.9</ele>
        <time>2019-08-25T08:52:59Z</time>
      </trkpt>
      <trkpt lat="46.38102" lon="4.79899">
        <ele>242</ele>
        <time>2019-08-25T08:53:03Z</time>
      </trkpt>
      <trkpt lat="46.38104" lon="4.79923">
        <ele>242.8</ele>
        <time>2019-08-25T08:53:09Z</time>
      </trkpt>
      <trkpt lat="46.38104" lon="4.79927">
        <ele>243</ele>
        <time>2019-08-25T08:53:10Z</time>
      </trkpt>
      <trkpt lat="46.38104" lon="4.79945">
        <ele>243.4</ele>
        <time>2019-08-25T08:53:15Z</time>
      </trkpt>
      <trkpt lat="46.38104" lon="4.79951">
        <ele>243.6</ele>
        <time>2019-08-25T08:53:17Z</time>
      </trkpt>
      <trkpt lat="46.38104" lon="4.79958">
        <ele>243.8</ele>
        <time>2019-08-25T08:53:19Z</time>
      </trkpt>
      <trkpt lat="46.38105" lon="4.79976">
        <ele>244.3</ele>
        <time>2019-08-25T08:53:24Z</time>
      </trkpt>
      <trkpt lat="46.38106" lon="4.79982">
        <ele>244.5</ele>
        <time>2019-08-25T08:53:26Z</time>
      </trkpt>
      <trkpt lat="46.38108" lon="4.79993">
        <ele>244.7</ele>
        <time>2019-08-25T08:53:29Z</time>
      </trkpt>
      <trkpt lat="46.3811" lon="4.80004">
        <ele>245</ele>
        <time>2019-08-25T08:53:31Z</time>
      </trkpt>
      <trkpt lat="46.38109" lon="4.80017">
        <ele>245.2</ele>
        <time>2019-08-25T08:53:33Z</time>
      </trkpt>
      <trkpt lat="46.38108" lon="4.80025">
        <ele>245.3</ele>
        <time>2019-08-25T08:53:34Z</time>
      </trkpt>
      <trkpt lat="46.38103" lon="4.80064">
        <ele>245.7</ele>
        <time>2019-08-25T08:53:38Z</time>
      </trkpt>
      <trkpt lat="46.38094" lon="4.80136">
        <ele>245.5</ele>
        <time>2019-08-25T08:53:46Z</time>
      </trkpt>
      <trkpt lat="46.38092" lon="4.80152">
        <ele>245.4</ele>
        <time>2019-08-25T08:53:48Z</time>
      </trkpt>
      <trkpt lat="46.38089" lon="4.8018">
        <ele>245.5</ele>
        <time>2019-08-25T08:53:52Z</time>
      </trkpt>
      <trkpt lat="46.38088" lon="4.80186">
        <ele>245.5</ele>
        <time>2019-08-25T08:53:53Z</time>
      </trkpt>
      <trkpt lat="46.38085" lon="4.802">
        <ele>245.6</ele>
        <time>2019-08-25T08:53:56Z</time>
      </trkpt>
      <trkpt lat="46.38082" lon="4.80203">
        <ele>245.7</ele>
        <time>2019-08-25T08:53:57Z</time>
      </trkpt>
      <trkpt lat="46.38075" lon="4.80201">
        <ele>245.4</ele>
        <time>2019-08-25T08:53:59Z</time>
      </trkpt>
      <trkpt lat="46.3807" lon="4.802">
        <ele>245.3</ele>
        <time>2019-08-25T08:54:00Z</time>
      </trkpt>
      <trkpt lat="46.38061" lon="4.80199">
        <ele>245.1</ele>
        <time>2019-08-25T08:54:02Z</time>
      </trkpt>
      <trkpt lat="46.38056" lon="4.802">
        <ele>245</ele>
        <time>2019-08-25T08:54:03Z</time>
      </trkpt>
      <trkpt lat="46.38051" lon="4.80202">
        <ele>244.9</ele>
        <time>2019-08-25T08:54:04Z</time>
      </trkpt>
      <trkpt lat="46.38036" lon="4.80207">
        <ele>244.8</ele>
        <time>2019-08-25T08:54:07Z</time>
      </trkpt>
      <trkpt lat="46.38032" lon="4.80211">
        <ele>244.8</ele>
        <time>2019-08-25T08:54:08Z</time>
      </trkpt>
      <trkpt lat="46.38023" lon="4.80215">
        <ele>244.7</ele>
        <time>2019-08-25T08:54:10Z</time>
      </trkpt>
      <trkpt lat="46.38019" lon="4.80217">
        <ele>244.7</ele>
        <time>2019-08-25T08:54:11Z</time>
      </trkpt>
      <trkpt lat="46.3801" lon="4.80218">
        <ele>244.5</ele>
        <time>2019-08-25T08:54:13Z</time>
      </trkpt>
      <trkpt lat="46.38002" lon="4.80211">
        <ele>244.2</ele>
        <time>2019-08-25T08:54:15Z</time>
      </trkpt>
      <trkpt lat="46.3799" lon="4.80204">
        <ele>243.9</ele>
        <time>2019-08-25T08:54:18Z</time>
      </trkpt>
      <trkpt lat="46.37986" lon="4.80207">
        <ele>243.7</ele>
        <time>2019-08-25T08:54:19Z</time>
      </trkpt>
      <trkpt lat="46.37979" lon="4.80224">
        <ele>243.6</ele>
        <time>2019-08-25T08:54:22Z</time>
      </trkpt>
      <trkpt lat="46.37977" lon="4.80238">
        <ele>243.6</ele>
        <time>2019-08-25T08:54:24Z</time>
      </trkpt>
      <trkpt lat="46.37974" lon="4.80252">
        <ele>243.7</ele>
        <time>2019-08-25T08:54:26Z</time>
      </trkpt>
      <trkpt lat="46.37971" lon="4.80266">
        <ele>243.9</ele>
        <time>2019-08-25T08:54:28Z</time>
      </trkpt>
      <trkpt lat="46.37958" lon="4.80322">
        <ele>244.3</ele>
        <time>2019-08-25T08:54:36Z</time>
      </trkpt>
      <trkpt lat="46.37947" lon="4.80371">
        <ele>245</ele>
        <time>2019-08-25T08:54:43Z</time>
      </trkpt>
      <trkpt lat="46.37935" lon="4.80421">
        <ele>245.1</ele>
        <time>2019-08-25T08:54:51Z</time>
      </trkpt>
      <trkpt lat="46.37926" lon="4.80461">
        <ele>245.3</ele>
        <time>2019-08-25T08:54:58Z</time>
      </trkpt>
      <trkpt lat="46.37924" lon="4.80471">
        <ele>245.5</ele>
        <time>2019-08-25T08:55:00Z</time>
      </trkpt>
      <trkpt lat="46.37919" lon="4.80494">
        <ele>246.4</ele>
        <time>2019-08-25T08:55:05Z</time>
      </trkpt>
      <trkpt lat="46.37915" lon="4.80507">
        <ele>247</ele>
        <time>2019-08-25T08:55:08Z</time>
      </trkpt>
      <trkpt lat="46.37913" lon="4.80518">
        <ele>247.6</ele>
        <time>2019-08-25T08:55:11Z</time>
      </trkpt>
      <trkpt lat="46.37909" lon="4.80535">
        <ele>248.6</ele>
        <time>2019-08-25T08:55:15Z</time>
      </trkpt>
      <trkpt lat="46.37908" lon="4.80538">
        <ele>248.9</ele>
        <time>2019-08-25T08:55:16Z</time>
      </trkpt>
      <trkpt lat="46.37904" lon="4.80552">
        <ele>249.9</ele>
        <time>2019-08-25T08:55:20Z</time>
      </trkpt>
      <trkpt lat="46.37904" lon="4.80558">
        <ele>250.3</ele>
        <time>2019-08-25T08:55:22Z</time>
      </trkpt>
      <trkpt lat="46.37901" lon="4.80571">
        <ele>251.3</ele>
        <time>2019-08-25T08:55:26Z</time>
      </trkpt>
      <trkpt lat="46.37899" lon="4.8058">
        <ele>252</ele>
        <time>2019-08-25T08:55:29Z</time>
      </trkpt>
      <trkpt lat="46.37898" lon="4.80584">
        <ele>252.3</ele>
        <time>2019-08-25T08:55:30Z</time>
      </trkpt>
      <trkpt lat="46.37894" lon="4.80599">
        <ele>253.3</ele>
        <time>2019-08-25T08:55:35Z</time>
      </trkpt>
      <trkpt lat="46.37892" lon="4.8061">
        <ele>253.9</ele>
        <time>2019-08-25T08:55:38Z</time>
      </trkpt>
      <trkpt lat="46.37892" lon="4.80613">
        <ele>254.1</ele>
        <time>2019-08-25T08:55:39Z</time>
      </trkpt>
      <trkpt lat="46.37887" lon="4.80634">
        <ele>255.4</ele>
        <time>2019-08-25T08:55:46Z</time>
      </trkpt>
      <trkpt lat="46.37886" lon="4.80637">
        <ele>255.6</ele>
        <time>2019-08-25T08:55:47Z</time>
      </trkpt>
      <trkpt lat="46.37885" lon="4.80642">
        <ele>255.9</ele>
        <time>2019-08-25T08:55:49Z</time>
      </trkpt>
      <trkpt lat="46.37883" lon="4.80655">
        <ele>256.7</ele>
        <time>2019-08-25T08:55:55Z</time>
      </trkpt>
      <trkpt lat="46.37884" lon="4.80663">
        <ele>256.8</ele>
        <time>2019-08-25T08:55:57Z</time>
      </trkpt>
      <trkpt lat="46.37884" lon="4.80675">
        <ele>256.9</ele>
        <time>2019-08-25T08:56:00Z</time>
      </trkpt>
      <trkpt lat="46.3788" lon="4.8071">
        <ele>257.2</ele>
        <time>2019-08-25T08:56:08Z</time>
      </trkpt>
      <trkpt lat="46.37878" lon="4.8074">
        <ele>257.3</ele>
        <time>2019-08-25T08:56:14Z</time>
      </trkpt>
      <trkpt lat="46.37878" lon="4.80752">
        <ele>257.2</ele>
        <time>2019-08-25T08:56:16Z</time>
      </trkpt>
      <trkpt lat="46.37875" lon="4.8079">
        <ele>256.8</ele>
        <time>2019-08-25T08:56:22Z</time>
      </trkpt>
      <trkpt lat="46.3787" lon="4.80841">
        <ele>255.7</ele>
        <time>2019-08-25T08:56:29Z</time>
      </trkpt>
      <trkpt lat="46.37867" lon="4.80896">
        <ele>253.7</ele>
        <time>2019-08-25T08:56:35Z</time>
      </trkpt>
      <trkpt lat="46.37863" lon="4.80939">
        <ele>251.7</ele>
        <time>2019-08-25T08:56:39Z</time>
      </trkpt>
      <trkpt lat="46.37859" lon="4.80961">
        <ele>251</ele>
        <time>2019-08-25T08:56:41Z</time>
      </trkpt>
      <trkpt lat="46.37857" lon="4.80972">
        <ele>250.6</ele>
        <time>2019-08-25T08:56:42Z</time>
      </trkpt>
      <trkpt lat="46.37851" lon="4.81006">
        <ele>249.7</ele>
        <time>2019-08-25T08:56:45Z</time>
      </trkpt>
      <trkpt lat="46.37845" lon="4.81038">
        <ele>249.1</ele>
        <time>2019-08-25T08:56:48Z</time>
      </trkpt>
      <trkpt lat="46.37838" lon="4.81068">
        <ele>248.8</ele>
        <time>2019-08-25T08:56:51Z</time>
      </trkpt>
      <trkpt lat="46.3783" lon="4.8111">
        <ele>247.9</ele>
        <time>2019-08-25T08:56:55Z</time>
      </trkpt>
      <trkpt lat="46.37828" lon="4.81121">
        <ele>247.7</ele>
        <time>2019-08-25T08:56:56Z</time>
      </trkpt>
      <trkpt lat="46.37825" lon="4.81144">
        <ele>247.3</ele>
        <time>2019-08-25T08:56:58Z</time>
      </trkpt>
      <trkpt lat="46.37821" lon="4.81177">
        <ele>246.4</ele>
        <time>2019-08-25T08:57:01Z</time>
      </trkpt>
      <trkpt lat="46.37816" lon="4.81211">
        <ele>245.3</ele>
        <time>2019-08-25T08:57:04Z</time>
      </trkpt>
      <trkpt lat="46.37811" lon="4.81245">
        <ele>244.4</ele>
        <time>2019-08-25T08:57:07Z</time>
      </trkpt>
      <trkpt lat="46.37807" lon="4.81278">
        <ele>243.2</ele>
        <time>2019-08-25T08:57:10Z</time>
      </trkpt>
      <trkpt lat="46.37806" lon="4.81289">
        <ele>242.9</ele>
        <time>2019-08-25T08:57:11Z</time>
      </trkpt>
      <trkpt lat="46.37802" lon="4.81321">
        <ele>242.3</ele>
        <time>2019-08-25T08:57:14Z</time>
      </trkpt>
      <trkpt lat="46.37798" lon="4.81365">
        <ele>241.6</ele>
        <time>2019-08-25T08:57:18Z</time>
      </trkpt>
      <trkpt lat="46.37792" lon="4.81398">
        <ele>240.6</ele>
        <time>2019-08-25T08:57:21Z</time>
      </trkpt>
      <trkpt lat="46.37786" lon="4.81442">
        <ele>239.5</ele>
        <time>2019-08-25T08:57:25Z</time>
      </trkpt>
      <trkpt lat="46.37781" lon="4.81483">
        <ele>238.4</ele>
        <time>2019-08-25T08:57:29Z</time>
      </trkpt>
      <trkpt lat="46.37777" lon="4.81513">
        <ele>237.8</ele>
        <time>2019-08-25T08:57:32Z</time>
      </trkpt>
      <trkpt lat="46.37775" lon="4.81534">
        <ele>237.5</ele>
        <time>2019-08-25T08:57:34Z</time>
      </trkpt>
      <trkpt lat="46.37769" lon="4.81573">
        <ele>236.9</ele>
        <time>2019-08-25T08:57:38Z</time>
      </trkpt>
      <trkpt lat="46.37765" lon="4.81611">
        <ele>236.6</ele>
        <time>2019-08-25T08:57:42Z</time>
      </trkpt>
      <trkpt lat="46.37762" lon="4.8164">
        <ele>236.5</ele>
        <time>2019-08-25T08:57:45Z</time>
      </trkpt>
      <trkpt lat="46.37756" lon="4.81697">
        <ele>236</ele>
        <time>2019-08-25T08:57:52Z</time>
      </trkpt>
      <trkpt lat="46.37763" lon="4.81703">
        <ele>236</ele>
        <time>2019-08-25T08:57:54Z</time>
      </trkpt>
      <trkpt lat="46.37778" lon="4.81706">
        <ele>235.6</ele>
        <time>2019-08-25T08:57:57Z</time>
      </trkpt>
      <trkpt lat="46.37789" lon="4.81707">
        <ele>235.4</ele>
        <time>2019-08-25T08:57:59Z</time>
      </trkpt>
      <trkpt lat="46.37833" lon="4.81716">
        <ele>234.2</ele>
        <time>2019-08-25T08:58:06Z</time>
      </trkpt>
      <trkpt lat="46.37881" lon="4.81732">
        <ele>233.5</ele>
        <time>2019-08-25T08:58:13Z</time>
      </trkpt>
      <trkpt lat="46.37888" lon="4.81737">
        <ele>233.3</ele>
        <time>2019-08-25T08:58:14Z</time>
      </trkpt>
      <trkpt lat="46.37912" lon="4.81758">
        <ele>232.6</ele>
        <time>2019-08-25T08:58:18Z</time>
      </trkpt>
      <trkpt lat="46.37963" lon="4.818">
        <ele>232.4</ele>
        <time>2019-08-25T08:58:26Z</time>
      </trkpt>
      <trkpt lat="46.37976" lon="4.8181">
        <ele>232.6</ele>
        <time>2019-08-25T08:58:28Z</time>
      </trkpt>
      <trkpt lat="46.38025" lon="4.81848">
        <ele>234.3</ele>
        <time>2019-08-25T08:58:36Z</time>
      </trkpt>
      <trkpt lat="46.38047" lon="4.81867">
        <ele>236.2</ele>
        <time>2019-08-25T08:58:41Z</time>
      </trkpt>
      <trkpt lat="46.38047" lon="4.81872">
        <ele>236.5</ele>
        <time>2019-08-25T08:58:42Z</time>
      </trkpt>
      <trkpt lat="46.38046" lon="4.81879">
        <ele>237.2</ele>
        <time>2019-08-25T08:58:44Z</time>
      </trkpt>
      <trkpt lat="46.38042" lon="4.81894">
        <ele>239.6</ele>
        <time>2019-08-25T08:58:49Z</time>
      </trkpt>
      <trkpt lat="46.38036" lon="4.81917">
        <ele>240.6</ele>
        <time>2019-08-25T08:58:57Z</time>
      </trkpt>
      <trkpt lat="46.38033" lon="4.81925">
        <ele>240.8</ele>
        <time>2019-08-25T08:59:00Z</time>
      </trkpt>
      <trkpt lat="46.38026" lon="4.81939">
        <ele>241.1</ele>
        <time>2019-08-25T08:59:06Z</time>
      </trkpt>
      <trkpt lat="46.38024" lon="4.81944">
        <ele>241.2</ele>
        <time>2019-08-25T08:59:08Z</time>
      </trkpt>
      <trkpt lat="46.38021" lon="4.81955">
        <ele>241.3</ele>
        <time>2019-08-25T08:59:13Z</time>
      </trkpt>
      <trkpt lat="46.3802" lon="4.81956">
        <ele>241.3</ele>
        <time>2019-08-25T08:59:14Z</time>
      </trkpt>
      <trkpt lat="46.38021" lon="4.81969">
        <ele>241.5</ele>
        <time>2019-08-25T08:59:35Z</time>
      </trkpt>
      <trkpt lat="46.38026" lon="4.81971">
        <ele>241.6</ele>
        <time>2019-08-25T08:59:37Z</time>
      </trkpt>
      <trkpt lat="46.38045" lon="4.81977">
        <ele>242.3</ele>
        <time>2019-08-25T08:59:42Z</time>
      </trkpt>
      <trkpt lat="46.38072" lon="4.81992">
        <ele>242.8</ele>
        <time>2019-08-25T08:59:48Z</time>
      </trkpt>
      <trkpt lat="46.38102" lon="4.8201">
        <ele>243.4</ele>
        <time>2019-08-25T08:59:54Z</time>
      </trkpt>
      <trkpt lat="46.3813" lon="4.82021">
        <ele>244</ele>
        <time>2019-08-25T08:59:58Z</time>
      </trkpt>
      <trkpt lat="46.38144" lon="4.82029">
        <ele>243.9</ele>
        <time>2019-08-25T09:00:01Z</time>
      </trkpt>
      <trkpt lat="46.38158" lon="4.82037">
        <ele>243.9</ele>
        <time>2019-08-25T09:00:04Z</time>
      </trkpt>
      <trkpt lat="46.3817" lon="4.82041">
        <ele>243.8</ele>
        <time>2019-08-25T09:00:06Z</time>
      </trkpt>
      <trkpt lat="46.38174" lon="4.82044">
        <ele>243.8</ele>
        <time>2019-08-25T09:00:07Z</time>
      </trkpt>
      <trkpt lat="46.38197" lon="4.82055">
        <ele>243.9</ele>
        <time>2019-08-25T09:00:11Z</time>
      </trkpt>
      <trkpt lat="46.38206" lon="4.82058">
        <ele>244</ele>
        <time>2019-08-25T09:00:13Z</time>
      </trkpt>
      <trkpt lat="46.38211" lon="4.8206">
        <ele>244</ele>
        <time>2019-08-25T09:00:14Z</time>
      </trkpt>
      <trkpt lat="46.38222" lon="4.82065">
        <ele>244.2</ele>
        <time>2019-08-25T09:00:16Z</time>
      </trkpt>
      <trkpt lat="46.38226" lon="4.82068">
        <ele>244.3</ele>
        <time>2019-08-25T09:00:17Z</time>
      </trkpt>
      <trkpt lat="46.38241" lon="4.82074">
        <ele>244.6</ele>
        <time>2019-08-25T09:00:20Z</time>
      </trkpt>
      <trkpt lat="46.38256" lon="4.82076">
        <ele>245</ele>
        <time>2019-08-25T09:00:23Z</time>
      </trkpt>
      <trkpt lat="46.38261" lon="4.82077">
        <ele>245.1</ele>
        <time>2019-08-25T09:00:24Z</time>
      </trkpt>
      <trkpt lat="46.38271" lon="4.82081">
        <ele>245.4</ele>
        <time>2019-08-25T09:00:26Z</time>
      </trkpt>
      <trkpt lat="46.38287" lon="4.82088">
        <ele>245.8</ele>
        <time>2019-08-25T09:00:30Z</time>
      </trkpt>
      <trkpt lat="46.38298" lon="4.82093">
        <ele>246.1</ele>
        <time>2019-08-25T09:00:33Z</time>
      </trkpt>
      <trkpt lat="46.38323" lon="4.821">
        <ele>246.2</ele>
        <time>2019-08-25T09:00:40Z</time>
      </trkpt>
      <trkpt lat="46.3833" lon="4.82102">
        <ele>246.2</ele>
        <time>2019-08-25T09:00:42Z</time>
      </trkpt>
      <trkpt lat="46.38342" lon="4.82105">
        <ele>246.2</ele>
        <time>2019-08-25T09:00:45Z</time>
      </trkpt>
      <trkpt lat="46.38347" lon="4.82107">
        <ele>246.2</ele>
        <time>2019-08-25T09:00:46Z</time>
      </trkpt>
      <trkpt lat="46.38354" lon="4.82111">
        <ele>246.2</ele>
        <time>2019-08-25T09:00:48Z</time>
      </trkpt>
      <trkpt lat="46.38367" lon="4.82114">
        <ele>246.1</ele>
        <time>2019-08-25T09:00:51Z</time>
      </trkpt>
      <trkpt lat="46.38376" lon="4.82117">
        <ele>246.1</ele>
        <time>2019-08-25T09:00:53Z</time>
      </trkpt>
      <trkpt lat="46.38385" lon="4.82122">
        <ele>246</ele>
        <time>2019-08-25T09:00:55Z</time>
      </trkpt>
      <trkpt lat="46.38393" lon="4.82127">
        <ele>246</ele>
        <time>2019-08-25T09:00:57Z</time>
      </trkpt>
      <trkpt lat="46.38401" lon="4.82134">
        <ele>245.9</ele>
        <time>2019-08-25T09:00:59Z</time>
      </trkpt>
      <trkpt lat="46.38413" lon="4.82141">
        <ele>245.9</ele>
        <time>2019-08-25T09:01:02Z</time>
      </trkpt>
      <trkpt lat="46.38428" lon="4.82151">
        <ele>246</ele>
        <time>2019-08-25T09:01:06Z</time>
      </trkpt>
      <trkpt lat="46.38454" lon="4.82164">
        <ele>246.3</ele>
        <time>2019-08-25T09:01:12Z</time>
      </trkpt>
      <trkpt lat="46.38475" lon="4.82179">
        <ele>246.7</ele>
        <time>2019-08-25T09:01:17Z</time>
      </trkpt>
      <trkpt lat="46.38478" lon="4.82181">
        <ele>246.8</ele>
        <time>2019-08-25T09:01:18Z</time>
      </trkpt>
      <trkpt lat="46.38492" lon="4.82198">
        <ele>247.1</ele>
        <time>2019-08-25T09:01:23Z</time>
      </trkpt>
      <trkpt lat="46.38505" lon="4.82215">
        <ele>247.2</ele>
        <time>2019-08-25T09:01:29Z</time>
      </trkpt>
      <trkpt lat="46.38528" lon="4.82235">
        <ele>246.4</ele>
        <time>2019-08-25T09:01:35Z</time>
      </trkpt>
      <trkpt lat="46.38556" lon="4.82263">
        <ele>244.9</ele>
        <time>2019-08-25T09:01:41Z</time>
      </trkpt>
      <trkpt lat="46.38581" lon="4.82289">
        <ele>243.3</ele>
        <time>2019-08-25T09:01:47Z</time>
      </trkpt>
      <trkpt lat="46.386" lon="4.82305">
        <ele>242</ele>
        <time>2019-08-25T09:01:51Z</time>
      </trkpt>
      <trkpt lat="46.3862" lon="4.8232">
        <ele>240.5</ele>
        <time>2019-08-25T09:01:54Z</time>
      </trkpt>
      <trkpt lat="46.38635" lon="4.82329">
        <ele>239.4</ele>
        <time>2019-08-25T09:01:56Z</time>
      </trkpt>
      <trkpt lat="46.38642" lon="4.82331">
        <ele>238.8</ele>
        <time>2019-08-25T09:01:57Z</time>
      </trkpt>
      <trkpt lat="46.38655" lon="4.82334">
        <ele>237.8</ele>
        <time>2019-08-25T09:01:59Z</time>
      </trkpt>
      <trkpt lat="46.38662" lon="4.82335">
        <ele>237.2</ele>
        <time>2019-08-25T09:02:00Z</time>
      </trkpt>
      <trkpt lat="46.3867" lon="4.82334">
        <ele>236.6</ele>
        <time>2019-08-25T09:02:01Z</time>
      </trkpt>
      <trkpt lat="46.3869" lon="4.82334">
        <ele>235.1</ele>
        <time>2019-08-25T09:02:03Z</time>
      </trkpt>
      <trkpt lat="46.3871" lon="4.82338">
        <ele>233.7</ele>
        <time>2019-08-25T09:02:05Z</time>
      </trkpt>
      <trkpt lat="46.38736" lon="4.82343">
        <ele>231.8</ele>
        <time>2019-08-25T09:02:08Z</time>
      </trkpt>
      <trkpt lat="46.38762" lon="4.82345">
        <ele>229.2</ele>
        <time>2019-08-25T09:02:11Z</time>
      </trkpt>
      <trkpt lat="46.38778" lon="4.82347">
        <ele>227.3</ele>
        <time>2019-08-25T09:02:13Z</time>
      </trkpt>
      <trkpt lat="46.38794" lon="4.8235">
        <ele>226.4</ele>
        <time>2019-08-25T09:02:15Z</time>
      </trkpt>
      <trkpt lat="46.3881" lon="4.82351">
        <ele>225.9</ele>
        <time>2019-08-25T09:02:17Z</time>
      </trkpt>
      <trkpt lat="46.38829" lon="4.82354">
        <ele>225.7</ele>
        <time>2019-08-25T09:02:20Z</time>
      </trkpt>
      <trkpt lat="46.3884" lon="4.82355">
        <ele>225.8</ele>
        <time>2019-08-25T09:02:22Z</time>
      </trkpt>
      <trkpt lat="46.38848" lon="4.82357">
        <ele>225.9</ele>
        <time>2019-08-25T09:02:24Z</time>
      </trkpt>
      <trkpt lat="46.38853" lon="4.82357">
        <ele>226</ele>
        <time>2019-08-25T09:02:25Z</time>
      </trkpt>
      <trkpt lat="46.38858" lon="4.82357">
        <ele>226.1</ele>
        <time>2019-08-25T09:02:26Z</time>
      </trkpt>
      <trkpt lat="46.38862" lon="4.82359">
        <ele>226.2</ele>
        <time>2019-08-25T09:02:27Z</time>
      </trkpt>
      <trkpt lat="46.38871" lon="4.82368">
        <ele>226.3</ele>
        <time>2019-08-25T09:02:30Z</time>
      </trkpt>
      <trkpt lat="46.38874" lon="4.82371">
        <ele>226.4</ele>
        <time>2019-08-25T09:02:31Z</time>
      </trkpt>
      <trkpt lat="46.38882" lon="4.82382">
        <ele>226.3</ele>
        <time>2019-08-25T09:02:34Z</time>
      </trkpt>
      <trkpt lat="46.38887" lon="4.82389">
        <ele>226.2</ele>
        <time>2019-08-25T09:02:36Z</time>
      </trkpt>
      <trkpt lat="46.38889" lon="4.82394">
        <ele>226.1</ele>
        <time>2019-08-25T09:02:37Z</time>
      </trkpt>
      <trkpt lat="46.389" lon="4.82406">
        <ele>225.5</ele>
        <time>2019-08-25T09:02:40Z</time>
      </trkpt>
      <trkpt lat="46.38904" lon="4.82411">
        <ele>225.1</ele>
        <time>2019-08-25T09:02:41Z</time>
      </trkpt>
      <trkpt lat="46.3891" lon="4.82416">
        <ele>224.7</ele>
        <time>2019-08-25T09:02:42Z</time>
      </trkpt>
      <trkpt lat="46.38927" lon="4.82426">
        <ele>222.8</ele>
        <time>2019-08-25T09:02:45Z</time>
      </trkpt>
      <trkpt lat="46.38935" lon="4.8243">
        <ele>222.2</ele>
        <time>2019-08-25T09:02:46Z</time>
      </trkpt>
      <trkpt lat="46.38943" lon="4.82436">
        <ele>221.4</ele>
        <time>2019-08-25T09:02:47Z</time>
      </trkpt>
      <trkpt lat="46.38952" lon="4.82442">
        <ele>220.5</ele>
        <time>2019-08-25T09:02:48Z</time>
      </trkpt>
      <trkpt lat="46.3896" lon="4.82448">
        <ele>219.6</ele>
        <time>2019-08-25T09:02:49Z</time>
      </trkpt>
      <trkpt lat="46.38968" lon="4.82456">
        <ele>218.6</ele>
        <time>2019-08-25T09:02:50Z</time>
      </trkpt>
      <trkpt lat="46.38976" lon="4.82464">
        <ele>217.5</ele>
        <time>2019-08-25T09:02:51Z</time>
      </trkpt>
      <trkpt lat="46.38983" lon="4.82472">
        <ele>216.3</ele>
        <time>2019-08-25T09:02:52Z</time>
      </trkpt>
      <trkpt lat="46.38998" lon="4.82491">
        <ele>213.8</ele>
        <time>2019-08-25T09:02:54Z</time>
      </trkpt>
      <trkpt lat="46.39004" lon="4.82501">
        <ele>212.6</ele>
        <time>2019-08-25T09:02:55Z</time>
      </trkpt>
      <trkpt lat="46.39018" lon="4.82523">
        <ele>210.3</ele>
        <time>2019-08-25T09:02:57Z</time>
      </trkpt>
      <trkpt lat="46.39024" lon="4.82535">
        <ele>209.4</ele>
        <time>2019-08-25T09:02:58Z</time>
      </trkpt>
      <trkpt lat="46.3903" lon="4.82545">
        <ele>208.5</ele>
        <time>2019-08-25T09:02:59Z</time>
      </trkpt>
      <trkpt lat="46.39045" lon="4.82569">
        <ele>207</ele>
        <time>2019-08-25T09:03:01Z</time>
      </trkpt>
      <trkpt lat="46.39051" lon="4.82578">
        <ele>206.5</ele>
        <time>2019-08-25T09:03:02Z</time>
      </trkpt>
      <trkpt lat="46.39058" lon="4.82585">
        <ele>206</ele>
        <time>2019-08-25T09:03:03Z</time>
      </trkpt>
      <trkpt lat="46.3907" lon="4.82596">
        <ele>205</ele>
        <time>2019-08-25T09:03:05Z</time>
      </trkpt>
      <trkpt lat="46.39076" lon="4.826">
        <ele>204.5</ele>
        <time>2019-08-25T09:03:06Z</time>
      </trkpt>
      <trkpt lat="46.39083" lon="4.82604">
        <ele>203.9</ele>
        <time>2019-08-25T09:03:07Z</time>
      </trkpt>
      <trkpt lat="46.391" lon="4.82614">
        <ele>201.9</ele>
        <time>2019-08-25T09:03:09Z</time>
      </trkpt>
      <trkpt lat="46.3912" lon="4.82623">
        <ele>199.8</ele>
        <time>2019-08-25T09:03:11Z</time>
      </trkpt>
      <trkpt lat="46.3913" lon="4.82627">
        <ele>198.7</ele>
        <time>2019-08-25T09:03:12Z</time>
      </trkpt>
      <trkpt lat="46.39147" lon="4.82638">
        <ele>197.4</ele>
        <time>2019-08-25T09:03:14Z</time>
      </trkpt>
      <trkpt lat="46.39158" lon="4.8265">
        <ele>196.7</ele>
        <time>2019-08-25T09:03:16Z</time>
      </trkpt>
      <trkpt lat="46.39167" lon="4.82663">
        <ele>195.8</ele>
        <time>2019-08-25T09:03:18Z</time>
      </trkpt>
      <trkpt lat="46.39174" lon="4.82674">
        <ele>195.2</ele>
        <time>2019-08-25T09:03:20Z</time>
      </trkpt>
      <trkpt lat="46.39185" lon="4.82693">
        <ele>195.1</ele>
        <time>2019-08-25T09:03:23Z</time>
      </trkpt>
      <trkpt lat="46.39192" lon="4.82704">
        <ele>194.5</ele>
        <time>2019-08-25T09:03:25Z</time>
      </trkpt>
      <trkpt lat="46.39199" lon="4.82716">
        <ele>193.9</ele>
        <time>2019-08-25T09:03:27Z</time>
      </trkpt>
      <trkpt lat="46.39206" lon="4.82727">
        <ele>193</ele>
        <time>2019-08-25T09:03:29Z</time>
      </trkpt>
      <trkpt lat="46.39212" lon="4.82739">
        <ele>192.6</ele>
        <time>2019-08-25T09:03:31Z</time>
      </trkpt>
      <trkpt lat="46.39215" lon="4.82746">
        <ele>192.4</ele>
        <time>2019-08-25T09:03:32Z</time>
      </trkpt>
      <trkpt lat="46.39226" lon="4.82773">
        <ele>191.7</ele>
        <time>2019-08-25T09:03:36Z</time>
      </trkpt>
      <trkpt lat="46.39235" lon="4.82801">
        <ele>190.9</ele>
        <time>2019-08-25T09:03:40Z</time>
      </trkpt>
      <trkpt lat="46.39239" lon="4.82807">
        <ele>190.4</ele>
        <time>2019-08-25T09:03:42Z</time>
      </trkpt>
      <trkpt lat="46.39238" lon="4.82803">
        <ele>190.7</ele>
        <time>2019-08-25T09:03:49Z</time>
      </trkpt>
      <trkpt lat="46.39232" lon="4.82785">
        <ele>190.8</ele>
        <time>2019-08-25T09:03:54Z</time>
      </trkpt>
      <trkpt lat="46.39223" lon="4.82758">
        <ele>191.9</ele>
        <time>2019-08-25T09:04:00Z</time>
      </trkpt>
      <trkpt lat="46.39212" lon="4.82729">
        <ele>192.7</ele>
        <time>2019-08-25T09:04:07Z</time>
      </trkpt>
      <trkpt lat="46.39209" lon="4.82725">
        <ele>192.6</ele>
        <time>2019-08-25T09:04:08Z</time>
      </trkpt>
      <trkpt lat="46.39187" lon="4.82695">
        <ele>194.9</ele>
        <time>2019-08-25T09:04:15Z</time>
      </trkpt>
      <trkpt lat="46.39175" lon="4.82679">
        <ele>195.4</ele>
        <time>2019-08-25T09:04:19Z</time>
      </trkpt>
      <trkpt lat="46.39169" lon="4.82671">
        <ele>195.7</ele>
        <time>2019-08-25T09:04:21Z</time>
      </trkpt>
      <trkpt lat="46.39158" lon="4.82653">
        <ele>196.7</ele>
        <time>2019-08-25T09:04:25Z</time>
      </trkpt>
      <trkpt lat="46.39149" lon="4.82641">
        <ele>197.3</ele>
        <time>2019-08-25T09:04:28Z</time>
      </trkpt>
      <trkpt lat="46.39134" lon="4.82628">
        <ele>198.5</ele>
        <time>2019-08-25T09:04:33Z</time>
      </trkpt>
      <trkpt lat="46.39126" lon="4.82622">
        <ele>199.4</ele>
        <time>2019-08-25T09:04:37Z</time>
      </trkpt>
      <trkpt lat="46.39122" lon="4.8262">
        <ele>199.8</ele>
        <time>2019-08-25T09:04:39Z</time>
      </trkpt>
      <trkpt lat="46.39121" lon="4.82619">
        <ele>200</ele>
        <time>2019-08-25T09:04:40Z</time>
      </trkpt>
      <trkpt lat="46.39104" lon="4.82612">
        <ele>201.7</ele>
        <time>2019-08-25T09:04:48Z</time>
      </trkpt>
      <trkpt lat="46.39102" lon="4.8261">
        <ele>202</ele>
        <time>2019-08-25T09:04:50Z</time>
      </trkpt>
      <trkpt lat="46.39096" lon="4.82608">
        <ele>202.7</ele>
        <time>2019-08-25T09:04:53Z</time>
      </trkpt>
      <trkpt lat="46.39092" lon="4.82607">
        <ele>203.1</ele>
        <time>2019-08-25T09:04:55Z</time>
      </trkpt>
      <trkpt lat="46.39089" lon="4.82606">
        <ele>203.5</ele>
        <time>2019-08-25T09:04:57Z</time>
      </trkpt>
      <trkpt lat="46.39086" lon="4.82605">
        <ele>203.8</ele>
        <time>2019-08-25T09:04:59Z</time>
      </trkpt>
      <trkpt lat="46.39083" lon="4.82604">
        <ele>204</ele>
        <time>2019-08-25T09:05:01Z</time>
      </trkpt>
      <trkpt lat="46.39081" lon="4.82604">
        <ele>204.1</ele>
        <time>2019-08-25T09:05:02Z</time>
      </trkpt>
      <trkpt lat="46.3908" lon="4.82604">
        <ele>204.2</ele>
        <time>2019-08-25T09:05:03Z</time>
      </trkpt>
      <trkpt lat="46.39077" lon="4.82602">
        <ele>204.5</ele>
        <time>2019-08-25T09:05:05Z</time>
      </trkpt>
      <trkpt lat="46.39075" lon="4.82601">
        <ele>204.6</ele>
        <time>2019-08-25T09:05:07Z</time>
      </trkpt>
      <trkpt lat="46.39074" lon="4.826">
        <ele>204.7</ele>
        <time>2019-08-25T09:05:08Z</time>
      </trkpt>
      <trkpt lat="46.39072" lon="4.82598">
        <ele>204.9</ele>
        <time>2019-08-25T09:05:09Z</time>
      </trkpt>
      <trkpt lat="46.39068" lon="4.82595">
        <ele>205.2</ele>
        <time>2019-08-25T09:05:11Z</time>
      </trkpt>
      <trkpt lat="46.39065" lon="4.82593">
        <ele>205.5</ele>
        <time>2019-08-25T09:05:13Z</time>
      </trkpt>
      <trkpt lat="46.39061" lon="4.82589">
        <ele>205.8</ele>
        <time>2019-08-25T09:05:16Z</time>
      </trkpt>
      <trkpt lat="46.39056" lon="4.82586">
        <ele>206.2</ele>
        <time>2019-08-25T09:05:19Z</time>
      </trkpt>
      <trkpt lat="46.39054" lon="4.82584">
        <ele>206.3</ele>
        <time>2019-08-25T09:05:20Z</time>
      </trkpt>
      <trkpt lat="46.39052" lon="4.8258">
        <ele>206.5</ele>
        <time>2019-08-25T09:05:22Z</time>
      </trkpt>
      <trkpt lat="46.39048" lon="4.82575">
        <ele>206.8</ele>
        <time>2019-08-25T09:05:25Z</time>
      </trkpt>
      <trkpt lat="46.39046" lon="4.8257">
        <ele>207</ele>
        <time>2019-08-25T09:05:27Z</time>
      </trkpt>
      <trkpt lat="46.39041" lon="4.82559">
        <ele>207.6</ele>
        <time>2019-08-25T09:05:32Z</time>
      </trkpt>
      <trkpt lat="46.39039" lon="4.82556">
        <ele>207.8</ele>
        <time>2019-08-25T09:05:33Z</time>
      </trkpt>
      <trkpt lat="46.39027" lon="4.82531">
        <ele>209.5</ele>
        <time>2019-08-25T09:05:42Z</time>
      </trkpt>
      <trkpt lat="46.39021" lon="4.82521">
        <ele>210.4</ele>
        <time>2019-08-25T09:05:47Z</time>
      </trkpt>
      <trkpt lat="46.39019" lon="4.82519">
        <ele>210.6</ele>
        <time>2019-08-25T09:05:49Z</time>
      </trkpt>
      <trkpt lat="46.39018" lon="4.82517">
        <ele>210.7</ele>
        <time>2019-08-25T09:05:50Z</time>
      </trkpt>
      <trkpt lat="46.39014" lon="4.82508">
        <ele>211.6</ele>
        <time>2019-08-25T09:05:54Z</time>
      </trkpt>
      <trkpt lat="46.3901" lon="4.82503">
        <ele>212.2</ele>
        <time>2019-08-25T09:05:57Z</time>
      </trkpt>
      <trkpt lat="46.38996" lon="4.82481">
        <ele>214.8</ele>
        <time>2019-08-25T09:06:09Z</time>
      </trkpt>
      <trkpt lat="46.38993" lon="4.82477">
        <ele>215.2</ele>
        <time>2019-08-25T09:06:11Z</time>
      </trkpt>
      <trkpt lat="46.38957" lon="4.82436">
        <ele>220.4</ele>
        <time>2019-08-25T09:06:39Z</time>
      </trkpt>
      <trkpt lat="46.38948" lon="4.82432">
        <ele>221.3</ele>
        <time>2019-08-25T09:06:44Z</time>
      </trkpt>
      <trkpt lat="46.38947" lon="4.82431">
        <ele>221.4</ele>
        <time>2019-08-25T09:06:45Z</time>
      </trkpt>
      <trkpt lat="46.38936" lon="4.82424">
        <ele>222.4</ele>
        <time>2019-08-25T09:06:51Z</time>
      </trkpt>
      <trkpt lat="46.38931" lon="4.8242">
        <ele>222.9</ele>
        <time>2019-08-25T09:06:54Z</time>
      </trkpt>
      <trkpt lat="46.3893" lon="4.82419">
        <ele>223</ele>
        <time>2019-08-25T09:06:55Z</time>
      </trkpt>
      <trkpt lat="46.38927" lon="4.82417">
        <ele>223.3</ele>
        <time>2019-08-25T09:06:57Z</time>
      </trkpt>
      <trkpt lat="46.38919" lon="4.82411">
        <ele>224.2</ele>
        <time>2019-08-25T09:07:02Z</time>
      </trkpt>
      <trkpt lat="46.38914" lon="4.82407">
        <ele>224.7</ele>
        <time>2019-08-25T09:07:05Z</time>
      </trkpt>
      <trkpt lat="46.38905" lon="4.824">
        <ele>225.4</ele>
        <time>2019-08-25T09:07:11Z</time>
      </trkpt>
      <trkpt lat="46.38896" lon="4.82392">
        <ele>226</ele>
        <time>2019-08-25T09:07:18Z</time>
      </trkpt>
      <trkpt lat="46.38895" lon="4.8239">
        <ele>226</ele>
        <time>2019-08-25T09:07:19Z</time>
      </trkpt>
      <trkpt lat="46.38893" lon="4.82388">
        <ele>226.1</ele>
        <time>2019-08-25T09:07:20Z</time>
      </trkpt>
      <trkpt lat="46.38887" lon="4.8238">
        <ele>226.3</ele>
        <time>2019-08-25T09:07:25Z</time>
      </trkpt>
      <trkpt lat="46.38886" lon="4.82379">
        <ele>226.3</ele>
        <time>2019-08-25T09:07:26Z</time>
      </trkpt>
      <trkpt lat="46.38871" lon="4.82365">
        <ele>226.3</ele>
        <time>2019-08-25T09:07:32Z</time>
      </trkpt>
      <trkpt lat="46.38853" lon="4.82357">
        <ele>226</ele>
        <time>2019-08-25T09:07:36Z</time>
      </trkpt>
      <trkpt lat="46.38808" lon="4.82352">
        <ele>226</ele>
        <time>2019-08-25T09:07:44Z</time>
      </trkpt>
      <trkpt lat="46.38803" lon="4.82351">
        <ele>226</ele>
        <time>2019-08-25T09:07:45Z</time>
      </trkpt>
      <trkpt lat="46.38789" lon="4.82347">
        <ele>226.7</ele>
        <time>2019-08-25T09:07:48Z</time>
      </trkpt>
      <trkpt lat="46.38778" lon="4.82345">
        <ele>227.3</ele>
        <time>2019-08-25T09:07:51Z</time>
      </trkpt>
      <trkpt lat="46.38757" lon="4.82343">
        <ele>229.5</ele>
        <time>2019-08-25T09:07:58Z</time>
      </trkpt>
      <trkpt lat="46.38742" lon="4.82342">
        <ele>231.2</ele>
        <time>2019-08-25T09:08:05Z</time>
      </trkpt>
      <trkpt lat="46.38738" lon="4.82342">
        <ele>231.5</ele>
        <time>2019-08-25T09:08:07Z</time>
      </trkpt>
      <trkpt lat="46.3873" lon="4.8234">
        <ele>232.3</ele>
        <time>2019-08-25T09:08:12Z</time>
      </trkpt>
      <trkpt lat="46.38725" lon="4.82339">
        <ele>232.6</ele>
        <time>2019-08-25T09:08:15Z</time>
      </trkpt>
      <trkpt lat="46.38716" lon="4.82337">
        <ele>233.2</ele>
        <time>2019-08-25T09:08:19Z</time>
      </trkpt>
      <trkpt lat="46.38714" lon="4.82337">
        <ele>233.3</ele>
        <time>2019-08-25T09:08:20Z</time>
      </trkpt>
      <trkpt lat="46.38706" lon="4.82337">
        <ele>233.8</ele>
        <time>2019-08-25T09:08:24Z</time>
      </trkpt>
      <trkpt lat="46.38699" lon="4.82338">
        <ele>234.3</ele>
        <time>2019-08-25T09:08:28Z</time>
      </trkpt>
      <trkpt lat="46.38694" lon="4.82339">
        <ele>234.7</ele>
        <time>2019-08-25T09:08:31Z</time>
      </trkpt>
      <trkpt lat="46.38685" lon="4.82339">
        <ele>235.3</ele>
        <time>2019-08-25T09:08:36Z</time>
      </trkpt>
      <trkpt lat="46.38677" lon="4.82338">
        <ele>235.9</ele>
        <time>2019-08-25T09:08:41Z</time>
      </trkpt>
      <trkpt lat="46.38666" lon="4.82333">
        <ele>236.8</ele>
        <time>2019-08-25T09:08:48Z</time>
      </trkpt>
      <trkpt lat="46.38653" lon="4.82331">
        <ele>237.8</ele>
        <time>2019-08-25T09:08:55Z</time>
      </trkpt>
      <trkpt lat="46.38641" lon="4.82324">
        <ele>238.8</ele>
        <time>2019-08-25T09:09:02Z</time>
      </trkpt>
      <trkpt lat="46.38636" lon="4.82319">
        <ele>239.3</ele>
        <time>2019-08-25T09:09:05Z</time>
      </trkpt>
      <trkpt lat="46.38627" lon="4.82313">
        <ele>240</ele>
        <time>2019-08-25T09:09:09Z</time>
      </trkpt>
      <trkpt lat="46.38621" lon="4.82309">
        <ele>240.5</ele>
        <time>2019-08-25T09:09:12Z</time>
      </trkpt>
      <trkpt lat="46.38614" lon="4.82305">
        <ele>240.9</ele>
        <time>2019-08-25T09:09:15Z</time>
      </trkpt>
      <trkpt lat="46.3861" lon="4.82301">
        <ele>241.3</ele>
        <time>2019-08-25T09:09:17Z</time>
      </trkpt>
      <trkpt lat="46.38607" lon="4.823">
        <ele>241.5</ele>
        <time>2019-08-25T09:09:18Z</time>
      </trkpt>
      <trkpt lat="46.38601" lon="4.82295">
        <ele>241.9</ele>
        <time>2019-08-25T09:09:21Z</time>
      </trkpt>
      <trkpt lat="46.38589" lon="4.82289">
        <ele>242.7</ele>
        <time>2019-08-25T09:09:27Z</time>
      </trkpt>
      <trkpt lat="46.38586" lon="4.82287">
        <ele>242.9</ele>
        <time>2019-08-25T09:09:28Z</time>
      </trkpt>
      <trkpt lat="46.38571" lon="4.82275">
        <ele>243.8</ele>
        <time>2019-08-25T09:09:35Z</time>
      </trkpt>
      <trkpt lat="46.38559" lon="4.82261">
        <ele>244.5</ele>
        <time>2019-08-25T09:09:40Z</time>
      </trkpt>
      <trkpt lat="46.38557" lon="4.82258">
        <ele>244.7</ele>
        <time>2019-08-25T09:09:41Z</time>
      </trkpt>
      <trkpt lat="46.38545" lon="4.82248">
        <ele>245.3</ele>
        <time>2019-08-25T09:09:46Z</time>
      </trkpt>
      <trkpt lat="46.3854" lon="4.82244">
        <ele>245.6</ele>
        <time>2019-08-25T09:09:48Z</time>
      </trkpt>
      <trkpt lat="46.38537" lon="4.82239">
        <ele>245.8</ele>
        <time>2019-08-25T09:09:50Z</time>
      </trkpt>
      <trkpt lat="46.38525" lon="4.82228">
        <ele>246.4</ele>
        <time>2019-08-25T09:09:55Z</time>
      </trkpt>
      <trkpt lat="46.38508" lon="4.82212">
        <ele>247</ele>
        <time>2019-08-25T09:10:02Z</time>
      </trkpt>
      <trkpt lat="46.38506" lon="4.8221">
        <ele>247.1</ele>
        <time>2019-08-25T09:10:03Z</time>
      </trkpt>
      <trkpt lat="46.38495" lon="4.82199">
        <ele>247.1</ele>
        <time>2019-08-25T09:10:30Z</time>
      </trkpt>
      <trkpt lat="46.38487" lon="4.82191">
        <ele>247.1</ele>
        <time>2019-08-25T09:10:34Z</time>
      </trkpt>
      <trkpt lat="46.38482" lon="4.82185">
        <ele>247</ele>
        <time>2019-08-25T09:10:36Z</time>
      </trkpt>
      <trkpt lat="46.38478" lon="4.82182">
        <ele>246.9</ele>
        <time>2019-08-25T09:10:37Z</time>
      </trkpt>
      <trkpt lat="46.38454" lon="4.82164">
        <ele>246.4</ele>
        <time>2019-08-25T09:10:42Z</time>
      </trkpt>
      <trkpt lat="46.38416" lon="4.82139">
        <ele>245.9</ele>
        <time>2019-08-25T09:10:50Z</time>
      </trkpt>
      <trkpt lat="46.38399" lon="4.82127">
        <ele>245.9</ele>
        <time>2019-08-25T09:10:54Z</time>
      </trkpt>
      <trkpt lat="46.38387" lon="4.82117">
        <ele>246</ele>
        <time>2019-08-25T09:10:57Z</time>
      </trkpt>
      <trkpt lat="46.38382" lon="4.82114">
        <ele>246</ele>
        <time>2019-08-25T09:10:58Z</time>
      </trkpt>
      <trkpt lat="46.38362" lon="4.82106">
        <ele>246.1</ele>
        <time>2019-08-25T09:11:02Z</time>
      </trkpt>
      <trkpt lat="46.38357" lon="4.82105">
        <ele>246.1</ele>
        <time>2019-08-25T09:11:03Z</time>
      </trkpt>
      <trkpt lat="46.38327" lon="4.82095">
        <ele>246.2</ele>
        <time>2019-08-25T09:11:09Z</time>
      </trkpt>
      <trkpt lat="46.38298" lon="4.82086">
        <ele>246.1</ele>
        <time>2019-08-25T09:11:15Z</time>
      </trkpt>
      <trkpt lat="46.38268" lon="4.82075">
        <ele>245.5</ele>
        <time>2019-08-25T09:11:21Z</time>
      </trkpt>
      <trkpt lat="46.38238" lon="4.82067">
        <ele>244.7</ele>
        <time>2019-08-25T09:11:27Z</time>
      </trkpt>
      <trkpt lat="46.38223" lon="4.82062">
        <ele>244.4</ele>
        <time>2019-08-25T09:11:30Z</time>
      </trkpt>
      <trkpt lat="46.38213" lon="4.82059">
        <ele>244.2</ele>
        <time>2019-08-25T09:11:32Z</time>
      </trkpt>
      <trkpt lat="46.38208" lon="4.82057">
        <ele>244.1</ele>
        <time>2019-08-25T09:11:33Z</time>
      </trkpt>
      <trkpt lat="46.38177" lon="4.8204">
        <ele>243.8</ele>
        <time>2019-08-25T09:11:40Z</time>
      </trkpt>
      <trkpt lat="46.38159" lon="4.82029">
        <ele>243.8</ele>
        <time>2019-08-25T09:11:46Z</time>
      </trkpt>
      <trkpt lat="46.38143" lon="4.82022">
        <ele>243.9</ele>
        <time>2019-08-25T09:11:53Z</time>
      </trkpt>
      <trkpt lat="46.3814" lon="4.82024">
        <ele>243.9</ele>
        <time>2019-08-25T09:11:55Z</time>
      </trkpt>
      <trkpt lat="46.38138" lon="4.8203">
        <ele>243.9</ele>
        <time>2019-08-25T09:11:58Z</time>
      </trkpt>
      <trkpt lat="46.38137" lon="4.82033">
        <ele>244</ele>
        <time>2019-08-25T09:11:59Z</time>
      </trkpt>
      <trkpt lat="46.38135" lon="4.8204">
        <ele>244</ele>
        <time>2019-08-25T09:12:02Z</time>
      </trkpt>
      <trkpt lat="46.38132" lon="4.82048">
        <ele>244.1</ele>
        <time>2019-08-25T09:12:05Z</time>
      </trkpt>
      <trkpt lat="46.38126" lon="4.82068">
        <ele>245.5</ele>
        <time>2019-08-25T09:12:12Z</time>
      </trkpt>
      <trkpt lat="46.3812" lon="4.82092">
        <ele>247.5</ele>
        <time>2019-08-25T09:12:19Z</time>
      </trkpt>
      <trkpt lat="46.38113" lon="4.82113">
        <ele>249</ele>
        <time>2019-08-25T09:12:26Z</time>
      </trkpt>
      <trkpt lat="46.38107" lon="4.82131">
        <ele>250.5</ele>
        <time>2019-08-25T09:12:32Z</time>
      </trkpt>
      <trkpt lat="46.38106" lon="4.8214">
        <ele>251.2</ele>
        <time>2019-08-25T09:12:34Z</time>
      </trkpt>
      <trkpt lat="46.38101" lon="4.82165">
        <ele>252.9</ele>
        <time>2019-08-25T09:12:41Z</time>
      </trkpt>
      <trkpt lat="46.38095" lon="4.8219">
        <ele>254.7</ele>
        <time>2019-08-25T09:12:49Z</time>
      </trkpt>
      <trkpt lat="46.38088" lon="4.82213">
        <ele>256.2</ele>
        <time>2019-08-25T09:12:57Z</time>
      </trkpt>
      <trkpt lat="46.38083" lon="4.82226">
        <ele>257</ele>
        <time>2019-08-25T09:13:01Z</time>
      </trkpt>
      <trkpt lat="46.38078" lon="4.82238">
        <ele>257.5</ele>
        <time>2019-08-25T09:13:05Z</time>
      </trkpt>
      <trkpt lat="46.38076" lon="4.8224">
        <ele>257.7</ele>
        <time>2019-08-25T09:13:06Z</time>
      </trkpt>
      <trkpt lat="46.38064" lon="4.82255">
        <ele>258.4</ele>
        <time>2019-08-25T09:13:12Z</time>
      </trkpt>
      <trkpt lat="46.38056" lon="4.82265">
        <ele>258.9</ele>
        <time>2019-08-25T09:13:16Z</time>
      </trkpt>
      <trkpt lat="46.38053" lon="4.82276">
        <ele>259.2</ele>
        <time>2019-08-25T09:13:19Z</time>
      </trkpt>
      <trkpt lat="46.38046" lon="4.82301">
        <ele>259.8</ele>
        <time>2019-08-25T09:13:25Z</time>
      </trkpt>
      <trkpt lat="46.38044" lon="4.82303">
        <ele>259.8</ele>
        <time>2019-08-25T09:13:26Z</time>
      </trkpt>
      <trkpt lat="46.38037" lon="4.82305">
        <ele>260.5</ele>
        <time>2019-08-25T09:13:28Z</time>
      </trkpt>
      <trkpt lat="46.38016" lon="4.82309">
        <ele>261.1</ele>
        <time>2019-08-25T09:13:34Z</time>
      </trkpt>
      <trkpt lat="46.37974" lon="4.82318">
        <ele>261.5</ele>
        <time>2019-08-25T09:13:44Z</time>
      </trkpt>
      <trkpt lat="46.37954" lon="4.8232">
        <ele>261.6</ele>
        <time>2019-08-25T09:13:49Z</time>
      </trkpt>
      <trkpt lat="46.37925" lon="4.82323">
        <ele>260.9</ele>
        <time>2019-08-25T09:13:55Z</time>
      </trkpt>
      <trkpt lat="46.379" lon="4.82324">
        <ele>260.3</ele>
        <time>2019-08-25T09:14:00Z</time>
      </trkpt>
      <trkpt lat="46.37895" lon="4.82323">
        <ele>260.3</ele>
        <time>2019-08-25T09:14:01Z</time>
      </trkpt>
      <trkpt lat="46.37884" lon="4.82318">
        <ele>260.2</ele>
        <time>2019-08-25T09:14:04Z</time>
      </trkpt>
      <trkpt lat="46.37873" lon="4.82314">
        <ele>260.1</ele>
        <time>2019-08-25T09:14:08Z</time>
      </trkpt>
      <trkpt lat="46.3787" lon="4.82314">
        <ele>260</ele>
        <time>2019-08-25T09:14:09Z</time>
      </trkpt>
      <trkpt lat="46.37862" lon="4.82314">
        <ele>259.9</ele>
        <time>2019-08-25T09:14:12Z</time>
      </trkpt>
      <trkpt lat="46.37859" lon="4.82316">
        <ele>259.8</ele>
        <time>2019-08-25T09:14:13Z</time>
      </trkpt>
      <trkpt lat="46.37852" lon="4.82321">
        <ele>259.7</ele>
        <time>2019-08-25T09:14:16Z</time>
      </trkpt>
      <trkpt lat="46.37849" lon="4.82321">
        <ele>259.6</ele>
        <time>2019-08-25T09:14:17Z</time>
      </trkpt>
      <trkpt lat="46.37845" lon="4.82319">
        <ele>259.6</ele>
        <time>2019-08-25T09:14:19Z</time>
      </trkpt>
      <trkpt lat="46.37841" lon="4.82318">
        <ele>259.5</ele>
        <time>2019-08-25T09:14:21Z</time>
      </trkpt>
      <trkpt lat="46.37834" lon="4.82319">
        <ele>259.4</ele>
        <time>2019-08-25T09:14:24Z</time>
      </trkpt>
      <trkpt lat="46.37829" lon="4.82319">
        <ele>259.3</ele>
        <time>2019-08-25T09:14:26Z</time>
      </trkpt>
      <trkpt lat="46.3782" lon="4.82317">
        <ele>258.9</ele>
        <time>2019-08-25T09:14:29Z</time>
      </trkpt>
      <trkpt lat="46.37815" lon="4.82314">
        <ele>258.7</ele>
        <time>2019-08-25T09:14:31Z</time>
      </trkpt>
      <trkpt lat="46.37809" lon="4.82311">
        <ele>258.4</ele>
        <time>2019-08-25T09:14:33Z</time>
      </trkpt>
      <trkpt lat="46.37804" lon="4.82315">
        <ele>258.2</ele>
        <time>2019-08-25T09:14:35Z</time>
      </trkpt>
      <trkpt lat="46.3779" lon="4.82318">
        <ele>257.6</ele>
        <time>2019-08-25T09:14:41Z</time>
      </trkpt>
      <trkpt lat="46.37785" lon="4.82316">
        <ele>257.6</ele>
        <time>2019-08-25T09:14:43Z</time>
      </trkpt>
      <trkpt lat="46.37783" lon="4.82313">
        <ele>257.6</ele>
        <time>2019-08-25T09:14:44Z</time>
      </trkpt>
      <trkpt lat="46.37781" lon="4.82305">
        <ele>257.7</ele>
        <time>2019-08-25T09:14:46Z</time>
      </trkpt>
      <trkpt lat="46.3778" lon="4.82301">
        <ele>257.8</ele>
        <time>2019-08-25T09:14:47Z</time>
      </trkpt>
      <trkpt lat="46.37774" lon="4.82284">
        <ele>258.1</ele>
        <time>2019-08-25T09:14:52Z</time>
      </trkpt>
      <trkpt lat="46.37773" lon="4.82281">
        <ele>258.1</ele>
        <time>2019-08-25T09:14:53Z</time>
      </trkpt>
      <trkpt lat="46.37768" lon="4.82264">
        <ele>258.3</ele>
        <time>2019-08-25T09:14:57Z</time>
      </trkpt>
      <trkpt lat="46.37765" lon="4.82249">
        <ele>258.5</ele>
        <time>2019-08-25T09:15:00Z</time>
      </trkpt>
      <trkpt lat="46.37761" lon="4.82244">
        <ele>258.6</ele>
        <time>2019-08-25T09:15:02Z</time>
      </trkpt>
      <trkpt lat="46.37757" lon="4.82241">
        <ele>258.8</ele>
        <time>2019-08-25T09:15:04Z</time>
      </trkpt>
      <trkpt lat="46.37755" lon="4.82241">
        <ele>258.9</ele>
        <time>2019-08-25T09:15:05Z</time>
      </trkpt>
      <trkpt lat="46.37751" lon="4.82242">
        <ele>259</ele>
        <time>2019-08-25T09:15:07Z</time>
      </trkpt>
      <trkpt lat="46.37747" lon="4.82248">
        <ele>259.1</ele>
        <time>2019-08-25T09:15:09Z</time>
      </trkpt>
      <trkpt lat="46.37739" lon="4.82257">
        <ele>258.5</ele>
        <time>2019-08-25T09:15:12Z</time>
      </trkpt>
      <trkpt lat="46.37733" lon="4.82263">
        <ele>258.4</ele>
        <time>2019-08-25T09:15:14Z</time>
      </trkpt>
      <trkpt lat="46.37713" lon="4.82287">
        <ele>256.7</ele>
        <time>2019-08-25T09:15:20Z</time>
      </trkpt>
      <trkpt lat="46.37696" lon="4.82304">
        <ele>255.6</ele>
        <time>2019-08-25T09:15:25Z</time>
      </trkpt>
      <trkpt lat="46.37683" lon="4.82309">
        <ele>255.8</ele>
        <time>2019-08-25T09:15:30Z</time>
      </trkpt>
      <trkpt lat="46.37677" lon="4.82316">
        <ele>255.8</ele>
        <time>2019-08-25T09:15:33Z</time>
      </trkpt>
      <trkpt lat="46.37668" lon="4.82322">
        <ele>255.6</ele>
        <time>2019-08-25T09:15:36Z</time>
      </trkpt>
      <trkpt lat="46.37665" lon="4.82322">
        <ele>256</ele>
        <time>2019-08-25T09:15:37Z</time>
      </trkpt>
      <trkpt lat="46.37659" lon="4.82321">
        <ele>256.8</ele>
        <time>2019-08-25T09:15:40Z</time>
      </trkpt>
      <trkpt lat="46.37655" lon="4.82324">
        <ele>256.8</ele>
        <time>2019-08-25T09:15:42Z</time>
      </trkpt>
      <trkpt lat="46.37653" lon="4.82329">
        <ele>256.8</ele>
        <time>2019-08-25T09:15:44Z</time>
      </trkpt>
      <trkpt lat="46.37651" lon="4.82334">
        <ele>256.8</ele>
        <time>2019-08-25T09:15:46Z</time>
      </trkpt>
      <trkpt lat="46.37645" lon="4.82332">
        <ele>257.5</ele>
        <time>2019-08-25T09:15:52Z</time>
      </trkpt>
      <trkpt lat="46.37644" lon="4.82326">
        <ele>258.1</ele>
        <time>2019-08-25T09:15:55Z</time>
      </trkpt>
      <trkpt lat="46.37642" lon="4.82322">
        <ele>258.4</ele>
        <time>2019-08-25T09:15:57Z</time>
      </trkpt>
      <trkpt lat="46.37642" lon="4.82317">
        <ele>258.6</ele>
        <time>2019-08-25T09:15:59Z</time>
      </trkpt>
      <trkpt lat="46.37642" lon="4.82314">
        <ele>258.7</ele>
        <time>2019-08-25T09:16:00Z</time>
      </trkpt>
      <trkpt lat="46.37627" lon="4.82177">
        <ele>265.2</ele>
        <time>2019-08-25T09:16:46Z</time>
      </trkpt>
      <trkpt lat="46.37624" lon="4.82174">
        <ele>265.4</ele>
        <time>2019-08-25T09:16:47Z</time>
      </trkpt>
      <trkpt lat="46.37622" lon="4.82172">
        <ele>265.6</ele>
        <time>2019-08-25T09:16:48Z</time>
      </trkpt>
      <trkpt lat="46.37615" lon="4.82169">
        <ele>266</ele>
        <time>2019-08-25T09:16:51Z</time>
      </trkpt>
      <trkpt lat="46.37613" lon="4.82168">
        <ele>266.1</ele>
        <time>2019-08-25T09:16:52Z</time>
      </trkpt>
      <trkpt lat="46.37604" lon="4.82161">
        <ele>266.6</ele>
        <time>2019-08-25T09:16:56Z</time>
      </trkpt>
      <trkpt lat="46.3759" lon="4.82153">
        <ele>267.1</ele>
        <time>2019-08-25T09:17:02Z</time>
      </trkpt>
      <trkpt lat="46.37588" lon="4.82152">
        <ele>267.1</ele>
        <time>2019-08-25T09:17:03Z</time>
      </trkpt>
      <trkpt lat="46.37581" lon="4.82148">
        <ele>267.3</ele>
        <time>2019-08-25T09:17:06Z</time>
      </trkpt>
      <trkpt lat="46.37573" lon="4.82144">
        <ele>267.5</ele>
        <time>2019-08-25T09:17:10Z</time>
      </trkpt>
      <trkpt lat="46.37562" lon="4.8214">
        <ele>267.8</ele>
        <time>2019-08-25T09:17:15Z</time>
      </trkpt>
      <trkpt lat="46.37548" lon="4.82134">
        <ele>268.5</ele>
        <time>2019-08-25T09:17:21Z</time>
      </trkpt>
      <trkpt lat="46.37531" lon="4.82127">
        <ele>269.5</ele>
        <time>2019-08-25T09:17:28Z</time>
      </trkpt>
      <trkpt lat="46.37512" lon="4.82119">
        <ele>271.1</ele>
        <time>2019-08-25T09:17:36Z</time>
      </trkpt>
      <trkpt lat="46.37507" lon="4.82118">
        <ele>271.6</ele>
        <time>2019-08-25T09:17:38Z</time>
      </trkpt>
      <trkpt lat="46.37499" lon="4.82114">
        <ele>272.3</ele>
        <time>2019-08-25T09:17:42Z</time>
      </trkpt>
      <trkpt lat="46.37497" lon="4.82113">
        <ele>272.5</ele>
        <time>2019-08-25T09:17:43Z</time>
      </trkpt>
      <trkpt lat="46.37494" lon="4.82111">
        <ele>272.8</ele>
        <time>2019-08-25T09:17:45Z</time>
      </trkpt>
      <trkpt lat="46.37489" lon="4.82104">
        <ele>273.3</ele>
        <time>2019-08-25T09:17:48Z</time>
      </trkpt>
      <trkpt lat="46.37487" lon="4.82102">
        <ele>273.4</ele>
        <time>2019-08-25T09:17:49Z</time>
      </trkpt>
      <trkpt lat="46.37482" lon="4.82097">
        <ele>273.8</ele>
        <time>2019-08-25T09:17:52Z</time>
      </trkpt>
      <trkpt lat="46.37476" lon="4.8209">
        <ele>274.3</ele>
        <time>2019-08-25T09:17:55Z</time>
      </trkpt>
      <trkpt lat="46.37461" lon="4.82084">
        <ele>275.2</ele>
        <time>2019-08-25T09:18:01Z</time>
      </trkpt>
      <trkpt lat="46.37459" lon="4.82084">
        <ele>275.4</ele>
        <time>2019-08-25T09:18:02Z</time>
      </trkpt>
      <trkpt lat="46.37439" lon="4.82083">
        <ele>276.1</ele>
        <time>2019-08-25T09:18:10Z</time>
      </trkpt>
      <trkpt lat="46.37426" lon="4.82082">
        <ele>276.4</ele>
        <time>2019-08-25T09:18:16Z</time>
      </trkpt>
      <trkpt lat="46.37424" lon="4.82083">
        <ele>276.7</ele>
        <time>2019-08-25T09:18:17Z</time>
      </trkpt>
      <trkpt lat="46.37414" lon="4.82083">
        <ele>277.7</ele>
        <time>2019-08-25T09:18:22Z</time>
      </trkpt>
      <trkpt lat="46.37412" lon="4.82083">
        <ele>277.8</ele>
        <time>2019-08-25T09:18:23Z</time>
      </trkpt>
      <trkpt lat="46.37399" lon="4.82082">
        <ele>278.3</ele>
        <time>2019-08-25T09:18:30Z</time>
      </trkpt>
      <trkpt lat="46.37382" lon="4.82081">
        <ele>278.8</ele>
        <time>2019-08-25T09:18:37Z</time>
      </trkpt>
      <trkpt lat="46.37365" lon="4.8208">
        <ele>279.1</ele>
        <time>2019-08-25T09:18:43Z</time>
      </trkpt>
      <trkpt lat="46.37362" lon="4.82079">
        <ele>279.1</ele>
        <time>2019-08-25T09:18:44Z</time>
      </trkpt>
      <trkpt lat="46.3735" lon="4.82073">
        <ele>279.2</ele>
        <time>2019-08-25T09:18:48Z</time>
      </trkpt>
      <trkpt lat="46.37343" lon="4.82073">
        <ele>279.2</ele>
        <time>2019-08-25T09:18:51Z</time>
      </trkpt>
      <trkpt lat="46.37341" lon="4.82077">
        <ele>279.2</ele>
        <time>2019-08-25T09:18:53Z</time>
      </trkpt>
      <trkpt lat="46.37339" lon="4.8208">
        <ele>279.2</ele>
        <time>2019-08-25T09:18:55Z</time>
      </trkpt>
      <trkpt lat="46.37332" lon="4.82091">
        <ele>279.2</ele>
        <time>2019-08-25T09:18:59Z</time>
      </trkpt>
      <trkpt lat="46.37327" lon="4.82094">
        <ele>279.1</ele>
        <time>2019-08-25T09:19:01Z</time>
      </trkpt>
      <trkpt lat="46.37323" lon="4.82097">
        <ele>278.9</ele>
        <time>2019-08-25T09:19:04Z</time>
      </trkpt>
      <trkpt lat="46.37322" lon="4.82099">
        <ele>278.9</ele>
        <time>2019-08-25T09:19:05Z</time>
      </trkpt>
      <trkpt lat="46.37311" lon="4.82104">
        <ele>278.5</ele>
        <time>2019-08-25T09:19:09Z</time>
      </trkpt>
      <trkpt lat="46.37301" lon="4.82101">
        <ele>277.9</ele>
        <time>2019-08-25T09:19:12Z</time>
      </trkpt>
      <trkpt lat="46.37296" lon="4.82098">
        <ele>277.5</ele>
        <time>2019-08-25T09:19:14Z</time>
      </trkpt>
      <trkpt lat="46.3729" lon="4.82097">
        <ele>277.2</ele>
        <time>2019-08-25T09:19:16Z</time>
      </trkpt>
      <trkpt lat="46.37282" lon="4.82095">
        <ele>276.7</ele>
        <time>2019-08-25T09:19:20Z</time>
      </trkpt>
      <trkpt lat="46.37277" lon="4.82095">
        <ele>276.4</ele>
        <time>2019-08-25T09:19:22Z</time>
      </trkpt>
      <trkpt lat="46.37271" lon="4.82095">
        <ele>276.2</ele>
        <time>2019-08-25T09:19:25Z</time>
      </trkpt>
      <trkpt lat="46.37266" lon="4.82096">
        <ele>276</ele>
        <time>2019-08-25T09:19:27Z</time>
      </trkpt>
      <trkpt lat="46.37258" lon="4.82097">
        <ele>275.9</ele>
        <time>2019-08-25T09:19:30Z</time>
      </trkpt>
      <trkpt lat="46.37248" lon="4.82093">
        <ele>275.5</ele>
        <time>2019-08-25T09:19:35Z</time>
      </trkpt>
      <trkpt lat="46.37235" lon="4.8209">
        <ele>275</ele>
        <time>2019-08-25T09:19:41Z</time>
      </trkpt>
      <trkpt lat="46.37226" lon="4.82094">
        <ele>274.7</ele>
        <time>2019-08-25T09:19:45Z</time>
      </trkpt>
      <trkpt lat="46.37217" lon="4.82092">
        <ele>274.3</ele>
        <time>2019-08-25T09:19:51Z</time>
      </trkpt>
      <trkpt lat="46.37212" lon="4.82083">
        <ele>273.9</ele>
        <time>2019-08-25T09:19:55Z</time>
      </trkpt>
      <trkpt lat="46.37207" lon="4.82078">
        <ele>273.6</ele>
        <time>2019-08-25T09:20:00Z</time>
      </trkpt>
      <trkpt lat="46.37202" lon="4.82077">
        <ele>273.3</ele>
        <time>2019-08-25T09:20:02Z</time>
      </trkpt>
      <trkpt lat="46.37183" lon="4.82089">
        <ele>272.3</ele>
        <time>2019-08-25T09:20:07Z</time>
      </trkpt>
      <trkpt lat="46.37179" lon="4.82091">
        <ele>272.2</ele>
        <time>2019-08-25T09:20:08Z</time>
      </trkpt>
      <trkpt lat="46.37171" lon="4.82087">
        <ele>271.6</ele>
        <time>2019-08-25T09:20:12Z</time>
      </trkpt>
      <trkpt lat="46.37163" lon="4.82065">
        <ele>267.9</ele>
        <time>2019-08-25T09:20:16Z</time>
      </trkpt>
      <trkpt lat="46.37161" lon="4.82058">
        <ele>267.8</ele>
        <time>2019-08-25T09:20:17Z</time>
      </trkpt>
      <trkpt lat="46.37159" lon="4.8204">
        <ele>267.6</ele>
        <time>2019-08-25T09:20:20Z</time>
      </trkpt>
      <trkpt lat="46.37157" lon="4.82035">
        <ele>267.6</ele>
        <time>2019-08-25T09:20:21Z</time>
      </trkpt>
      <trkpt lat="46.37155" lon="4.8203">
        <ele>267.5</ele>
        <time>2019-08-25T09:20:22Z</time>
      </trkpt>
      <trkpt lat="46.37152" lon="4.82017">
        <ele>267.4</ele>
        <time>2019-08-25T09:20:26Z</time>
      </trkpt>
      <trkpt lat="46.37146" lon="4.82008">
        <ele>267.2</ele>
        <time>2019-08-25T09:23:12Z</time>
      </trkpt>
      <trkpt lat="46.37144" lon="4.82001">
        <ele>267</ele>
        <time>2019-08-25T09:23:14Z</time>
      </trkpt>
      <trkpt lat="46.37141" lon="4.81992">
        <ele>266.7</ele>
        <time>2019-08-25T09:23:16Z</time>
      </trkpt>
      <trkpt lat="46.37137" lon="4.81977">
        <ele>266.2</ele>
        <time>2019-08-25T09:23:19Z</time>
      </trkpt>
      <trkpt lat="46.37136" lon="4.81973">
        <ele>266.1</ele>
        <time>2019-08-25T09:23:20Z</time>
      </trkpt>
      <trkpt lat="46.37137" lon="4.8197">
        <ele>266.1</ele>
        <time>2019-08-25T09:23:21Z</time>
      </trkpt>
      <trkpt lat="46.37137" lon="4.81964">
        <ele>265.9</ele>
        <time>2019-08-25T09:23:23Z</time>
      </trkpt>
      <trkpt lat="46.37131" lon="4.81962">
        <ele>265.8</ele>
        <time>2019-08-25T09:23:26Z</time>
      </trkpt>
      <trkpt lat="46.37128" lon="4.81962">
        <ele>265.8</ele>
        <time>2019-08-25T09:23:27Z</time>
      </trkpt>
      <trkpt lat="46.37114" lon="4.81957">
        <ele>265.6</ele>
        <time>2019-08-25T09:23:31Z</time>
      </trkpt>
      <trkpt lat="46.37094" lon="4.81949">
        <ele>265</ele>
        <time>2019-08-25T09:23:36Z</time>
      </trkpt>
      <trkpt lat="46.37078" lon="4.81946">
        <ele>264.7</ele>
        <time>2019-08-25T09:23:39Z</time>
      </trkpt>
      <trkpt lat="46.37068" lon="4.81946">
        <ele>264.7</ele>
        <time>2019-08-25T09:23:41Z</time>
      </trkpt>
      <trkpt lat="46.37065" lon="4.81949">
        <ele>264.7</ele>
        <time>2019-08-25T09:23:42Z</time>
      </trkpt>
      <trkpt lat="46.37061" lon="4.81956">
        <ele>264.7</ele>
        <time>2019-08-25T09:23:44Z</time>
      </trkpt>
      <trkpt lat="46.37054" lon="4.81977">
        <ele>264.9</ele>
        <time>2019-08-25T09:23:48Z</time>
      </trkpt>
      <trkpt lat="46.37053" lon="4.81983">
        <ele>265</ele>
        <time>2019-08-25T09:23:49Z</time>
      </trkpt>
      <trkpt lat="46.37047" lon="4.81999">
        <ele>265.1</ele>
        <time>2019-08-25T09:23:53Z</time>
      </trkpt>
      <trkpt lat="46.37046" lon="4.82002">
        <ele>265.2</ele>
        <time>2019-08-25T09:23:54Z</time>
      </trkpt>
      <trkpt lat="46.37038" lon="4.82021">
        <ele>265.6</ele>
        <time>2019-08-25T09:24:00Z</time>
      </trkpt>
      <trkpt lat="46.37033" lon="4.82037">
        <ele>266.1</ele>
        <time>2019-08-25T09:24:05Z</time>
      </trkpt>
      <trkpt lat="46.37031" lon="4.82041">
        <ele>266.2</ele>
        <time>2019-08-25T09:24:06Z</time>
      </trkpt>
      <trkpt lat="46.37027" lon="4.82053">
        <ele>266.4</ele>
        <time>2019-08-25T09:24:10Z</time>
      </trkpt>
      <trkpt lat="46.37025" lon="4.82058">
        <ele>266.5</ele>
        <time>2019-08-25T09:24:12Z</time>
      </trkpt>
      <trkpt lat="46.37018" lon="4.82081">
        <ele>266.9</ele>
        <time>2019-08-25T09:24:20Z</time>
      </trkpt>
      <trkpt lat="46.37015" lon="4.82087">
        <ele>267.1</ele>
        <time>2019-08-25T09:24:23Z</time>
      </trkpt>
      <trkpt lat="46.37013" lon="4.82087">
        <ele>267.1</ele>
        <time>2019-08-25T09:24:24Z</time>
      </trkpt>
      <trkpt lat="46.37002" lon="4.8208">
        <ele>268</ele>
        <time>2019-08-25T09:24:31Z</time>
      </trkpt>
      <trkpt lat="46.3699" lon="4.82068">
        <ele>268.4</ele>
        <time>2019-08-25T09:24:38Z</time>
      </trkpt>
      <trkpt lat="46.36987" lon="4.82064">
        <ele>268.5</ele>
        <time>2019-08-25T09:24:40Z</time>
      </trkpt>
      <trkpt lat="46.36983" lon="4.82058">
        <ele>268.6</ele>
        <time>2019-08-25T09:24:42Z</time>
      </trkpt>
      <trkpt lat="46.36972" lon="4.82043">
        <ele>268.9</ele>
        <time>2019-08-25T09:24:47Z</time>
      </trkpt>
      <trkpt lat="46.36971" lon="4.8204">
        <ele>269</ele>
        <time>2019-08-25T09:24:48Z</time>
      </trkpt>
      <trkpt lat="46.36964" lon="4.82027">
        <ele>269.1</ele>
        <time>2019-08-25T09:24:52Z</time>
      </trkpt>
      <trkpt lat="46.36957" lon="4.82017">
        <ele>269.2</ele>
        <time>2019-08-25T09:24:55Z</time>
      </trkpt>
      <trkpt lat="46.36955" lon="4.82014">
        <ele>269.3</ele>
        <time>2019-08-25T09:24:56Z</time>
      </trkpt>
      <trkpt lat="46.36945" lon="4.82001">
        <ele>269.4</ele>
        <time>2019-08-25T09:25:01Z</time>
      </trkpt>
      <trkpt lat="46.36937" lon="4.81991">
        <ele>269.5</ele>
        <time>2019-08-25T09:25:05Z</time>
      </trkpt>
      <trkpt lat="46.36931" lon="4.81983">
        <ele>269.6</ele>
        <time>2019-08-25T09:25:08Z</time>
      </trkpt>
      <trkpt lat="46.36912" lon="4.81958">
        <ele>270.2</ele>
        <time>2019-08-25T09:25:16Z</time>
      </trkpt>
      <trkpt lat="46.36907" lon="4.8195">
        <ele>270.4</ele>
        <time>2019-08-25T09:25:18Z</time>
      </trkpt>
      <trkpt lat="46.36894" lon="4.81934">
        <ele>270.8</ele>
        <time>2019-08-25T09:25:22Z</time>
      </trkpt>
      <trkpt lat="46.36886" lon="4.81918">
        <ele>271.3</ele>
        <time>2019-08-25T09:25:26Z</time>
      </trkpt>
      <trkpt lat="46.36882" lon="4.81907">
        <ele>271.6</ele>
        <time>2019-08-25T09:25:28Z</time>
      </trkpt>
      <trkpt lat="46.36869" lon="4.81895">
        <ele>272.2</ele>
        <time>2019-08-25T09:25:31Z</time>
      </trkpt>
      <trkpt lat="46.36864" lon="4.81892">
        <ele>272.4</ele>
        <time>2019-08-25T09:25:32Z</time>
      </trkpt>
      <trkpt lat="46.36833" lon="4.81876">
        <ele>273.8</ele>
        <time>2019-08-25T09:25:39Z</time>
      </trkpt>
      <trkpt lat="46.36811" lon="4.81865">
        <ele>273.9</ele>
        <time>2019-08-25T09:25:44Z</time>
      </trkpt>
      <trkpt lat="46.36807" lon="4.81863">
        <ele>273.9</ele>
        <time>2019-08-25T09:25:45Z</time>
      </trkpt>
      <trkpt lat="46.36777" lon="4.81853">
        <ele>274.5</ele>
        <time>2019-08-25T09:25:52Z</time>
      </trkpt>
      <trkpt lat="46.36764" lon="4.81852">
        <ele>275.1</ele>
        <time>2019-08-25T09:25:55Z</time>
      </trkpt>
      <trkpt lat="46.36751" lon="4.81853">
        <ele>275.9</ele>
        <time>2019-08-25T09:25:58Z</time>
      </trkpt>
      <trkpt lat="46.36746" lon="4.81854">
        <ele>276.2</ele>
        <time>2019-08-25T09:25:59Z</time>
      </trkpt>
      <trkpt lat="46.36718" lon="4.81856">
        <ele>277.4</ele>
        <time>2019-08-25T09:26:06Z</time>
      </trkpt>
      <trkpt lat="46.36706" lon="4.81856">
        <ele>277.7</ele>
        <time>2019-08-25T09:26:09Z</time>
      </trkpt>
      <trkpt lat="46.36691" lon="4.81859">
        <ele>278.3</ele>
        <time>2019-08-25T09:26:14Z</time>
      </trkpt>
      <trkpt lat="46.36681" lon="4.81859">
        <ele>278.7</ele>
        <time>2019-08-25T09:26:17Z</time>
      </trkpt>
      <trkpt lat="46.36675" lon="4.8186">
        <ele>279</ele>
        <time>2019-08-25T09:26:19Z</time>
      </trkpt>
      <trkpt lat="46.36673" lon="4.8186">
        <ele>279.2</ele>
        <time>2019-08-25T09:26:20Z</time>
      </trkpt>
      <trkpt lat="46.3667" lon="4.8186">
        <ele>279.3</ele>
        <time>2019-08-25T09:26:21Z</time>
      </trkpt>
      <trkpt lat="46.36657" lon="4.8186">
        <ele>280.1</ele>
        <time>2019-08-25T09:26:25Z</time>
      </trkpt>
      <trkpt lat="46.36648" lon="4.81858">
        <ele>280.9</ele>
        <time>2019-08-25T09:26:28Z</time>
      </trkpt>
      <trkpt lat="46.36636" lon="4.81857">
        <ele>281.9</ele>
        <time>2019-08-25T09:26:32Z</time>
      </trkpt>
      <trkpt lat="46.36627" lon="4.81854">
        <ele>282.6</ele>
        <time>2019-08-25T09:26:35Z</time>
      </trkpt>
      <trkpt lat="46.36609" lon="4.81846">
        <ele>284.1</ele>
        <time>2019-08-25T09:26:42Z</time>
      </trkpt>
      <trkpt lat="46.36595" lon="4.81838">
        <ele>284.8</ele>
        <time>2019-08-25T09:26:48Z</time>
      </trkpt>
      <trkpt lat="46.36593" lon="4.81837">
        <ele>285</ele>
        <time>2019-08-25T09:26:49Z</time>
      </trkpt>
      <trkpt lat="46.36586" lon="4.81834">
        <ele>285.3</ele>
        <time>2019-08-25T09:26:52Z</time>
      </trkpt>
      <trkpt lat="46.36579" lon="4.81832">
        <ele>285.7</ele>
        <time>2019-08-25T09:26:55Z</time>
      </trkpt>
      <trkpt lat="46.36562" lon="4.8183">
        <ele>286.7</ele>
        <time>2019-08-25T09:27:02Z</time>
      </trkpt>
      <trkpt lat="46.36546" lon="4.81828">
        <ele>287.5</ele>
        <time>2019-08-25T09:27:09Z</time>
      </trkpt>
      <trkpt lat="46.36526" lon="4.81824">
        <ele>288.4</ele>
        <time>2019-08-25T09:27:17Z</time>
      </trkpt>
      <trkpt lat="46.36518" lon="4.81822">
        <ele>288.7</ele>
        <time>2019-08-25T09:27:21Z</time>
      </trkpt>
      <trkpt lat="46.36514" lon="4.8182">
        <ele>288.9</ele>
        <time>2019-08-25T09:27:23Z</time>
      </trkpt>
      <trkpt lat="46.36509" lon="4.81819">
        <ele>289.1</ele>
        <time>2019-08-25T09:27:25Z</time>
      </trkpt>
      <trkpt lat="46.36505" lon="4.81818">
        <ele>289.2</ele>
        <time>2019-08-25T09:27:26Z</time>
      </trkpt>
      <trkpt lat="46.36489" lon="4.81812">
        <ele>289.6</ele>
        <time>2019-08-25T09:27:32Z</time>
      </trkpt>
      <trkpt lat="46.36483" lon="4.81809">
        <ele>289.6</ele>
        <time>2019-08-25T09:27:34Z</time>
      </trkpt>
      <trkpt lat="46.36474" lon="4.818">
        <ele>289.8</ele>
        <time>2019-08-25T09:27:38Z</time>
      </trkpt>
      <trkpt lat="46.36468" lon="4.81793">
        <ele>289.8</ele>
        <time>2019-08-25T09:27:41Z</time>
      </trkpt>
      <trkpt lat="46.36461" lon="4.81786">
        <ele>289.9</ele>
        <time>2019-08-25T09:27:44Z</time>
      </trkpt>
      <trkpt lat="46.36458" lon="4.81784">
        <ele>289.9</ele>
        <time>2019-08-25T09:27:45Z</time>
      </trkpt>
      <trkpt lat="46.36445" lon="4.81773">
        <ele>290</ele>
        <time>2019-08-25T09:27:50Z</time>
      </trkpt>
      <trkpt lat="46.36449" lon="4.81761">
        <ele>289.4</ele>
        <time>2019-08-25T09:27:54Z</time>
      </trkpt>
      <trkpt lat="46.36451" lon="4.81755">
        <ele>289.3</ele>
        <time>2019-08-25T09:27:56Z</time>
      </trkpt>
      <trkpt lat="46.36453" lon="4.81745">
        <ele>289.3</ele>
        <time>2019-08-25T09:27:59Z</time>
      </trkpt>
      <trkpt lat="46.36453" lon="4.81741">
        <ele>289.3</ele>
        <time>2019-08-25T09:28:00Z</time>
      </trkpt>
      <trkpt lat="46.36459" lon="4.81713">
        <ele>289.1</ele>
        <time>2019-08-25T09:28:06Z</time>
      </trkpt>
      <trkpt lat="46.36463" lon="4.8168">
        <ele>288.4</ele>
        <time>2019-08-25T09:28:10Z</time>
      </trkpt>
      <trkpt lat="46.36464" lon="4.81671">
        <ele>288.1</ele>
        <time>2019-08-25T09:28:11Z</time>
      </trkpt>
      <trkpt lat="46.36468" lon="4.81643">
        <ele>286.5</ele>
        <time>2019-08-25T09:28:14Z</time>
      </trkpt>
      <trkpt lat="46.36472" lon="4.81623">
        <ele>285.6</ele>
        <time>2019-08-25T09:28:16Z</time>
      </trkpt>
      <trkpt lat="46.36491" lon="4.81552">
        <ele>283.1</ele>
        <time>2019-08-25T09:28:23Z</time>
      </trkpt>
      <trkpt lat="46.36495" lon="4.81543">
        <ele>282.4</ele>
        <time>2019-08-25T09:28:24Z</time>
      </trkpt>
      <trkpt lat="46.36511" lon="4.81518">
        <ele>280.2</ele>
        <time>2019-08-25T09:28:27Z</time>
      </trkpt>
      <trkpt lat="46.36516" lon="4.8151">
        <ele>279.7</ele>
        <time>2019-08-25T09:28:28Z</time>
      </trkpt>
      <trkpt lat="46.36532" lon="4.81483">
        <ele>277.7</ele>
        <time>2019-08-25T09:28:32Z</time>
      </trkpt>
      <trkpt lat="46.3654" lon="4.81451">
        <ele>275.5</ele>
        <time>2019-08-25T09:28:36Z</time>
      </trkpt>
      <trkpt lat="46.36542" lon="4.81443">
        <ele>275.3</ele>
        <time>2019-08-25T09:28:37Z</time>
      </trkpt>
      <trkpt lat="46.36546" lon="4.81426">
        <ele>274.9</ele>
        <time>2019-08-25T09:28:39Z</time>
      </trkpt>
      <trkpt lat="46.36554" lon="4.81399">
        <ele>273.7</ele>
        <time>2019-08-25T09:28:42Z</time>
      </trkpt>
      <trkpt lat="46.36557" lon="4.8139">
        <ele>273.2</ele>
        <time>2019-08-25T09:28:43Z</time>
      </trkpt>
      <trkpt lat="46.36568" lon="4.81354">
        <ele>271.6</ele>
        <time>2019-08-25T09:28:47Z</time>
      </trkpt>
      <trkpt lat="46.36564" lon="4.81329">
        <ele>271.2</ele>
        <time>2019-08-25T09:28:50Z</time>
      </trkpt>
      <trkpt lat="46.36551" lon="4.81301">
        <ele>270.4</ele>
        <time>2019-08-25T09:28:54Z</time>
      </trkpt>
      <trkpt lat="46.36547" lon="4.81296">
        <ele>270.2</ele>
        <time>2019-08-25T09:28:55Z</time>
      </trkpt>
      <trkpt lat="46.36544" lon="4.8129">
        <ele>270.2</ele>
        <time>2019-08-25T09:28:56Z</time>
      </trkpt>
      <trkpt lat="46.36528" lon="4.8126">
        <ele>270.1</ele>
        <time>2019-08-25T09:29:01Z</time>
      </trkpt>
      <trkpt lat="46.36524" lon="4.8125">
        <ele>270.1</ele>
        <time>2019-08-25T09:29:03Z</time>
      </trkpt>
      <trkpt lat="46.36515" lon="4.81238">
        <ele>270.2</ele>
        <time>2019-08-25T09:29:06Z</time>
      </trkpt>
      <trkpt lat="46.36502" lon="4.81226">
        <ele>270.8</ele>
        <time>2019-08-25T09:29:11Z</time>
      </trkpt>
      <trkpt lat="46.36499" lon="4.81223">
        <ele>270.9</ele>
        <time>2019-08-25T09:29:13Z</time>
      </trkpt>
      <trkpt lat="46.36484" lon="4.81217">
        <ele>271.6</ele>
        <time>2019-08-25T09:29:21Z</time>
      </trkpt>
      <trkpt lat="46.36467" lon="4.81215">
        <ele>272.6</ele>
        <time>2019-08-25T09:29:29Z</time>
      </trkpt>
      <trkpt lat="46.36452" lon="4.81204">
        <ele>273</ele>
        <time>2019-08-25T09:29:36Z</time>
      </trkpt>
      <trkpt lat="46.36439" lon="4.8119">
        <ele>273.3</ele>
        <time>2019-08-25T09:29:43Z</time>
      </trkpt>
      <trkpt lat="46.36418" lon="4.81172">
        <ele>273.9</ele>
        <time>2019-08-25T09:29:50Z</time>
      </trkpt>
      <trkpt lat="46.36405" lon="4.81163">
        <ele>273.9</ele>
        <time>2019-08-25T09:29:53Z</time>
      </trkpt>
      <trkpt lat="46.36395" lon="4.81158">
        <ele>273.7</ele>
        <time>2019-08-25T09:29:55Z</time>
      </trkpt>
      <trkpt lat="46.3638" lon="4.81151">
        <ele>273.2</ele>
        <time>2019-08-25T09:29:57Z</time>
      </trkpt>
      <trkpt lat="46.36362" lon="4.81141">
        <ele>272.8</ele>
        <time>2019-08-25T09:30:00Z</time>
      </trkpt>
      <trkpt lat="46.36348" lon="4.81131">
        <ele>272.5</ele>
        <time>2019-08-25T09:30:03Z</time>
      </trkpt>
      <trkpt lat="46.36338" lon="4.81125">
        <ele>272.1</ele>
        <time>2019-08-25T09:30:05Z</time>
      </trkpt>
      <trkpt lat="46.36325" lon="4.81115">
        <ele>271.7</ele>
        <time>2019-08-25T09:30:08Z</time>
      </trkpt>
      <trkpt lat="46.36309" lon="4.81103">
        <ele>271.4</ele>
        <time>2019-08-25T09:30:12Z</time>
      </trkpt>
      <trkpt lat="46.36288" lon="4.81083">
        <ele>271.5</ele>
        <time>2019-08-25T09:30:17Z</time>
      </trkpt>
      <trkpt lat="46.36284" lon="4.8108">
        <ele>271.6</ele>
        <time>2019-08-25T09:30:18Z</time>
      </trkpt>
      <trkpt lat="46.36273" lon="4.81069">
        <ele>272.3</ele>
        <time>2019-08-25T09:30:21Z</time>
      </trkpt>
      <trkpt lat="46.36254" lon="4.81051">
        <ele>273.8</ele>
        <time>2019-08-25T09:30:26Z</time>
      </trkpt>
      <trkpt lat="46.3625" lon="4.81049">
        <ele>274.2</ele>
        <time>2019-08-25T09:30:27Z</time>
      </trkpt>
      <trkpt lat="46.36235" lon="4.81039">
        <ele>275.1</ele>
        <time>2019-08-25T09:30:31Z</time>
      </trkpt>
      <trkpt lat="46.36209" lon="4.81031">
        <ele>275.7</ele>
        <time>2019-08-25T09:30:38Z</time>
      </trkpt>
      <trkpt lat="46.36205" lon="4.81029">
        <ele>275.8</ele>
        <time>2019-08-25T09:30:39Z</time>
      </trkpt>
      <trkpt lat="46.36196" lon="4.81029">
        <ele>275.9</ele>
        <time>2019-08-25T09:30:42Z</time>
      </trkpt>
      <trkpt lat="46.36194" lon="4.8103">
        <ele>275.9</ele>
        <time>2019-08-25T09:30:43Z</time>
      </trkpt>
      <trkpt lat="46.36192" lon="4.81031">
        <ele>275.9</ele>
        <time>2019-08-25T09:30:44Z</time>
      </trkpt>
      <trkpt lat="46.36184" lon="4.81032">
        <ele>276</ele>
        <time>2019-08-25T09:30:47Z</time>
      </trkpt>
      <trkpt lat="46.36181" lon="4.81032">
        <ele>276</ele>
        <time>2019-08-25T09:30:48Z</time>
      </trkpt>
      <trkpt lat="46.36175" lon="4.81032">
        <ele>276</ele>
        <time>2019-08-25T09:30:50Z</time>
      </trkpt>
      <trkpt lat="46.36169" lon="4.81035">
        <ele>276</ele>
        <time>2019-08-25T09:30:53Z</time>
      </trkpt>
      <trkpt lat="46.36168" lon="4.81038">
        <ele>276</ele>
        <time>2019-08-25T09:30:54Z</time>
      </trkpt>
      <trkpt lat="46.36163" lon="4.81053">
        <ele>276</ele>
        <time>2019-08-25T09:30:58Z</time>
      </trkpt>
      <trkpt lat="46.36156" lon="4.81066">
        <ele>276</ele>
        <time>2019-08-25T09:31:01Z</time>
      </trkpt>
      <trkpt lat="46.36154" lon="4.81072">
        <ele>275.9</ele>
        <time>2019-08-25T09:31:02Z</time>
      </trkpt>
      <trkpt lat="46.36148" lon="4.81086">
        <ele>275.9</ele>
        <time>2019-08-25T09:31:04Z</time>
      </trkpt>
      <trkpt lat="46.36142" lon="4.81093">
        <ele>275.9</ele>
        <time>2019-08-25T09:31:05Z</time>
      </trkpt>
      <trkpt lat="46.36136" lon="4.811">
        <ele>275.9</ele>
        <time>2019-08-25T09:31:06Z</time>
      </trkpt>
      <trkpt lat="46.36131" lon="4.81104">
        <ele>275.8</ele>
        <time>2019-08-25T09:31:07Z</time>
      </trkpt>
      <trkpt lat="46.36123" lon="4.81102">
        <ele>275.8</ele>
        <time>2019-08-25T09:31:09Z</time>
      </trkpt>
      <trkpt lat="46.36118" lon="4.811">
        <ele>275.8</ele>
        <time>2019-08-25T09:31:10Z</time>
      </trkpt>
      <trkpt lat="46.36113" lon="4.81098">
        <ele>275.8</ele>
        <time>2019-08-25T09:31:11Z</time>
      </trkpt>
      <trkpt lat="46.36104" lon="4.81098">
        <ele>275.8</ele>
        <time>2019-08-25T09:31:13Z</time>
      </trkpt>
      <trkpt lat="46.36102" lon="4.81098">
        <ele>275.8</ele>
        <time>2019-08-25T09:31:14Z</time>
      </trkpt>
      <trkpt lat="46.36098" lon="4.81097">
        <ele>275.8</ele>
        <time>2019-08-25T09:31:15Z</time>
      </trkpt>
      <trkpt lat="46.36086" lon="4.81094">
        <ele>275.9</ele>
        <time>2019-08-25T09:31:19Z</time>
      </trkpt>
      <trkpt lat="46.36074" lon="4.811">
        <ele>275.9</ele>
        <time>2019-08-25T09:31:23Z</time>
      </trkpt>
      <trkpt lat="46.36072" lon="4.81102">
        <ele>275.9</ele>
        <time>2019-08-25T09:31:24Z</time>
      </trkpt>
      <trkpt lat="46.36065" lon="4.81109">
        <ele>276</ele>
        <time>2019-08-25T09:31:28Z</time>
      </trkpt>
      <trkpt lat="46.36063" lon="4.81115">
        <ele>276</ele>
        <time>2019-08-25T09:31:31Z</time>
      </trkpt>
      <trkpt lat="46.36065" lon="4.81119">
        <ele>276.7</ele>
        <time>2019-08-25T09:31:33Z</time>
      </trkpt>
      <trkpt lat="46.36071" lon="4.81128">
        <ele>277.9</ele>
        <time>2019-08-25T09:31:37Z</time>
      </trkpt>
      <trkpt lat="46.36079" lon="4.81141">
        <ele>279.4</ele>
        <time>2019-08-25T09:31:43Z</time>
      </trkpt>
      <trkpt lat="46.3608" lon="4.81143">
        <ele>279.6</ele>
        <time>2019-08-25T09:31:44Z</time>
      </trkpt>
      <trkpt lat="46.36083" lon="4.81152">
        <ele>280.4</ele>
        <time>2019-08-25T09:31:47Z</time>
      </trkpt>
      <trkpt lat="46.36087" lon="4.81163">
        <ele>281.3</ele>
        <time>2019-08-25T09:31:51Z</time>
      </trkpt>
      <trkpt lat="46.36091" lon="4.81177">
        <ele>282.5</ele>
        <time>2019-08-25T09:31:55Z</time>
      </trkpt>
      <trkpt lat="46.36093" lon="4.81186">
        <ele>283.2</ele>
        <time>2019-08-25T09:31:58Z</time>
      </trkpt>
      <trkpt lat="46.36096" lon="4.81196">
        <ele>283.9</ele>
        <time>2019-08-25T09:32:01Z</time>
      </trkpt>
      <trkpt lat="46.36098" lon="4.81205">
        <ele>284.6</ele>
        <time>2019-08-25T09:32:04Z</time>
      </trkpt>
      <trkpt lat="46.36101" lon="4.81216">
        <ele>285.3</ele>
        <time>2019-08-25T09:32:08Z</time>
      </trkpt>
      <trkpt lat="46.36103" lon="4.8122">
        <ele>285.7</ele>
        <time>2019-08-25T09:32:10Z</time>
      </trkpt>
      <trkpt lat="46.36106" lon="4.81234">
        <ele>286.7</ele>
        <time>2019-08-25T09:32:15Z</time>
      </trkpt>
      <trkpt lat="46.36108" lon="4.81242">
        <ele>287.3</ele>
        <time>2019-08-25T09:32:19Z</time>
      </trkpt>
      <trkpt lat="46.36112" lon="4.8125">
        <ele>288</ele>
        <time>2019-08-25T09:32:23Z</time>
      </trkpt>
      <trkpt lat="46.36113" lon="4.81253">
        <ele>288.3</ele>
        <time>2019-08-25T09:32:24Z</time>
      </trkpt>
      <trkpt lat="46.36117" lon="4.81266">
        <ele>289.3</ele>
        <time>2019-08-25T09:32:28Z</time>
      </trkpt>
      <trkpt lat="46.3612" lon="4.81273">
        <ele>290</ele>
        <time>2019-08-25T09:32:31Z</time>
      </trkpt>
      <trkpt lat="46.36121" lon="4.81276">
        <ele>290.2</ele>
        <time>2019-08-25T09:32:32Z</time>
      </trkpt>
      <trkpt lat="46.36129" lon="4.81288">
        <ele>291.2</ele>
        <time>2019-08-25T09:32:37Z</time>
      </trkpt>
      <trkpt lat="46.36137" lon="4.81302">
        <ele>292.2</ele>
        <time>2019-08-25T09:32:44Z</time>
      </trkpt>
      <trkpt lat="46.36144" lon="4.81318">
        <ele>293.1</ele>
        <time>2019-08-25T09:32:50Z</time>
      </trkpt>
      <trkpt lat="46.36147" lon="4.81325">
        <ele>293.3</ele>
        <time>2019-08-25T09:32:52Z</time>
      </trkpt>
      <trkpt lat="46.36157" lon="4.81353">
        <ele>294.6</ele>
        <time>2019-08-25T09:33:00Z</time>
      </trkpt>
      <trkpt lat="46.36162" lon="4.81374">
        <ele>295.5</ele>
        <time>2019-08-25T09:33:06Z</time>
      </trkpt>
      <trkpt lat="46.36162" lon="4.81377">
        <ele>295.7</ele>
        <time>2019-08-25T09:33:07Z</time>
      </trkpt>
      <trkpt lat="46.36163" lon="4.81388">
        <ele>296.3</ele>
        <time>2019-08-25T09:33:12Z</time>
      </trkpt>
      <trkpt lat="46.36164" lon="4.81396">
        <ele>296.9</ele>
        <time>2019-08-25T09:33:15Z</time>
      </trkpt>
      <trkpt lat="46.36164" lon="4.81399">
        <ele>297.1</ele>
        <time>2019-08-25T09:33:16Z</time>
      </trkpt>
      <trkpt lat="46.36163" lon="4.81416">
        <ele>298.3</ele>
        <time>2019-08-25T09:33:22Z</time>
      </trkpt>
      <trkpt lat="46.36162" lon="4.81429">
        <ele>299.1</ele>
        <time>2019-08-25T09:33:27Z</time>
      </trkpt>
      <trkpt lat="46.36162" lon="4.81432">
        <ele>299.2</ele>
        <time>2019-08-25T09:33:28Z</time>
      </trkpt>
      <trkpt lat="46.3616" lon="4.8145">
        <ele>299.8</ele>
        <time>2019-08-25T09:33:35Z</time>
      </trkpt>
      <trkpt lat="46.36159" lon="4.81453">
        <ele>299.8</ele>
        <time>2019-08-25T09:33:36Z</time>
      </trkpt>
      <trkpt lat="46.36157" lon="4.81456">
        <ele>299.9</ele>
        <time>2019-08-25T09:33:38Z</time>
      </trkpt>
      <trkpt lat="46.36154" lon="4.81458">
        <ele>300.4</ele>
        <time>2019-08-25T09:33:40Z</time>
      </trkpt>
      <trkpt lat="46.36153" lon="4.81459">
        <ele>300.5</ele>
        <time>2019-08-25T09:33:41Z</time>
      </trkpt>
      <trkpt lat="46.3615" lon="4.81461">
        <ele>300.7</ele>
        <time>2019-08-25T09:33:43Z</time>
      </trkpt>
      <trkpt lat="46.36149" lon="4.81461">
        <ele>300.8</ele>
        <time>2019-08-25T09:33:44Z</time>
      </trkpt>
      <trkpt lat="46.36142" lon="4.81464">
        <ele>301.3</ele>
        <time>2019-08-25T09:33:49Z</time>
      </trkpt>
      <trkpt lat="46.36133" lon="4.81464">
        <ele>301.7</ele>
        <time>2019-08-25T09:33:54Z</time>
      </trkpt>
      <trkpt lat="46.36131" lon="4.81463">
        <ele>301.8</ele>
        <time>2019-08-25T09:33:55Z</time>
      </trkpt>
      <trkpt lat="46.36121" lon="4.8146">
        <ele>302.6</ele>
        <time>2019-08-25T09:34:00Z</time>
      </trkpt>
      <trkpt lat="46.36119" lon="4.81458">
        <ele>302.7</ele>
        <time>2019-08-25T09:34:01Z</time>
      </trkpt>
      <trkpt lat="46.36115" lon="4.81456">
        <ele>303</ele>
        <time>2019-08-25T09:34:03Z</time>
      </trkpt>
      <trkpt lat="46.36105" lon="4.81451">
        <ele>303.5</ele>
        <time>2019-08-25T09:34:09Z</time>
      </trkpt>
      <trkpt lat="46.36101" lon="4.81448">
        <ele>303.7</ele>
        <time>2019-08-25T09:34:12Z</time>
      </trkpt>
      <trkpt lat="46.36094" lon="4.81446">
        <ele>304.1</ele>
        <time>2019-08-25T09:34:17Z</time>
      </trkpt>
      <trkpt lat="46.36087" lon="4.81446">
        <ele>304.4</ele>
        <time>2019-08-25T09:34:21Z</time>
      </trkpt>
      <trkpt lat="46.3608" lon="4.81445">
        <ele>304.6</ele>
        <time>2019-08-25T09:34:25Z</time>
      </trkpt>
      <trkpt lat="46.36078" lon="4.81445">
        <ele>304.7</ele>
        <time>2019-08-25T09:34:26Z</time>
      </trkpt>
      <trkpt lat="46.36072" lon="4.81445">
        <ele>304.9</ele>
        <time>2019-08-25T09:34:29Z</time>
      </trkpt>
      <trkpt lat="46.36064" lon="4.81443">
        <ele>305.3</ele>
        <time>2019-08-25T09:34:32Z</time>
      </trkpt>
      <trkpt lat="46.36054" lon="4.8144">
        <ele>305.9</ele>
        <time>2019-08-25T09:34:36Z</time>
      </trkpt>
      <trkpt lat="46.36049" lon="4.81439">
        <ele>306.2</ele>
        <time>2019-08-25T09:34:38Z</time>
      </trkpt>
      <trkpt lat="46.36047" lon="4.81438">
        <ele>306.4</ele>
        <time>2019-08-25T09:34:39Z</time>
      </trkpt>
      <trkpt lat="46.36041" lon="4.81435">
        <ele>306.7</ele>
        <time>2019-08-25T09:34:41Z</time>
      </trkpt>
      <trkpt lat="46.3603" lon="4.81429">
        <ele>307.3</ele>
        <time>2019-08-25T09:34:45Z</time>
      </trkpt>
      <trkpt lat="46.36011" lon="4.81419">
        <ele>308.1</ele>
        <time>2019-08-25T09:34:51Z</time>
      </trkpt>
      <trkpt lat="46.36001" lon="4.81415">
        <ele>308.4</ele>
        <time>2019-08-25T09:34:54Z</time>
      </trkpt>
      <trkpt lat="46.35989" lon="4.81409">
        <ele>308.8</ele>
        <time>2019-08-25T09:34:58Z</time>
      </trkpt>
      <trkpt lat="46.35982" lon="4.81407">
        <ele>308.9</ele>
        <time>2019-08-25T09:35:00Z</time>
      </trkpt>
      <trkpt lat="46.35973" lon="4.81401">
        <ele>309.2</ele>
        <time>2019-08-25T09:35:03Z</time>
      </trkpt>
      <trkpt lat="46.35968" lon="4.81399">
        <ele>309.2</ele>
        <time>2019-08-25T09:35:04Z</time>
      </trkpt>
      <trkpt lat="46.35951" lon="4.81392">
        <ele>309.5</ele>
        <time>2019-08-25T09:35:09Z</time>
      </trkpt>
      <trkpt lat="46.35946" lon="4.81391">
        <ele>309.5</ele>
        <time>2019-08-25T09:35:12Z</time>
      </trkpt>
      <trkpt lat="46.35946" lon="4.81421">
        <ele>313.8</ele>
        <time>2019-08-25T09:35:30Z</time>
      </trkpt>
      <trkpt lat="46.35948" lon="4.81427">
        <ele>314.4</ele>
        <time>2019-08-25T09:35:33Z</time>
      </trkpt>
      <trkpt lat="46.35948" lon="4.81434">
        <ele>315</ele>
        <time>2019-08-25T09:35:37Z</time>
      </trkpt>
      <trkpt lat="46.35949" lon="4.81439">
        <ele>315.5</ele>
        <time>2019-08-25T09:35:40Z</time>
      </trkpt>
      <trkpt lat="46.3595" lon="4.81454">
        <ele>317.1</ele>
        <time>2019-08-25T09:35:48Z</time>
      </trkpt>
      <trkpt lat="46.35949" lon="4.81464">
        <ele>318.1</ele>
        <time>2019-08-25T09:35:52Z</time>
      </trkpt>
      <trkpt lat="46.3595" lon="4.81478">
        <ele>319.1</ele>
        <time>2019-08-25T09:35:59Z</time>
      </trkpt>
      <trkpt lat="46.35948" lon="4.8149">
        <ele>319.9</ele>
        <time>2019-08-25T09:36:05Z</time>
      </trkpt>
      <trkpt lat="46.35949" lon="4.81501">
        <ele>320.5</ele>
        <time>2019-08-25T09:36:09Z</time>
      </trkpt>
      <trkpt lat="46.35951" lon="4.8151">
        <ele>321</ele>
        <time>2019-08-25T09:36:13Z</time>
      </trkpt>
      <trkpt lat="46.35951" lon="4.81525">
        <ele>321.3</ele>
        <time>2019-08-25T09:36:19Z</time>
      </trkpt>
      <trkpt lat="46.35954" lon="4.81554">
        <ele>321.7</ele>
        <time>2019-08-25T09:36:26Z</time>
      </trkpt>
      <trkpt lat="46.35949" lon="4.81564">
        <ele>321.6</ele>
        <time>2019-08-25T09:36:37Z</time>
      </trkpt>
      <trkpt lat="46.35943" lon="4.81581">
        <ele>321.5</ele>
        <time>2019-08-25T09:36:42Z</time>
      </trkpt>
      <trkpt lat="46.35937" lon="4.8161">
        <ele>321.1</ele>
        <time>2019-08-25T09:36:48Z</time>
      </trkpt>
      <trkpt lat="46.35935" lon="4.81613">
        <ele>320.8</ele>
        <time>2019-08-25T09:36:49Z</time>
      </trkpt>
      <trkpt lat="46.35928" lon="4.81621">
        <ele>320.3</ele>
        <time>2019-08-25T09:36:52Z</time>
      </trkpt>
      <trkpt lat="46.35922" lon="4.81634">
        <ele>319.6</ele>
        <time>2019-08-25T09:36:55Z</time>
      </trkpt>
      <trkpt lat="46.35922" lon="4.81638">
        <ele>319.2</ele>
        <time>2019-08-25T09:36:56Z</time>
      </trkpt>
      <trkpt lat="46.35926" lon="4.81665">
        <ele>317.9</ele>
        <time>2019-08-25T09:37:01Z</time>
      </trkpt>
      <trkpt lat="46.35922" lon="4.81691">
        <ele>316.9</ele>
        <time>2019-08-25T09:37:06Z</time>
      </trkpt>
      <trkpt lat="46.35924" lon="4.81697">
        <ele>316.5</ele>
        <time>2019-08-25T09:37:08Z</time>
      </trkpt>
      <trkpt lat="46.35926" lon="4.81699">
        <ele>316.3</ele>
        <time>2019-08-25T09:37:10Z</time>
      </trkpt>
      <trkpt lat="46.35926" lon="4.81707">
        <ele>315.9</ele>
        <time>2019-08-25T09:37:13Z</time>
      </trkpt>
      <trkpt lat="46.35925" lon="4.81711">
        <ele>315.6</ele>
        <time>2019-08-25T09:37:14Z</time>
      </trkpt>
      <trkpt lat="46.35922" lon="4.81716">
        <ele>314.8</ele>
        <time>2019-08-25T09:37:16Z</time>
      </trkpt>
      <trkpt lat="46.35919" lon="4.81723">
        <ele>314</ele>
        <time>2019-08-25T09:37:18Z</time>
      </trkpt>
      <trkpt lat="46.35919" lon="4.81744">
        <ele>312.6</ele>
        <time>2019-08-25T09:37:22Z</time>
      </trkpt>
      <trkpt lat="46.35914" lon="4.8176">
        <ele>311</ele>
        <time>2019-08-25T09:37:25Z</time>
      </trkpt>
      <trkpt lat="46.35913" lon="4.81766">
        <ele>310.4</ele>
        <time>2019-08-25T09:37:26Z</time>
      </trkpt>
      <trkpt lat="46.35912" lon="4.81785">
        <ele>308.4</ele>
        <time>2019-08-25T09:37:29Z</time>
      </trkpt>
      <trkpt lat="46.35914" lon="4.81797">
        <ele>307.7</ele>
        <time>2019-08-25T09:37:31Z</time>
      </trkpt>
      <trkpt lat="46.35915" lon="4.81803">
        <ele>306.9</ele>
        <time>2019-08-25T09:37:32Z</time>
      </trkpt>
      <trkpt lat="46.35915" lon="4.81808">
        <ele>306.4</ele>
        <time>2019-08-25T09:37:33Z</time>
      </trkpt>
      <trkpt lat="46.35909" lon="4.81816">
        <ele>305.5</ele>
        <time>2019-08-25T09:37:35Z</time>
      </trkpt>
      <trkpt lat="46.35905" lon="4.81822">
        <ele>304.9</ele>
        <time>2019-08-25T09:37:37Z</time>
      </trkpt>
      <trkpt lat="46.35905" lon="4.81831">
        <ele>304.3</ele>
        <time>2019-08-25T09:37:39Z</time>
      </trkpt>
      <trkpt lat="46.35906" lon="4.81842">
        <ele>303.6</ele>
        <time>2019-08-25T09:37:41Z</time>
      </trkpt>
      <trkpt lat="46.3591" lon="4.81863">
        <ele>302.1</ele>
        <time>2019-08-25T09:37:44Z</time>
      </trkpt>
      <trkpt lat="46.35912" lon="4.81871">
        <ele>301.3</ele>
        <time>2019-08-25T09:37:45Z</time>
      </trkpt>
      <trkpt lat="46.35914" lon="4.81879">
        <ele>300.6</ele>
        <time>2019-08-25T09:37:46Z</time>
      </trkpt>
      <trkpt lat="46.35916" lon="4.81886">
        <ele>299.9</ele>
        <time>2019-08-25T09:37:47Z</time>
      </trkpt>
      <trkpt lat="46.35918" lon="4.81894">
        <ele>299.2</ele>
        <time>2019-08-25T09:37:48Z</time>
      </trkpt>
      <trkpt lat="46.35922" lon="4.81908">
        <ele>297.8</ele>
        <time>2019-08-25T09:37:50Z</time>
      </trkpt>
      <trkpt lat="46.35922" lon="4.81915">
        <ele>297.2</ele>
        <time>2019-08-25T09:37:51Z</time>
      </trkpt>
      <trkpt lat="46.35924" lon="4.81932">
        <ele>295.6</ele>
        <time>2019-08-25T09:37:54Z</time>
      </trkpt>
      <trkpt lat="46.35923" lon="4.81941">
        <ele>294.9</ele>
        <time>2019-08-25T09:37:56Z</time>
      </trkpt>
      <trkpt lat="46.35922" lon="4.81944">
        <ele>294.6</ele>
        <time>2019-08-25T09:37:57Z</time>
      </trkpt>
      <trkpt lat="46.35918" lon="4.81959">
        <ele>293.6</ele>
        <time>2019-08-25T09:38:01Z</time>
      </trkpt>
      <trkpt lat="46.35913" lon="4.8197">
        <ele>292.7</ele>
        <time>2019-08-25T09:38:04Z</time>
      </trkpt>
      <trkpt lat="46.35908" lon="4.81976">
        <ele>292</ele>
        <time>2019-08-25T09:38:06Z</time>
      </trkpt>
      <trkpt lat="46.35903" lon="4.81983">
        <ele>291.3</ele>
        <time>2019-08-25T09:38:08Z</time>
      </trkpt>
      <trkpt lat="46.35898" lon="4.8199">
        <ele>290.6</ele>
        <time>2019-08-25T09:38:10Z</time>
      </trkpt>
      <trkpt lat="46.35894" lon="4.81993">
        <ele>290.1</ele>
        <time>2019-08-25T09:38:11Z</time>
      </trkpt>
      <trkpt lat="46.35887" lon="4.81994">
        <ele>289.4</ele>
        <time>2019-08-25T09:38:13Z</time>
      </trkpt>
      <trkpt lat="46.35881" lon="4.81994">
        <ele>288.8</ele>
        <time>2019-08-25T09:38:15Z</time>
      </trkpt>
      <trkpt lat="46.35877" lon="4.81995">
        <ele>288.4</ele>
        <time>2019-08-25T09:38:16Z</time>
      </trkpt>
      <trkpt lat="46.35873" lon="4.81996">
        <ele>287.9</ele>
        <time>2019-08-25T09:38:17Z</time>
      </trkpt>
      <trkpt lat="46.35864" lon="4.81993">
        <ele>287</ele>
        <time>2019-08-25T09:38:19Z</time>
      </trkpt>
      <trkpt lat="46.3586" lon="4.81992">
        <ele>286.6</ele>
        <time>2019-08-25T09:38:20Z</time>
      </trkpt>
      <trkpt lat="46.35857" lon="4.81993">
        <ele>286.2</ele>
        <time>2019-08-25T09:38:21Z</time>
      </trkpt>
      <trkpt lat="46.35849" lon="4.81992">
        <ele>285.5</ele>
        <time>2019-08-25T09:38:24Z</time>
      </trkpt>
      <trkpt lat="46.35834" lon="4.81995">
        <ele>284.2</ele>
        <time>2019-08-25T09:38:28Z</time>
      </trkpt>
      <trkpt lat="46.35816" lon="4.82014">
        <ele>282.6</ele>
        <time>2019-08-25T09:38:33Z</time>
      </trkpt>
      <trkpt lat="46.35807" lon="4.82024">
        <ele>281.8</ele>
        <time>2019-08-25T09:38:35Z</time>
      </trkpt>
      <trkpt lat="46.35794" lon="4.82036">
        <ele>281</ele>
        <time>2019-08-25T09:38:38Z</time>
      </trkpt>
      <trkpt lat="46.35785" lon="4.82047">
        <ele>280.6</ele>
        <time>2019-08-25T09:38:42Z</time>
      </trkpt>
      <trkpt lat="46.35782" lon="4.82049">
        <ele>280.5</ele>
        <time>2019-08-25T09:38:43Z</time>
      </trkpt>
      <trkpt lat="46.35778" lon="4.82049">
        <ele>280.4</ele>
        <time>2019-08-25T09:38:46Z</time>
      </trkpt>
      <trkpt lat="46.35778" lon="4.82048">
        <ele>280.3</ele>
        <time>2019-08-25T09:38:47Z</time>
      </trkpt>
      <trkpt lat="46.35763" lon="4.82041">
        <ele>281.4</ele>
        <time>2019-08-25T09:39:08Z</time>
      </trkpt>
      <trkpt lat="46.35758" lon="4.82038">
        <ele>281.5</ele>
        <time>2019-08-25T09:39:11Z</time>
      </trkpt>
      <trkpt lat="46.35749" lon="4.82029">
        <ele>282.2</ele>
        <time>2019-08-25T09:39:18Z</time>
      </trkpt>
      <trkpt lat="46.35743" lon="4.82019">
        <ele>282.9</ele>
        <time>2019-08-25T09:39:23Z</time>
      </trkpt>
      <trkpt lat="46.35742" lon="4.82017">
        <ele>283.1</ele>
        <time>2019-08-25T09:39:24Z</time>
      </trkpt>
      <trkpt lat="46.3573" lon="4.81991">
        <ele>285.2</ele>
        <time>2019-08-25T09:39:36Z</time>
      </trkpt>
      <trkpt lat="46.35729" lon="4.81982">
        <ele>285.7</ele>
        <time>2019-08-25T09:39:39Z</time>
      </trkpt>
      <trkpt lat="46.35725" lon="4.81964">
        <ele>287</ele>
        <time>2019-08-25T09:39:47Z</time>
      </trkpt>
      <trkpt lat="46.35714" lon="4.81932">
        <ele>289.1</ele>
        <time>2019-08-25T09:40:03Z</time>
      </trkpt>
      <trkpt lat="46.35714" lon="4.81928">
        <ele>289.3</ele>
        <time>2019-08-25T09:40:05Z</time>
      </trkpt>
      <trkpt lat="46.35715" lon="4.81831">
        <ele>294.6</ele>
        <time>2019-08-25T09:40:56Z</time>
      </trkpt>
      <trkpt lat="46.35713" lon="4.81824">
        <ele>295.1</ele>
        <time>2019-08-25T09:40:59Z</time>
      </trkpt>
      <trkpt lat="46.35702" lon="4.81779">
        <ele>298.1</ele>
        <time>2019-08-25T09:41:24Z</time>
      </trkpt>
      <trkpt lat="46.35701" lon="4.81778">
        <ele>298.1</ele>
        <time>2019-08-25T09:41:25Z</time>
      </trkpt>
      <trkpt lat="46.35698" lon="4.8177">
        <ele>298.5</ele>
        <time>2019-08-25T09:41:30Z</time>
      </trkpt>
      <trkpt lat="46.35695" lon="4.81764">
        <ele>298.7</ele>
        <time>2019-08-25T09:41:34Z</time>
      </trkpt>
      <trkpt lat="46.35684" lon="4.81748">
        <ele>299.4</ele>
        <time>2019-08-25T09:41:42Z</time>
      </trkpt>
      <trkpt lat="46.35666" lon="4.81738">
        <ele>300.1</ele>
        <time>2019-08-25T09:41:48Z</time>
      </trkpt>
      <trkpt lat="46.35645" lon="4.81738">
        <ele>300.4</ele>
        <time>2019-08-25T09:41:54Z</time>
      </trkpt>
      <trkpt lat="46.35624" lon="4.81742">
        <ele>300.4</ele>
        <time>2019-08-25T09:41:59Z</time>
      </trkpt>
      <trkpt lat="46.35621" lon="4.8174">
        <ele>300.3</ele>
        <time>2019-08-25T09:42:00Z</time>
      </trkpt>
      <trkpt lat="46.35619" lon="4.81732">
        <ele>300.2</ele>
        <time>2019-08-25T09:42:03Z</time>
      </trkpt>
      <trkpt lat="46.35625" lon="4.81722">
        <ele>301</ele>
        <time>2019-08-25T09:42:07Z</time>
      </trkpt>
      <trkpt lat="46.35627" lon="4.81719">
        <ele>301.2</ele>
        <time>2019-08-25T09:42:08Z</time>
      </trkpt>
      <trkpt lat="46.35633" lon="4.81708">
        <ele>302</ele>
        <time>2019-08-25T09:42:12Z</time>
      </trkpt>
      <trkpt lat="46.35638" lon="4.81697">
        <ele>302.8</ele>
        <time>2019-08-25T09:42:16Z</time>
      </trkpt>
      <trkpt lat="46.35644" lon="4.81677">
        <ele>304.5</ele>
        <time>2019-08-25T09:42:23Z</time>
      </trkpt>
      <trkpt lat="46.35645" lon="4.81659">
        <ele>305.4</ele>
        <time>2019-08-25T09:42:28Z</time>
      </trkpt>
      <trkpt lat="46.35644" lon="4.81652">
        <ele>305.4</ele>
        <time>2019-08-25T09:42:30Z</time>
      </trkpt>
      <trkpt lat="46.35648" lon="4.81628">
        <ele>305.8</ele>
        <time>2019-08-25T09:42:37Z</time>
      </trkpt>
      <trkpt lat="46.3565" lon="4.81622">
        <ele>305.9</ele>
        <time>2019-08-25T09:42:39Z</time>
      </trkpt>
      <trkpt lat="46.35657" lon="4.81602">
        <ele>306.1</ele>
        <time>2019-08-25T09:42:46Z</time>
      </trkpt>
      <trkpt lat="46.35659" lon="4.81599">
        <ele>306.1</ele>
        <time>2019-08-25T09:42:47Z</time>
      </trkpt>
      <trkpt lat="46.35665" lon="4.8158">
        <ele>306.3</ele>
        <time>2019-08-25T09:42:54Z</time>
      </trkpt>
      <trkpt lat="46.35666" lon="4.81576">
        <ele>306.4</ele>
        <time>2019-08-25T09:42:55Z</time>
      </trkpt>
      <trkpt lat="46.35668" lon="4.81552">
        <ele>306.7</ele>
        <time>2019-08-25T09:43:02Z</time>
      </trkpt>
      <trkpt lat="46.35668" lon="4.81548">
        <ele>306.7</ele>
        <time>2019-08-25T09:43:03Z</time>
      </trkpt>
      <trkpt lat="46.35671" lon="4.81518">
        <ele>307</ele>
        <time>2019-08-25T09:43:11Z</time>
      </trkpt>
      <trkpt lat="46.35671" lon="4.81493">
        <ele>307.2</ele>
        <time>2019-08-25T09:43:16Z</time>
      </trkpt>
      <trkpt lat="46.3567" lon="4.81483">
        <ele>307.3</ele>
        <time>2019-08-25T09:43:18Z</time>
      </trkpt>
      <trkpt lat="46.35661" lon="4.81442">
        <ele>307.8</ele>
        <time>2019-08-25T09:43:26Z</time>
      </trkpt>
      <trkpt lat="46.35648" lon="4.81408">
        <ele>308.6</ele>
        <time>2019-08-25T09:43:33Z</time>
      </trkpt>
      <trkpt lat="46.35634" lon="4.81409">
        <ele>309</ele>
        <time>2019-08-25T09:43:37Z</time>
      </trkpt>
      <trkpt lat="46.35621" lon="4.814">
        <ele>309.3</ele>
        <time>2019-08-25T09:43:41Z</time>
      </trkpt>
      <trkpt lat="46.35606" lon="4.81384">
        <ele>309.7</ele>
        <time>2019-08-25T09:43:46Z</time>
      </trkpt>
      <trkpt lat="46.35597" lon="4.81376">
        <ele>310</ele>
        <time>2019-08-25T09:43:49Z</time>
      </trkpt>
      <trkpt lat="46.35574" lon="4.81354">
        <ele>310.7</ele>
        <time>2019-08-25T09:43:57Z</time>
      </trkpt>
      <trkpt lat="46.35557" lon="4.81326">
        <ele>311.5</ele>
        <time>2019-08-25T09:44:05Z</time>
      </trkpt>
      <trkpt lat="46.35538" lon="4.8131">
        <ele>312.3</ele>
        <time>2019-08-25T09:44:11Z</time>
      </trkpt>
      <trkpt lat="46.3552" lon="4.81295">
        <ele>313</ele>
        <time>2019-08-25T09:44:18Z</time>
      </trkpt>
      <trkpt lat="46.355" lon="4.81286">
        <ele>313.9</ele>
        <time>2019-08-25T09:44:25Z</time>
      </trkpt>
      <trkpt lat="46.35482" lon="4.81277">
        <ele>315.3</ele>
        <time>2019-08-25T09:44:32Z</time>
      </trkpt>
      <trkpt lat="46.35478" lon="4.81276">
        <ele>315.7</ele>
        <time>2019-08-25T09:44:34Z</time>
      </trkpt>
      <trkpt lat="46.35471" lon="4.81271">
        <ele>316.4</ele>
        <time>2019-08-25T09:44:38Z</time>
      </trkpt>
      <trkpt lat="46.35468" lon="4.8127">
        <ele>316.8</ele>
        <time>2019-08-25T09:44:40Z</time>
      </trkpt>
      <trkpt lat="46.35463" lon="4.81266">
        <ele>317.5</ele>
        <time>2019-08-25T09:44:44Z</time>
      </trkpt>
      <trkpt lat="46.35461" lon="4.81266">
        <ele>317.8</ele>
        <time>2019-08-25T09:44:45Z</time>
      </trkpt>
      <trkpt lat="46.35453" lon="4.81259">
        <ele>319</ele>
        <time>2019-08-25T09:44:52Z</time>
      </trkpt>
      <trkpt lat="46.35448" lon="4.81254">
        <ele>320</ele>
        <time>2019-08-25T09:44:57Z</time>
      </trkpt>
      <trkpt lat="46.35446" lon="4.81251">
        <ele>320.3</ele>
        <time>2019-08-25T09:44:59Z</time>
      </trkpt>
      <trkpt lat="46.35444" lon="4.81248">
        <ele>320.9</ele>
        <time>2019-08-25T09:45:02Z</time>
      </trkpt>
      <trkpt lat="46.35439" lon="4.81242">
        <ele>321.7</ele>
        <time>2019-08-25T09:45:06Z</time>
      </trkpt>
      <trkpt lat="46.35438" lon="4.81241">
        <ele>321.9</ele>
        <time>2019-08-25T09:45:07Z</time>
      </trkpt>
      <trkpt lat="46.35395" lon="4.81254">
        <ele>327.2</ele>
        <time>2019-08-25T09:45:56Z</time>
      </trkpt>
      <trkpt lat="46.35392" lon="4.81255">
        <ele>327.4</ele>
        <time>2019-08-25T09:45:58Z</time>
      </trkpt>
      <trkpt lat="46.35384" lon="4.81253">
        <ele>328.2</ele>
        <time>2019-08-25T09:46:05Z</time>
      </trkpt>
      <trkpt lat="46.35383" lon="4.81251">
        <ele>328.3</ele>
        <time>2019-08-25T09:46:06Z</time>
      </trkpt>
      <trkpt lat="46.35384" lon="4.81248">
        <ele>328.3</ele>
        <time>2019-08-25T09:46:09Z</time>
      </trkpt>
      <trkpt lat="46.35384" lon="4.81245">
        <ele>328.3</ele>
        <time>2019-08-25T09:46:12Z</time>
      </trkpt>
      <trkpt lat="46.35384" lon="4.8123">
        <ele>328.4</ele>
        <time>2019-08-25T09:46:18Z</time>
      </trkpt>
      <trkpt lat="46.35382" lon="4.81211">
        <ele>328.6</ele>
        <time>2019-08-25T09:46:25Z</time>
      </trkpt>
      <trkpt lat="46.3538" lon="4.81188">
        <ele>328.6</ele>
        <time>2019-08-25T09:46:32Z</time>
      </trkpt>
      <trkpt lat="46.35374" lon="4.81177">
        <ele>328.7</ele>
        <time>2019-08-25T09:46:37Z</time>
      </trkpt>
      <trkpt lat="46.35372" lon="4.81177">
        <ele>328.7</ele>
        <time>2019-08-25T09:46:38Z</time>
      </trkpt>
      <trkpt lat="46.3536" lon="4.81178">
        <ele>329.2</ele>
        <time>2019-08-25T09:46:45Z</time>
      </trkpt>
      <trkpt lat="46.35348" lon="4.8118">
        <ele>329.6</ele>
        <time>2019-08-25T09:46:52Z</time>
      </trkpt>
      <trkpt lat="46.35346" lon="4.8118">
        <ele>329.7</ele>
        <time>2019-08-25T09:46:53Z</time>
      </trkpt>
      <trkpt lat="46.35334" lon="4.8118">
        <ele>330.1</ele>
        <time>2019-08-25T09:47:00Z</time>
      </trkpt>
      <trkpt lat="46.3532" lon="4.8118">
        <ele>330.6</ele>
        <time>2019-08-25T09:47:07Z</time>
      </trkpt>
      <trkpt lat="46.35306" lon="4.81182">
        <ele>331</ele>
        <time>2019-08-25T09:47:14Z</time>
      </trkpt>
      <trkpt lat="46.35305" lon="4.81183">
        <ele>331.1</ele>
        <time>2019-08-25T09:47:15Z</time>
      </trkpt>
      <trkpt lat="46.35296" lon="4.81187">
        <ele>331.4</ele>
        <time>2019-08-25T09:47:20Z</time>
      </trkpt>
      <trkpt lat="46.35295" lon="4.81186">
        <ele>331.4</ele>
        <time>2019-08-25T09:47:21Z</time>
      </trkpt>
      <trkpt lat="46.35291" lon="4.81188">
        <ele>331.5</ele>
        <time>2019-08-25T09:47:24Z</time>
      </trkpt>
      <trkpt lat="46.35289" lon="4.81198">
        <ele>331.5</ele>
        <time>2019-08-25T09:47:34Z</time>
      </trkpt>
      <trkpt lat="46.35284" lon="4.81209">
        <ele>331.6</ele>
        <time>2019-08-25T09:47:38Z</time>
      </trkpt>
      <trkpt lat="46.3528" lon="4.81213">
        <ele>331.6</ele>
        <time>2019-08-25T09:47:40Z</time>
      </trkpt>
      <trkpt lat="46.35278" lon="4.81215">
        <ele>331.5</ele>
        <time>2019-08-25T09:47:41Z</time>
      </trkpt>
      <trkpt lat="46.35271" lon="4.81218">
        <ele>331.7</ele>
        <time>2019-08-25T09:47:44Z</time>
      </trkpt>
      <trkpt lat="46.35267" lon="4.81214">
        <ele>331.9</ele>
        <time>2019-08-25T09:47:46Z</time>
      </trkpt>
      <trkpt lat="46.35262" lon="4.81206">
        <ele>332.1</ele>
        <time>2019-08-25T09:47:49Z</time>
      </trkpt>
      <trkpt lat="46.35258" lon="4.81197">
        <ele>332.6</ele>
        <time>2019-08-25T09:47:52Z</time>
      </trkpt>
      <trkpt lat="46.35256" lon="4.81185">
        <ele>332.7</ele>
        <time>2019-08-25T09:47:55Z</time>
      </trkpt>
      <trkpt lat="46.35254" lon="4.81177">
        <ele>332.8</ele>
        <time>2019-08-25T09:47:58Z</time>
      </trkpt>
      <trkpt lat="46.35253" lon="4.81174">
        <ele>332.8</ele>
        <time>2019-08-25T09:47:59Z</time>
      </trkpt>
      <trkpt lat="46.35243" lon="4.81142">
        <ele>333.5</ele>
        <time>2019-08-25T09:48:33Z</time>
      </trkpt>
      <trkpt lat="46.35251" lon="4.81123">
        <ele>333.2</ele>
        <time>2019-08-25T09:48:39Z</time>
      </trkpt>
      <trkpt lat="46.35256" lon="4.81102">
        <ele>333.3</ele>
        <time>2019-08-25T09:48:44Z</time>
      </trkpt>
      <trkpt lat="46.3526" lon="4.81079">
        <ele>333.4</ele>
        <time>2019-08-25T09:48:50Z</time>
      </trkpt>
      <trkpt lat="46.35262" lon="4.81075">
        <ele>333.3</ele>
        <time>2019-08-25T09:48:51Z</time>
      </trkpt>
      <trkpt lat="46.35265" lon="4.81063">
        <ele>333.1</ele>
        <time>2019-08-25T09:48:55Z</time>
      </trkpt>
      <trkpt lat="46.35265" lon="4.81055">
        <ele>333</ele>
        <time>2019-08-25T09:48:58Z</time>
      </trkpt>
      <trkpt lat="46.35263" lon="4.8105">
        <ele>333.1</ele>
        <time>2019-08-25T09:49:00Z</time>
      </trkpt>
      <trkpt lat="46.3526" lon="4.8104">
        <ele>333.2</ele>
        <time>2019-08-25T09:49:04Z</time>
      </trkpt>
      <trkpt lat="46.35259" lon="4.81037">
        <ele>333.3</ele>
        <time>2019-08-25T09:49:05Z</time>
      </trkpt>
      <trkpt lat="46.35257" lon="4.81029">
        <ele>333.5</ele>
        <time>2019-08-25T09:49:07Z</time>
      </trkpt>
      <trkpt lat="46.35251" lon="4.8102">
        <ele>334</ele>
        <time>2019-08-25T09:49:10Z</time>
      </trkpt>
      <trkpt lat="46.35247" lon="4.81013">
        <ele>334.3</ele>
        <time>2019-08-25T09:49:13Z</time>
      </trkpt>
      <trkpt lat="46.35241" lon="4.81007">
        <ele>334.7</ele>
        <time>2019-08-25T09:49:16Z</time>
      </trkpt>
      <trkpt lat="46.35226" lon="4.81001">
        <ele>335.7</ele>
        <time>2019-08-25T09:49:21Z</time>
      </trkpt>
      <trkpt lat="46.35218" lon="4.81">
        <ele>336.9</ele>
        <time>2019-08-25T09:49:24Z</time>
      </trkpt>
      <trkpt lat="46.35207" lon="4.81">
        <ele>337.6</ele>
        <time>2019-08-25T09:49:28Z</time>
      </trkpt>
      <trkpt lat="46.352" lon="4.81001">
        <ele>337.9</ele>
        <time>2019-08-25T09:49:31Z</time>
      </trkpt>
      <trkpt lat="46.35194" lon="4.80997">
        <ele>338.1</ele>
        <time>2019-08-25T09:49:33Z</time>
      </trkpt>
      <trkpt lat="46.35182" lon="4.80989">
        <ele>338.1</ele>
        <time>2019-08-25T09:49:37Z</time>
      </trkpt>
      <trkpt lat="46.35176" lon="4.80986">
        <ele>338</ele>
        <time>2019-08-25T09:49:39Z</time>
      </trkpt>
      <trkpt lat="46.35166" lon="4.80986">
        <ele>337.9</ele>
        <time>2019-08-25T09:49:43Z</time>
      </trkpt>
      <trkpt lat="46.35161" lon="4.80985">
        <ele>337.9</ele>
        <time>2019-08-25T09:49:45Z</time>
      </trkpt>
      <trkpt lat="46.35155" lon="4.80978">
        <ele>338</ele>
        <time>2019-08-25T09:49:48Z</time>
      </trkpt>
      <trkpt lat="46.35149" lon="4.8096">
        <ele>338</ele>
        <time>2019-08-25T09:49:53Z</time>
      </trkpt>
      <trkpt lat="46.35147" lon="4.80957">
        <ele>338</ele>
        <time>2019-08-25T09:49:54Z</time>
      </trkpt>
      <trkpt lat="46.35136" lon="4.80954">
        <ele>337.9</ele>
        <time>2019-08-25T09:49:58Z</time>
      </trkpt>
      <trkpt lat="46.35134" lon="4.80957">
        <ele>337.8</ele>
        <time>2019-08-25T09:49:59Z</time>
      </trkpt>
      <trkpt lat="46.35129" lon="4.80962">
        <ele>337.7</ele>
        <time>2019-08-25T09:50:01Z</time>
      </trkpt>
      <trkpt lat="46.35127" lon="4.80966">
        <ele>337.6</ele>
        <time>2019-08-25T09:50:02Z</time>
      </trkpt>
      <trkpt lat="46.35118" lon="4.80973">
        <ele>337.4</ele>
        <time>2019-08-25T09:50:05Z</time>
      </trkpt>
      <trkpt lat="46.3511" lon="4.80974">
        <ele>337</ele>
        <time>2019-08-25T09:50:07Z</time>
      </trkpt>
      <trkpt lat="46.35089" lon="4.80975">
        <ele>335.3</ele>
        <time>2019-08-25T09:50:12Z</time>
      </trkpt>
      <trkpt lat="46.35086" lon="4.80976">
        <ele>335</ele>
        <time>2019-08-25T09:50:13Z</time>
      </trkpt>
      <trkpt lat="46.35067" lon="4.80971">
        <ele>333.4</ele>
        <time>2019-08-25T09:50:18Z</time>
      </trkpt>
      <trkpt lat="46.35058" lon="4.80968">
        <ele>332.8</ele>
        <time>2019-08-25T09:50:20Z</time>
      </trkpt>
      <trkpt lat="46.35048" lon="4.80966">
        <ele>332</ele>
        <time>2019-08-25T09:50:22Z</time>
      </trkpt>
      <trkpt lat="46.35043" lon="4.80963">
        <ele>331.6</ele>
        <time>2019-08-25T09:50:23Z</time>
      </trkpt>
      <trkpt lat="46.35021" lon="4.8096">
        <ele>330.1</ele>
        <time>2019-08-25T09:50:27Z</time>
      </trkpt>
      <trkpt lat="46.35015" lon="4.80958">
        <ele>329.7</ele>
        <time>2019-08-25T09:50:28Z</time>
      </trkpt>
      <trkpt lat="46.34995" lon="4.80958">
        <ele>328.8</ele>
        <time>2019-08-25T09:50:31Z</time>
      </trkpt>
      <trkpt lat="46.34989" lon="4.80959">
        <ele>328.7</ele>
        <time>2019-08-25T09:50:32Z</time>
      </trkpt>
      <trkpt lat="46.3497" lon="4.8096">
        <ele>328.5</ele>
        <time>2019-08-25T09:50:36Z</time>
      </trkpt>
      <trkpt lat="46.34963" lon="4.8096">
        <ele>328.6</ele>
        <time>2019-08-25T09:50:40Z</time>
      </trkpt>
      <trkpt lat="46.34949" lon="4.80972">
        <ele>329.4</ele>
        <time>2019-08-25T09:50:46Z</time>
      </trkpt>
      <trkpt lat="46.34931" lon="4.80989">
        <ele>329</ele>
        <time>2019-08-25T09:50:51Z</time>
      </trkpt>
      <trkpt lat="46.34927" lon="4.80992">
        <ele>328.7</ele>
        <time>2019-08-25T09:50:52Z</time>
      </trkpt>
      <trkpt lat="46.34922" lon="4.80996">
        <ele>328.5</ele>
        <time>2019-08-25T09:50:53Z</time>
      </trkpt>
      <trkpt lat="46.34902" lon="4.81005">
        <ele>327.5</ele>
        <time>2019-08-25T09:50:57Z</time>
      </trkpt>
      <trkpt lat="46.34892" lon="4.81011">
        <ele>326.9</ele>
        <time>2019-08-25T09:50:59Z</time>
      </trkpt>
      <trkpt lat="46.34878" lon="4.8102">
        <ele>325.8</ele>
        <time>2019-08-25T09:51:02Z</time>
      </trkpt>
      <trkpt lat="46.34868" lon="4.81026">
        <ele>325.3</ele>
        <time>2019-08-25T09:51:04Z</time>
      </trkpt>
      <trkpt lat="46.34858" lon="4.81035">
        <ele>324.5</ele>
        <time>2019-08-25T09:51:06Z</time>
      </trkpt>
      <trkpt lat="46.34853" lon="4.8104">
        <ele>323.9</ele>
        <time>2019-08-25T09:51:07Z</time>
      </trkpt>
      <trkpt lat="46.34847" lon="4.81051">
        <ele>323.1</ele>
        <time>2019-08-25T09:51:09Z</time>
      </trkpt>
      <trkpt lat="46.34842" lon="4.81055">
        <ele>322.7</ele>
        <time>2019-08-25T09:51:10Z</time>
      </trkpt>
      <trkpt lat="46.34837" lon="4.81057">
        <ele>322.4</ele>
        <time>2019-08-25T09:51:11Z</time>
      </trkpt>
      <trkpt lat="46.34831" lon="4.81059">
        <ele>322.2</ele>
        <time>2019-08-25T09:51:12Z</time>
      </trkpt>
      <trkpt lat="46.34815" lon="4.81067">
        <ele>321.3</ele>
        <time>2019-08-25T09:51:15Z</time>
      </trkpt>
      <trkpt lat="46.3481" lon="4.81071">
        <ele>320.9</ele>
        <time>2019-08-25T09:51:16Z</time>
      </trkpt>
      <trkpt lat="46.34801" lon="4.81077">
        <ele>320.4</ele>
        <time>2019-08-25T09:51:18Z</time>
      </trkpt>
      <trkpt lat="46.34792" lon="4.81081">
        <ele>319.9</ele>
        <time>2019-08-25T09:51:20Z</time>
      </trkpt>
      <trkpt lat="46.34787" lon="4.81082">
        <ele>319.6</ele>
        <time>2019-08-25T09:51:21Z</time>
      </trkpt>
      <trkpt lat="46.34777" lon="4.81088">
        <ele>318.9</ele>
        <time>2019-08-25T09:51:23Z</time>
      </trkpt>
      <trkpt lat="46.34766" lon="4.81093">
        <ele>317.9</ele>
        <time>2019-08-25T09:51:25Z</time>
      </trkpt>
      <trkpt lat="46.34753" lon="4.81095">
        <ele>316.9</ele>
        <time>2019-08-25T09:51:27Z</time>
      </trkpt>
      <trkpt lat="46.34736" lon="4.81097">
        <ele>315.6</ele>
        <time>2019-08-25T09:51:30Z</time>
      </trkpt>
      <trkpt lat="46.3473" lon="4.81096">
        <ele>315.3</ele>
        <time>2019-08-25T09:51:31Z</time>
      </trkpt>
      <trkpt lat="46.34717" lon="4.81097">
        <ele>314.4</ele>
        <time>2019-08-25T09:51:33Z</time>
      </trkpt>
      <trkpt lat="46.3471" lon="4.81098">
        <ele>313.9</ele>
        <time>2019-08-25T09:51:34Z</time>
      </trkpt>
      <trkpt lat="46.34684" lon="4.81109">
        <ele>310.6</ele>
        <time>2019-08-25T09:51:38Z</time>
      </trkpt>
      <trkpt lat="46.34679" lon="4.81113">
        <ele>310.1</ele>
        <time>2019-08-25T09:51:39Z</time>
      </trkpt>
      <trkpt lat="46.3467" lon="4.81122">
        <ele>309.6</ele>
        <time>2019-08-25T09:51:41Z</time>
      </trkpt>
      <trkpt lat="46.34668" lon="4.81135">
        <ele>309.2</ele>
        <time>2019-08-25T09:51:43Z</time>
      </trkpt>
      <trkpt lat="46.34668" lon="4.8115">
        <ele>308.9</ele>
        <time>2019-08-25T09:51:45Z</time>
      </trkpt>
      <trkpt lat="46.34668" lon="4.81168">
        <ele>308.6</ele>
        <time>2019-08-25T09:51:47Z</time>
      </trkpt>
      <trkpt lat="46.34667" lon="4.81177">
        <ele>308.5</ele>
        <time>2019-08-25T09:51:48Z</time>
      </trkpt>
      <trkpt lat="46.3466" lon="4.81198">
        <ele>308.2</ele>
        <time>2019-08-25T09:51:51Z</time>
      </trkpt>
      <trkpt lat="46.34657" lon="4.81205">
        <ele>308</ele>
        <time>2019-08-25T09:51:52Z</time>
      </trkpt>
      <trkpt lat="46.34653" lon="4.81218">
        <ele>307.7</ele>
        <time>2019-08-25T09:51:55Z</time>
      </trkpt>
      <trkpt lat="46.34652" lon="4.81222">
        <ele>307.6</ele>
        <time>2019-08-25T09:51:56Z</time>
      </trkpt>
      <trkpt lat="46.34652" lon="4.8125">
        <ele>306.6</ele>
        <time>2019-08-25T09:52:01Z</time>
      </trkpt>
      <trkpt lat="46.34651" lon="4.81257">
        <ele>306.3</ele>
        <time>2019-08-25T09:52:02Z</time>
      </trkpt>
      <trkpt lat="46.34641" lon="4.81271">
        <ele>305.5</ele>
        <time>2019-08-25T09:52:05Z</time>
      </trkpt>
      <trkpt lat="46.34638" lon="4.81276">
        <ele>305.3</ele>
        <time>2019-08-25T09:52:06Z</time>
      </trkpt>
      <trkpt lat="46.3463" lon="4.81285">
        <ele>304.7</ele>
        <time>2019-08-25T09:52:09Z</time>
      </trkpt>
      <trkpt lat="46.34611" lon="4.81288">
        <ele>303.6</ele>
        <time>2019-08-25T09:52:13Z</time>
      </trkpt>
      <trkpt lat="46.34594" lon="4.81291">
        <ele>302.9</ele>
        <time>2019-08-25T09:52:16Z</time>
      </trkpt>
      <trkpt lat="46.34586" lon="4.813">
        <ele>302.6</ele>
        <time>2019-08-25T09:52:18Z</time>
      </trkpt>
      <trkpt lat="46.3458" lon="4.81308">
        <ele>301.8</ele>
        <time>2019-08-25T09:52:21Z</time>
      </trkpt>
      <trkpt lat="46.34581" lon="4.81321">
        <ele>301.2</ele>
        <time>2019-08-25T09:52:28Z</time>
      </trkpt>
      <trkpt lat="46.34583" lon="4.81323">
        <ele>301</ele>
        <time>2019-08-25T09:52:29Z</time>
      </trkpt>
      <trkpt lat="46.34595" lon="4.81328">
        <ele>302</ele>
        <time>2019-08-25T09:52:33Z</time>
      </trkpt>
      <trkpt lat="46.34602" lon="4.81332">
        <ele>302.2</ele>
        <time>2019-08-25T09:52:35Z</time>
      </trkpt>
      <trkpt lat="46.34608" lon="4.81336">
        <ele>302.4</ele>
        <time>2019-08-25T09:52:37Z</time>
      </trkpt>
      <trkpt lat="46.34621" lon="4.81344">
        <ele>302.8</ele>
        <time>2019-08-25T09:52:41Z</time>
      </trkpt>
      <trkpt lat="46.34626" lon="4.81352">
        <ele>302.7</ele>
        <time>2019-08-25T09:52:43Z</time>
      </trkpt>
      <trkpt lat="46.34635" lon="4.8137">
        <ele>302.4</ele>
        <time>2019-08-25T09:52:47Z</time>
      </trkpt>
      <trkpt lat="46.34639" lon="4.81383">
        <ele>302.1</ele>
        <time>2019-08-25T09:52:50Z</time>
      </trkpt>
      <trkpt lat="46.3464" lon="4.81393">
        <ele>301.9</ele>
        <time>2019-08-25T09:52:52Z</time>
      </trkpt>
      <trkpt lat="46.34641" lon="4.81404">
        <ele>301.3</ele>
        <time>2019-08-25T09:52:54Z</time>
      </trkpt>
      <trkpt lat="46.34641" lon="4.81419">
        <ele>300.9</ele>
        <time>2019-08-25T09:52:57Z</time>
      </trkpt>
      <trkpt lat="46.34642" lon="4.81423">
        <ele>300.8</ele>
        <time>2019-08-25T09:52:58Z</time>
      </trkpt>
      <trkpt lat="46.34643" lon="4.81435">
        <ele>300.4</ele>
        <time>2019-08-25T09:53:01Z</time>
      </trkpt>
      <trkpt lat="46.34638" lon="4.81439">
        <ele>300.1</ele>
        <time>2019-08-25T09:53:03Z</time>
      </trkpt>
      <trkpt lat="46.34632" lon="4.81442">
        <ele>299.8</ele>
        <time>2019-08-25T09:53:05Z</time>
      </trkpt>
      <trkpt lat="46.34629" lon="4.81447">
        <ele>299.7</ele>
        <time>2019-08-25T09:53:08Z</time>
      </trkpt>
      <trkpt lat="46.34627" lon="4.81449">
        <ele>299.7</ele>
        <time>2019-08-25T09:53:09Z</time>
      </trkpt>
      <trkpt lat="46.34625" lon="4.81459">
        <ele>299.4</ele>
        <time>2019-08-25T09:53:11Z</time>
      </trkpt>
      <trkpt lat="46.34624" lon="4.81464">
        <ele>299.4</ele>
        <time>2019-08-25T09:53:12Z</time>
      </trkpt>
      <trkpt lat="46.34621" lon="4.81469">
        <ele>299.4</ele>
        <time>2019-08-25T09:53:13Z</time>
      </trkpt>
      <trkpt lat="46.34614" lon="4.81472">
        <ele>299.3</ele>
        <time>2019-08-25T09:53:15Z</time>
      </trkpt>
      <trkpt lat="46.34606" lon="4.81477">
        <ele>299.2</ele>
        <time>2019-08-25T09:53:17Z</time>
      </trkpt>
      <trkpt lat="46.34594" lon="4.8148">
        <ele>299.1</ele>
        <time>2019-08-25T09:53:19Z</time>
      </trkpt>
      <trkpt lat="46.34589" lon="4.81481">
        <ele>299</ele>
        <time>2019-08-25T09:53:20Z</time>
      </trkpt>
      <trkpt lat="46.34583" lon="4.81482">
        <ele>298.9</ele>
        <time>2019-08-25T09:53:21Z</time>
      </trkpt>
      <trkpt lat="46.34557" lon="4.81486">
        <ele>298.1</ele>
        <time>2019-08-25T09:53:25Z</time>
      </trkpt>
      <trkpt lat="46.3455" lon="4.81485">
        <ele>297.7</ele>
        <time>2019-08-25T09:53:26Z</time>
      </trkpt>
      <trkpt lat="46.34544" lon="4.81482">
        <ele>297.3</ele>
        <time>2019-08-25T09:53:27Z</time>
      </trkpt>
      <trkpt lat="46.34531" lon="4.81476">
        <ele>296.6</ele>
        <time>2019-08-25T09:53:29Z</time>
      </trkpt>
      <trkpt lat="46.34526" lon="4.81472">
        <ele>296.2</ele>
        <time>2019-08-25T09:53:30Z</time>
      </trkpt>
      <trkpt lat="46.34517" lon="4.81469">
        <ele>295.7</ele>
        <time>2019-08-25T09:53:32Z</time>
      </trkpt>
      <trkpt lat="46.34505" lon="4.81476">
        <ele>295.4</ele>
        <time>2019-08-25T09:53:35Z</time>
      </trkpt>
      <trkpt lat="46.345" lon="4.81475">
        <ele>295.1</ele>
        <time>2019-08-25T09:53:36Z</time>
      </trkpt>
      <trkpt lat="46.3449" lon="4.81471">
        <ele>294.7</ele>
        <time>2019-08-25T09:53:38Z</time>
      </trkpt>
      <trkpt lat="46.34484" lon="4.81472">
        <ele>294.6</ele>
        <time>2019-08-25T09:53:39Z</time>
      </trkpt>
      <trkpt lat="46.34469" lon="4.81472">
        <ele>294</ele>
        <time>2019-08-25T09:53:42Z</time>
      </trkpt>
      <trkpt lat="46.34453" lon="4.81481">
        <ele>293.7</ele>
        <time>2019-08-25T09:53:46Z</time>
      </trkpt>
      <trkpt lat="46.34448" lon="4.81484">
        <ele>293.5</ele>
        <time>2019-08-25T09:53:47Z</time>
      </trkpt>
      <trkpt lat="46.34425" lon="4.8149">
        <ele>293</ele>
        <time>2019-08-25T09:53:52Z</time>
      </trkpt>
      <trkpt lat="46.3442" lon="4.81488">
        <ele>292.6</ele>
        <time>2019-08-25T09:53:53Z</time>
      </trkpt>
      <trkpt lat="46.34404" lon="4.81484">
        <ele>292</ele>
        <time>2019-08-25T09:53:56Z</time>
      </trkpt>
      <trkpt lat="46.34393" lon="4.8148">
        <ele>291.8</ele>
        <time>2019-08-25T09:53:58Z</time>
      </trkpt>
      <trkpt lat="46.34383" lon="4.81474">
        <ele>291.2</ele>
        <time>2019-08-25T09:54:00Z</time>
      </trkpt>
      <trkpt lat="46.34373" lon="4.81464">
        <ele>290.7</ele>
        <time>2019-08-25T09:54:02Z</time>
      </trkpt>
      <trkpt lat="46.34365" lon="4.81453">
        <ele>290.3</ele>
        <time>2019-08-25T09:54:04Z</time>
      </trkpt>
      <trkpt lat="46.34361" lon="4.81446">
        <ele>290.2</ele>
        <time>2019-08-25T09:54:05Z</time>
      </trkpt>
      <trkpt lat="46.34353" lon="4.81425">
        <ele>289.6</ele>
        <time>2019-08-25T09:54:08Z</time>
      </trkpt>
      <trkpt lat="46.34349" lon="4.81419">
        <ele>289.3</ele>
        <time>2019-08-25T09:54:09Z</time>
      </trkpt>
      <trkpt lat="46.34332" lon="4.81401">
        <ele>288.2</ele>
        <time>2019-08-25T09:54:13Z</time>
      </trkpt>
      <trkpt lat="46.34322" lon="4.81401">
        <ele>287.6</ele>
        <time>2019-08-25T09:54:16Z</time>
      </trkpt>
      <trkpt lat="46.34318" lon="4.814">
        <ele>287.5</ele>
        <time>2019-08-25T09:54:17Z</time>
      </trkpt>
      <trkpt lat="46.34309" lon="4.81401">
        <ele>287.2</ele>
        <time>2019-08-25T09:54:19Z</time>
      </trkpt>
      <trkpt lat="46.34303" lon="4.81402">
        <ele>286.9</ele>
        <time>2019-08-25T09:54:20Z</time>
      </trkpt>
      <trkpt lat="46.34282" lon="4.81392">
        <ele>285.6</ele>
        <time>2019-08-25T09:54:24Z</time>
      </trkpt>
      <trkpt lat="46.34252" lon="4.81377">
        <ele>283.5</ele>
        <time>2019-08-25T09:54:29Z</time>
      </trkpt>
      <trkpt lat="46.34238" lon="4.81371">
        <ele>282.7</ele>
        <time>2019-08-25T09:54:31Z</time>
      </trkpt>
      <trkpt lat="46.34225" lon="4.81376">
        <ele>282.2</ele>
        <time>2019-08-25T09:54:33Z</time>
      </trkpt>
      <trkpt lat="46.34202" lon="4.8137">
        <ele>280.6</ele>
        <time>2019-08-25T09:54:36Z</time>
      </trkpt>
      <trkpt lat="46.34194" lon="4.81367">
        <ele>279.9</ele>
        <time>2019-08-25T09:54:37Z</time>
      </trkpt>
      <trkpt lat="46.34187" lon="4.81369">
        <ele>279.5</ele>
        <time>2019-08-25T09:54:38Z</time>
      </trkpt>
      <trkpt lat="46.34181" lon="4.81372">
        <ele>279.1</ele>
        <time>2019-08-25T09:54:39Z</time>
      </trkpt>
      <trkpt lat="46.34161" lon="4.81387">
        <ele>277.8</ele>
        <time>2019-08-25T09:54:42Z</time>
      </trkpt>
      <trkpt lat="46.34155" lon="4.81394">
        <ele>277.5</ele>
        <time>2019-08-25T09:54:43Z</time>
      </trkpt>
      <trkpt lat="46.34129" lon="4.81423">
        <ele>276.4</ele>
        <time>2019-08-25T09:54:48Z</time>
      </trkpt>
      <trkpt lat="46.34126" lon="4.81427">
        <ele>276.4</ele>
        <time>2019-08-25T09:54:49Z</time>
      </trkpt>
      <trkpt lat="46.3412" lon="4.81431">
        <ele>276.2</ele>
        <time>2019-08-25T09:54:51Z</time>
      </trkpt>
      <trkpt lat="46.34118" lon="4.81432">
        <ele>276.1</ele>
        <time>2019-08-25T09:54:52Z</time>
      </trkpt>
      <trkpt lat="46.34115" lon="4.81429">
        <ele>275.9</ele>
        <time>2019-08-25T09:54:53Z</time>
      </trkpt>
      <trkpt lat="46.34106" lon="4.81423">
        <ele>275.4</ele>
        <time>2019-08-25T09:54:55Z</time>
      </trkpt>
      <trkpt lat="46.34094" lon="4.81419">
        <ele>274.6</ele>
        <time>2019-08-25T09:54:58Z</time>
      </trkpt>
      <trkpt lat="46.34092" lon="4.81419">
        <ele>274.4</ele>
        <time>2019-08-25T09:54:59Z</time>
      </trkpt>
      <trkpt lat="46.34088" lon="4.81421">
        <ele>274.3</ele>
        <time>2019-08-25T09:55:00Z</time>
      </trkpt>
      <trkpt lat="46.34086" lon="4.81421">
        <ele>274.1</ele>
        <time>2019-08-25T09:55:01Z</time>
      </trkpt>
      <trkpt lat="46.3408" lon="4.81421">
        <ele>273.2</ele>
        <time>2019-08-25T09:55:03Z</time>
      </trkpt>
      <trkpt lat="46.34065" lon="4.81426">
        <ele>272.2</ele>
        <time>2019-08-25T09:55:08Z</time>
      </trkpt>
      <trkpt lat="46.34061" lon="4.81429">
        <ele>272</ele>
        <time>2019-08-25T09:55:09Z</time>
      </trkpt>
      <trkpt lat="46.34056" lon="4.81431">
        <ele>272</ele>
        <time>2019-08-25T09:55:10Z</time>
      </trkpt>
      <trkpt lat="46.34037" lon="4.81433">
        <ele>271.1</ele>
        <time>2019-08-25T09:55:14Z</time>
      </trkpt>
      <trkpt lat="46.34032" lon="4.81429">
        <ele>270.7</ele>
        <time>2019-08-25T09:55:15Z</time>
      </trkpt>
      <trkpt lat="46.34026" lon="4.81425">
        <ele>270.4</ele>
        <time>2019-08-25T09:55:16Z</time>
      </trkpt>
      <trkpt lat="46.34017" lon="4.81415">
        <ele>269.4</ele>
        <time>2019-08-25T09:55:18Z</time>
      </trkpt>
      <trkpt lat="46.34013" lon="4.81408">
        <ele>269.2</ele>
        <time>2019-08-25T09:55:19Z</time>
      </trkpt>
      <trkpt lat="46.34009" lon="4.81402">
        <ele>268.8</ele>
        <time>2019-08-25T09:55:20Z</time>
      </trkpt>
      <trkpt lat="46.34" lon="4.81387">
        <ele>268.1</ele>
        <time>2019-08-25T09:55:23Z</time>
      </trkpt>
      <trkpt lat="46.33999" lon="4.8138">
        <ele>267.8</ele>
        <time>2019-08-25T09:55:24Z</time>
      </trkpt>
      <trkpt lat="46.33998" lon="4.81374">
        <ele>267.8</ele>
        <time>2019-08-25T09:55:25Z</time>
      </trkpt>
      <trkpt lat="46.33996" lon="4.81361">
        <ele>267.5</ele>
        <time>2019-08-25T09:55:27Z</time>
      </trkpt>
      <trkpt lat="46.33996" lon="4.81353">
        <ele>267.4</ele>
        <time>2019-08-25T09:55:29Z</time>
      </trkpt>
      <trkpt lat="46.33996" lon="4.81349">
        <ele>267.4</ele>
        <time>2019-08-25T09:55:30Z</time>
      </trkpt>
      <trkpt lat="46.33992" lon="4.81345">
        <ele>267.3</ele>
        <time>2019-08-25T09:55:33Z</time>
      </trkpt>
      <trkpt lat="46.33988" lon="4.81342">
        <ele>267.2</ele>
        <time>2019-08-25T09:55:35Z</time>
      </trkpt>
      <trkpt lat="46.33987" lon="4.8134">
        <ele>267.2</ele>
        <time>2019-08-25T09:55:36Z</time>
      </trkpt>
      <trkpt lat="46.33983" lon="4.81337">
        <ele>267.1</ele>
        <time>2019-08-25T09:55:38Z</time>
      </trkpt>
      <trkpt lat="46.33981" lon="4.81336">
        <ele>267.1</ele>
        <time>2019-08-25T09:55:39Z</time>
      </trkpt>
      <trkpt lat="46.33975" lon="4.81326">
        <ele>267</ele>
        <time>2019-08-25T09:55:43Z</time>
      </trkpt>
      <trkpt lat="46.33971" lon="4.81322">
        <ele>266.9</ele>
        <time>2019-08-25T09:55:45Z</time>
      </trkpt>
      <trkpt lat="46.33966" lon="4.81313">
        <ele>266.7</ele>
        <time>2019-08-25T09:55:48Z</time>
      </trkpt>
      <trkpt lat="46.33962" lon="4.81303">
        <ele>266.6</ele>
        <time>2019-08-25T09:55:50Z</time>
      </trkpt>
      <trkpt lat="46.3396" lon="4.81299">
        <ele>266.6</ele>
        <time>2019-08-25T09:55:51Z</time>
      </trkpt>
      <trkpt lat="46.33958" lon="4.81294">
        <ele>266.6</ele>
        <time>2019-08-25T09:55:52Z</time>
      </trkpt>
      <trkpt lat="46.33955" lon="4.81285">
        <ele>266.6</ele>
        <time>2019-08-25T09:55:54Z</time>
      </trkpt>
      <trkpt lat="46.33949" lon="4.81268">
        <ele>266.8</ele>
        <time>2019-08-25T09:55:58Z</time>
      </trkpt>
      <trkpt lat="46.33944" lon="4.81254">
        <ele>267</ele>
        <time>2019-08-25T09:56:01Z</time>
      </trkpt>
      <trkpt lat="46.33942" lon="4.8125">
        <ele>267.1</ele>
        <time>2019-08-25T09:56:02Z</time>
      </trkpt>
      <trkpt lat="46.33939" lon="4.81242">
        <ele>267.3</ele>
        <time>2019-08-25T09:56:04Z</time>
      </trkpt>
      <trkpt lat="46.33938" lon="4.81238">
        <ele>267.4</ele>
        <time>2019-08-25T09:56:05Z</time>
      </trkpt>
      <trkpt lat="46.33934" lon="4.81227">
        <ele>267.6</ele>
        <time>2019-08-25T09:56:08Z</time>
      </trkpt>
      <trkpt lat="46.3393" lon="4.81215">
        <ele>267.7</ele>
        <time>2019-08-25T09:56:11Z</time>
      </trkpt>
      <trkpt lat="46.33925" lon="4.81203">
        <ele>267.9</ele>
        <time>2019-08-25T09:56:14Z</time>
      </trkpt>
      <trkpt lat="46.33922" lon="4.81191">
        <ele>268.1</ele>
        <time>2019-08-25T09:56:17Z</time>
      </trkpt>
      <trkpt lat="46.33919" lon="4.81184">
        <ele>268.3</ele>
        <time>2019-08-25T09:56:19Z</time>
      </trkpt>
      <trkpt lat="46.33913" lon="4.81169">
        <ele>268.7</ele>
        <time>2019-08-25T09:56:23Z</time>
      </trkpt>
      <trkpt lat="46.33907" lon="4.81153">
        <ele>269</ele>
        <time>2019-08-25T09:56:27Z</time>
      </trkpt>
      <trkpt lat="46.33903" lon="4.81141">
        <ele>269.2</ele>
        <time>2019-08-25T09:56:30Z</time>
      </trkpt>
      <trkpt lat="46.33895" lon="4.8112">
        <ele>269.6</ele>
        <time>2019-08-25T09:56:36Z</time>
      </trkpt>
      <trkpt lat="46.3388" lon="4.81092">
        <ele>270</ele>
        <time>2019-08-25T09:56:45Z</time>
      </trkpt>
      <trkpt lat="46.33865" lon="4.81062">
        <ele>271</ele>
        <time>2019-08-25T09:56:53Z</time>
      </trkpt>
      <trkpt lat="46.33851" lon="4.81041">
        <ele>271.3</ele>
        <time>2019-08-25T09:57:00Z</time>
      </trkpt>
      <trkpt lat="46.33845" lon="4.81026">
        <ele>271.6</ele>
        <time>2019-08-25T09:58:23Z</time>
      </trkpt>
      <trkpt lat="46.33841" lon="4.81007">
        <ele>271.8</ele>
        <time>2019-08-25T09:58:29Z</time>
      </trkpt>
      <trkpt lat="46.33835" lon="4.80986">
        <ele>272.2</ele>
        <time>2019-08-25T09:58:34Z</time>
      </trkpt>
      <trkpt lat="46.33832" lon="4.80978">
        <ele>272.3</ele>
        <time>2019-08-25T09:58:36Z</time>
      </trkpt>
      <trkpt lat="46.33827" lon="4.80967">
        <ele>272.5</ele>
        <time>2019-08-25T09:58:39Z</time>
      </trkpt>
      <trkpt lat="46.33818" lon="4.80947">
        <ele>272.7</ele>
        <time>2019-08-25T09:58:44Z</time>
      </trkpt>
      <trkpt lat="46.33809" lon="4.80927">
        <ele>272.7</ele>
        <time>2019-08-25T09:58:49Z</time>
      </trkpt>
      <trkpt lat="46.33803" lon="4.80911">
        <ele>272.6</ele>
        <time>2019-08-25T09:58:53Z</time>
      </trkpt>
      <trkpt lat="46.33792" lon="4.80879">
        <ele>272</ele>
        <time>2019-08-25T09:59:01Z</time>
      </trkpt>
      <trkpt lat="46.33779" lon="4.80842">
        <ele>270.9</ele>
        <time>2019-08-25T09:59:08Z</time>
      </trkpt>
      <trkpt lat="46.33765" lon="4.80797">
        <ele>269.4</ele>
        <time>2019-08-25T09:59:14Z</time>
      </trkpt>
      <trkpt lat="46.33759" lon="4.8078">
        <ele>268.7</ele>
        <time>2019-08-25T09:59:16Z</time>
      </trkpt>
      <trkpt lat="46.3375" lon="4.80754">
        <ele>267.4</ele>
        <time>2019-08-25T09:59:19Z</time>
      </trkpt>
      <trkpt lat="46.33743" lon="4.8073">
        <ele>266.1</ele>
        <time>2019-08-25T09:59:22Z</time>
      </trkpt>
      <trkpt lat="46.33745" lon="4.8072">
        <ele>265.5</ele>
        <time>2019-08-25T09:59:25Z</time>
      </trkpt>
      <trkpt lat="46.33747" lon="4.8072">
        <ele>265.4</ele>
        <time>2019-08-25T09:59:26Z</time>
      </trkpt>
      <trkpt lat="46.33759" lon="4.80727">
        <ele>264.2</ele>
        <time>2019-08-25T09:59:30Z</time>
      </trkpt>
      <trkpt lat="46.3377" lon="4.80732">
        <ele>264.1</ele>
        <time>2019-08-25T09:59:33Z</time>
      </trkpt>
      <trkpt lat="46.33772" lon="4.8073">
        <ele>264.1</ele>
        <time>2019-08-25T09:59:34Z</time>
      </trkpt>
      <trkpt lat="46.33774" lon="4.80726">
        <ele>264.1</ele>
        <time>2019-08-25T09:59:35Z</time>
      </trkpt>
      <trkpt lat="46.33769" lon="4.80708">
        <ele>262.1</ele>
        <time>2019-08-25T09:59:38Z</time>
      </trkpt>
      <trkpt lat="46.33764" lon="4.80701">
        <ele>261.7</ele>
        <time>2019-08-25T09:59:39Z</time>
      </trkpt>
      <trkpt lat="46.3376" lon="4.80693">
        <ele>261.2</ele>
        <time>2019-08-25T09:59:40Z</time>
      </trkpt>
      <trkpt lat="46.3375" lon="4.80675">
        <ele>259.6</ele>
        <time>2019-08-25T09:59:42Z</time>
      </trkpt>
      <trkpt lat="46.33739" lon="4.80653">
        <ele>257.7</ele>
        <time>2019-08-25T09:59:44Z</time>
      </trkpt>
      <trkpt lat="46.33729" lon="4.80627">
        <ele>255.8</ele>
        <time>2019-08-25T09:59:46Z</time>
      </trkpt>
      <trkpt lat="46.33724" lon="4.80612">
        <ele>255.2</ele>
        <time>2019-08-25T09:59:47Z</time>
      </trkpt>
      <trkpt lat="46.33713" lon="4.80582">
        <ele>254.8</ele>
        <time>2019-08-25T09:59:49Z</time>
      </trkpt>
      <trkpt lat="46.33709" lon="4.80566">
        <ele>254.7</ele>
        <time>2019-08-25T09:59:50Z</time>
      </trkpt>
      <trkpt lat="46.33707" lon="4.80549">
        <ele>254.7</ele>
        <time>2019-08-25T09:59:51Z</time>
      </trkpt>
      <trkpt lat="46.33705" lon="4.80519">
        <ele>254.8</ele>
        <time>2019-08-25T09:59:53Z</time>
      </trkpt>
      <trkpt lat="46.33699" lon="4.80493">
        <ele>255.2</ele>
        <time>2019-08-25T09:59:55Z</time>
      </trkpt>
      <trkpt lat="46.33694" lon="4.80482">
        <ele>255.6</ele>
        <time>2019-08-25T09:59:56Z</time>
      </trkpt>
      <trkpt lat="46.33689" lon="4.80471">
        <ele>256</ele>
        <time>2019-08-25T09:59:57Z</time>
      </trkpt>
      <trkpt lat="46.33684" lon="4.80462">
        <ele>256.4</ele>
        <time>2019-08-25T09:59:58Z</time>
      </trkpt>
      <trkpt lat="46.33681" lon="4.80452">
        <ele>256.7</ele>
        <time>2019-08-25T09:59:59Z</time>
      </trkpt>
      <trkpt lat="46.33678" lon="4.80443">
        <ele>256.9</ele>
        <time>2019-08-25T10:00:00Z</time>
      </trkpt>
      <trkpt lat="46.33674" lon="4.80411">
        <ele>257.7</ele>
        <time>2019-08-25T10:00:04Z</time>
      </trkpt>
      <trkpt lat="46.33672" lon="4.80398">
        <ele>258.1</ele>
        <time>2019-08-25T10:00:06Z</time>
      </trkpt>
      <trkpt lat="46.33668" lon="4.80376">
        <ele>258.7</ele>
        <time>2019-08-25T10:00:10Z</time>
      </trkpt>
      <trkpt lat="46.3366" lon="4.80363">
        <ele>258.9</ele>
        <time>2019-08-25T10:00:14Z</time>
      </trkpt>
      <trkpt lat="46.33649" lon="4.80363">
        <ele>258.7</ele>
        <time>2019-08-25T10:00:17Z</time>
      </trkpt>
      <trkpt lat="46.33645" lon="4.80365">
        <ele>258.7</ele>
        <time>2019-08-25T10:00:18Z</time>
      </trkpt>
      <trkpt lat="46.33616" lon="4.80374">
        <ele>258.1</ele>
        <time>2019-08-25T10:00:24Z</time>
      </trkpt>
      <trkpt lat="46.33579" lon="4.80382">
        <ele>256.9</ele>
        <time>2019-08-25T10:00:31Z</time>
      </trkpt>
      <trkpt lat="46.33568" lon="4.80386">
        <ele>256.6</ele>
        <time>2019-08-25T10:00:33Z</time>
      </trkpt>
      <trkpt lat="46.33545" lon="4.80393">
        <ele>255.6</ele>
        <time>2019-08-25T10:00:37Z</time>
      </trkpt>
      <trkpt lat="46.33528" lon="4.804">
        <ele>254.7</ele>
        <time>2019-08-25T10:00:40Z</time>
      </trkpt>
      <trkpt lat="46.33522" lon="4.80401">
        <ele>254.4</ele>
        <time>2019-08-25T10:00:41Z</time>
      </trkpt>
      <trkpt lat="46.33491" lon="4.80406">
        <ele>253.2</ele>
        <time>2019-08-25T10:00:46Z</time>
      </trkpt>
      <trkpt lat="46.33464" lon="4.80409">
        <ele>252.2</ele>
        <time>2019-08-25T10:00:50Z</time>
      </trkpt>
      <trkpt lat="46.33445" lon="4.80416">
        <ele>251.6</ele>
        <time>2019-08-25T10:00:53Z</time>
      </trkpt>
      <trkpt lat="46.33427" lon="4.80425">
        <ele>251.1</ele>
        <time>2019-08-25T10:00:56Z</time>
      </trkpt>
      <trkpt lat="46.33414" lon="4.80427">
        <ele>250.7</ele>
        <time>2019-08-25T10:00:58Z</time>
      </trkpt>
      <trkpt lat="46.334" lon="4.80429">
        <ele>250.2</ele>
        <time>2019-08-25T10:01:00Z</time>
      </trkpt>
      <trkpt lat="46.33387" lon="4.80434">
        <ele>249.7</ele>
        <time>2019-08-25T10:01:02Z</time>
      </trkpt>
      <trkpt lat="46.3338" lon="4.80438">
        <ele>249.4</ele>
        <time>2019-08-25T10:01:03Z</time>
      </trkpt>
      <trkpt lat="46.33367" lon="4.80447">
        <ele>248.8</ele>
        <time>2019-08-25T10:01:05Z</time>
      </trkpt>
      <trkpt lat="46.33347" lon="4.80459">
        <ele>247.8</ele>
        <time>2019-08-25T10:01:08Z</time>
      </trkpt>
      <trkpt lat="46.33334" lon="4.80468">
        <ele>247.2</ele>
        <time>2019-08-25T10:01:10Z</time>
      </trkpt>
      <trkpt lat="46.33328" lon="4.80472">
        <ele>246.9</ele>
        <time>2019-08-25T10:01:11Z</time>
      </trkpt>
      <trkpt lat="46.33307" lon="4.80481">
        <ele>246</ele>
        <time>2019-08-25T10:01:14Z</time>
      </trkpt>
      <trkpt lat="46.33293" lon="4.80487">
        <ele>245.3</ele>
        <time>2019-08-25T10:01:16Z</time>
      </trkpt>
      <trkpt lat="46.33279" lon="4.80492">
        <ele>244.8</ele>
        <time>2019-08-25T10:01:18Z</time>
      </trkpt>
      <trkpt lat="46.33273" lon="4.80493">
        <ele>244.6</ele>
        <time>2019-08-25T10:01:19Z</time>
      </trkpt>
      <trkpt lat="46.33259" lon="4.80493">
        <ele>244.1</ele>
        <time>2019-08-25T10:01:21Z</time>
      </trkpt>
      <trkpt lat="46.33252" lon="4.80493">
        <ele>243.7</ele>
        <time>2019-08-25T10:01:22Z</time>
      </trkpt>
      <trkpt lat="46.33238" lon="4.80493">
        <ele>243.2</ele>
        <time>2019-08-25T10:01:24Z</time>
      </trkpt>
      <trkpt lat="46.33219" lon="4.80494">
        <ele>242.5</ele>
        <time>2019-08-25T10:01:27Z</time>
      </trkpt>
      <trkpt lat="46.33208" lon="4.80483">
        <ele>241.9</ele>
        <time>2019-08-25T10:01:30Z</time>
      </trkpt>
      <trkpt lat="46.33209" lon="4.80472">
        <ele>241.9</ele>
        <time>2019-08-25T10:01:32Z</time>
      </trkpt>
      <trkpt lat="46.3321" lon="4.80467">
        <ele>242</ele>
        <time>2019-08-25T10:01:33Z</time>
      </trkpt>
      <trkpt lat="46.33212" lon="4.80451">
        <ele>242.7</ele>
        <time>2019-08-25T10:01:38Z</time>
      </trkpt>
      <trkpt lat="46.33212" lon="4.80448">
        <ele>242.9</ele>
        <time>2019-08-25T10:01:39Z</time>
      </trkpt>
      <trkpt lat="46.33213" lon="4.80441">
        <ele>243.4</ele>
        <time>2019-08-25T10:01:42Z</time>
      </trkpt>
      <trkpt lat="46.33213" lon="4.80432">
        <ele>244</ele>
        <time>2019-08-25T10:01:45Z</time>
      </trkpt>
      <trkpt lat="46.33213" lon="4.80423">
        <ele>244.6</ele>
        <time>2019-08-25T10:01:48Z</time>
      </trkpt>
      <trkpt lat="46.33213" lon="4.80404">
        <ele>245.7</ele>
        <time>2019-08-25T10:01:53Z</time>
      </trkpt>
      <trkpt lat="46.3321" lon="4.80383">
        <ele>247</ele>
        <time>2019-08-25T10:02:00Z</time>
      </trkpt>
      <trkpt lat="46.33201" lon="4.80383">
        <ele>247.3</ele>
        <time>2019-08-25T10:02:04Z</time>
      </trkpt>
      <trkpt lat="46.33198" lon="4.80383">
        <ele>247.4</ele>
        <time>2019-08-25T10:02:05Z</time>
      </trkpt>
      <trkpt lat="46.33181" lon="4.80384">
        <ele>247.9</ele>
        <time>2019-08-25T10:02:12Z</time>
      </trkpt>
      <trkpt lat="46.33165" lon="4.80385">
        <ele>248.3</ele>
        <time>2019-08-25T10:02:18Z</time>
      </trkpt>
      <trkpt lat="46.3316" lon="4.80386">
        <ele>248.4</ele>
        <time>2019-08-25T10:02:20Z</time>
      </trkpt>
      <trkpt lat="46.3314" lon="4.80384">
        <ele>248.8</ele>
        <time>2019-08-25T10:02:27Z</time>
      </trkpt>
      <trkpt lat="46.33123" lon="4.80383">
        <ele>248.8</ele>
        <time>2019-08-25T10:02:33Z</time>
      </trkpt>
      <trkpt lat="46.33107" lon="4.80378">
        <ele>248.6</ele>
        <time>2019-08-25T10:02:38Z</time>
      </trkpt>
      <trkpt lat="46.33085" lon="4.80382">
        <ele>247.7</ele>
        <time>2019-08-25T10:02:43Z</time>
      </trkpt>
      <trkpt lat="46.33067" lon="4.80379">
        <ele>246.5</ele>
        <time>2019-08-25T10:02:46Z</time>
      </trkpt>
      <trkpt lat="46.33061" lon="4.80377">
        <ele>246.1</ele>
        <time>2019-08-25T10:02:47Z</time>
      </trkpt>
      <trkpt lat="46.33039" lon="4.80366">
        <ele>244.4</ele>
        <time>2019-08-25T10:02:50Z</time>
      </trkpt>
      <trkpt lat="46.33031" lon="4.80363">
        <ele>243.7</ele>
        <time>2019-08-25T10:02:51Z</time>
      </trkpt>
      <trkpt lat="46.33023" lon="4.80361">
        <ele>242.9</ele>
        <time>2019-08-25T10:02:52Z</time>
      </trkpt>
      <trkpt lat="46.32996" lon="4.80353">
        <ele>240.3</ele>
        <time>2019-08-25T10:02:55Z</time>
      </trkpt>
      <trkpt lat="46.32986" lon="4.80351">
        <ele>239.9</ele>
        <time>2019-08-25T10:02:56Z</time>
      </trkpt>
      <trkpt lat="46.32961" lon="4.8036">
        <ele>239.5</ele>
        <time>2019-08-25T10:02:59Z</time>
      </trkpt>
      <trkpt lat="46.32944" lon="4.80367">
        <ele>239.8</ele>
        <time>2019-08-25T10:03:02Z</time>
      </trkpt>
      <trkpt lat="46.32928" lon="4.80366">
        <ele>240.3</ele>
        <time>2019-08-25T10:03:06Z</time>
      </trkpt>
      <trkpt lat="46.32925" lon="4.80365">
        <ele>240.3</ele>
        <time>2019-08-25T10:03:07Z</time>
      </trkpt>
      <trkpt lat="46.32908" lon="4.80359">
        <ele>240.5</ele>
        <time>2019-08-25T10:03:13Z</time>
      </trkpt>
      <trkpt lat="46.32896" lon="4.80351">
        <ele>240.8</ele>
        <time>2019-08-25T10:03:19Z</time>
      </trkpt>
      <trkpt lat="46.32891" lon="4.80348">
        <ele>240.9</ele>
        <time>2019-08-25T10:03:21Z</time>
      </trkpt>
      <trkpt lat="46.32877" lon="4.80341">
        <ele>241.5</ele>
        <time>2019-08-25T10:03:26Z</time>
      </trkpt>
      <trkpt lat="46.32859" lon="4.80326">
        <ele>242.6</ele>
        <time>2019-08-25T10:03:33Z</time>
      </trkpt>
      <trkpt lat="46.32853" lon="4.8032">
        <ele>242.9</ele>
        <time>2019-08-25T10:03:36Z</time>
      </trkpt>
      <trkpt lat="46.32847" lon="4.80314">
        <ele>243.5</ele>
        <time>2019-08-25T10:03:38Z</time>
      </trkpt>
      <trkpt lat="46.32825" lon="4.80301">
        <ele>245</ele>
        <time>2019-08-25T10:03:45Z</time>
      </trkpt>
      <trkpt lat="46.32798" lon="4.80281">
        <ele>245.9</ele>
        <time>2019-08-25T10:03:54Z</time>
      </trkpt>
      <trkpt lat="46.32772" lon="4.80263">
        <ele>246.4</ele>
        <time>2019-08-25T10:04:02Z</time>
      </trkpt>
      <trkpt lat="46.32753" lon="4.80255">
        <ele>246.6</ele>
        <time>2019-08-25T10:04:08Z</time>
      </trkpt>
      <trkpt lat="46.32736" lon="4.80249">
        <ele>246.8</ele>
        <time>2019-08-25T10:04:13Z</time>
      </trkpt>
      <trkpt lat="46.32733" lon="4.80247">
        <ele>246.9</ele>
        <time>2019-08-25T10:04:14Z</time>
      </trkpt>
      <trkpt lat="46.32712" lon="4.80241">
        <ele>247</ele>
        <time>2019-08-25T10:04:20Z</time>
      </trkpt>
      <trkpt lat="46.32682" lon="4.80238">
        <ele>247.1</ele>
        <time>2019-08-25T10:04:28Z</time>
      </trkpt>
      <trkpt lat="46.32659" lon="4.80235">
        <ele>247.1</ele>
        <time>2019-08-25T10:04:34Z</time>
      </trkpt>
      <trkpt lat="46.32649" lon="4.80234">
        <ele>247.2</ele>
        <time>2019-08-25T10:04:37Z</time>
      </trkpt>
      <trkpt lat="46.32637" lon="4.80234">
        <ele>247.2</ele>
        <time>2019-08-25T10:04:40Z</time>
      </trkpt>
      <trkpt lat="46.32611" lon="4.80231">
        <ele>247.2</ele>
        <time>2019-08-25T10:04:46Z</time>
      </trkpt>
      <trkpt lat="46.32607" lon="4.80231">
        <ele>247.3</ele>
        <time>2019-08-25T10:04:47Z</time>
      </trkpt>
      <trkpt lat="46.32592" lon="4.80228">
        <ele>247.3</ele>
        <time>2019-08-25T10:04:51Z</time>
      </trkpt>
      <trkpt lat="46.3258" lon="4.80228">
        <ele>247.3</ele>
        <time>2019-08-25T10:04:54Z</time>
      </trkpt>
      <trkpt lat="46.32537" lon="4.80223">
        <ele>247.5</ele>
        <time>2019-08-25T10:05:04Z</time>
      </trkpt>
      <trkpt lat="46.32523" lon="4.8022">
        <ele>247.5</ele>
        <time>2019-08-25T10:05:07Z</time>
      </trkpt>
      <trkpt lat="46.32507" lon="4.80213">
        <ele>247.7</ele>
        <time>2019-08-25T10:05:11Z</time>
      </trkpt>
      <trkpt lat="46.32503" lon="4.80211">
        <ele>247.8</ele>
        <time>2019-08-25T10:05:12Z</time>
      </trkpt>
      <trkpt lat="46.32482" lon="4.80202">
        <ele>248.2</ele>
        <time>2019-08-25T10:05:18Z</time>
      </trkpt>
      <trkpt lat="46.32464" lon="4.80199">
        <ele>248.6</ele>
        <time>2019-08-25T10:05:24Z</time>
      </trkpt>
      <trkpt lat="46.32454" lon="4.80199">
        <ele>248.9</ele>
        <time>2019-08-25T10:05:27Z</time>
      </trkpt>
      <trkpt lat="46.32443" lon="4.80198">
        <ele>249.2</ele>
        <time>2019-08-25T10:05:31Z</time>
      </trkpt>
      <trkpt lat="46.32421" lon="4.80192">
        <ele>249.7</ele>
        <time>2019-08-25T10:05:39Z</time>
      </trkpt>
      <trkpt lat="46.32419" lon="4.80191">
        <ele>249.7</ele>
        <time>2019-08-25T10:05:40Z</time>
      </trkpt>
      <trkpt lat="46.32399" lon="4.80184">
        <ele>249.8</ele>
        <time>2019-08-25T10:05:47Z</time>
      </trkpt>
      <trkpt lat="46.32385" lon="4.80177">
        <ele>249.8</ele>
        <time>2019-08-25T10:05:52Z</time>
      </trkpt>
      <trkpt lat="46.32373" lon="4.80171">
        <ele>249.7</ele>
        <time>2019-08-25T10:05:56Z</time>
      </trkpt>
      <trkpt lat="46.32351" lon="4.80164">
        <ele>249.4</ele>
        <time>2019-08-25T10:06:02Z</time>
      </trkpt>
      <trkpt lat="46.32312" lon="4.80157">
        <ele>248.4</ele>
        <time>2019-08-25T10:06:11Z</time>
      </trkpt>
      <trkpt lat="46.32275" lon="4.80152">
        <ele>247.3</ele>
        <time>2019-08-25T10:06:19Z</time>
      </trkpt>
      <trkpt lat="46.3227" lon="4.80152">
        <ele>247.2</ele>
        <time>2019-08-25T10:06:20Z</time>
      </trkpt>
      <trkpt lat="46.32254" lon="4.80148">
        <ele>246.8</ele>
        <time>2019-08-25T10:06:23Z</time>
      </trkpt>
      <trkpt lat="46.32236" lon="4.80141">
        <ele>246.6</ele>
        <time>2019-08-25T10:06:26Z</time>
      </trkpt>
      <trkpt lat="46.32221" lon="4.80131">
        <ele>246.6</ele>
        <time>2019-08-25T10:06:29Z</time>
      </trkpt>
      <trkpt lat="46.32214" lon="4.8012">
        <ele>246.6</ele>
        <time>2019-08-25T10:06:31Z</time>
      </trkpt>
      <trkpt lat="46.32203" lon="4.80097">
        <ele>246.6</ele>
        <time>2019-08-25T10:06:35Z</time>
      </trkpt>
      <trkpt lat="46.32196" lon="4.80079">
        <ele>246.6</ele>
        <time>2019-08-25T10:06:38Z</time>
      </trkpt>
      <trkpt lat="46.32179" lon="4.8004">
        <ele>246.6</ele>
        <time>2019-08-25T10:06:45Z</time>
      </trkpt>
      <trkpt lat="46.32161" lon="4.80003">
        <ele>246.6</ele>
        <time>2019-08-25T10:06:53Z</time>
      </trkpt>
      <trkpt lat="46.32152" lon="4.79992">
        <ele>246.5</ele>
        <time>2019-08-25T10:06:56Z</time>
      </trkpt>
      <trkpt lat="46.32148" lon="4.79993">
        <ele>246.4</ele>
        <time>2019-08-25T10:06:57Z</time>
      </trkpt>
      <trkpt lat="46.32138" lon="4.80007">
        <ele>245</ele>
        <time>2019-08-25T10:07:00Z</time>
      </trkpt>
      <trkpt lat="46.32134" lon="4.80014">
        <ele>244.4</ele>
        <time>2019-08-25T10:07:01Z</time>
      </trkpt>
      <trkpt lat="46.32122" lon="4.80035">
        <ele>242.9</ele>
        <time>2019-08-25T10:07:04Z</time>
      </trkpt>
      <trkpt lat="46.32118" lon="4.80042">
        <ele>242.4</ele>
        <time>2019-08-25T10:07:05Z</time>
      </trkpt>
      <trkpt lat="46.32108" lon="4.80054">
        <ele>241.6</ele>
        <time>2019-08-25T10:07:07Z</time>
      </trkpt>
      <trkpt lat="46.32098" lon="4.80066">
        <ele>240.9</ele>
        <time>2019-08-25T10:07:09Z</time>
      </trkpt>
      <trkpt lat="46.32093" lon="4.80072">
        <ele>240.5</ele>
        <time>2019-08-25T10:07:10Z</time>
      </trkpt>
      <trkpt lat="46.32067" lon="4.80102">
        <ele>238.1</ele>
        <time>2019-08-25T10:07:15Z</time>
      </trkpt>
      <trkpt lat="46.32045" lon="4.80128">
        <ele>236.6</ele>
        <time>2019-08-25T10:07:19Z</time>
      </trkpt>
      <trkpt lat="46.32033" lon="4.80142">
        <ele>236.4</ele>
        <time>2019-08-25T10:07:21Z</time>
      </trkpt>
      <trkpt lat="46.3201" lon="4.80168">
        <ele>236.1</ele>
        <time>2019-08-25T10:07:25Z</time>
      </trkpt>
      <trkpt lat="46.32004" lon="4.80174">
        <ele>236</ele>
        <time>2019-08-25T10:07:26Z</time>
      </trkpt>
      <trkpt lat="46.31993" lon="4.80183">
        <ele>235.9</ele>
        <time>2019-08-25T10:07:28Z</time>
      </trkpt>
      <trkpt lat="46.31989" lon="4.80185">
        <ele>235.8</ele>
        <time>2019-08-25T10:07:29Z</time>
      </trkpt>
      <trkpt lat="46.31985" lon="4.80184">
        <ele>235.7</ele>
        <time>2019-08-25T10:07:30Z</time>
      </trkpt>
      <trkpt lat="46.31981" lon="4.80178">
        <ele>235.8</ele>
        <time>2019-08-25T10:07:32Z</time>
      </trkpt>
      <trkpt lat="46.31984" lon="4.80169">
        <ele>235.9</ele>
        <time>2019-08-25T10:07:35Z</time>
      </trkpt>
      <trkpt lat="46.31988" lon="4.80166">
        <ele>235.9</ele>
        <time>2019-08-25T10:07:37Z</time>
      </trkpt>
      <trkpt lat="46.31997" lon="4.80158">
        <ele>236.1</ele>
        <time>2019-08-25T10:07:40Z</time>
      </trkpt>
      <trkpt lat="46.32016" lon="4.80135">
        <ele>236.2</ele>
        <time>2019-08-25T10:07:47Z</time>
      </trkpt>
      <trkpt lat="46.32016" lon="4.80125">
        <ele>236.2</ele>
        <time>2019-08-25T10:07:49Z</time>
      </trkpt>
      <trkpt lat="46.32014" lon="4.80121">
        <ele>236.1</ele>
        <time>2019-08-25T10:07:50Z</time>
      </trkpt>
      <trkpt lat="46.32005" lon="4.80113">
        <ele>235.9</ele>
        <time>2019-08-25T10:07:53Z</time>
      </trkpt>
      <trkpt lat="46.32001" lon="4.80111">
        <ele>235.9</ele>
        <time>2019-08-25T10:07:54Z</time>
      </trkpt>
      <trkpt lat="46.31969" lon="4.80089">
        <ele>235.3</ele>
        <time>2019-08-25T10:08:01Z</time>
      </trkpt>
      <trkpt lat="46.31931" lon="4.8006">
        <ele>234.7</ele>
        <time>2019-08-25T10:08:09Z</time>
      </trkpt>
      <trkpt lat="46.31898" lon="4.80038">
        <ele>234.5</ele>
        <time>2019-08-25T10:08:16Z</time>
      </trkpt>
      <trkpt lat="46.31862" lon="4.80012">
        <ele>234.2</ele>
        <time>2019-08-25T10:08:24Z</time>
      </trkpt>
      <trkpt lat="46.31826" lon="4.79981">
        <ele>234.2</ele>
        <time>2019-08-25T10:08:32Z</time>
      </trkpt>
      <trkpt lat="46.31796" lon="4.79957">
        <ele>234.2</ele>
        <time>2019-08-25T10:08:39Z</time>
      </trkpt>
      <trkpt lat="46.31774" lon="4.79939">
        <ele>234.5</ele>
        <time>2019-08-25T10:08:45Z</time>
      </trkpt>
      <trkpt lat="46.31771" lon="4.79936">
        <ele>234.6</ele>
        <time>2019-08-25T10:08:46Z</time>
      </trkpt>
      <trkpt lat="46.3175" lon="4.79915">
        <ele>234.8</ele>
        <time>2019-08-25T10:08:53Z</time>
      </trkpt>
      <trkpt lat="46.31741" lon="4.79906">
        <ele>234.8</ele>
        <time>2019-08-25T10:08:56Z</time>
      </trkpt>
      <trkpt lat="46.31731" lon="4.79897">
        <ele>234.9</ele>
        <time>2019-08-25T10:08:59Z</time>
      </trkpt>
      <trkpt lat="46.31715" lon="4.79878">
        <ele>234.8</ele>
        <time>2019-08-25T10:09:05Z</time>
      </trkpt>
      <trkpt lat="46.31701" lon="4.79862">
        <ele>234.3</ele>
        <time>2019-08-25T10:09:11Z</time>
      </trkpt>
      <trkpt lat="46.31685" lon="4.79849">
        <ele>234.9</ele>
        <time>2019-08-25T10:09:16Z</time>
      </trkpt>
      <trkpt lat="46.31654" lon="4.7983">
        <ele>236.8</ele>
        <time>2019-08-25T10:09:26Z</time>
      </trkpt>
      <trkpt lat="46.31634" lon="4.79818">
        <ele>237.3</ele>
        <time>2019-08-25T10:09:33Z</time>
      </trkpt>
      <trkpt lat="46.31618" lon="4.79806">
        <ele>237.3</ele>
        <time>2019-08-25T10:09:38Z</time>
      </trkpt>
      <trkpt lat="46.31591" lon="4.79788">
        <ele>237.3</ele>
        <time>2019-08-25T10:09:45Z</time>
      </trkpt>
      <trkpt lat="46.31558" lon="4.79765">
        <ele>237.5</ele>
        <time>2019-08-25T10:09:52Z</time>
      </trkpt>
      <trkpt lat="46.31528" lon="4.79745">
        <ele>237.6</ele>
        <time>2019-08-25T10:09:58Z</time>
      </trkpt>
      <trkpt lat="46.31518" lon="4.79739">
        <ele>237.6</ele>
        <time>2019-08-25T10:10:00Z</time>
      </trkpt>
      <trkpt lat="46.31486" lon="4.79721">
        <ele>237.3</ele>
        <time>2019-08-25T10:10:06Z</time>
      </trkpt>
      <trkpt lat="46.3147" lon="4.79712">
        <ele>237.1</ele>
        <time>2019-08-25T10:10:09Z</time>
      </trkpt>
      <trkpt lat="46.31447" lon="4.79703">
        <ele>237.1</ele>
        <time>2019-08-25T10:10:13Z</time>
      </trkpt>
      <trkpt lat="46.3143" lon="4.79696">
        <ele>237.2</ele>
        <time>2019-08-25T10:10:16Z</time>
      </trkpt>
      <trkpt lat="46.31384" lon="4.79678">
        <ele>236.6</ele>
        <time>2019-08-25T10:10:24Z</time>
      </trkpt>
      <trkpt lat="46.31359" lon="4.79661">
        <ele>236.3</ele>
        <time>2019-08-25T10:10:29Z</time>
      </trkpt>
      <trkpt lat="46.31355" lon="4.79657">
        <ele>236.2</ele>
        <time>2019-08-25T10:10:30Z</time>
      </trkpt>
      <trkpt lat="46.31349" lon="4.79654">
        <ele>236.2</ele>
        <time>2019-08-25T10:10:32Z</time>
      </trkpt>
      <trkpt lat="46.31345" lon="4.79655">
        <ele>236.1</ele>
        <time>2019-08-25T10:10:33Z</time>
      </trkpt>
      <trkpt lat="46.31334" lon="4.79673">
        <ele>234.4</ele>
        <time>2019-08-25T10:10:37Z</time>
      </trkpt>
      <trkpt lat="46.31331" lon="4.79678">
        <ele>234.1</ele>
        <time>2019-08-25T10:10:38Z</time>
      </trkpt>
      <trkpt lat="46.31318" lon="4.79687">
        <ele>233.4</ele>
        <time>2019-08-25T10:10:41Z</time>
      </trkpt>
      <trkpt lat="46.31301" lon="4.7969">
        <ele>233</ele>
        <time>2019-08-25T10:10:44Z</time>
      </trkpt>
      <trkpt lat="46.31284" lon="4.79691">
        <ele>232.6</ele>
        <time>2019-08-25T10:10:47Z</time>
      </trkpt>
      <trkpt lat="46.31243" lon="4.79697">
        <ele>232.3</ele>
        <time>2019-08-25T10:10:54Z</time>
      </trkpt>
      <trkpt lat="46.31215" lon="4.79697">
        <ele>232.2</ele>
        <time>2019-08-25T10:10:59Z</time>
      </trkpt>
      <trkpt lat="46.31204" lon="4.797">
        <ele>232.1</ele>
        <time>2019-08-25T10:11:01Z</time>
      </trkpt>
      <trkpt lat="46.31193" lon="4.79704">
        <ele>231.9</ele>
        <time>2019-08-25T10:11:03Z</time>
      </trkpt>
      <trkpt lat="46.31171" lon="4.79708">
        <ele>231.7</ele>
        <time>2019-08-25T10:11:07Z</time>
      </trkpt>
      <trkpt lat="46.31122" lon="4.79713">
        <ele>231.4</ele>
        <time>2019-08-25T10:11:15Z</time>
      </trkpt>
      <trkpt lat="46.31078" lon="4.79716">
        <ele>230.4</ele>
        <time>2019-08-25T10:11:22Z</time>
      </trkpt>
      <trkpt lat="46.31064" lon="4.79717">
        <ele>230.1</ele>
        <time>2019-08-25T10:11:24Z</time>
      </trkpt>
      <trkpt lat="46.3103" lon="4.79721">
        <ele>229.2</ele>
        <time>2019-08-25T10:11:29Z</time>
      </trkpt>
      <trkpt lat="46.31016" lon="4.79722">
        <ele>228.7</ele>
        <time>2019-08-25T10:11:31Z</time>
      </trkpt>
      <trkpt lat="46.31011" lon="4.79722">
        <ele>228.6</ele>
        <time>2019-08-25T10:11:32Z</time>
      </trkpt>
      <trkpt lat="46.31" lon="4.79717">
        <ele>228.4</ele>
        <time>2019-08-25T10:11:34Z</time>
      </trkpt>
      <trkpt lat="46.30996" lon="4.79717">
        <ele>228.3</ele>
        <time>2019-08-25T10:11:35Z</time>
      </trkpt>
      <trkpt lat="46.30988" lon="4.79722">
        <ele>228.1</ele>
        <time>2019-08-25T10:11:37Z</time>
      </trkpt>
      <trkpt lat="46.30986" lon="4.79722">
        <ele>228.1</ele>
        <time>2019-08-25T10:11:38Z</time>
      </trkpt>
      <trkpt lat="46.30983" lon="4.79717">
        <ele>228.1</ele>
        <time>2019-08-25T10:11:40Z</time>
      </trkpt>
      <trkpt lat="46.30987" lon="4.79707">
        <ele>228.6</ele>
        <time>2019-08-25T10:11:43Z</time>
      </trkpt>
      <trkpt lat="46.30989" lon="4.7969">
        <ele>229.3</ele>
        <time>2019-08-25T10:11:47Z</time>
      </trkpt>
      <trkpt lat="46.30987" lon="4.79661">
        <ele>230.4</ele>
        <time>2019-08-25T10:11:54Z</time>
      </trkpt>
      <trkpt lat="46.30991" lon="4.7964">
        <ele>231.2</ele>
        <time>2019-08-25T10:11:59Z</time>
      </trkpt>
      <trkpt lat="46.30993" lon="4.79636">
        <ele>231.3</ele>
        <time>2019-08-25T10:12:00Z</time>
      </trkpt>
      <trkpt lat="46.30998" lon="4.7962">
        <ele>231.7</ele>
        <time>2019-08-25T10:12:04Z</time>
      </trkpt>
      <trkpt lat="46.31" lon="4.7961">
        <ele>232</ele>
        <time>2019-08-25T10:12:07Z</time>
      </trkpt>
      <trkpt lat="46.31004" lon="4.79587">
        <ele>232.4</ele>
        <time>2019-08-25T10:12:13Z</time>
      </trkpt>
      <trkpt lat="46.3101" lon="4.79578">
        <ele>232.5</ele>
        <time>2019-08-25T10:12:17Z</time>
      </trkpt>
      <trkpt lat="46.31014" lon="4.7957">
        <ele>232.6</ele>
        <time>2019-08-25T10:12:20Z</time>
      </trkpt>
      <trkpt lat="46.31014" lon="4.79567">
        <ele>232.6</ele>
        <time>2019-08-25T10:12:21Z</time>
      </trkpt>
      <trkpt lat="46.31011" lon="4.79562">
        <ele>232.7</ele>
        <time>2019-08-25T10:12:24Z</time>
      </trkpt>
      <trkpt lat="46.3101" lon="4.79556">
        <ele>232.9</ele>
        <time>2019-08-25T10:12:26Z</time>
      </trkpt>
      <trkpt lat="46.31009" lon="4.79553">
        <ele>232.9</ele>
        <time>2019-08-25T10:12:27Z</time>
      </trkpt>
      <trkpt lat="46.31005" lon="4.7954">
        <ele>232.9</ele>
        <time>2019-08-25T10:12:31Z</time>
      </trkpt>
      <trkpt lat="46.30992" lon="4.79523">
        <ele>232.7</ele>
        <time>2019-08-25T10:12:37Z</time>
      </trkpt>
      <trkpt lat="46.3097" lon="4.79516">
        <ele>232.2</ele>
        <time>2019-08-25T10:12:43Z</time>
      </trkpt>
      <trkpt lat="46.30961" lon="4.79519">
        <ele>231.9</ele>
        <time>2019-08-25T10:12:45Z</time>
      </trkpt>
      <trkpt lat="46.30958" lon="4.79524">
        <ele>231.6</ele>
        <time>2019-08-25T10:12:46Z</time>
      </trkpt>
      <trkpt lat="46.30952" lon="4.79546">
        <ele>231</ele>
        <time>2019-08-25T10:12:49Z</time>
      </trkpt>
      <trkpt lat="46.3095" lon="4.79553">
        <ele>230.8</ele>
        <time>2019-08-25T10:12:50Z</time>
      </trkpt>
      <trkpt lat="46.30946" lon="4.79576">
        <ele>230.3</ele>
        <time>2019-08-25T10:12:53Z</time>
      </trkpt>
      <trkpt lat="46.30942" lon="4.79606">
        <ele>229.6</ele>
        <time>2019-08-25T10:12:57Z</time>
      </trkpt>
      <trkpt lat="46.30939" lon="4.79645">
        <ele>228.2</ele>
        <time>2019-08-25T10:13:02Z</time>
      </trkpt>
      <trkpt lat="46.30938" lon="4.79653">
        <ele>227.9</ele>
        <time>2019-08-25T10:13:03Z</time>
      </trkpt>
      <trkpt lat="46.30931" lon="4.79687">
        <ele>226.8</ele>
        <time>2019-08-25T10:13:07Z</time>
      </trkpt>
      <trkpt lat="46.30929" lon="4.79703">
        <ele>226.4</ele>
        <time>2019-08-25T10:13:09Z</time>
      </trkpt>
      <trkpt lat="46.30923" lon="4.79744">
        <ele>225.3</ele>
        <time>2019-08-25T10:13:15Z</time>
      </trkpt>
      <trkpt lat="46.30921" lon="4.7975">
        <ele>225.1</ele>
        <time>2019-08-25T10:13:16Z</time>
      </trkpt>
      <trkpt lat="46.30917" lon="4.79762">
        <ele>224.7</ele>
        <time>2019-08-25T10:13:18Z</time>
      </trkpt>
      <trkpt lat="46.30916" lon="4.79769">
        <ele>224.5</ele>
        <time>2019-08-25T10:13:19Z</time>
      </trkpt>
      <trkpt lat="46.30916" lon="4.79801">
        <ele>223.6</ele>
        <time>2019-08-25T10:13:23Z</time>
      </trkpt>
      <trkpt lat="46.30913" lon="4.79821">
        <ele>222.8</ele>
        <time>2019-08-25T10:13:25Z</time>
      </trkpt>
      <trkpt lat="46.30911" lon="4.79831">
        <ele>222.5</ele>
        <time>2019-08-25T10:13:26Z</time>
      </trkpt>
      <trkpt lat="46.30909" lon="4.79853">
        <ele>221.9</ele>
        <time>2019-08-25T10:13:28Z</time>
      </trkpt>
      <trkpt lat="46.30907" lon="4.79864">
        <ele>221.7</ele>
        <time>2019-08-25T10:13:29Z</time>
      </trkpt>
      <trkpt lat="46.30902" lon="4.79898">
        <ele>221</ele>
        <time>2019-08-25T10:13:32Z</time>
      </trkpt>
      <trkpt lat="46.30897" lon="4.79931">
        <ele>220.3</ele>
        <time>2019-08-25T10:13:35Z</time>
      </trkpt>
      <trkpt lat="46.30892" lon="4.79957">
        <ele>219.7</ele>
        <time>2019-08-25T10:13:38Z</time>
      </trkpt>
      <trkpt lat="46.3089" lon="4.79971">
        <ele>219.3</ele>
        <time>2019-08-25T10:13:40Z</time>
      </trkpt>
      <trkpt lat="46.3089" lon="4.79977">
        <ele>219.1</ele>
        <time>2019-08-25T10:13:41Z</time>
      </trkpt>
      <trkpt lat="46.30888" lon="4.79983">
        <ele>219</ele>
        <time>2019-08-25T10:13:42Z</time>
      </trkpt>
      <trkpt lat="46.30881" lon="4.7999">
        <ele>218.8</ele>
        <time>2019-08-25T10:13:44Z</time>
      </trkpt>
      <trkpt lat="46.30877" lon="4.79991">
        <ele>218.7</ele>
        <time>2019-08-25T10:13:45Z</time>
      </trkpt>
      <trkpt lat="46.30869" lon="4.79996">
        <ele>218.6</ele>
        <time>2019-08-25T10:13:47Z</time>
      </trkpt>
      <trkpt lat="46.30862" lon="4.80004">
        <ele>218.5</ele>
        <time>2019-08-25T10:13:49Z</time>
      </trkpt>
      <trkpt lat="46.3086" lon="4.80009">
        <ele>218.4</ele>
        <time>2019-08-25T10:13:50Z</time>
      </trkpt>
      <trkpt lat="46.30855" lon="4.80021">
        <ele>218.3</ele>
        <time>2019-08-25T10:13:52Z</time>
      </trkpt>
      <trkpt lat="46.30852" lon="4.80027">
        <ele>218.2</ele>
        <time>2019-08-25T10:13:53Z</time>
      </trkpt>
      <trkpt lat="46.3085" lon="4.80032">
        <ele>218.1</ele>
        <time>2019-08-25T10:13:54Z</time>
      </trkpt>
      <trkpt lat="46.30848" lon="4.80038">
        <ele>218.1</ele>
        <time>2019-08-25T10:13:55Z</time>
      </trkpt>
      <trkpt lat="46.30848" lon="4.80049">
        <ele>217.9</ele>
        <time>2019-08-25T10:13:57Z</time>
      </trkpt>
      <trkpt lat="46.30846" lon="4.80058">
        <ele>217.7</ele>
        <time>2019-08-25T10:13:59Z</time>
      </trkpt>
      <trkpt lat="46.30841" lon="4.80062">
        <ele>217.5</ele>
        <time>2019-08-25T10:14:01Z</time>
      </trkpt>
      <trkpt lat="46.30834" lon="4.80063">
        <ele>217.4</ele>
        <time>2019-08-25T10:14:03Z</time>
      </trkpt>
      <trkpt lat="46.30825" lon="4.80064">
        <ele>217.2</ele>
        <time>2019-08-25T10:14:05Z</time>
      </trkpt>
      <trkpt lat="46.3082" lon="4.80064">
        <ele>217.1</ele>
        <time>2019-08-25T10:14:06Z</time>
      </trkpt>
      <trkpt lat="46.30803" lon="4.80065">
        <ele>216.6</ele>
        <time>2019-08-25T10:14:09Z</time>
      </trkpt>
      <trkpt lat="46.30791" lon="4.80067">
        <ele>215.3</ele>
        <time>2019-08-25T10:14:11Z</time>
      </trkpt>
      <trkpt lat="46.30785" lon="4.80067">
        <ele>215</ele>
        <time>2019-08-25T10:14:12Z</time>
      </trkpt>
      <trkpt lat="46.30739" lon="4.80072">
        <ele>214.2</ele>
        <time>2019-08-25T10:14:20Z</time>
      </trkpt>
      <trkpt lat="46.30728" lon="4.80074">
        <ele>214.2</ele>
        <time>2019-08-25T10:14:22Z</time>
      </trkpt>
      <trkpt lat="46.30696" lon="4.80082">
        <ele>214.1</ele>
        <time>2019-08-25T10:14:28Z</time>
      </trkpt>
      <trkpt lat="46.30686" lon="4.80082">
        <ele>214</ele>
        <time>2019-08-25T10:14:30Z</time>
      </trkpt>
      <trkpt lat="46.30667" lon="4.80081">
        <ele>213.9</ele>
        <time>2019-08-25T10:14:34Z</time>
      </trkpt>
      <trkpt lat="46.30664" lon="4.80079">
        <ele>213.9</ele>
        <time>2019-08-25T10:14:35Z</time>
      </trkpt>
      <trkpt lat="46.3066" lon="4.80069">
        <ele>213.9</ele>
        <time>2019-08-25T10:14:37Z</time>
      </trkpt>
      <trkpt lat="46.30655" lon="4.80027">
        <ele>214.1</ele>
        <time>2019-08-25T10:14:43Z</time>
      </trkpt>
      <trkpt lat="46.30649" lon="4.79958">
        <ele>214.6</ele>
        <time>2019-08-25T10:14:52Z</time>
      </trkpt>
      <trkpt lat="46.3065" lon="4.79911">
        <ele>215.2</ele>
        <time>2019-08-25T10:14:59Z</time>
      </trkpt>
      <trkpt lat="46.30654" lon="4.79874">
        <ele>215.6</ele>
        <time>2019-08-25T10:15:05Z</time>
      </trkpt>
      <trkpt lat="46.30656" lon="4.79862">
        <ele>216.1</ele>
        <time>2019-08-25T10:15:07Z</time>
      </trkpt>
      <trkpt lat="46.30659" lon="4.7984">
        <ele>216.6</ele>
        <time>2019-08-25T10:15:11Z</time>
      </trkpt>
      <trkpt lat="46.30661" lon="4.79817">
        <ele>217.5</ele>
        <time>2019-08-25T10:15:15Z</time>
      </trkpt>
      <trkpt lat="46.30663" lon="4.79806">
        <ele>217.9</ele>
        <time>2019-08-25T10:15:17Z</time>
      </trkpt>
      <trkpt lat="46.30665" lon="4.79785">
        <ele>218.5</ele>
        <time>2019-08-25T10:15:21Z</time>
      </trkpt>
      <trkpt lat="46.30668" lon="4.79764">
        <ele>219</ele>
        <time>2019-08-25T10:15:25Z</time>
      </trkpt>
      <trkpt lat="46.30669" lon="4.79759">
        <ele>219.1</ele>
        <time>2019-08-25T10:15:26Z</time>
      </trkpt>
      <trkpt lat="46.30675" lon="4.79713">
        <ele>220.5</ele>
        <time>2019-08-25T10:15:35Z</time>
      </trkpt>
      <trkpt lat="46.30676" lon="4.79673">
        <ele>222</ele>
        <time>2019-08-25T10:15:43Z</time>
      </trkpt>
      <trkpt lat="46.30676" lon="4.79627">
        <ele>223.5</ele>
        <time>2019-08-25T10:15:52Z</time>
      </trkpt>
      <trkpt lat="46.30664" lon="4.79611">
        <ele>223.7</ele>
        <time>2019-08-25T10:15:56Z</time>
      </trkpt>
      <trkpt lat="46.30661" lon="4.79609">
        <ele>223.6</ele>
        <time>2019-08-25T10:15:57Z</time>
      </trkpt>
      <trkpt lat="46.30648" lon="4.796">
        <ele>223.5</ele>
        <time>2019-08-25T10:16:01Z</time>
      </trkpt>
      <trkpt lat="46.30647" lon="4.79596">
        <ele>223.6</ele>
        <time>2019-08-25T10:16:02Z</time>
      </trkpt>
      <trkpt lat="46.30647" lon="4.79593">
        <ele>223.7</ele>
        <time>2019-08-25T10:16:03Z</time>
      </trkpt>
      <trkpt lat="46.30647" lon="4.7959">
        <ele>223.8</ele>
        <time>2019-08-25T10:16:04Z</time>
      </trkpt>
      <trkpt lat="46.30643" lon="4.79579">
        <ele>223.8</ele>
        <time>2019-08-25T10:16:09Z</time>
      </trkpt>
      <trkpt lat="46.30637" lon="4.79578">
        <ele>223.7</ele>
        <time>2019-08-25T10:16:11Z</time>
      </trkpt>
      <trkpt lat="46.30631" lon="4.79577">
        <ele>223.5</ele>
        <time>2019-08-25T10:16:13Z</time>
      </trkpt>
      <trkpt lat="46.30623" lon="4.79578">
        <ele>223.4</ele>
        <time>2019-08-25T10:16:15Z</time>
      </trkpt>
      <trkpt lat="46.3062" lon="4.79582">
        <ele>223.1</ele>
        <time>2019-08-25T10:16:16Z</time>
      </trkpt>
      <trkpt lat="46.30612" lon="4.7959">
        <ele>222.9</ele>
        <time>2019-08-25T10:16:19Z</time>
      </trkpt>
      <trkpt lat="46.30605" lon="4.79583">
        <ele>222.9</ele>
        <time>2019-08-25T10:16:22Z</time>
      </trkpt>
      <trkpt lat="46.30603" lon="4.79576">
        <ele>222.8</ele>
        <time>2019-08-25T10:16:24Z</time>
      </trkpt>
    </trkseg>
  </trk>
</gpx>